GFSNGP_sfc_wetblb_000.txt.gz
Wetbulb
40.90 41.67 40.04 39.41 38.94 39.85 38.03 38.63 33.28 37.33 39.28 43.24 45.65 46.70 47.47 48.13 47.67 46.47 45.51 47.14 47.56 46.39 45.56 42.96 41.70 41.29 40.60 41.26 40.66 40.38 39.36 39.32 39.09 39.26 39.24 38.61 37.96 37.72 37.05 36.02 35.41 35.54 34.74 34.77
35.30 39.91 39.72 37.38 39.39 39.51 39.79 39.87 39.93 40.41 40.40 47.09 48.18 48.43 46.95 46.18 46.19 43.85 44.62 46.61 45.84 44.67 42.68 40.96 40.28 40.00 40.93 40.38 41.07 41.02 39.51 38.74 38.69 38.20 38.05 37.33 36.92 36.01 35.24 34.73 34.60 34.61 33.91 33.71
32.14 37.72 35.44 32.03 36.38 39.12 41.10 42.73 41.19 37.14 42.50 46.36 45.32 44.97 44.01 43.44 43.87 43.87 45.30 42.62 43.86 42.23 41.03 39.93 39.72 41.97 41.90 42.39 41.71 39.35 38.47 38.05 37.39 37.13 35.95 35.71 35.07 34.23 33.44 33.21 33.68 33.08 33.23 33.44
32.54 34.38 27.96 41.13 45.06 44.00 41.12 41.32 42.69 43.10 43.94 45.11 44.96 45.03 44.76 46.34 44.75 43.20 39.80 41.27 43.11 41.33 39.66 40.33 42.71 43.02 42.38 40.31 38.90 38.10 37.15 36.46 36.47 35.67 34.69 34.41 33.45 32.74 32.65 32.69 32.11 32.09 32.33 32.32
32.27 32.85 36.62 39.24 42.32 40.61 38.36 38.06 43.67 43.13 43.92 44.34 44.74 43.57 42.97 46.17 42.48 39.32 38.08 41.33 40.18 39.16 41.28 42.30 42.33 42.24 40.16 38.10 38.17 36.42 35.71 35.44 35.01 34.60 33.50 32.63 31.76 31.24 31.60 31.26 31.37 31.42 31.39 30.74
35.35 30.27 28.76 38.77 44.09 42.73 41.13 34.18 43.17 42.84 42.80 41.53 41.25 36.02 41.29 46.18 42.56 41.43 42.57 44.31 39.49 40.09 40.92 40.38 41.31 41.01 37.64 37.07 36.59 35.47 35.47 34.12 34.25 34.01 32.41 31.38 31.07 30.51 31.27 31.42 30.65 30.66 29.32 29.44
32.04 30.73 35.63 43.28 41.58 42.21 32.26 37.11 43.28 44.63 44.60 44.07 41.88 43.24 45.06 42.34 41.56 43.18 43.60 43.30 39.69 38.29 38.19 41.03 40.86 37.58 36.07 36.45 35.07 34.79 33.86 33.87 33.62 32.79 31.61 30.88 30.41 31.11 30.73 30.27 29.45 29.16 29.02 29.98
33.54 31.54 30.32 44.71 39.97 36.46 42.96 47.10 46.91 46.91 46.56 45.73 44.80 43.47 42.09 40.26 41.49 42.39 41.48 37.39 37.62 39.07 39.68 40.54 40.64 37.60 36.35 35.44 34.56 33.65 33.46 33.05 32.35 31.96 30.46 29.64 30.01 30.13 29.82 29.24 28.96 28.19 28.47 29.95
38.39 38.77 46.82 46.89 44.27 46.59 48.54 46.30 46.54 46.02 46.95 44.81 43.40 43.31 40.57 40.07 41.09 41.58 36.93 38.18 39.88 39.45 39.52 40.00 36.59 36.23 35.00 33.75 33.43 32.68 32.40 31.88 31.36 30.72 29.65 29.82 28.90 28.22 28.41 28.69 26.97 26.41 27.49 29.02
38.56 42.00 44.51 45.02 47.97 49.04 48.78 47.15 47.38 47.21 45.48 44.75 41.51 40.51 39.41 40.88 41.94 37.40 37.34 39.21 39.60 38.94 37.45 35.75 35.67 34.20 34.52 32.85 32.32 31.83 30.90 30.40 30.20 28.86 27.69 28.86 28.68 29.21 28.31 26.38 25.36 25.36 26.66 28.49
38.93 42.47 44.81 45.98 47.05 47.43 47.59 48.12 47.56 45.77 44.92 43.33 41.15 40.23 40.61 41.15 38.10 36.02 38.00 38.61 38.00 36.87 35.69 34.92 34.79 33.73 33.13 32.43 31.60 30.72 29.31 28.41 28.16 27.46 27.17 27.19 27.95 27.99 27.29 27.86 26.44 25.60 26.76 27.52
37.34 45.02 44.56 45.19 47.16 47.92 47.07 45.91 46.01 44.41 43.71 43.38 43.85 41.59 41.04 38.34 35.86 36.67 37.60 37.68 37.57 35.89 34.58 34.39 33.91 33.10 32.66 32.26 30.93 29.39 27.62 27.80 27.09 26.29 26.97 27.24 27.22 27.17 28.57 27.11 26.66 26.71 26.95 27.50
42.98 46.61 46.49 46.76 47.61 48.32 45.86 46.13 46.66 46.26 45.34 43.16 42.22 39.61 36.01 35.58 36.17 37.27 37.68 37.11 35.01 34.30 34.38 33.97 33.32 32.77 32.46 29.39 27.08 25.52 25.77 25.49 26.09 26.06 26.38 26.20 25.65 25.24 24.45 27.52 27.45 27.19 27.01 26.57
46.82 46.30 43.94 45.67 43.65 47.00 46.52 45.19 44.76 44.72 43.19 40.27 38.58 36.69 36.47 35.92 37.56 37.05 36.73 34.62 34.21 34.06 33.69 33.44 32.49 31.27 30.54 29.68 26.91 24.84 24.67 24.04 25.85 26.29 26.29 26.03 25.06 24.58 24.44 23.34 23.62 25.49 27.07 26.20
45.47 46.20 45.24 45.65 44.97 42.77 42.33 41.40 40.15 40.48 40.78 37.18 37.24 36.25 37.01 36.24 36.46 35.88 33.73 32.65 32.27 32.72 31.98 31.25 30.09 30.43 30.32 28.41 26.24 25.51 25.33 26.53 25.35 26.08 26.19 25.27 25.33 24.97 24.71 24.34 24.16 24.16 24.86 25.35
45.03 43.80 42.70 39.60 39.20 39.55 39.31 39.11 38.77 39.48 36.93 36.01 36.02 35.52 36.37 36.05 34.00 33.13 31.04 29.70 31.42 31.02 28.95 25.87 26.45 28.97 28.21 28.17 26.88 27.02 27.19 23.07 23.21 25.31 25.85 25.57 25.53 24.08 23.45 23.74 23.62 23.49 23.01 22.13
38.04 36.49 37.27 37.00 37.21 37.73 38.03 38.51 37.19 35.64 36.52 35.45 35.92 35.15 31.54 30.60 30.13 29.44 29.40 27.67 27.80 27.99 27.65 27.52 29.11 29.69 27.20 26.99 25.92 28.14 27.78 26.53 22.26 25.80 25.20 24.87 24.64 23.50 23.47 23.40 23.09 22.99 22.77 22.75
38.77 38.75 38.81 38.38 37.83 37.06 35.68 35.51 34.79 34.99 33.71 32.68 31.22 30.20 29.78 29.66 30.16 29.12 28.38 27.16 27.10 28.36 29.68 29.21 27.17 27.00 25.75 26.28 24.96 26.69 26.53 25.58 25.07 24.28 24.53 24.46 23.74 23.72 23.27 23.36 22.88 22.47 22.24 22.74
38.55 37.84 38.28 37.54 38.65 37.12 35.56 34.39 34.71 32.84 32.36 31.40 30.86 30.37 28.88 27.96 28.43 27.89 27.53 27.79 28.12 28.64 30.81 28.51 26.48 26.76 26.07 23.03 23.68 27.19 26.54 24.95 24.69 24.36 24.05 22.90 23.71 23.32 22.32 23.06 22.53 22.17 21.99 21.28
36.32 37.60 37.50 37.71 36.53 34.49 34.40 33.63 32.42 31.41 29.30 28.79 27.84 29.08 29.62 28.20 25.49 25.73 27.85 28.29 29.59 31.49 30.01 30.05 27.85 28.10 25.69 22.87 22.39 26.96 26.22 25.08 23.48 23.55 23.34 23.18 22.44 22.00 21.93 21.23 21.51 21.63 21.41 20.88
32.64 34.46 34.56 32.99 32.90 30.52 30.74 30.22 30.55 29.90 28.24 26.94 27.90 28.68 26.53 26.50 26.34 25.66 27.99 30.29 32.74 29.56 29.87 28.07 28.74 29.26 27.23 25.71 24.46 26.82 25.71 24.68 23.85 23.16 22.53 22.61 22.29 21.34 20.89 21.04 20.91 20.59 20.28 20.34
33.34 33.13 32.63 31.97 30.38 30.92 28.99 29.98 30.10 28.72 28.18 27.39 26.04 25.29 25.71 28.55 28.62 28.66 28.18 28.26 32.82 26.81 30.37 31.75 31.28 28.10 27.65 22.22 26.51 25.99 24.72 23.98 23.68 23.66 23.19 22.50 22.01 20.87 20.30 20.09 19.60 19.55 19.25 18.97
33.22 32.78 32.12 30.47 30.60 31.56 30.51 30.25 29.16 29.17 28.47 28.23 27.89 28.45 28.71 28.42 27.54 26.99 28.28 30.48 30.96 31.09 30.61 31.61 30.53 24.86 22.59 25.78 26.35 25.27 24.30 22.92 23.15 22.70 22.48 22.25 21.66 20.95 20.15 19.51 19.64 19.42 18.62 17.94
32.75 31.27 30.97 30.48 30.17 29.69 30.78 29.41 28.52 28.62 28.89 29.48 29.90 29.96 29.92 29.62 30.71 31.09 30.05 29.55 29.73 30.58 30.69 31.32 27.63 23.58 22.02 26.81 25.72 24.86 24.10 23.84 23.23 23.07 22.35 16.27 21.61 20.68 20.45 19.45 18.95 19.35 18.17 17.49
32.57 31.50 29.44 29.30 28.66 30.37 30.27 28.68 29.06 29.87 29.70 30.82 31.02 31.29 29.77 32.56 30.48 31.29 31.16 31.02 30.20 30.84 31.33 27.53 24.82 22.64 25.80 26.46 25.49 24.20 23.97 23.83 23.52 22.90 22.04 22.07 20.95 20.32 20.44 19.48 18.93 18.63 17.64 16.93
30.91 29.91 30.19 30.07 31.26 31.70 31.30 29.87 32.02 32.32 31.17 32.01 32.55 32.99 32.27 32.25 32.02 30.95 30.78 30.30 30.45 29.83 30.40 29.16 26.98 24.87 26.90 25.88 24.99 23.56 23.53 23.06 21.38 21.56 21.39 21.30 20.47 20.36 19.83 19.04 18.23 18.25 17.50 16.58
31.41 30.86 30.23 29.13 30.43 30.52 31.72 32.08 32.70 32.05 30.14 29.01 29.07 31.91 32.12 31.11 30.92 31.10 30.22 29.57 30.52 31.13 31.18 29.73 28.15 25.79 27.00 26.29 24.71 23.54 22.81 22.79 21.11 22.07 21.60 21.47 20.96 20.34 19.54 19.11 18.84 18.22 17.57 16.85

GFSNGP_sfc_wetblb_003.txt.gz
Wetbulb
43.11 43.94 43.48 42.67 42.17 42.75 41.39 42.26 37.22 40.39 41.57 45.07 47.08 47.81 48.71 48.87 49.41 48.42 48.72 49.06 49.13 48.05 47.90 49.12 47.72 46.48 45.57 44.59 43.60 43.27 42.52 41.99 41.55 41.92 41.68 40.85 40.28 40.05 39.87 39.25 38.22 37.58 36.86 36.97
37.08 41.50 42.08 39.63 42.06 42.34 42.33 42.69 42.73 42.82 42.25 48.15 48.97 48.84 47.81 47.22 47.29 47.25 47.62 48.07 47.97 46.89 46.77 47.59 45.46 44.66 44.11 42.87 43.10 43.86 43.20 41.82 41.50 41.13 40.21 39.49 39.25 38.81 38.31 37.14 36.68 36.46 35.95 35.83
32.22 39.97 36.99 33.24 38.29 41.73 43.15 44.77 43.86 39.52 44.53 46.98 45.48 45.15 45.72 47.10 47.57 46.81 47.44 47.51 46.04 44.92 46.33 46.93 44.43 43.92 42.47 43.02 43.63 43.07 41.51 40.78 40.40 39.22 38.38 38.14 38.11 37.63 36.13 35.75 35.85 35.26 35.00 34.83
32.42 36.25 29.06 41.79 46.61 45.82 43.44 44.33 45.54 44.81 45.36 45.39 45.44 47.24 47.82 48.31 46.76 44.38 45.39 44.37 43.55 45.83 46.92 44.94 43.11 43.62 43.81 43.33 42.25 40.71 40.70 39.78 39.01 38.50 37.39 37.50 36.96 35.62 35.39 35.25 34.41 33.95 33.75 33.66
33.60 34.01 37.28 39.97 44.30 43.30 40.90 39.98 45.08 44.42 44.76 46.15 46.82 47.00 45.53 48.33 45.88 45.37 44.89 43.33 46.54 46.06 46.37 41.17 42.06 43.07 42.59 41.20 40.48 40.47 38.71 38.00 38.04 37.52 36.78 36.05 34.80 34.51 34.55 33.73 33.36 32.96 32.60 31.93
35.78 30.69 28.11 39.97 45.31 46.20 45.78 36.53 45.66 45.17 45.07 44.26 44.91 38.06 41.69 45.30 46.91 43.98 43.21 46.28 44.93 44.89 41.44 41.05 41.13 41.61 41.62 40.48 39.62 38.38 37.87 37.36 37.47 37.28 35.97 34.79 34.35 33.58 33.60 33.42 32.10 32.38 30.44 30.66
32.79 31.49 35.68 44.31 47.20 45.60 34.36 37.88 46.90 46.85 45.05 44.79 42.09 43.47 46.24 46.04 43.08 43.40 45.75 45.08 44.42 39.57 38.95 41.85 41.91 41.86 39.25 39.18 38.69 38.32 37.11 37.28 36.59 36.46 35.44 34.72 33.38 33.41 32.72 31.92 31.25 31.19 30.84 31.03
33.93 32.33 31.42 46.93 45.44 37.98 43.61 48.27 47.98 47.14 46.41 45.38 45.70 44.90 44.67 42.26 41.32 44.01 44.02 44.14 40.02 39.43 40.68 41.26 41.79 41.27 39.27 38.47 38.27 37.05 36.78 36.06 35.62 35.55 34.55 33.35 32.70 32.03 31.68 30.73 31.04 29.71 29.52 29.70
39.69 39.81 48.36 50.59 47.43 50.07 50.26 48.51 47.24 46.53 47.34 45.51 44.92 44.75 44.92 41.88 43.16 42.86 42.76 39.76 40.55 40.28 39.90 40.56 40.37 39.16 37.13 36.88 36.63 35.68 35.36 34.96 34.79 34.44 33.44 32.64 30.88 30.51 29.93 30.29 28.82 28.35 28.02 27.88
41.38 43.72 46.15 46.50 48.86 50.77 48.84 46.12 48.13 47.94 46.32 47.01 45.70 45.95 44.20 44.08 43.23 42.22 39.19 38.37 40.54 39.76 38.67 38.33 38.74 36.85 36.70 35.96 35.27 35.31 34.02 33.56 33.45 32.49 30.94 31.30 30.89 30.65 29.65 28.17 27.47 26.72 26.39 26.73
40.85 44.42 45.38 45.76 47.18 48.25 47.51 47.84 47.86 48.16 47.24 46.56 45.40 44.50 43.40 41.97 41.89 38.72 37.27 39.49 39.47 38.61 38.24 37.50 37.45 36.40 36.21 35.26 34.52 33.22 32.78 32.06 32.05 31.19 29.92 29.55 29.95 29.91 28.83 29.52 28.19 26.61 26.73 27.14
36.10 44.23 44.84 45.93 47.21 47.21 46.25 45.85 47.07 46.08 44.51 44.95 45.12 43.68 42.88 41.13 38.82 36.75 37.96 39.04 38.77 38.40 37.29 36.80 36.34 35.32 35.52 35.27 34.10 32.45 30.77 31.24 30.57 28.79 29.17 29.41 28.89 28.51 29.47 29.26 28.57 28.03 28.09 28.15
43.48 47.46 46.73 46.85 47.36 47.53 46.03 46.60 44.82 43.54 43.48 42.45 44.03 42.42 39.67 37.18 37.03 37.73 38.60 38.77 37.98 37.02 36.72 35.92 35.16 34.85 35.13 31.58 30.41 28.85 28.65 28.49 28.42 28.34 28.76 27.99 27.56 26.27 24.19 27.99 28.56 28.50 28.12 27.48
48.27 47.55 44.79 45.96 44.86 47.59 45.49 44.33 44.03 43.50 43.39 42.97 40.14 38.59 37.64 37.76 38.12 38.06 37.87 37.75 36.98 36.17 35.69 35.11 34.33 33.58 33.69 33.24 30.40 27.89 28.18 27.15 28.41 28.44 28.45 27.77 26.58 25.89 25.91 25.18 24.83 26.42 27.84 26.94
45.48 46.66 46.62 47.42 46.35 43.88 44.06 42.92 41.27 40.71 41.52 40.26 38.57 37.31 37.88 37.11 36.75 37.02 36.65 35.01 34.51 34.39 33.67 33.32 32.13 32.51 33.49 32.07 29.17 29.46 28.14 28.68 27.38 27.52 27.99 27.06 27.12 26.90 25.69 25.37 24.89 24.95 25.78 25.51
45.55 45.70 44.21 42.33 41.95 42.04 41.71 41.35 39.50 38.64 38.24 37.03 36.72 36.80 37.45 37.67 36.72 35.56 33.68 31.92 32.14 32.33 31.60 29.49 29.53 31.91 31.70 31.75 30.90 31.05 30.81 26.03 25.66 27.03 27.49 27.34 26.73 25.78 24.71 24.44 24.25 24.42 23.99 22.35
40.33 39.11 40.07 39.47 39.99 40.41 40.18 40.45 38.65 36.08 36.28 35.48 36.00 35.09 33.47 33.00 32.49 32.18 32.28 30.87 31.10 30.78 31.15 30.45 30.91 33.13 30.51 30.80 30.08 31.09 30.77 29.59 25.90 27.71 26.99 26.39 25.92 25.23 24.30 24.38 23.85 24.03 23.63 23.83
41.93 41.84 41.84 41.16 40.10 39.62 39.50 38.75 36.84 35.86 35.80 34.44 33.12 32.33 32.15 31.96 31.70 32.16 32.15 30.58 30.32 30.88 32.61 33.27 30.81 30.58 29.13 30.35 28.47 29.11 29.00 28.34 27.78 26.90 26.57 26.08 24.77 25.10 24.38 23.66 23.95 23.27 23.18 23.56
41.32 40.85 41.05 40.63 40.57 39.84 38.50 36.20 36.61 35.27 32.62 32.51 32.11 31.70 31.38 31.44 30.71 30.58 30.15 29.82 29.85 30.88 33.56 32.35 29.67 28.37 30.58 28.26 25.77 29.49 28.30 27.40 26.60 26.64 26.09 25.07 25.19 24.71 24.05 23.23 23.40 23.16 22.95 21.68
39.61 40.60 40.17 39.24 39.10 36.59 35.54 36.28 32.91 35.00 32.41 31.86 31.58 32.08 32.33 32.32 29.52 28.32 29.98 29.72 31.46 32.79 32.94 32.70 31.12 29.84 29.57 28.38 25.08 28.70 27.81 26.37 25.69 25.95 25.61 24.10 24.40 23.65 23.22 22.81 22.09 22.58 22.09 21.59
37.20 37.97 36.40 34.87 34.33 34.51 32.88 33.42 32.51 32.75 31.92 30.44 29.74 30.63 29.23 30.01 30.23 29.56 30.45 32.18 33.37 32.03 32.07 30.95 30.64 31.79 30.55 29.32 27.27 28.52 26.62 25.92 25.31 24.76 24.43 23.89 24.01 22.99 22.60 22.49 22.27 21.47 20.79 20.81
37.58 36.77 34.48 33.42 33.78 34.19 33.97 32.79 32.87 32.15 31.70 31.07 29.61 28.91 29.11 32.20 31.28 31.01 31.82 30.49 32.28 31.11 31.39 31.61 32.86 31.83 30.41 25.37 28.90 28.11 26.49 25.74 24.97 24.57 24.13 23.68 22.86 22.42 22.17 21.73 21.22 20.67 20.50 19.90
38.02 37.08 35.37 33.24 32.68 33.22 34.28 32.79 32.15 31.97 31.43 31.02 30.80 30.89 31.26 31.12 30.96 29.31 28.50 32.11 30.57 30.77 30.73 31.56 32.11 29.48 26.95 28.01 29.55 28.35 26.64 25.00 24.26 23.93 23.51 23.07 22.35 22.04 21.34 20.32 20.70 20.54 19.69 18.93
37.47 37.48 35.88 34.68 33.22 31.78 30.40 32.14 32.19 31.98 31.20 31.40 31.41 31.49 31.22 32.25 32.34 33.41 31.74 31.06 30.94 31.22 31.93 31.87 30.94 26.96 25.93 29.38 28.79 28.16 26.92 26.00 24.79 24.55 23.90 17.57 22.78 22.07 21.64 20.57 19.91 20.49 19.69 18.52
36.09 36.35 33.98 32.33 30.90 30.52 32.14 32.94 31.68 31.80 31.86 33.20 32.79 33.27 31.40 33.83 32.02 32.94 31.70 32.30 30.92 31.02 31.48 29.48 26.96 25.75 27.42 28.47 28.36 27.70 26.90 26.22 25.50 25.13 24.04 23.63 22.87 21.87 21.95 21.01 19.83 19.62 18.70 17.92
34.17 34.44 33.05 32.54 32.68 33.09 33.74 32.99 32.97 34.34 34.10 33.99 34.37 32.32 32.88 33.07 30.95 32.10 31.92 31.74 31.65 31.14 31.66 31.05 28.75 27.50 28.02 28.02 27.87 27.41 26.54 25.99 23.99 23.05 23.46 23.36 22.67 21.75 21.48 20.47 19.57 19.49 18.88 17.97
33.78 32.71 33.41 32.62 32.44 32.87 34.10 34.15 34.24 33.70 32.32 30.93 30.21 32.08 32.23 33.22 32.02 31.81 31.67 31.76 31.49 32.15 31.75 31.79 30.64 28.35 28.12 28.62 27.69 27.20 25.89 26.04 24.10 24.08 23.42 23.51 22.95 22.62 21.49 20.90 20.46 19.73 18.79 17.72

GFSNGP_sfc_wetblb_006.txt.gz
Wetbulb
42.19 42.85 42.22 40.65 40.47 41.42 40.22 40.49 35.62 38.38 40.36 44.05 46.61 46.92 46.75 47.83 48.17 47.91 47.94 48.08 47.83 47.44 47.77 47.76 47.84 48.14 46.15 45.45 44.60 43.56 42.14 41.33 41.70 42.35 41.96 41.05 40.48 39.64 39.12 38.50 37.88 37.02 35.78 34.98
36.27 41.02 41.24 38.02 40.71 41.62 41.01 41.22 41.32 42.05 41.56 47.40 47.65 47.61 46.72 47.08 47.12 46.75 46.28 46.29 46.67 47.03 45.93 46.57 47.01 47.10 43.91 43.89 43.39 43.20 41.80 42.39 42.83 41.78 41.34 39.61 39.02 37.97 37.64 36.77 35.48 34.69 33.75 33.63
32.56 37.87 36.27 32.38 37.06 40.35 41.96 43.53 42.70 37.36 42.63 46.59 45.35 45.29 45.43 45.83 46.86 45.17 45.34 45.73 46.16 45.01 45.40 46.56 46.32 44.20 42.00 42.89 43.86 42.84 42.07 40.87 40.28 40.49 39.07 37.94 37.92 36.89 35.40 33.36 33.55 32.32 32.28 32.41
32.23 32.95 27.49 39.98 45.79 44.04 42.36 43.73 44.80 43.85 44.28 45.70 45.55 46.83 46.76 47.91 45.40 44.55 44.88 44.95 45.19 45.40 45.91 46.43 43.94 42.23 43.06 43.67 42.95 40.61 39.86 39.93 40.57 39.04 37.47 36.95 36.24 34.78 32.79 32.25 31.47 31.16 31.01 31.18
31.70 32.66 36.14 38.90 42.14 41.95 39.82 39.53 44.97 43.80 45.03 45.75 46.29 45.78 44.36 47.12 46.69 45.17 44.87 45.20 45.02 46.04 45.48 42.95 42.24 42.23 41.56 41.68 40.95 40.10 39.57 38.72 38.10 37.17 35.95 35.55 33.70 31.67 31.70 30.88 30.59 30.24 29.97 29.45
36.23 30.43 27.24 38.50 43.52 46.90 45.97 34.64 45.16 44.70 43.80 44.31 43.35 37.12 40.01 46.05 46.00 45.96 45.31 45.32 44.96 44.74 43.17 42.08 41.33 42.24 41.14 40.73 40.26 38.49 38.63 37.57 37.00 36.73 35.34 33.72 32.07 30.55 30.56 30.28 29.11 29.25 28.94 29.46
33.84 31.52 34.72 43.13 45.93 47.31 33.67 36.04 44.57 45.28 44.45 43.76 41.27 42.58 45.12 46.08 46.31 46.13 45.78 44.45 45.02 42.89 40.82 41.21 42.39 42.01 39.83 38.70 38.27 38.56 37.05 36.63 36.39 35.82 34.07 33.04 31.70 31.04 30.05 28.94 28.69 28.06 26.63 28.05
32.55 31.46 29.91 46.97 46.24 37.11 42.64 46.72 45.94 45.31 44.81 44.00 44.88 45.10 45.58 45.58 44.59 44.74 43.87 43.75 42.37 40.81 40.76 41.23 41.62 40.78 38.48 36.92 36.64 36.65 36.35 35.51 34.90 34.05 33.68 33.22 30.53 29.31 28.96 28.20 27.22 24.30 25.68 25.95
37.66 37.53 45.20 47.60 46.05 47.71 47.09 46.02 45.60 45.40 46.14 45.04 43.90 44.14 44.83 44.92 44.47 43.77 42.04 40.68 40.61 40.37 40.21 40.84 40.75 38.83 36.50 35.45 36.37 35.41 34.32 33.69 32.76 32.87 32.27 31.16 28.49 27.70 27.55 27.15 26.09 25.34 26.53 24.55
38.21 41.56 43.97 45.60 47.49 47.96 48.18 46.11 46.51 46.92 45.45 45.55 43.78 43.15 43.10 44.19 44.01 42.03 40.00 38.68 39.72 39.55 38.44 38.06 38.88 37.08 35.82 35.61 35.74 34.52 32.41 31.67 31.23 30.14 29.62 29.04 28.57 28.21 26.94 25.75 25.10 25.79 24.03 23.85
37.89 42.19 43.97 45.37 47.00 47.20 47.33 47.66 46.13 46.29 45.19 42.91 42.26 41.24 42.33 42.58 41.68 39.56 37.26 38.69 39.41 38.51 38.38 37.55 37.72 36.49 36.09 35.35 34.79 31.95 30.54 30.16 30.21 29.64 28.05 27.44 28.05 27.29 26.60 26.59 26.57 24.91 24.92 25.67
36.05 43.04 43.13 43.98 47.35 48.23 45.53 44.87 44.55 43.55 42.18 42.70 42.27 41.87 42.00 40.39 39.37 37.33 36.98 38.73 38.68 38.53 37.32 36.85 36.64 35.85 35.80 35.09 32.21 29.85 28.91 29.19 28.60 27.56 27.02 27.57 26.63 26.41 29.51 28.80 28.99 29.49 29.02 27.97
43.18 46.77 46.47 47.43 47.15 46.66 44.55 44.22 43.89 42.60 42.39 41.06 41.56 40.07 39.32 37.77 37.54 37.29 38.55 38.86 37.84 36.41 36.46 35.71 35.11 34.52 33.64 30.72 29.39 27.39 26.88 27.73 26.92 26.34 26.87 25.98 25.54 24.35 22.76 26.28 29.16 29.13 28.78 27.97
47.29 46.52 42.37 44.48 43.67 45.25 44.54 43.42 43.31 42.57 41.60 40.43 39.79 39.29 37.79 37.68 38.60 38.12 37.17 36.43 35.93 35.94 35.56 34.27 33.03 32.03 32.29 32.05 29.84 27.16 28.99 26.13 26.84 25.69 25.60 25.68 24.54 24.63 24.67 23.03 22.58 23.73 27.44 26.13
45.16 45.94 44.88 44.26 43.61 42.67 42.95 42.40 40.85 39.35 37.99 36.90 38.11 37.16 37.50 37.09 36.97 35.94 35.92 33.50 33.52 33.36 33.22 31.46 28.66 29.75 32.17 31.16 29.24 28.85 28.54 27.34 25.45 25.02 24.92 24.47 25.01 24.16 24.78 22.51 23.48 23.71 24.24 23.62
43.61 42.74 41.94 40.43 40.41 40.93 40.79 40.36 39.01 37.60 35.36 35.98 35.13 34.53 35.87 36.19 34.99 34.80 33.62 30.53 29.35 29.33 30.27 26.65 26.17 30.50 30.22 30.74 29.69 29.47 29.83 25.41 22.92 24.90 24.94 24.64 24.02 23.04 23.23 22.19 23.51 23.10 22.36 21.20
39.23 37.35 38.08 38.45 39.01 39.32 39.31 40.11 38.81 35.51 35.45 35.12 34.00 31.25 30.99 30.62 30.59 31.31 31.69 29.17 28.65 28.31 28.15 27.13 29.58 31.33 29.92 29.96 29.84 28.93 29.06 27.87 23.93 26.89 24.79 23.93 23.28 21.88 22.66 22.27 23.00 22.61 22.25 22.65
41.11 40.43 40.28 39.92 38.91 38.27 37.79 38.32 36.10 35.18 34.77 33.32 29.67 27.50 27.41 27.12 28.43 28.61 29.21 28.55 27.71 27.48 28.76 29.00 28.10 29.86 27.84 29.57 26.88 26.84 27.75 27.15 26.63 25.12 25.01 24.70 22.95 23.50 21.91 21.40 21.81 22.00 21.86 21.63
40.60 39.26 39.24 39.33 39.71 37.70 37.37 37.34 34.90 35.02 31.61 29.73 27.96 26.21 27.51 28.24 28.69 28.33 27.96 26.36 26.50 27.48 30.15 28.82 29.68 26.54 28.61 28.25 24.14 26.57 28.35 26.94 25.95 24.86 24.70 20.81 23.01 21.93 21.35 22.32 20.85 21.82 21.30 20.08
38.21 38.39 38.96 38.65 38.29 34.00 33.84 34.33 33.74 32.22 32.54 29.56 27.52 27.71 30.42 30.98 27.78 26.27 26.61 27.19 28.91 30.44 30.19 30.04 29.59 29.00 28.46 28.28 23.80 25.95 27.69 25.30 24.85 23.74 24.16 23.37 23.56 20.60 20.48 19.84 20.74 20.14 20.26 19.97
35.72 36.68 35.46 34.71 34.16 33.06 32.64 31.48 30.47 30.23 31.39 29.19 27.65 28.49 27.22 28.04 28.06 30.12 28.82 27.68 31.05 30.93 30.28 30.17 30.14 30.16 30.52 29.30 26.54 29.40 26.68 25.71 25.11 24.40 23.30 21.95 22.64 20.63 21.66 20.73 20.76 19.76 19.17 19.01
35.61 34.66 34.06 33.64 32.88 32.10 33.19 31.98 31.90 30.98 30.19 29.91 28.79 27.82 28.69 29.98 30.94 29.82 28.50 29.35 29.91 30.56 30.45 29.20 29.20 31.14 30.62 27.67 28.40 29.01 27.32 26.35 24.55 24.57 24.05 21.48 20.05 18.89 19.00 19.78 19.70 19.69 18.86 18.41
35.68 35.86 35.35 34.21 32.94 33.12 33.16 32.41 31.85 31.58 30.91 30.65 30.42 30.83 30.17 29.77 30.29 28.60 27.25 30.56 30.03 30.34 29.58 29.93 31.45 30.93 27.68 28.25 29.13 29.06 27.47 26.23 24.70 24.40 23.22 22.54 19.49 17.31 18.94 18.35 18.55 18.03 16.57 17.69
35.98 35.92 35.70 35.48 33.83 32.38 31.31 32.15 31.43 31.56 30.96 31.57 31.05 29.49 29.44 31.15 30.61 33.28 32.58 30.58 30.71 30.99 30.83 31.19 29.78 28.80 26.33 27.98 28.84 28.62 27.91 27.02 25.85 25.43 23.91 12.68 19.05 18.39 19.15 18.65 17.76 17.99 16.76 15.60
34.79 34.71 34.55 33.70 32.80 32.32 31.91 31.40 31.42 31.10 30.59 31.13 31.44 31.28 30.93 32.13 30.25 31.05 30.88 31.13 31.10 30.85 30.95 31.02 28.01 26.75 26.31 27.73 28.33 28.29 27.85 27.19 26.29 25.17 24.33 22.27 18.91 17.21 19.85 19.07 16.90 16.09 15.68 15.09
35.62 34.53 33.77 34.14 33.31 33.68 32.38 32.49 31.49 32.71 32.95 32.98 32.41 32.24 31.24 31.25 32.31 31.97 32.01 31.62 31.38 30.67 30.97 31.40 30.82 29.00 27.96 27.99 28.54 28.51 27.27 26.43 24.40 23.01 22.23 21.36 19.27 16.86 17.26 17.98 17.07 17.18 16.02 14.58
34.25 33.02 32.55 32.14 32.82 33.06 33.33 33.90 33.57 33.77 32.55 31.85 30.65 30.86 31.28 31.08 31.79 30.56 31.12 31.29 30.50 29.64 31.54 31.62 31.10 30.18 28.72 28.83 28.93 28.10 26.92 26.40 23.86 24.08 23.32 22.77 20.13 18.66 17.38 16.68 17.15 16.53 15.35 14.06

GFSNGP_sfc_wetblb_009.txt.gz
Wetbulb
39.03 40.44 40.76 39.47 38.80 38.59 36.79 36.39 31.90 35.09 35.96 40.22 41.45 41.94 42.26 44.27 45.07 45.03 44.75 44.70 44.77 44.86 44.05 44.05 45.04 45.28 43.56 40.62 41.29 40.37 39.27 37.64 38.31 38.40 38.47 39.47 38.62 37.46 36.87 36.56 36.34 35.85 34.97 33.61
34.74 39.42 40.03 36.17 37.45 37.86 37.64 37.60 37.55 37.81 37.25 42.53 43.03 44.21 43.53 43.40 44.37 43.42 43.72 44.29 44.58 45.18 44.66 44.54 44.92 43.39 41.12 41.23 41.47 42.71 41.01 39.39 40.10 39.99 39.22 38.77 37.75 37.38 36.25 34.87 34.09 32.73 31.43 31.07
32.90 35.58 34.19 26.87 33.44 36.56 38.08 39.18 37.95 31.98 37.43 42.27 41.49 42.58 43.06 42.77 43.11 43.04 43.64 44.08 43.99 44.13 43.89 44.14 43.54 41.12 39.65 41.33 42.11 41.67 40.80 40.30 40.10 39.98 39.39 38.76 37.33 35.66 33.94 32.05 30.78 29.40 29.08 29.08
32.47 30.07 25.74 35.24 42.08 41.21 38.57 39.65 40.28 40.69 41.15 42.35 43.16 44.42 44.73 45.31 42.48 42.90 43.51 43.82 43.48 43.46 43.10 41.15 39.58 39.76 41.13 41.36 42.24 40.56 39.87 39.85 39.91 39.99 38.00 35.02 34.18 33.03 30.65 29.10 28.28 27.76 27.59 27.45
29.60 28.62 32.83 35.94 39.21 37.05 35.50 35.81 42.07 40.69 42.61 43.47 44.30 43.66 42.54 45.88 44.87 43.86 44.12 43.50 42.98 43.59 40.67 39.19 39.14 39.23 39.34 39.34 40.45 40.69 39.30 39.00 37.26 34.72 33.86 33.37 31.20 28.82 28.33 27.42 26.88 26.19 27.06 26.80
28.81 23.78 21.88 31.70 39.88 44.58 43.45 32.16 42.23 43.71 42.59 42.19 42.40 34.96 38.10 43.81 45.46 44.64 43.49 43.05 42.58 40.05 38.85 38.27 38.28 40.95 38.94 39.63 39.57 38.27 34.79 33.80 34.52 34.29 33.10 31.07 29.07 27.71 27.36 26.41 26.05 26.62 26.98 27.24
23.87 26.71 29.38 38.29 42.17 44.95 28.99 34.20 42.84 44.17 43.49 42.69 40.69 41.58 44.35 45.01 43.61 43.46 43.71 42.37 40.10 38.40 39.44 39.61 39.96 40.75 37.98 35.72 32.68 34.25 34.56 34.81 34.24 33.28 31.24 29.91 27.88 26.99 25.70 24.99 25.60 21.41 20.64 24.36
25.98 29.70 23.90 42.62 41.15 32.15 38.73 42.24 43.56 43.04 43.11 42.46 43.26 43.23 42.48 42.04 42.39 43.12 41.04 38.58 38.38 38.08 39.29 38.74 40.76 38.99 37.10 31.69 33.75 34.82 34.23 33.22 31.75 31.12 30.86 30.16 25.76 24.99 25.24 24.26 21.43 15.18 17.09 20.40
31.92 30.21 39.63 42.79 41.35 43.44 44.64 43.00 43.49 43.05 42.88 42.77 41.52 41.50 39.35 38.76 40.73 40.41 37.41 36.39 37.68 36.97 38.73 39.39 39.28 34.87 33.26 33.23 34.61 32.88 31.37 30.61 29.72 29.97 29.14 26.99 24.90 24.06 23.43 22.82 19.18 17.23 20.00 21.21
33.38 37.63 40.55 42.24 44.09 44.78 44.71 43.83 44.80 44.63 43.69 42.24 41.32 39.11 37.60 39.15 37.93 36.72 35.99 36.34 36.56 38.56 37.72 36.62 37.40 33.77 33.42 33.90 33.65 31.82 29.49 28.73 28.83 26.99 26.37 25.00 24.92 24.95 21.27 19.51 18.62 22.67 21.24 21.75
36.28 39.53 41.04 41.92 42.62 43.94 44.47 46.00 43.97 42.38 41.83 40.28 40.08 38.52 37.87 37.13 37.14 35.59 36.35 36.44 37.30 36.75 37.04 36.49 34.31 33.43 33.23 33.18 31.88 29.28 28.28 27.96 27.25 26.24 24.67 24.59 25.38 23.38 23.19 22.61 20.33 23.90 24.46 25.13
34.37 40.86 40.35 41.45 42.68 44.17 43.38 41.74 41.32 41.11 38.62 40.12 38.73 37.45 37.40 36.14 36.54 36.39 34.82 37.13 37.59 37.15 34.87 34.12 34.41 32.79 31.56 31.22 29.54 27.25 27.17 26.45 24.10 22.70 22.27 22.52 21.60 22.20 26.59 27.67 28.48 28.71 28.84 27.50
41.06 43.63 43.40 42.79 43.81 45.22 43.15 41.58 40.65 39.54 38.41 37.44 37.14 36.73 36.37 34.90 37.05 37.38 37.21 35.41 34.53 34.52 34.26 32.86 32.12 31.31 31.22 27.23 26.80 25.06 23.04 25.42 23.49 23.42 21.76 20.73 21.24 20.92 18.59 21.02 26.82 27.21 28.11 26.57
45.03 44.55 41.37 42.03 38.58 41.32 40.76 40.94 41.29 39.44 38.20 37.15 36.15 35.96 36.72 36.98 37.18 35.51 32.17 32.89 33.72 34.05 32.66 31.43 29.71 28.40 29.15 28.41 25.68 20.74 19.91 22.49 18.40 18.19 17.08 18.62 17.75 20.82 15.69 17.48 14.27 16.70 25.51 24.78
43.21 42.37 40.74 39.85 39.64 39.74 40.40 39.49 37.93 36.22 35.74 34.88 35.42 35.33 34.65 33.97 33.54 33.18 32.37 30.75 29.32 30.24 30.07 28.64 26.02 27.89 29.36 29.06 27.63 26.10 25.96 22.53 17.68 16.15 13.57 15.71 18.01 14.34 14.34 13.69 14.41 17.68 22.19 21.96
40.30 39.49 37.92 37.27 37.24 38.50 38.03 36.98 36.59 35.68 33.41 33.59 33.34 31.66 31.59 30.47 30.00 30.35 29.76 26.45 26.21 25.99 27.34 23.00 20.84 27.14 28.17 27.33 26.45 24.93 24.84 22.40 19.93 19.16 16.67 18.51 15.16 14.33 14.19 13.73 13.28 19.46 20.17 19.65
34.66 33.42 33.25 33.48 35.01 35.19 35.40 35.59 35.64 33.49 32.42 31.47 30.27 26.09 26.58 23.73 23.56 25.29 27.65 24.68 21.49 22.07 22.03 20.53 24.08 28.66 28.11 27.07 25.37 21.72 21.36 24.35 24.47 24.96 22.88 19.06 13.76 12.06 16.01 11.27 10.45 17.89 19.73 20.72
38.37 37.12 35.91 35.09 34.25 33.85 32.64 32.97 32.39 31.24 30.91 30.61 23.98 21.66 17.66 17.90 21.07 22.97 22.53 22.01 20.90 22.19 21.36 22.90 21.46 25.62 23.19 27.20 26.41 21.54 21.75 24.51 23.74 17.36 19.27 13.14 12.42 15.53 12.12 12.56 9.35 16.65 19.04 19.61
36.59 34.59 34.37 35.00 34.80 32.11 31.74 31.21 29.34 30.52 31.07 29.85 24.34 23.74 21.53 22.51 22.71 22.62 20.02 17.09 15.51 20.14 27.69 28.01 29.09 25.12 26.99 26.63 23.90 18.16 15.52 19.40 18.68 17.40 16.21 14.55 13.14 12.29 11.79 9.37 8.33 13.74 17.98 17.37
33.92 34.40 34.59 33.78 33.82 30.25 31.75 28.90 26.38 31.97 31.32 26.11 26.94 21.70 25.68 24.87 21.49 19.43 23.33 21.59 27.39 28.86 28.01 27.47 27.37 25.11 25.36 26.58 22.78 20.46 16.52 16.32 16.79 17.10 15.04 13.23 11.05 11.60 11.62 9.60 13.90 11.90 14.45 16.52
30.69 31.22 29.60 28.44 29.12 28.22 25.31 27.86 31.68 27.29 27.41 29.55 23.90 25.03 24.47 21.51 22.12 28.84 21.67 25.08 28.22 27.64 27.79 27.81 27.47 27.93 29.65 28.75 24.47 19.22 18.56 14.31 15.50 15.49 12.74 13.88 8.20 9.09 9.69 6.12 12.08 11.24 11.74 14.27
30.85 27.78 27.25 27.93 27.95 28.89 27.56 27.41 29.05 26.91 26.75 26.30 27.12 22.52 23.52 23.25 20.46 20.27 16.86 26.68 28.39 27.98 27.63 26.91 27.14 27.75 27.74 23.42 23.17 23.31 24.75 21.00 16.23 15.67 16.90 10.35 7.29 7.33 5.60 9.07 12.65 10.44 10.14 10.70
31.17 31.09 30.87 28.61 27.17 28.66 30.64 31.29 30.97 29.26 28.39 28.54 26.00 24.55 26.26 23.85 23.26 18.95 23.86 26.50 28.09 27.86 27.77 27.93 29.00 28.25 27.09 25.18 26.52 26.51 25.48 22.79 15.85 16.01 16.31 12.51 8.74 4.72 6.69 10.55 12.47 9.42 8.71 10.49
30.75 31.50 31.76 30.24 25.46 31.40 31.30 32.33 31.22 29.29 29.08 27.02 28.14 30.47 23.07 20.45 21.79 26.03 28.04 28.09 27.98 28.32 28.36 29.27 27.65 26.42 25.27 25.26 26.68 25.88 25.32 23.31 17.89 17.12 17.83 14.30 10.60 6.56 7.93 10.27 10.72 10.13 8.68 11.77
29.54 30.09 28.31 24.09 29.34 31.77 32.03 31.86 28.11 27.97 27.46 26.69 28.50 29.29 28.96 28.73 28.42 24.61 25.71 27.14 28.68 28.29 27.92 28.68 27.72 26.10 25.42 25.35 26.25 26.37 21.71 19.91 18.19 17.82 19.10 15.22 12.60 6.28 8.88 11.25 10.24 10.11 10.82 10.65
30.51 31.37 29.11 30.39 32.20 32.48 32.59 29.20 28.68 28.43 27.12 27.23 30.07 30.39 30.28 29.23 22.09 19.21 16.42 22.66 27.42 27.22 27.92 29.13 28.46 28.04 26.51 26.29 26.49 26.71 19.36 17.77 16.59 16.15 17.74 16.88 14.48 8.59 6.40 8.64 9.53 11.86 10.74 9.32
30.75 26.15 30.13 31.40 31.34 31.81 30.64 29.77 29.82 28.53 28.55 28.19 28.44 29.94 28.29 28.70 28.17 27.80 27.39 27.18 26.87 26.86 27.28 28.41 28.83 28.81 28.03 27.05 26.53 22.80 24.18 16.46 17.08 17.15 17.83 17.75 16.68 13.04 9.75 7.18 9.09 11.00 9.08 8.04

GFSNGP_sfc_wetblb_012.txt.gz
Wetbulb
36.92 38.39 38.55 38.49 37.92 38.14 35.56 34.90 29.56 33.65 33.97 37.64 39.35 40.13 41.58 42.74 43.52 43.47 43.47 43.34 43.34 42.86 43.25 43.65 43.66 43.37 41.65 39.54 40.45 40.84 40.33 39.84 37.84 37.98 36.98 36.96 35.89 35.66 36.45 37.27 36.33 34.94 33.87 32.19
33.53 37.62 37.88 35.65 37.80 37.16 36.62 36.50 35.55 35.19 34.58 40.89 41.98 42.48 42.15 42.89 43.29 43.04 42.54 43.54 44.25 44.18 43.94 43.86 43.12 42.20 39.94 41.62 41.84 41.35 39.25 40.00 40.33 40.18 39.82 39.12 38.97 38.06 36.89 36.06 34.36 32.42 30.71 29.96
30.91 33.71 33.04 30.22 33.17 34.62 35.90 37.53 35.78 30.72 35.60 40.56 40.45 41.66 42.03 42.60 42.96 42.67 43.04 43.03 42.97 43.51 43.59 42.47 40.70 39.64 38.81 39.79 40.80 41.06 40.77 40.51 40.44 40.39 39.28 38.22 38.52 37.09 34.69 31.61 29.88 28.64 28.06 27.80
29.69 31.13 24.69 35.51 39.68 39.13 36.22 37.42 38.37 39.38 39.78 41.33 41.88 43.57 44.09 44.20 42.77 42.98 43.66 43.29 43.37 43.47 42.41 40.52 39.10 38.76 39.05 39.86 39.81 39.04 38.86 39.28 39.05 38.31 37.99 36.44 33.77 31.28 29.09 28.34 27.51 26.80 26.76 27.22
24.94 28.40 31.90 34.77 37.61 35.23 33.59 34.77 40.21 39.47 40.87 42.02 43.19 42.67 40.68 43.82 44.23 44.42 43.92 43.94 44.18 42.43 39.92 38.01 37.48 38.01 39.91 37.83 38.25 40.23 39.73 36.86 34.30 33.19 32.40 30.82 28.93 27.85 27.52 26.64 25.89 25.30 26.36 25.71
29.61 26.69 23.58 30.67 37.60 42.76 40.93 29.29 41.16 40.82 40.02 40.25 41.49 36.07 39.21 43.10 42.39 42.42 43.76 44.42 42.49 39.69 38.48 37.16 37.53 38.44 37.47 35.68 33.54 33.09 32.41 33.35 34.33 33.13 31.01 28.51 27.47 26.84 26.40 24.81 24.97 25.91 26.21 25.83
19.59 24.71 26.10 35.67 39.80 41.72 23.58 29.68 38.81 41.60 41.35 40.24 39.63 41.03 42.72 42.15 41.15 42.66 42.09 39.80 39.32 38.19 37.08 37.61 38.54 39.88 37.13 31.02 31.75 33.98 34.16 33.40 32.03 31.27 30.05 28.48 26.53 25.47 24.26 24.06 24.41 19.43 18.78 22.10
25.81 25.83 24.60 40.13 40.17 33.03 36.54 38.36 41.19 41.10 41.41 40.91 41.27 41.11 40.73 40.52 39.06 40.04 37.60 37.34 37.42 37.26 36.09 38.16 39.55 38.58 32.64 30.37 33.35 33.90 32.48 31.37 30.56 29.93 29.36 28.04 25.20 24.36 24.59 23.08 20.14 13.79 14.36 17.99
30.51 29.14 37.29 40.55 40.85 41.03 42.47 40.96 40.12 42.15 43.32 41.17 39.98 39.87 38.84 37.39 38.31 37.91 36.75 35.24 36.07 35.17 38.55 39.13 38.75 35.91 31.60 31.75 33.36 31.41 30.32 29.22 28.39 28.36 27.56 26.28 24.17 23.75 22.53 21.50 18.84 16.73 18.41 19.52
33.61 37.50 39.00 40.45 43.00 43.57 42.10 41.41 43.05 41.73 40.11 40.98 38.90 38.24 37.59 36.61 35.35 34.87 34.91 34.47 35.75 37.95 37.10 35.79 36.34 32.20 31.91 33.09 32.39 30.10 28.07 28.14 28.14 26.35 26.20 24.93 24.55 24.45 20.75 18.69 18.09 22.43 20.63 20.94
37.01 39.50 40.48 41.52 41.42 43.64 44.28 42.49 41.73 41.56 41.28 39.33 38.96 37.56 36.84 35.04 34.89 34.26 34.61 36.21 37.08 35.22 34.93 33.35 32.71 31.23 30.62 30.45 30.22 28.19 27.72 27.46 26.69 25.53 23.82 23.92 24.57 22.85 23.04 22.61 19.61 19.41 19.28 24.86
35.19 40.80 40.49 41.26 43.17 44.23 40.84 40.55 40.81 38.88 38.21 39.36 37.21 35.30 35.38 34.26 34.50 36.01 36.67 35.30 34.84 33.72 33.38 33.56 33.42 31.69 30.93 30.26 28.49 26.92 26.93 25.85 23.33 22.15 21.07 21.53 20.37 22.11 26.40 26.25 26.86 27.26 27.94 25.41
41.57 44.28 43.43 43.20 41.91 41.38 39.36 39.06 39.69 39.69 37.71 36.27 35.25 35.34 34.47 33.48 35.01 36.00 35.00 32.78 33.64 33.08 32.77 31.37 30.68 29.44 29.88 25.81 25.69 24.27 22.81 24.78 22.59 22.62 21.31 20.45 19.28 20.03 15.31 19.03 25.08 25.86 26.67 25.38
44.51 44.41 40.41 40.26 38.10 40.18 38.84 39.17 39.68 39.08 37.83 36.01 34.98 34.29 33.73 34.19 34.59 34.10 33.25 32.14 30.63 30.67 31.68 29.94 28.10 27.66 28.71 28.15 25.18 18.93 16.31 19.55 21.36 20.13 18.67 18.61 12.48 14.10 13.02 11.44 9.52 13.68 21.66 23.41
41.27 41.47 40.55 38.70 38.24 38.56 38.99 37.99 36.35 35.20 35.97 34.32 34.45 33.09 32.46 31.34 31.16 31.07 30.81 29.61 28.31 28.60 28.68 28.08 25.64 26.98 28.23 27.69 26.58 24.97 24.36 20.08 15.13 16.81 17.42 16.12 13.01 13.60 10.96 9.79 10.84 11.90 13.42 19.81
38.18 37.83 37.87 36.43 36.43 35.81 35.80 35.30 34.62 34.67 34.48 32.99 32.33 31.05 31.04 30.91 29.28 29.09 29.43 27.10 25.72 25.94 26.69 20.74 20.04 25.94 27.72 26.63 25.74 23.13 23.49 22.99 20.74 19.82 17.29 18.60 16.89 12.04 12.89 9.81 9.81 11.92 11.95 17.88
33.11 31.80 32.27 31.92 32.66 31.70 32.42 33.63 32.95 31.87 32.32 31.08 30.30 27.77 27.67 23.70 25.56 26.36 26.85 24.19 21.51 20.95 21.66 20.08 22.01 27.28 27.00 26.99 25.80 22.96 19.11 25.13 24.12 18.36 15.43 17.59 12.29 10.17 10.39 7.35 6.89 7.99 14.00 16.27
36.86 35.66 34.68 32.65 32.15 31.54 30.43 31.42 30.90 30.27 30.19 29.65 25.08 24.74 26.05 24.45 23.79 24.27 23.27 21.48 20.70 17.78 26.50 26.83 24.65 27.17 24.40 27.50 27.57 24.15 17.48 20.26 21.91 17.25 16.74 12.50 11.03 13.17 6.97 7.02 6.70 6.54 14.54 15.89
35.77 34.18 34.05 33.73 33.69 31.00 30.35 30.40 29.73 29.00 26.51 27.79 30.14 27.78 27.46 22.56 24.31 24.49 19.82 17.23 25.16 21.54 26.75 22.78 26.68 26.95 26.18 26.67 26.81 19.13 15.09 16.37 17.78 17.95 13.61 10.79 7.16 7.48 6.47 4.00 4.55 6.86 11.17 13.63
34.80 35.13 34.70 33.00 32.09 28.69 28.38 28.81 26.58 26.52 27.74 30.02 29.75 24.61 24.68 26.19 26.21 21.10 26.06 21.14 24.88 27.67 23.78 26.51 26.34 25.93 23.23 25.96 26.44 21.55 15.16 15.69 16.85 15.87 10.44 9.17 6.80 6.36 5.54 6.72 11.48 8.43 7.77 10.78
29.36 30.30 29.10 27.79 27.57 26.68 23.83 25.59 21.97 30.55 31.15 23.42 26.65 27.83 25.90 24.74 21.76 27.34 18.26 24.69 23.78 26.68 27.21 26.72 26.29 26.38 27.72 26.05 21.00 17.77 15.93 20.26 13.78 13.83 9.19 8.26 5.11 3.22 0.38 4.00 11.28 8.44 7.33 8.64
29.97 27.51 26.34 25.51 25.51 27.78 28.95 24.84 28.41 30.25 29.82 28.73 29.08 26.74 24.63 23.64 20.04 19.79 20.75 25.29 26.86 27.51 26.52 25.99 26.14 26.89 26.78 25.59 25.30 24.61 25.14 24.01 17.15 9.91 12.04 7.14 6.18 4.32 0.35 4.25 8.61 7.38 6.46 7.00
30.28 29.85 29.77 27.01 27.45 29.11 26.90 29.86 32.52 32.13 31.49 30.30 28.75 27.10 24.76 25.59 23.73 19.46 20.93 24.78 27.13 27.12 26.32 26.69 27.49 27.37 25.89 25.52 25.57 25.67 25.87 24.76 15.34 14.10 13.27 11.10 7.23 3.44 0.56 6.46 8.38 7.53 6.46 7.72
30.04 29.65 29.32 29.54 26.13 28.40 26.01 31.88 30.60 31.50 31.83 30.10 28.62 27.24 27.92 22.26 24.86 25.08 27.08 27.27 27.86 27.81 27.24 27.86 27.09 26.78 25.60 24.88 24.85 25.79 25.69 21.06 14.19 14.54 16.28 14.57 10.25 5.46 2.13 5.66 8.77 7.21 6.96 7.24
29.16 28.72 28.30 25.90 26.02 28.64 31.16 31.40 31.19 30.18 28.46 27.93 28.29 28.59 28.51 27.40 24.06 19.98 15.76 20.77 26.54 27.29 26.75 26.75 27.46 27.72 25.82 25.07 25.04 25.42 26.13 17.42 16.69 13.43 13.56 12.66 13.02 8.97 3.74 4.82 7.20 7.52 6.69 5.92
29.85 30.02 30.36 29.76 30.08 32.28 31.13 32.06 30.76 28.67 28.14 27.01 26.30 29.22 29.93 28.18 27.67 25.18 24.28 24.81 24.08 25.97 26.20 26.92 27.18 27.78 27.54 26.55 25.82 25.82 26.15 19.38 16.09 13.06 13.40 11.50 13.57 10.61 9.19 2.84 2.85 7.01 8.01 4.80
29.17 25.24 28.64 30.41 29.07 30.74 30.59 31.52 28.86 27.96 28.67 28.83 29.36 30.66 28.92 28.17 27.26 26.69 26.40 26.24 25.91 25.65 25.87 26.14 26.32 26.10 26.10 24.39 26.71 25.99 20.83 19.25 16.74 16.75 14.42 12.37 11.68 12.60 11.39 8.14 6.76 8.48 7.76 6.17

GFSNGP_sfc_wetblb_015.txt.gz
Wetbulb
35.14 36.37 36.55 36.60 36.22 37.18 34.57 33.72 30.98 32.89 33.25 36.88 38.09 39.32 40.67 41.85 42.23 43.31 43.92 43.94 43.60 43.34 42.14 42.89 43.00 42.38 41.19 39.15 39.81 40.35 39.16 37.85 37.67 38.14 37.74 38.07 38.63 38.41 38.20 38.56 38.14 34.93 32.92 30.96
30.93 35.99 36.57 34.54 36.68 36.04 35.94 35.68 34.50 33.98 32.87 38.04 40.76 41.16 40.95 41.55 42.72 42.17 42.15 42.42 43.33 43.60 42.88 43.16 42.82 41.35 39.34 39.28 39.43 40.35 39.30 39.17 40.39 40.67 40.58 39.54 39.18 36.99 37.49 36.97 34.49 31.91 30.41 29.84
25.65 32.64 31.19 25.76 31.49 34.16 34.89 35.76 34.68 29.73 34.00 38.95 39.46 40.18 41.33 41.84 42.13 41.76 41.84 42.96 42.27 42.12 42.54 43.53 42.18 40.00 38.10 38.22 39.39 39.80 38.80 38.88 40.67 40.54 38.99 37.77 37.59 37.53 34.90 30.91 29.36 28.53 27.99 27.67
28.23 30.77 23.15 34.01 37.68 37.79 35.20 36.09 36.52 36.79 38.54 40.16 40.45 41.14 41.63 42.25 40.68 40.79 40.76 40.60 40.91 42.01 43.30 41.70 39.23 38.27 37.95 38.45 39.12 38.69 38.52 38.13 37.51 37.28 37.38 34.90 31.57 29.79 28.49 28.08 27.15 26.45 26.56 26.74
28.96 27.64 29.76 34.14 36.32 34.00 32.75 33.34 39.06 38.63 39.16 39.25 40.42 39.61 38.44 41.52 41.63 40.68 40.28 40.73 42.29 42.26 38.92 37.68 38.33 38.77 38.46 36.57 36.29 38.05 36.28 33.20 32.71 33.05 32.02 29.88 27.35 26.30 25.77 25.16 25.66 25.30 26.35 26.24
28.32 26.11 23.08 30.54 35.10 40.28 39.28 30.17 39.07 39.72 38.22 38.01 37.76 34.59 38.18 40.24 40.16 40.38 41.10 41.18 38.90 38.15 37.14 37.33 37.69 38.02 36.53 34.67 32.46 32.64 32.91 32.89 32.25 30.88 29.57 27.70 26.54 25.56 25.92 24.91 25.38 26.20 25.81 25.08
26.01 27.32 26.95 33.86 37.59 39.20 25.74 29.02 39.68 40.93 40.36 37.70 36.69 40.35 40.66 40.71 40.20 39.17 38.96 37.82 37.64 36.60 35.96 36.39 36.84 39.45 38.17 32.64 31.80 32.71 32.08 31.37 31.48 30.66 28.97 26.84 26.06 25.65 24.81 24.20 24.00 19.60 18.42 20.78
26.15 24.57 22.35 37.68 38.50 32.56 36.57 37.31 39.06 38.65 38.42 38.68 40.30 39.88 39.89 39.58 38.34 38.22 36.71 35.69 35.35 34.57 34.80 37.89 39.51 37.45 35.25 30.25 31.62 32.41 30.39 30.02 29.26 28.57 27.57 26.90 25.13 24.57 24.26 22.50 20.45 14.94 13.01 17.00
29.89 30.12 37.17 39.24 40.08 40.72 41.31 39.43 37.86 37.93 40.62 41.53 39.27 38.14 39.11 37.16 36.49 34.99 34.23 34.34 34.57 35.48 37.67 38.17 37.73 34.69 30.73 31.01 32.39 30.66 29.16 27.69 27.96 27.82 27.11 26.08 24.20 23.13 22.22 21.53 18.78 16.30 17.95 19.06
34.38 36.71 38.95 41.01 43.34 44.04 41.83 40.31 40.98 42.09 40.46 38.91 37.14 38.48 37.44 36.50 34.04 33.30 32.72 33.06 36.07 35.15 33.45 32.47 32.34 31.39 31.98 32.34 31.63 29.84 28.14 28.01 28.08 25.73 25.36 24.29 24.30 24.03 21.01 19.54 18.07 21.57 20.14 19.32
36.09 39.93 40.56 41.45 42.19 43.02 43.79 42.59 40.25 39.59 39.20 38.21 38.40 37.85 35.79 33.91 33.05 32.53 33.13 36.19 34.67 34.28 32.16 33.01 34.07 33.01 30.94 30.62 29.89 28.30 27.58 26.82 25.94 25.14 23.73 23.25 23.86 22.55 23.20 22.58 19.01 16.78 17.34 21.41
34.92 41.73 41.00 41.58 43.63 44.16 39.32 38.35 38.53 37.86 37.49 38.30 38.57 35.59 33.63 33.08 33.10 33.34 33.88 33.68 33.15 32.41 31.67 30.89 30.03 29.73 30.19 29.94 28.49 27.01 26.70 25.61 22.71 21.78 21.18 20.56 19.44 21.35 25.47 25.53 26.20 26.43 26.76 24.96
41.56 43.83 44.40 43.13 40.81 40.69 38.68 38.91 38.95 38.24 37.78 36.64 36.69 34.61 33.80 32.57 32.82 34.85 34.60 32.19 31.05 30.40 30.00 29.33 28.23 27.00 27.78 24.80 23.37 22.10 20.46 23.24 22.15 22.20 21.74 19.71 18.36 18.58 13.76 17.93 23.94 24.72 25.28 25.01
44.73 43.95 40.38 37.98 35.99 39.12 38.52 39.09 39.44 38.47 36.94 36.56 35.48 34.41 33.67 32.42 33.12 32.45 31.41 31.44 29.71 28.22 28.15 28.42 26.72 26.40 27.76 26.95 24.40 16.70 15.23 17.11 15.26 15.98 15.49 17.95 15.51 15.83 9.97 10.21 8.10 12.01 19.53 22.28
40.22 40.81 38.63 39.29 38.11 36.24 35.90 34.86 33.45 34.05 34.59 34.30 34.79 33.70 31.98 31.06 30.36 30.33 29.62 28.65 28.51 27.28 26.39 26.48 24.44 25.96 27.18 27.27 25.66 23.76 23.54 17.49 13.24 13.25 13.44 14.46 16.09 12.45 10.29 10.18 8.33 10.74 12.05 15.53
34.87 33.85 33.96 32.81 33.10 33.51 33.57 32.63 31.94 32.02 31.85 31.84 31.77 31.71 31.44 30.94 31.16 30.53 28.30 25.92 24.86 24.26 25.02 18.13 17.45 24.15 26.66 26.85 25.56 22.78 23.07 21.10 21.08 18.45 13.72 14.53 14.52 9.98 12.26 8.40 10.12 9.18 10.23 11.49
32.50 32.06 31.60 30.92 31.29 32.07 31.43 31.27 30.45 29.91 30.35 29.77 29.78 27.03 27.26 24.48 26.88 26.63 25.69 23.05 16.29 14.69 22.05 25.72 24.15 27.16 26.72 27.77 26.61 26.18 21.84 20.43 23.67 20.24 17.22 14.42 9.92 10.15 8.58 7.86 5.05 6.86 7.57 10.24
36.86 36.11 34.57 32.03 30.94 30.39 30.22 30.18 30.59 30.64 30.12 29.56 28.90 29.25 26.55 26.04 27.21 25.27 23.23 20.41 16.30 15.76 25.18 25.84 25.44 25.30 22.15 28.18 27.90 25.72 18.76 16.58 19.23 16.39 13.83 10.10 9.43 9.14 6.42 7.65 5.73 6.13 4.50 11.89
35.04 33.45 33.62 33.66 33.75 32.26 31.28 30.67 29.79 29.69 26.05 23.36 28.15 30.37 30.58 30.45 25.23 23.37 20.75 17.18 19.27 21.02 25.07 21.76 25.25 24.17 26.45 25.54 25.86 25.84 17.69 15.85 16.98 15.45 14.94 11.01 6.46 7.70 4.85 2.33 4.84 4.66 4.68 9.07
31.48 32.70 33.69 32.89 31.90 28.18 28.74 28.59 26.88 27.04 26.15 29.52 30.56 30.20 29.71 27.69 26.07 26.15 19.97 21.45 22.87 24.10 22.05 25.60 25.64 25.29 25.14 25.76 25.12 24.98 15.31 14.37 15.51 15.80 10.34 7.74 1.96 1.42 0.15 2.87 8.15 6.61 2.87 5.55
28.81 29.02 27.70 26.77 26.90 26.24 23.84 25.19 23.19 23.66 28.85 31.22 31.09 29.67 29.39 27.57 25.58 22.67 21.58 24.14 23.41 20.19 24.33 26.21 25.74 25.66 26.91 26.29 25.32 23.33 20.26 21.25 21.64 11.88 11.79 8.06 1.60 1.78 0.51 -2.39 1.06 2.87 2.97 5.01
28.73 26.71 25.58 25.10 24.64 25.84 26.61 25.26 23.99 24.09 29.67 31.49 32.33 30.05 28.52 26.68 24.31 23.35 25.46 26.20 25.09 27.36 25.84 25.21 25.61 25.96 25.78 25.11 24.67 24.72 24.40 24.17 21.84 12.15 10.51 9.21 2.66 0.15 -1.49 -3.11 -0.21 2.69 2.64 4.44
28.89 28.59 28.82 26.31 25.33 27.80 27.76 25.67 26.29 27.28 31.89 31.73 31.89 29.98 27.57 26.69 25.79 24.09 20.94 23.04 24.37 26.86 25.87 25.84 26.38 27.69 26.29 24.70 24.55 24.55 25.04 24.53 18.98 15.16 14.60 12.96 11.66 1.38 -1.30 -0.25 -1.30 2.23 1.78 4.76
29.30 29.10 29.08 29.14 26.33 23.91 24.57 28.83 28.77 28.14 26.90 31.12 31.76 29.46 27.44 24.58 24.65 24.20 26.62 26.62 26.43 26.63 26.95 27.36 27.01 26.57 23.64 23.83 23.78 24.31 24.67 24.14 14.51 14.34 13.46 13.31 11.86 7.73 -1.30 -2.75 0.69 -0.57 1.38 3.81
27.19 27.59 27.47 25.67 25.94 27.47 29.01 29.77 28.48 30.80 31.21 26.89 28.44 28.25 27.96 26.69 24.82 21.79 17.71 16.72 20.60 26.49 25.55 25.91 25.99 27.07 26.76 24.59 23.11 24.13 24.17 23.83 18.81 14.28 8.81 10.19 12.41 11.63 6.23 -2.02 -0.76 -1.69 0.46 4.10
28.64 28.97 29.68 29.49 29.97 30.51 30.33 30.78 30.28 31.38 28.26 26.27 25.90 26.30 27.76 27.34 26.85 25.96 25.63 22.11 23.53 24.89 25.06 25.86 25.82 25.39 24.95 17.74 16.37 20.98 23.03 19.27 16.46 16.01 13.89 13.37 12.86 12.06 9.49 1.77 -1.16 2.15 3.21 6.02
27.00 23.58 29.75 30.01 29.78 30.64 31.51 31.66 30.96 30.32 24.46 27.54 25.72 27.27 28.91 28.33 27.65 26.26 25.84 25.63 24.86 24.82 24.37 25.11 24.91 25.17 22.63 12.83 13.85 17.39 19.16 19.52 18.05 16.36 15.65 14.93 14.42 14.70 12.70 9.29 4.42 3.85 5.84 5.96

GFSNGP_sfc_wetblb_018.txt.gz
Wetbulb
33.76 34.98 34.88 35.07 34.81 35.26 33.02 33.11 30.85 32.72 32.06 35.89 36.83 37.53 39.82 41.04 41.39 42.41 42.50 42.11 41.90 42.80 43.33 43.68 43.79 43.92 42.35 40.86 39.33 39.49 39.18 38.20 36.57 36.74 39.60 39.60 39.23 38.31 38.32 38.15 37.02 34.42 32.23 31.02
30.28 33.62 33.72 31.62 34.61 35.39 35.07 34.30 34.49 35.00 33.79 37.45 39.49 40.21 40.06 40.75 41.47 40.92 40.47 40.82 41.43 41.26 40.00 41.02 42.37 42.88 40.31 39.13 38.92 40.31 39.30 38.01 38.39 40.72 39.91 37.36 37.35 37.46 36.53 36.78 36.76 31.55 29.48 28.48
23.52 30.08 29.75 23.88 29.74 32.35 33.55 34.89 33.75 29.91 34.06 37.71 37.65 38.63 38.45 39.57 39.38 38.41 39.93 39.71 39.74 39.49 40.57 41.74 40.84 39.44 38.04 37.66 38.39 39.08 37.70 39.22 39.16 39.42 38.21 38.45 38.47 36.96 34.87 29.71 28.34 27.37 27.27 27.58
24.10 26.04 19.74 33.10 36.05 36.79 34.82 35.18 35.45 34.80 36.14 38.55 38.78 39.24 39.87 38.75 37.18 38.24 38.76 38.30 38.33 39.79 38.90 38.28 38.14 37.32 36.71 37.75 36.48 35.85 37.51 37.12 36.75 36.01 35.91 33.44 30.19 28.53 27.44 26.84 26.03 25.75 26.26 26.50
28.75 26.73 29.37 34.44 35.27 32.91 32.23 31.85 36.36 35.58 37.30 38.50 38.38 36.73 35.18 39.83 38.11 38.89 37.52 37.80 38.71 37.72 36.51 35.94 35.83 36.26 35.51 33.92 34.04 33.56 33.21 32.99 32.00 30.78 29.74 28.88 27.55 26.82 26.28 25.58 25.40 25.31 26.57 26.14
27.81 25.79 22.58 30.77 33.89 39.40 37.68 28.65 36.29 39.78 38.79 38.21 38.25 33.87 37.73 40.24 40.08 38.33 39.16 38.85 37.06 36.34 35.45 35.27 35.86 35.86 37.70 36.27 31.48 31.87 30.55 30.47 29.94 29.38 28.67 26.59 25.30 25.00 25.40 24.68 25.47 26.49 25.64 24.86
29.18 27.75 29.95 34.77 36.41 37.70 25.65 30.33 37.78 39.82 40.11 39.57 37.44 39.08 39.20 40.14 39.74 39.41 38.24 36.74 36.40 34.85 33.90 34.73 35.79 38.61 37.38 35.93 31.01 31.54 31.33 31.55 29.63 28.91 26.89 25.53 24.67 24.63 23.91 23.64 24.13 19.79 17.58 20.21
25.14 25.03 21.21 36.15 36.82 31.37 36.17 37.97 39.33 39.16 38.48 40.09 39.54 38.29 37.84 38.32 38.95 37.09 34.94 34.10 34.11 33.14 33.84 35.67 36.01 35.22 32.12 30.26 30.55 32.13 30.68 29.20 28.41 27.77 27.16 25.83 24.07 23.71 23.83 22.17 20.25 14.38 12.56 16.25
31.67 28.55 36.16 38.83 40.34 39.91 41.29 40.50 39.15 38.57 40.24 38.90 36.31 36.84 37.15 36.35 37.10 35.47 34.28 33.43 33.41 32.63 33.87 33.32 30.79 30.14 30.13 31.11 32.36 30.09 28.69 27.95 28.19 27.57 26.49 25.55 23.53 22.57 22.19 21.18 18.43 16.29 17.03 19.19
33.71 36.42 37.83 40.91 42.65 42.04 40.42 39.75 42.08 41.69 38.75 38.13 36.48 36.64 35.86 36.29 35.98 33.37 32.37 31.90 34.02 33.11 32.03 31.19 32.05 32.35 30.53 29.77 29.36 27.85 27.07 26.58 26.32 25.04 24.88 23.91 23.78 23.53 20.95 19.39 17.83 21.01 19.71 18.67
36.37 39.83 41.13 41.17 41.78 42.32 42.46 40.52 39.47 39.48 38.83 37.75 36.58 35.66 36.63 35.92 33.15 31.73 31.61 33.20 34.35 32.42 31.62 31.26 31.50 30.25 28.89 28.60 28.10 27.14 26.56 26.17 25.24 25.06 24.05 23.91 23.63 21.91 22.64 22.23 18.84 18.79 17.00 18.15
34.73 40.75 40.82 41.44 41.53 40.56 37.18 35.77 35.29 37.24 37.09 37.80 37.40 35.67 35.29 33.54 32.80 32.26 32.01 33.26 32.41 31.71 30.86 30.08 28.93 28.32 28.40 28.32 27.28 26.23 26.35 25.65 22.55 21.55 20.52 19.98 18.72 20.61 24.61 24.55 25.44 25.62 25.77 23.79
41.16 44.08 41.03 39.31 37.83 37.09 34.84 35.82 37.06 37.82 37.48 35.74 35.20 35.33 33.97 32.51 32.20 33.35 33.80 32.89 31.41 30.79 29.33 27.18 27.62 26.40 26.26 23.91 22.20 20.81 19.29 22.09 19.76 20.51 19.36 18.54 18.56 18.90 16.24 17.75 23.35 23.69 24.30 23.94
43.68 41.38 37.69 38.65 36.29 37.73 36.56 36.16 35.04 33.66 34.05 34.61 34.64 34.10 33.64 32.67 32.85 31.12 30.89 31.38 29.91 28.56 27.65 27.23 26.98 26.16 26.69 26.62 23.54 15.98 14.41 16.02 14.44 15.02 13.63 15.25 10.96 15.58 12.58 10.92 9.54 11.00 17.62 21.21
34.70 36.22 37.33 36.96 35.38 32.73 33.51 33.18 31.09 30.93 31.62 31.10 32.25 32.04 31.40 31.14 31.03 31.54 31.67 30.63 29.53 28.24 27.45 26.33 23.73 24.92 26.06 27.32 25.06 22.74 22.78 17.13 12.24 10.43 9.72 10.73 11.16 12.40 10.11 7.67 6.62 8.86 10.42 15.51
33.76 33.25 33.66 32.91 33.03 33.13 32.82 31.90 29.63 28.41 29.10 29.29 29.80 30.03 30.19 29.96 30.19 30.74 30.52 28.41 25.22 25.11 25.64 17.74 23.42 23.22 25.88 27.66 25.67 22.80 25.03 20.47 16.89 15.63 12.17 13.08 11.15 9.04 11.14 9.25 9.62 7.66 9.97 11.22
31.79 31.02 32.04 31.63 32.08 31.86 30.46 30.04 29.10 28.54 29.41 29.27 29.06 25.53 28.53 28.03 27.38 27.91 27.22 26.31 17.95 20.28 19.11 25.71 26.16 27.61 25.62 25.99 25.34 23.95 21.03 20.11 16.44 16.22 15.59 12.59 11.47 8.08 8.94 9.08 9.05 6.29 8.37 2.12
35.29 34.21 34.74 33.73 30.81 29.90 30.18 30.07 29.99 28.90 28.63 28.69 23.64 26.82 29.65 30.21 28.95 30.04 30.83 19.87 17.41 16.56 24.31 26.11 26.08 25.35 21.25 25.57 24.71 25.84 24.40 20.05 17.66 15.59 14.02 10.08 10.41 7.31 6.09 5.69 6.54 4.29 5.18 5.95
32.19 31.56 30.81 30.52 30.87 30.15 30.26 30.35 29.24 28.98 26.29 24.53 19.26 27.49 30.81 31.19 29.76 29.39 23.20 21.36 22.94 20.05 24.95 22.53 24.61 24.68 22.70 24.84 24.91 24.46 24.63 17.61 15.86 15.93 13.32 8.65 5.02 4.26 1.58 -1.50 4.07 1.93 1.94 5.51
29.72 30.07 30.20 29.09 28.55 26.82 27.43 27.72 25.92 26.27 26.55 24.06 24.37 28.04 29.84 30.62 28.96 25.15 24.65 24.55 25.48 25.77 23.35 22.41 25.21 24.46 22.82 25.84 25.75 24.17 19.27 12.44 12.37 11.53 5.39 6.29 1.76 -0.60 -1.87 1.04 2.84 2.48 -2.95 1.76
28.07 28.45 26.85 25.95 26.27 26.22 24.41 24.76 22.87 23.82 26.18 23.34 25.11 29.22 30.61 30.32 26.30 26.28 23.94 24.28 26.05 23.13 23.46 24.26 25.03 24.67 26.20 25.84 25.04 24.70 23.24 22.34 20.71 12.98 5.75 5.02 4.62 3.01 -1.87 -6.40 -5.49 -2.95 -2.77 -0.23
28.45 26.47 24.40 23.64 23.51 25.19 26.70 24.55 23.74 23.16 23.52 24.06 26.50 30.61 31.69 30.23 25.75 25.21 26.66 25.79 26.46 24.98 25.62 24.78 24.90 23.87 25.61 25.59 24.40 24.35 24.32 24.12 23.06 14.28 9.10 6.40 6.87 6.66 2.12 -5.13 -4.58 -3.50 -3.50 -0.97
28.73 27.70 27.66 24.83 24.18 27.42 27.75 26.53 25.13 23.81 24.24 26.09 28.75 31.71 30.27 29.60 26.14 22.52 21.72 25.02 25.12 23.70 23.22 25.27 25.01 25.98 26.98 24.91 23.61 23.77 23.95 23.91 22.16 14.75 11.42 11.37 10.96 10.06 6.69 1.04 -4.22 -4.22 -2.41 0.66
28.47 28.23 28.28 27.93 24.63 22.93 24.66 28.42 27.03 28.20 29.43 30.15 30.55 30.96 28.00 21.21 17.92 20.81 22.93 22.60 25.36 22.33 18.93 25.47 25.90 25.94 25.41 23.36 23.67 23.96 23.20 22.73 19.78 12.93 14.06 13.26 7.79 7.94 8.63 2.45 -2.95 -4.95 -4.58 -2.59
25.97 26.32 25.66 23.12 25.02 28.29 28.22 29.12 29.27 30.54 30.72 30.86 27.32 23.49 24.05 22.80 21.27 19.05 17.59 23.18 24.02 19.67 21.72 25.21 25.85 25.97 25.51 25.33 21.85 21.67 23.54 22.13 20.11 16.55 15.49 14.93 14.41 8.90 8.82 9.67 6.21 -1.14 -2.05 -0.64
27.77 27.46 28.31 28.13 29.20 28.71 28.34 28.64 29.81 31.07 30.68 26.91 18.81 19.02 23.40 20.00 20.43 22.42 24.81 25.37 19.20 19.21 23.95 22.84 23.15 23.87 22.80 20.10 14.24 13.39 17.89 19.59 17.83 17.27 15.44 15.24 15.76 12.38 11.32 9.18 7.22 6.64 3.70 5.29
25.12 21.64 25.33 28.07 30.02 27.22 25.91 30.75 31.23 30.81 31.57 26.81 23.51 20.25 27.35 25.07 26.42 26.03 25.47 25.18 24.67 24.36 18.96 16.66 21.11 20.16 22.97 22.97 20.18 10.92 13.42 18.75 18.54 17.41 15.80 16.83 15.02 15.74 12.69 13.21 10.70 8.33 5.12 5.50

GFSNGP_sfc_wetblb_021.txt.gz
Wetbulb
36.38 37.55 36.69 36.44 36.45 36.92 35.57 36.67 33.04 35.62 36.13 39.65 41.59 41.52 43.60 44.46 44.45 44.59 44.78 44.66 44.40 43.36 42.69 43.45 44.03 43.39 43.04 42.79 43.09 43.34 42.76 42.33 41.62 41.06 41.79 40.97 40.56 40.97 40.72 40.53 39.99 39.81 36.61 34.15
33.07 35.66 35.19 33.23 36.05 36.30 36.74 37.19 36.50 37.34 36.66 43.17 42.70 44.22 42.76 43.00 43.04 42.99 42.42 42.35 42.15 41.56 42.43 41.35 39.90 39.71 40.08 40.59 41.63 42.58 41.69 41.51 41.00 40.95 41.28 40.75 40.16 40.88 40.74 40.58 39.32 35.28 33.44 32.47
29.64 32.12 31.92 29.51 32.99 34.98 36.39 37.60 37.82 33.73 38.98 41.24 41.57 41.17 41.87 42.43 42.70 40.85 40.67 40.71 40.42 41.01 39.83 38.69 38.73 39.25 39.50 40.36 41.24 39.94 40.22 40.91 39.82 38.84 38.95 39.25 37.67 35.47 33.99 33.87 33.71 32.66 32.15 31.89
31.08 29.55 25.69 36.21 39.57 39.65 37.60 38.59 39.33 38.19 39.07 40.99 42.77 43.37 43.09 43.12 40.71 39.96 39.57 39.92 40.65 39.46 38.40 38.72 39.14 39.40 40.16 40.52 39.71 38.79 38.26 38.41 37.43 36.06 35.21 34.66 34.17 33.52 33.15 32.58 31.58 31.28 31.06 30.99
29.44 28.38 32.27 36.38 38.29 37.29 35.85 36.34 39.62 38.30 40.77 42.49 42.98 42.12 43.21 41.61 41.18 40.86 40.00 41.09 40.11 39.02 38.97 38.55 38.57 39.68 39.30 39.69 38.98 36.70 35.55 34.91 34.79 34.04 33.49 33.12 32.13 31.33 31.78 31.34 30.96 30.58 30.47 29.66
30.90 27.56 25.86 34.91 38.01 42.51 40.79 31.98 39.66 42.10 40.97 40.91 41.66 35.51 39.56 39.26 39.16 39.20 41.73 41.06 38.69 38.80 38.55 38.10 38.76 39.56 39.60 38.75 37.46 34.36 35.03 35.16 34.46 33.12 32.28 31.38 30.72 30.49 30.74 30.64 29.50 29.57 28.36 28.77
30.75 28.36 32.39 38.13 39.31 40.70 30.87 34.40 41.85 41.96 41.53 41.23 39.09 39.38 38.25 39.65 40.19 41.17 41.56 38.93 38.35 38.01 37.40 37.77 38.34 37.85 36.58 36.24 36.33 34.64 36.24 34.30 33.06 32.63 31.50 31.22 30.29 30.30 29.72 29.45 28.51 27.52 26.98 27.60
28.38 27.74 25.74 38.70 39.83 35.32 40.21 41.81 42.12 42.13 42.39 41.16 38.15 37.53 37.72 38.57 39.03 39.77 39.94 37.82 37.08 36.76 37.05 37.89 36.06 35.21 34.83 34.57 35.89 36.03 33.96 32.78 32.44 32.06 30.86 29.91 29.38 29.42 28.83 28.44 27.34 26.15 25.90 26.43
33.36 33.87 39.73 40.25 41.22 43.72 43.06 40.99 40.79 41.18 38.43 36.04 35.10 35.98 37.26 37.32 38.39 39.23 39.61 37.86 36.84 36.50 36.94 36.92 36.85 35.77 34.81 35.86 35.19 33.42 32.48 31.83 31.16 30.81 29.89 29.84 28.80 28.07 27.64 27.71 26.25 25.63 25.54 24.85
35.54 39.81 40.92 42.38 45.16 44.04 43.08 40.17 39.54 39.10 37.69 38.06 34.84 36.74 37.43 38.32 38.56 39.13 38.76 36.38 36.27 36.88 36.68 35.87 37.05 36.14 35.76 34.07 32.98 32.04 31.35 30.46 30.53 29.94 29.63 30.08 29.47 28.25 27.62 27.13 25.67 24.80 24.38 23.95
37.09 40.95 42.35 42.39 43.13 40.73 38.23 37.46 36.26 36.72 37.04 36.65 37.48 37.48 37.65 37.80 37.66 37.54 36.67 36.54 36.43 36.58 36.30 35.69 36.65 35.16 33.97 33.39 32.46 31.21 30.16 29.83 29.57 29.12 28.47 28.29 27.72 27.55 27.30 27.67 25.91 25.05 24.32 24.39
35.80 42.14 42.09 39.73 39.47 38.64 36.11 35.25 36.22 36.68 37.53 38.78 37.71 36.30 36.89 35.79 36.43 35.83 35.81 36.62 36.03 36.28 36.24 35.55 34.82 32.95 32.86 32.92 31.71 30.57 29.18 29.02 28.46 28.10 28.08 27.39 26.69 26.39 26.68 25.50 25.55 25.38 24.79 24.36
42.33 44.11 40.66 38.77 37.57 37.50 35.84 36.84 36.89 36.73 35.55 33.81 34.94 35.89 35.36 34.54 35.02 34.63 35.42 35.22 35.26 35.40 35.37 33.75 32.01 31.82 32.02 30.72 29.29 28.38 27.95 27.77 27.79 26.00 27.10 26.25 25.76 24.94 23.31 25.10 23.73 23.39 23.33 23.08
40.18 40.48 37.28 38.06 35.88 37.65 36.04 35.84 36.11 35.23 34.73 34.35 34.59 34.53 34.23 33.83 34.03 34.06 33.96 34.77 34.75 34.81 33.63 31.96 30.98 30.15 30.67 30.64 28.95 26.05 26.43 22.55 26.49 27.32 27.15 26.33 25.60 24.90 23.86 22.40 20.99 21.71 21.95 21.46
34.29 36.03 35.58 35.91 35.91 35.93 36.69 35.94 34.09 33.59 33.41 32.89 33.76 32.90 33.14 32.56 33.05 33.17 33.08 32.76 32.93 32.71 32.39 30.94 28.98 28.14 29.58 29.47 28.29 27.66 27.64 28.24 27.55 27.22 26.42 24.68 25.22 24.82 23.86 22.69 21.89 21.12 20.99 20.43
34.41 35.02 34.81 33.81 34.13 34.69 34.63 34.01 32.81 32.73 33.09 32.98 32.47 31.72 32.28 32.09 30.78 30.78 31.91 31.89 29.35 30.07 31.40 26.76 26.64 28.39 28.51 29.78 28.94 28.54 27.86 27.47 25.30 27.25 27.07 26.18 25.12 23.78 22.70 22.12 21.21 20.40 19.55 18.14
32.91 31.06 32.20 32.01 32.41 32.92 32.31 32.73 32.58 32.25 32.67 31.91 31.20 30.10 28.96 29.57 30.23 30.72 32.32 32.05 30.63 29.08 26.72 26.81 28.56 28.90 27.94 28.91 28.78 29.15 28.74 27.98 25.06 26.68 26.47 25.31 24.42 23.36 22.46 21.73 20.49 19.84 19.43 17.88
36.23 35.72 34.86 33.34 31.61 31.33 31.55 32.20 31.89 31.27 30.56 31.34 29.20 26.44 23.98 25.94 28.43 31.12 32.00 31.13 27.05 24.59 26.29 28.24 28.32 27.92 26.48 28.17 28.21 27.40 27.33 26.92 26.08 26.28 25.95 25.35 24.48 23.17 21.93 20.54 19.99 19.17 19.32 18.46
33.74 32.27 32.10 31.64 31.91 31.23 30.77 30.72 30.29 30.29 28.62 28.18 26.94 26.56 26.75 27.16 29.05 31.56 31.90 28.31 26.01 26.33 28.35 28.13 27.84 27.86 27.15 27.37 27.85 28.41 27.05 26.69 26.00 25.85 25.34 22.26 23.75 23.09 21.70 21.04 20.28 19.99 18.79 18.01
31.70 32.11 31.96 31.48 30.81 28.49 28.44 29.10 28.05 28.27 28.92 28.18 26.74 25.40 25.98 27.71 29.31 30.55 30.83 28.11 28.11 29.71 29.01 27.75 27.50 27.84 27.43 28.13 27.62 27.21 26.57 25.47 24.71 25.32 25.09 24.37 23.35 22.64 21.91 16.89 17.88 19.58 19.64 18.68
29.15 30.28 28.77 27.67 27.84 27.38 25.31 26.31 25.50 26.61 28.40 27.14 25.01 25.70 26.54 28.15 31.38 31.54 28.68 26.99 29.62 28.39 27.93 26.47 28.16 28.20 28.48 28.58 27.75 27.96 27.03 27.03 27.20 26.84 25.91 24.74 23.13 22.75 21.65 20.80 19.79 19.32 19.49 19.40
30.39 28.49 26.63 26.34 26.13 27.01 28.27 27.80 28.19 26.25 25.63 25.77 27.85 28.50 28.93 30.52 31.28 30.27 27.37 28.69 30.43 25.69 28.78 29.15 28.82 27.74 28.66 28.57 28.64 28.23 27.49 27.47 27.48 27.49 26.11 25.44 24.02 22.77 22.57 21.16 19.54 20.14 19.54 18.98
30.20 29.29 29.08 26.97 25.98 28.80 28.83 27.78 26.74 26.19 26.12 29.02 30.07 30.28 30.38 30.83 30.35 27.89 27.64 29.27 29.58 29.04 29.12 29.96 28.07 28.75 29.07 30.49 29.53 28.79 28.45 27.58 27.43 27.41 26.68 25.89 24.78 23.69 22.40 21.93 20.79 19.28 19.37 19.05
30.15 30.00 29.73 29.53 26.83 25.47 26.36 29.66 30.07 29.84 29.34 31.07 31.63 32.04 30.14 28.97 29.30 28.72 29.04 24.14 23.03 25.74 28.31 28.68 29.09 28.65 29.00 30.27 29.26 28.10 27.81 27.52 27.05 27.12 26.82 22.73 24.72 23.36 21.88 21.09 19.24 19.96 17.50 14.83
28.52 28.30 27.90 25.90 27.80 29.63 29.61 30.12 29.65 30.11 30.88 32.17 32.70 29.97 27.53 29.33 30.01 29.64 28.76 28.68 26.90 27.57 29.04 26.13 28.68 27.69 29.71 29.11 27.80 26.90 26.27 26.59 26.54 26.24 26.21 26.13 25.52 24.24 23.30 21.98 19.67 19.24 18.16 17.33
29.92 29.88 29.87 29.31 29.66 29.76 29.87 29.57 28.58 29.91 31.57 31.56 32.35 30.08 29.82 30.33 28.84 26.64 27.35 28.21 28.42 26.47 28.72 29.64 28.97 29.14 28.76 27.73 26.84 25.24 24.56 24.99 25.31 24.99 23.87 24.73 25.07 24.42 23.41 21.91 20.54 18.88 18.12 18.00
28.67 23.59 27.79 28.84 29.69 30.51 30.25 29.42 29.38 29.91 32.01 32.07 31.07 30.99 29.20 31.43 30.23 29.24 28.27 29.08 28.65 28.35 28.57 28.42 28.47 27.49 27.58 27.69 27.34 25.01 23.78 23.86 21.51 21.60 23.07 24.19 24.29 24.20 23.77 23.04 22.30 20.84 19.07 16.87

GFSNGP_sfc_wetblb_024.txt.gz
Wetbulb
41.48 42.01 41.85 40.67 39.99 40.69 39.26 40.15 35.88 39.08 39.84 43.49 45.44 46.28 47.36 47.48 47.96 47.59 47.98 47.83 47.82 45.93 45.89 46.15 44.42 43.47 43.83 44.24 44.46 45.13 44.39 44.02 42.93 44.76 42.52 41.87 40.50 40.88 42.19 42.73 42.18 41.48 40.40 39.47
36.97 40.60 40.70 38.18 40.77 40.99 40.85 41.03 41.01 41.11 40.39 46.71 46.83 47.48 46.59 46.69 46.84 46.64 46.62 46.41 44.43 42.71 44.60 43.21 42.21 42.22 42.56 43.25 43.75 44.27 43.47 42.58 41.75 42.40 42.15 42.06 42.23 40.89 40.66 39.61 39.25 38.91 38.16 37.51
35.14 37.17 36.92 34.28 38.56 39.70 40.75 42.39 41.67 37.71 42.59 45.55 44.87 45.15 46.14 46.46 46.75 46.37 45.42 43.41 42.10 43.77 43.22 42.48 42.30 41.97 42.16 43.08 44.00 43.32 42.41 41.54 40.94 40.72 40.00 39.68 39.40 38.80 38.40 38.08 37.87 37.16 36.89 36.45
34.58 35.02 30.24 39.62 44.32 43.79 41.41 42.44 43.91 43.52 44.28 44.83 45.53 46.61 47.39 48.49 45.93 44.09 40.46 39.66 42.08 44.05 42.83 42.68 42.51 42.16 42.73 43.14 42.44 41.81 40.26 40.41 39.91 39.38 38.46 38.50 38.13 37.51 37.35 37.02 36.39 35.95 35.68 35.31
32.04 32.49 36.61 39.22 41.51 40.76 39.04 39.54 44.60 42.90 44.19 45.50 46.49 46.92 46.46 45.71 42.11 39.59 38.79 41.86 44.25 44.14 42.76 42.63 42.03 42.29 41.80 41.81 41.68 40.99 39.16 38.42 38.71 38.88 37.65 37.17 36.71 35.90 36.19 35.63 35.23 34.77 34.30 33.61
32.56 30.05 28.28 39.13 42.99 44.81 44.09 35.84 44.35 44.84 44.04 43.78 42.67 35.95 41.69 39.65 38.16 38.80 41.27 44.12 44.19 43.33 42.87 42.39 42.04 41.75 40.46 39.75 38.91 38.89 38.67 38.61 39.00 38.14 37.27 36.30 35.54 35.14 35.29 35.08 33.89 33.55 32.16 32.35
33.51 31.89 35.75 43.41 43.12 44.20 33.64 36.72 44.32 44.88 44.09 41.42 39.41 39.35 38.45 37.85 39.01 42.18 42.86 43.43 44.40 43.70 42.31 42.12 42.02 40.68 38.73 38.77 37.87 38.69 39.43 39.08 38.36 37.78 36.69 35.66 35.34 35.18 34.34 33.78 32.65 31.59 31.11 30.05
32.82 30.43 28.88 43.75 42.94 37.48 42.72 46.13 45.62 46.30 44.50 40.87 37.40 36.29 37.08 38.61 39.35 40.80 41.27 41.57 42.94 42.38 42.04 42.28 42.00 40.24 38.57 38.27 39.76 39.74 39.41 38.11 37.38 36.67 35.31 34.58 34.54 34.50 33.79 33.09 30.96 30.67 29.07 29.66
38.51 38.65 45.85 47.35 44.86 47.03 48.23 46.29 44.04 39.46 36.97 37.04 35.59 36.49 38.80 39.33 40.51 41.11 41.69 42.10 42.61 41.84 41.16 41.69 41.86 41.03 38.72 39.24 39.85 38.86 37.59 36.76 36.13 35.28 34.80 35.00 34.06 33.21 32.11 31.21 29.06 27.90 27.50 26.93
40.21 42.90 44.89 46.62 48.29 45.92 44.99 40.73 40.33 39.37 39.04 38.88 37.92 38.78 39.08 39.70 40.12 40.44 40.56 39.84 40.39 40.02 39.46 39.76 41.26 41.01 40.59 40.00 38.97 37.60 36.04 35.57 35.23 34.40 33.34 34.48 33.86 32.64 30.94 28.86 27.40 26.41 26.24 25.64
41.44 43.65 44.71 45.76 45.17 41.38 38.68 38.40 38.02 38.82 38.31 38.37 39.15 38.56 38.20 37.75 37.88 38.23 38.53 39.00 39.37 38.96 39.07 39.40 40.14 40.40 40.37 38.85 37.73 35.79 34.86 34.15 33.63 33.23 33.14 32.38 31.86 31.21 30.12 29.55 27.51 26.43 26.15 25.82
37.93 43.93 42.67 41.22 38.70 39.05 36.16 35.77 37.69 37.79 38.49 39.56 38.58 36.80 37.32 36.80 37.62 37.88 37.84 38.49 38.30 38.48 38.40 38.78 38.85 39.36 38.95 37.94 36.30 34.79 32.98 32.81 33.06 32.45 32.51 31.31 30.55 30.01 28.65 26.69 25.37 24.95 24.37 24.63
42.33 44.91 41.40 38.38 37.96 36.90 36.85 37.60 38.76 39.23 39.33 37.47 38.31 37.99 37.12 36.56 37.02 36.06 37.77 38.15 37.68 37.62 37.83 37.98 37.61 37.34 36.92 35.31 33.53 32.47 31.90 31.70 32.01 30.44 30.46 29.63 29.03 27.59 26.62 28.49 25.88 24.29 23.14 23.05
44.00 41.30 36.73 38.14 35.10 38.76 38.73 39.82 39.84 38.83 38.92 38.50 38.09 38.29 37.92 37.11 36.91 36.74 36.60 37.29 37.17 36.68 36.27 34.73 34.62 34.42 35.08 34.43 32.52 31.49 30.98 28.40 30.84 30.53 29.66 28.99 28.21 27.51 26.99 25.64 24.67 26.22 25.04 22.32
37.77 41.45 40.24 39.11 38.74 39.43 39.12 38.18 36.61 36.30 36.83 36.43 37.38 36.71 36.80 35.53 35.38 35.85 36.93 36.12 35.95 36.12 35.48 35.45 33.84 32.89 33.48 32.75 30.80 30.56 30.48 29.99 29.80 29.87 29.50 28.36 28.42 27.44 26.60 25.57 25.07 25.30 25.57 24.42
37.86 38.32 37.19 35.96 35.80 36.42 36.53 36.28 35.19 35.04 35.54 35.47 35.50 35.03 36.01 36.10 35.79 35.72 36.52 36.70 34.57 34.29 34.49 32.59 30.62 31.84 31.71 31.70 30.97 30.81 29.66 28.48 28.96 29.03 28.84 28.39 27.80 26.53 25.78 25.15 25.00 24.82 24.19 22.78
35.90 32.79 33.96 34.27 34.59 34.77 35.08 35.83 35.27 34.87 34.96 34.21 34.34 34.27 33.26 32.14 31.49 32.87 34.64 35.13 35.11 33.14 32.96 30.90 31.04 32.12 30.02 30.75 30.19 30.29 29.64 29.13 28.18 28.29 28.15 27.76 27.04 26.12 25.72 24.96 24.87 24.39 24.17 22.49
36.91 36.61 36.47 35.72 34.84 34.69 34.85 35.10 34.95 34.36 33.83 34.34 32.30 31.38 30.71 30.55 30.41 31.09 31.90 33.24 33.69 32.60 32.14 31.51 31.50 30.31 29.57 30.72 30.45 29.80 28.49 27.48 27.98 27.97 28.13 27.58 27.14 26.54 25.68 24.86 24.38 23.87 23.82 23.64
36.31 35.70 36.03 35.49 36.18 35.43 34.76 34.41 34.29 33.49 32.29 32.16 31.50 30.74 30.76 30.46 31.12 31.91 32.67 32.06 32.24 31.25 31.74 30.95 29.10 29.39 29.27 29.33 29.26 30.17 28.58 28.41 27.87 27.69 28.11 26.91 27.26 26.54 26.02 25.45 24.70 24.57 23.62 23.23
35.29 35.96 36.25 36.00 35.46 33.59 32.65 33.40 32.72 32.69 33.10 32.59 31.41 30.41 30.73 31.40 31.67 31.16 31.85 31.85 32.66 32.37 32.27 30.97 30.00 30.15 29.88 29.57 28.60 28.91 28.63 28.91 28.07 28.03 28.65 28.02 27.40 27.01 26.44 24.54 24.19 24.25 23.89 23.28
33.50 34.57 34.07 33.23 33.06 33.02 31.81 31.97 30.95 30.97 32.21 31.59 30.18 29.94 30.75 31.48 31.60 31.86 31.79 30.82 32.27 31.77 31.34 29.54 30.95 31.67 30.43 30.38 28.89 30.01 30.12 29.69 29.33 29.13 29.22 28.96 28.24 27.08 26.56 26.05 25.37 24.67 24.17 23.64
34.12 33.70 32.83 32.41 32.26 32.38 33.52 33.88 33.24 31.74 31.39 31.10 30.81 31.14 32.06 32.18 32.50 32.27 32.57 30.08 32.76 29.59 31.50 31.56 31.39 30.10 29.92 29.15 30.26 31.08 29.57 28.85 29.32 29.48 28.46 28.39 28.01 27.20 26.82 26.73 25.46 25.22 24.36 23.66
34.16 33.82 33.43 32.87 31.86 33.10 33.42 32.71 32.02 31.79 30.99 31.14 30.68 31.58 32.26 32.65 31.70 29.56 29.47 32.57 33.34 31.35 31.62 32.94 31.15 29.34 29.82 32.04 31.85 31.24 30.49 29.97 29.54 29.26 29.73 29.68 28.85 27.86 27.14 26.68 26.40 25.61 24.69 23.77
34.24 34.26 34.00 34.06 33.56 31.62 31.83 34.11 33.42 32.91 31.57 31.85 32.47 33.58 33.23 32.16 31.84 33.46 34.09 30.47 29.02 30.96 32.33 32.90 31.53 29.81 29.55 31.88 31.51 30.70 29.75 29.37 28.65 28.71 29.13 28.20 29.17 28.35 27.55 26.85 25.84 25.74 24.69 22.40
33.78 33.34 33.10 32.53 32.25 34.17 34.12 34.41 33.19 32.60 30.88 31.67 32.65 34.12 34.50 33.63 31.69 33.65 32.42 32.77 29.34 29.69 32.36 31.12 29.28 29.67 31.24 31.51 30.87 29.62 29.14 28.10 27.87 27.40 27.73 27.86 28.36 28.74 28.67 27.62 26.43 25.75 24.92 24.18
34.18 34.64 34.91 34.05 33.72 34.34 34.41 33.66 31.40 30.52 30.05 31.32 33.89 33.33 34.05 33.51 33.45 33.26 32.95 32.18 32.40 31.26 32.03 32.78 32.24 31.88 31.51 30.88 29.99 28.95 28.36 27.96 26.79 26.16 26.14 26.63 27.43 27.31 27.53 27.73 27.29 25.85 25.15 24.84
34.68 32.30 33.84 34.47 35.30 34.42 33.30 32.17 31.00 31.00 32.46 32.12 31.94 33.13 34.00 33.51 33.11 32.75 31.74 32.06 32.06 32.06 31.88 32.06 31.33 30.43 30.58 30.50 29.66 29.15 28.27 27.91 26.15 25.61 25.75 25.80 25.80 26.15 26.49 27.09 28.05 27.38 25.91 24.57

GFSNGP_sfc_wetblb_027.txt.gz
Wetbulb
43.77 43.99 43.54 42.54 42.09 42.78 41.18 41.75 37.78 40.58 41.40 44.66 46.90 47.30 48.13 49.50 49.63 49.49 49.41 49.02 48.72 48.29 48.46 47.03 46.73 45.16 44.91 44.50 45.30 45.94 44.93 44.68 44.24 43.31 43.62 44.04 43.35 42.75 42.98 42.56 41.02 40.96 40.23 39.87
39.26 42.79 42.54 40.38 42.36 42.73 42.78 42.65 42.25 42.11 41.10 46.90 48.60 48.89 48.18 48.76 48.39 48.29 47.26 48.56 47.75 46.29 44.51 44.89 44.57 44.51 43.98 44.20 44.30 45.36 44.44 43.75 43.56 41.82 41.45 41.31 41.56 40.78 40.52 39.94 39.89 39.71 38.68 38.42
36.14 40.55 39.30 36.46 40.72 41.91 42.60 43.94 42.91 38.59 43.40 47.30 46.44 46.52 46.88 46.61 46.40 46.50 45.38 46.14 43.16 41.73 43.51 44.99 44.83 44.53 43.03 43.25 44.31 43.95 43.59 42.98 41.48 41.32 40.81 40.72 40.55 39.94 39.32 38.60 38.69 37.92 37.69 37.54
35.62 35.52 30.93 41.86 46.24 45.49 43.26 44.02 45.32 44.93 45.98 46.55 46.96 47.53 48.64 47.12 44.21 44.14 43.81 41.22 40.47 42.62 44.87 45.23 44.56 44.29 44.07 43.75 43.20 43.25 42.78 42.13 41.34 40.33 39.80 39.53 38.85 38.09 38.40 37.79 37.20 36.81 36.38 36.20
33.92 34.28 37.95 40.76 43.49 42.49 41.05 40.64 46.05 44.74 46.22 46.76 46.48 47.09 46.54 46.02 44.68 41.62 39.69 40.48 43.14 45.42 45.31 44.77 44.69 45.11 43.80 42.72 42.29 41.51 41.02 40.58 40.07 39.82 38.69 38.34 37.86 37.36 37.16 36.79 36.12 35.74 35.55 34.59
35.36 31.05 29.53 40.48 45.21 46.58 45.78 36.78 46.15 46.75 45.70 45.23 45.67 39.79 40.08 39.03 40.23 41.17 42.59 44.75 44.45 44.61 45.12 45.11 45.22 44.93 43.15 41.97 41.21 40.31 40.44 40.00 40.09 39.37 38.32 37.87 37.45 36.53 36.63 36.31 35.16 34.96 33.46 32.48
34.98 33.33 37.33 44.32 45.47 46.59 34.78 37.81 46.79 46.68 43.74 41.67 39.77 39.34 40.79 39.73 39.48 43.45 43.87 43.79 44.34 44.23 44.09 44.80 45.04 44.09 42.22 41.81 40.56 41.39 41.46 40.82 39.94 39.27 38.30 38.00 36.81 36.78 36.06 35.43 34.50 33.57 32.55 32.10
35.88 32.32 29.95 46.07 45.03 38.84 43.96 47.86 45.63 45.28 42.24 39.88 41.09 39.42 38.59 41.44 42.76 42.89 42.78 43.33 43.86 43.15 42.59 43.17 43.52 42.66 41.35 40.84 42.18 42.00 41.26 40.12 38.78 38.27 37.82 36.85 36.19 36.05 35.47 34.44 33.21 32.85 32.25 31.50
40.00 40.31 47.32 48.04 46.48 47.87 48.70 45.57 43.89 39.82 39.96 40.13 40.14 40.64 41.12 41.09 41.71 41.50 41.51 41.38 41.82 40.94 40.55 41.37 41.89 41.61 39.92 41.31 41.97 40.91 39.82 38.56 37.88 37.82 37.01 36.65 35.57 34.68 33.53 33.16 31.38 29.91 28.91 28.93
41.98 44.50 45.13 46.32 48.23 47.31 45.98 43.32 41.60 41.44 41.35 41.47 39.40 40.88 40.51 40.12 39.79 39.82 39.94 39.54 40.25 39.72 39.10 39.24 40.58 40.29 40.29 41.05 41.61 40.60 37.83 37.47 36.83 36.14 34.88 35.30 35.13 34.32 32.43 31.42 29.02 27.56 27.41 26.97
42.38 45.47 45.70 44.60 43.28 42.17 41.11 40.14 39.31 40.37 40.73 40.92 41.04 39.98 39.71 38.83 38.72 38.81 38.81 39.07 39.13 38.78 38.85 38.87 39.71 39.46 40.02 40.42 40.10 37.98 36.84 35.59 35.29 35.05 34.55 33.39 33.66 32.85 31.78 31.40 29.41 27.38 26.62 25.84
39.20 43.72 43.45 41.14 41.17 40.32 38.40 39.30 40.05 40.02 40.60 41.39 40.71 39.12 39.43 38.74 39.17 39.07 38.48 38.63 38.63 38.63 38.67 38.42 38.74 38.57 38.48 39.58 39.02 36.48 33.88 33.86 34.23 33.72 32.78 32.23 31.54 31.61 31.43 28.90 26.87 26.07 25.04 24.42
45.21 43.15 40.92 39.84 39.35 39.03 39.64 40.27 41.23 41.17 40.36 38.97 39.65 39.32 38.86 38.03 38.56 37.29 38.68 38.49 38.09 38.04 38.24 38.19 37.35 36.88 38.50 37.43 35.81 33.89 32.83 32.57 33.18 31.40 31.59 30.71 30.20 29.16 27.35 29.80 28.46 27.18 25.47 23.76
43.83 42.14 37.17 37.38 39.17 41.51 41.22 41.94 41.36 40.21 40.11 39.51 38.99 38.92 38.25 37.43 37.91 37.83 37.57 38.33 38.65 37.95 37.23 36.92 36.77 36.32 37.35 36.18 34.56 33.80 32.29 30.76 31.94 31.22 30.66 29.88 29.16 28.52 27.99 27.18 26.40 27.32 27.02 24.49
41.33 43.45 43.35 43.15 41.75 41.40 40.76 39.99 38.28 38.00 38.25 37.72 38.16 37.61 37.57 36.61 36.32 36.71 37.85 37.67 37.49 37.26 37.32 37.14 35.80 34.65 35.16 34.26 33.04 32.38 31.63 31.11 30.86 30.59 30.48 29.94 29.42 29.59 28.52 27.51 27.03 26.69 27.84 26.43
41.18 41.51 40.27 38.12 37.79 38.35 38.50 38.05 36.94 36.76 36.89 36.63 36.53 36.16 36.69 36.37 36.08 35.93 36.38 36.19 33.86 33.53 34.72 33.99 33.14 33.35 33.39 32.97 32.06 32.00 32.06 29.74 29.35 29.59 29.67 29.67 29.41 28.16 27.18 27.45 26.26 26.95 26.15 25.99
39.13 35.90 36.43 35.70 36.53 36.99 36.75 37.75 37.14 36.41 36.04 35.48 35.55 35.07 33.79 33.36 32.88 33.86 33.33 33.99 33.78 33.17 33.89 33.17 31.99 33.48 32.31 32.25 31.43 32.37 30.98 30.13 29.75 29.44 29.01 29.57 28.68 27.60 27.40 27.14 25.95 26.07 26.47 25.23
39.38 38.69 38.20 37.58 36.71 36.51 36.82 36.98 36.57 35.98 35.06 35.37 33.84 32.76 31.96 31.62 31.51 31.85 32.74 33.21 33.11 33.32 34.59 33.63 32.21 31.46 31.19 32.09 31.36 31.35 29.74 28.79 28.54 28.66 29.08 29.04 29.09 27.73 27.37 26.80 26.39 26.00 26.46 25.94
38.34 37.18 37.67 37.45 37.90 37.23 36.70 35.93 35.70 35.20 33.66 34.14 33.41 32.16 32.39 32.12 32.91 33.41 33.48 32.47 31.97 32.35 33.15 31.80 29.85 29.70 31.00 30.15 29.43 30.33 30.17 29.80 29.08 28.92 29.75 28.87 28.96 29.21 28.55 28.36 27.45 27.06 26.56 25.19
36.62 37.45 37.39 37.23 36.93 35.50 34.72 35.53 34.89 34.74 35.00 34.52 32.97 32.05 31.80 32.03 32.66 32.59 32.99 32.02 33.29 33.83 32.53 31.45 30.86 30.52 30.61 30.38 28.91 29.94 30.10 29.58 28.86 29.37 30.06 29.67 29.60 29.46 29.31 27.56 27.54 26.90 26.93 25.58
35.73 35.99 35.52 35.84 35.42 35.47 34.07 34.12 33.20 32.86 34.42 33.48 32.03 31.69 30.84 31.09 33.06 33.35 32.55 31.15 32.91 32.67 32.11 30.81 31.33 32.41 31.83 30.35 30.02 31.50 31.25 30.12 30.26 30.02 29.90 30.02 29.67 29.57 29.34 28.94 28.49 27.98 27.20 25.92
36.23 35.20 34.66 34.78 34.74 34.55 35.73 35.94 35.58 34.04 33.27 32.61 32.21 30.89 30.56 31.73 33.83 33.62 33.89 32.15 33.61 31.21 32.59 32.55 31.88 31.21 31.13 29.30 30.85 32.38 30.64 30.33 29.98 30.67 30.28 30.48 29.58 29.11 29.20 29.00 28.37 28.29 27.82 26.89
35.55 35.37 35.39 35.52 34.19 35.10 36.04 34.88 33.60 32.99 32.44 32.94 31.46 30.54 31.02 32.92 33.88 31.14 29.91 33.72 33.83 32.75 32.76 34.25 32.63 29.90 29.99 32.25 32.41 31.90 31.51 31.25 30.52 30.02 30.40 31.43 31.19 30.21 29.45 28.88 28.83 28.17 27.84 26.98
35.78 35.75 35.73 35.99 36.00 35.00 33.20 35.76 36.48 36.49 34.30 34.03 32.66 32.96 32.85 31.70 33.97 35.26 34.94 33.11 30.85 31.06 32.13 33.12 32.25 30.17 30.10 32.08 31.90 31.72 31.72 31.52 29.72 29.64 29.33 28.59 30.61 31.24 30.37 29.59 28.65 28.20 27.70 26.36
35.81 35.42 35.09 34.92 34.66 35.23 35.93 36.19 36.09 35.77 34.68 33.07 32.24 33.84 35.32 35.16 32.99 34.46 34.07 34.06 31.79 32.07 33.51 32.53 30.75 30.09 31.64 31.17 31.72 31.72 31.55 30.62 29.50 28.97 27.64 27.60 27.74 28.82 30.33 30.21 29.61 28.71 28.03 27.23
35.53 36.00 36.94 36.57 36.36 36.28 36.42 35.93 34.04 33.57 32.49 32.02 34.64 34.75 34.25 34.98 34.78 34.78 34.07 33.36 33.66 33.50 33.48 32.99 32.26 31.90 31.72 32.08 31.90 31.69 31.00 29.32 28.61 28.24 27.19 26.61 27.03 27.24 27.52 28.10 28.76 29.62 28.32 27.32
36.81 34.24 36.69 36.47 37.26 36.88 36.00 33.81 32.61 32.43 33.19 33.11 32.65 33.71 34.24 34.07 33.33 33.29 32.80 32.99 32.62 32.62 32.62 32.44 32.44 31.84 31.68 31.69 31.65 31.45 31.11 29.86 28.39 27.60 26.77 26.10 26.35 26.19 26.41 26.83 27.69 29.09 29.66 28.02

GFSNGP_sfc_wetblb_030.txt.gz
Wetbulb
43.77 43.57 43.06 41.58 40.89 41.54 40.11 41.36 36.15 39.81 40.15 43.62 45.68 46.61 47.55 48.21 48.50 48.18 48.11 48.35 47.69 47.18 46.86 46.34 46.28 45.74 45.31 44.77 44.10 44.45 43.69 43.58 42.81 42.44 41.93 41.45 41.76 41.64 41.06 40.40 39.68 39.08 38.38 37.30
39.33 42.99 42.13 38.79 40.61 42.03 42.04 42.18 41.82 41.85 40.91 46.92 48.34 48.24 47.29 47.37 46.87 46.55 46.65 46.75 46.40 45.45 44.42 44.39 44.98 45.22 44.77 43.97 43.30 43.79 42.81 42.53 42.80 41.95 41.45 41.36 40.58 39.95 40.08 38.98 38.57 37.60 35.96 35.94
36.48 39.77 38.31 36.07 40.43 41.64 42.26 43.57 42.72 38.30 42.97 46.73 45.12 45.31 45.96 45.79 45.83 45.07 44.42 44.49 43.80 43.30 43.54 44.68 45.29 44.69 43.09 43.27 43.63 42.85 42.01 42.57 42.73 41.77 40.54 40.03 39.89 39.13 37.86 36.92 36.24 34.76 34.73 34.65
34.57 35.43 30.29 41.16 45.32 44.71 42.51 43.57 44.68 44.16 45.22 45.72 45.14 46.38 45.77 45.33 43.81 43.02 42.66 42.62 42.37 42.75 43.86 45.37 45.04 44.26 44.32 44.58 43.00 42.25 41.36 40.96 41.33 40.37 39.19 39.64 39.01 37.57 36.96 35.10 33.83 33.04 32.78 33.13
34.34 33.79 37.38 40.60 43.56 42.11 40.77 39.84 45.42 44.61 44.89 45.40 45.77 45.84 43.37 44.12 43.06 42.34 42.41 42.86 43.33 44.41 44.53 43.92 43.93 44.72 44.28 43.37 42.67 41.87 41.05 40.55 40.30 39.70 38.89 38.42 37.08 36.28 34.70 33.73 32.94 32.40 32.95 31.35
35.68 29.62 28.64 40.38 44.85 47.11 45.74 35.54 46.00 45.09 43.66 42.71 43.29 37.28 39.84 42.76 42.96 41.84 42.50 43.91 43.29 43.95 43.68 43.55 43.35 43.17 42.21 41.71 41.44 41.18 41.26 40.34 40.38 39.90 39.03 37.65 36.87 34.75 34.02 33.53 32.80 32.40 31.01 30.73
34.51 31.97 35.84 43.83 45.91 46.93 34.10 36.92 45.55 44.45 42.47 41.09 38.86 40.34 42.14 42.82 41.98 43.32 43.79 43.05 42.99 42.31 41.18 41.01 41.59 41.12 39.83 39.55 39.18 40.92 41.56 40.87 40.48 39.93 38.49 37.80 35.76 34.52 33.64 31.93 31.14 29.84 29.85 30.12
34.99 32.56 29.76 46.57 45.46 38.23 44.06 47.12 45.33 43.98 42.29 40.72 41.26 41.10 41.52 41.79 41.71 41.84 40.75 40.90 40.92 39.62 39.48 40.50 40.63 39.81 38.62 38.09 39.70 41.15 41.28 40.27 39.17 38.63 37.69 36.90 34.62 33.50 32.97 30.84 29.82 26.99 25.57 26.94
39.21 38.08 47.04 48.11 46.11 47.75 47.47 43.95 42.99 42.04 42.36 40.99 40.49 39.62 40.68 40.16 40.21 40.08 39.82 39.27 39.53 38.48 38.31 39.11 39.99 39.86 37.85 38.36 39.65 39.35 39.48 39.06 37.99 37.61 36.66 35.87 33.06 31.65 29.92 29.58 27.87 26.14 27.01 25.75
43.62 45.01 45.93 46.18 46.75 45.76 44.52 42.79 42.44 42.09 41.79 41.12 39.34 40.35 39.91 39.37 39.14 38.97 39.08 38.60 39.06 38.14 37.49 37.78 39.43 39.08 38.64 38.72 38.64 38.20 37.55 36.95 36.18 34.55 34.55 33.53 33.54 31.93 28.98 28.05 26.42 27.85 26.13 23.54
42.93 45.80 46.94 44.59 44.14 42.80 41.77 41.47 40.95 41.23 41.03 40.62 40.17 39.12 38.73 38.22 38.08 38.15 38.21 38.32 38.22 37.81 37.51 37.71 38.50 38.28 38.77 38.43 38.08 36.26 35.67 34.80 34.04 33.58 32.38 31.22 31.01 29.83 29.02 29.04 27.13 25.11 23.87 22.82
40.24 45.69 45.21 42.94 41.63 41.69 41.17 40.25 40.97 40.23 40.19 40.24 39.31 38.15 38.31 37.28 37.72 37.40 36.92 37.78 37.70 37.83 37.65 37.99 38.23 37.73 37.89 38.29 37.32 34.85 32.62 32.58 33.09 31.96 31.19 30.11 29.06 29.72 30.98 29.61 28.28 28.10 27.28 23.35
45.45 45.80 44.86 42.47 41.75 42.83 41.19 40.99 41.44 40.57 39.87 38.19 38.92 38.31 37.80 36.65 37.29 36.39 37.37 37.17 36.89 36.74 37.15 37.38 37.53 37.01 37.68 35.75 34.22 33.10 31.21 30.93 31.05 30.51 30.03 29.73 28.66 28.71 27.28 29.54 30.60 29.75 29.07 27.09
45.16 43.01 39.02 39.54 40.45 42.22 42.18 42.00 41.28 39.93 39.80 39.17 38.26 37.90 37.28 36.55 36.79 36.15 35.87 36.63 36.77 36.31 35.88 35.68 36.00 36.08 36.37 35.72 33.37 32.97 31.16 30.19 30.27 30.85 30.10 29.31 29.37 28.29 27.97 27.34 26.33 26.69 29.18 27.34
43.68 44.10 43.89 43.42 43.16 41.68 41.41 39.52 37.96 37.41 37.64 37.09 37.51 36.59 36.30 35.22 34.61 34.86 35.99 36.12 34.91 33.76 33.95 33.66 32.96 33.73 34.33 33.10 31.57 31.00 31.23 30.87 30.77 29.16 29.72 29.70 29.41 28.62 28.60 27.54 26.98 26.19 26.50 25.30
42.49 42.02 41.54 39.70 38.77 38.51 38.32 37.78 36.47 36.04 36.30 36.10 35.80 34.82 35.68 34.93 34.35 34.34 34.85 33.27 31.36 31.03 32.13 31.81 31.68 32.95 32.93 31.68 31.14 31.11 31.27 29.15 28.69 28.66 28.95 28.93 29.03 28.31 27.45 27.00 26.52 25.98 25.29 24.79
38.91 36.99 37.06 36.34 36.67 36.85 36.81 37.37 36.91 35.85 35.66 34.50 34.42 33.25 32.84 32.33 31.90 32.27 32.76 32.50 31.78 31.43 31.84 32.42 32.86 32.48 31.58 31.38 30.46 30.10 30.25 29.72 28.14 28.14 28.65 28.49 28.70 27.67 27.60 27.02 26.34 25.60 25.48 21.47
40.92 39.71 38.93 37.68 36.69 36.40 36.72 37.37 36.13 35.40 34.35 34.80 31.78 29.15 28.59 27.88 29.96 30.43 31.09 31.91 31.55 30.92 31.98 32.94 30.21 31.15 30.36 31.38 30.38 29.56 28.51 28.69 28.62 28.47 28.73 28.30 28.40 27.93 27.02 26.81 26.62 25.81 25.82 23.34
39.19 37.80 37.80 37.40 37.39 37.03 36.28 35.36 34.65 34.27 31.28 30.95 30.53 30.63 30.75 30.15 31.09 31.39 31.36 30.83 30.98 30.70 31.40 30.99 29.97 28.97 30.28 30.28 28.58 28.37 29.53 29.34 28.69 28.34 28.89 28.66 28.53 28.05 28.23 28.01 27.52 26.27 24.43 24.31
37.02 37.36 37.03 36.44 35.78 34.63 33.31 34.30 32.53 33.51 34.00 32.54 29.37 30.66 30.04 30.39 31.16 30.94 31.13 31.58 32.03 32.40 31.90 31.06 29.84 29.51 29.32 29.32 28.46 28.66 29.21 29.07 28.18 28.61 28.94 28.73 28.93 28.68 28.99 27.53 27.00 27.06 26.86 26.24
36.28 36.03 34.18 34.09 33.84 32.56 32.05 32.17 30.45 31.76 33.26 30.04 29.62 31.39 30.73 31.12 31.13 31.50 31.45 30.85 32.14 30.78 31.14 30.57 29.23 30.33 30.96 29.79 29.62 29.78 29.79 29.67 29.49 28.85 28.51 28.62 28.78 28.26 28.64 28.82 28.45 28.07 27.17 26.96
36.30 33.26 31.45 31.77 32.71 33.38 34.01 34.04 34.35 31.88 31.72 31.34 29.76 32.29 31.25 30.13 30.36 31.24 32.76 31.42 33.15 31.90 31.66 31.86 31.60 31.40 30.81 26.34 28.38 29.59 29.87 29.69 29.34 29.41 29.00 29.15 28.86 28.75 28.21 28.40 27.83 27.54 27.79 24.33
35.09 34.50 33.75 32.11 31.44 34.47 35.18 33.55 32.53 32.51 32.32 31.85 31.70 32.41 31.19 30.65 31.30 30.82 30.84 32.98 33.51 32.98 32.07 32.45 31.91 31.05 29.93 29.33 29.39 29.07 28.77 28.47 29.08 29.04 28.93 28.68 28.67 28.33 28.07 28.33 27.68 25.57 23.09 26.04
35.25 34.75 34.86 34.94 33.54 33.26 32.41 34.41 34.75 34.33 32.80 32.15 32.63 33.12 31.28 30.82 32.07 33.97 35.01 33.87 32.68 32.08 31.68 32.09 31.49 28.64 26.12 29.88 29.56 29.03 28.63 29.49 29.55 29.23 28.93 28.63 28.37 27.85 28.38 28.52 28.45 28.66 23.92 26.07
33.92 34.45 34.28 32.62 33.14 34.00 35.09 35.50 34.32 34.17 32.94 32.74 32.37 32.04 32.74 34.23 33.22 33.25 33.42 33.64 32.71 32.15 32.12 31.90 29.99 30.31 30.37 29.93 29.55 28.97 29.75 29.86 29.70 29.10 28.41 27.25 26.63 26.92 26.82 27.32 27.37 28.41 28.49 25.31
34.56 34.75 35.25 35.47 35.66 36.06 35.85 35.70 34.70 33.84 32.42 31.63 32.39 33.00 33.43 33.93 34.02 33.64 33.27 33.19 33.28 32.97 32.48 32.58 31.96 31.99 31.22 30.33 29.99 30.14 30.29 29.55 29.19 28.58 28.22 27.36 26.65 26.10 26.20 26.44 26.70 26.86 27.75 26.91
35.36 33.62 35.69 35.78 36.41 36.11 36.05 34.63 32.18 31.12 31.48 31.21 29.78 31.55 32.13 32.60 32.79 32.29 32.46 32.88 32.65 32.60 32.41 32.59 32.44 32.12 31.72 31.12 30.31 29.94 30.26 30.01 29.33 28.01 27.33 25.83 25.78 25.86 25.75 25.84 25.98 25.90 25.82 27.56

GFSNGP_sfc_wetblb_033.txt.gz
Wetbulb
40.40 40.18 39.89 38.26 37.67 37.57 35.73 36.12 29.63 33.87 36.97 40.85 42.63 42.15 43.34 44.73 45.26 45.12 44.82 44.43 43.38 41.91 40.77 41.26 41.56 42.17 42.23 40.69 40.70 40.34 39.50 39.19 39.20 38.97 38.68 38.47 37.76 37.74 37.93 37.65 36.77 36.47 35.24 34.47
32.77 39.94 38.97 35.54 37.43 38.13 38.55 38.83 37.85 37.96 36.61 42.69 43.66 44.11 43.29 43.60 43.46 42.55 42.14 41.99 41.63 41.48 41.29 41.26 42.10 42.26 41.29 40.60 40.27 40.23 39.10 38.81 39.50 39.06 38.22 37.90 37.21 36.76 36.55 35.95 36.09 34.30 33.53 32.94
28.28 35.51 32.89 27.74 35.08 38.26 38.81 39.88 38.67 32.83 38.33 42.21 41.42 41.19 40.74 40.94 41.50 40.83 40.25 40.38 40.27 39.88 40.22 41.30 41.51 43.28 39.87 39.74 40.71 40.05 39.60 40.02 40.34 39.42 39.56 37.78 37.77 37.32 35.02 33.27 32.16 32.29 31.63 30.85
24.06 28.49 17.70 37.13 42.17 42.19 40.12 40.76 41.26 41.44 41.59 42.07 41.43 40.68 40.61 40.43 39.06 39.66 39.87 39.74 39.68 39.99 40.68 41.47 42.23 40.91 39.66 40.86 40.49 39.83 40.26 39.58 39.09 38.46 38.20 38.53 37.92 36.05 33.89 31.48 30.38 31.13 29.82 29.63
27.23 25.74 31.75 37.10 41.24 39.56 37.05 36.34 42.64 41.18 41.36 41.40 41.51 41.08 38.56 41.26 40.83 39.38 38.95 39.31 39.98 41.54 41.58 39.52 37.50 37.61 37.28 36.69 36.90 38.02 38.08 37.96 38.12 38.97 38.48 37.98 36.39 33.66 32.19 31.37 29.54 29.58 30.13 28.68
21.96 17.90 17.24 33.68 41.77 44.20 42.38 29.08 42.66 42.08 40.19 39.55 38.75 30.54 34.48 39.76 40.09 39.53 39.73 40.59 40.60 37.54 36.56 35.93 35.78 36.33 35.66 35.58 35.69 35.88 37.23 38.32 38.85 38.66 38.47 36.20 36.12 33.55 31.74 30.64 30.23 29.53 28.81 29.08
21.64 18.96 28.75 40.29 43.33 44.50 28.10 30.65 41.52 41.30 39.72 37.24 35.01 35.92 38.35 39.58 39.38 40.34 40.38 37.24 36.79 35.50 34.14 34.20 35.71 35.91 35.46 34.50 34.15 37.06 37.77 38.13 37.87 37.45 37.14 37.33 33.90 31.52 31.47 28.38 28.33 27.49 25.82 27.31
30.18 24.99 22.43 43.92 43.00 33.68 37.99 42.19 41.39 40.21 40.06 38.44 37.17 38.00 38.85 39.49 38.22 37.38 35.75 35.51 35.91 33.99 33.43 34.26 34.97 35.90 33.66 32.90 35.48 36.41 36.53 37.00 37.47 36.94 37.26 35.16 31.03 30.21 29.03 27.37 26.24 19.13 16.20 19.11
32.36 30.63 39.76 43.15 42.29 43.26 43.53 40.60 40.57 41.04 40.71 38.97 38.46 36.88 38.13 36.98 35.42 35.35 35.29 34.41 35.08 33.55 34.11 34.89 35.47 34.92 33.57 34.03 34.90 35.40 35.46 35.12 34.77 35.38 35.01 32.92 29.86 27.61 26.48 25.87 22.24 20.64 20.03 17.90
36.55 40.75 41.73 42.48 42.56 43.01 42.60 40.32 40.86 41.16 40.64 40.55 37.04 37.37 35.16 34.60 33.76 33.43 33.57 33.29 34.59 34.27 34.04 34.14 35.74 36.41 34.32 35.24 36.16 34.54 34.11 33.66 33.40 31.95 31.78 30.06 29.75 28.30 23.99 21.28 20.05 24.34 20.61 16.28
36.67 40.23 41.49 41.91 41.50 40.73 40.56 40.55 39.65 41.36 40.13 37.82 35.84 34.96 34.30 33.25 32.87 32.77 33.20 33.96 34.56 33.89 34.04 34.35 35.67 35.63 35.47 35.27 35.23 33.07 32.08 32.28 31.67 30.17 29.50 28.09 27.98 25.87 25.79 24.53 22.99 18.75 18.90 17.25
31.73 42.01 40.86 39.66 40.35 40.59 38.46 38.42 39.73 38.42 37.25 36.92 35.69 33.96 33.54 32.37 32.57 32.74 32.62 34.03 33.71 33.97 33.95 34.15 34.64 34.58 35.53 35.26 34.14 32.28 30.13 30.42 30.18 28.53 26.83 25.19 23.61 25.12 30.12 28.57 28.91 29.84 29.24 21.15
42.41 42.01 41.26 40.26 39.87 40.95 41.22 40.69 39.56 37.84 36.63 34.55 34.66 33.86 33.20 32.05 32.76 33.10 33.50 33.34 33.43 33.30 33.06 32.29 32.54 32.57 35.06 32.68 33.29 31.09 29.13 29.26 25.84 26.57 25.11 24.24 23.58 23.87 22.03 25.73 30.38 30.75 30.81 30.12
41.67 40.22 37.11 37.79 38.15 42.37 41.70 41.03 39.18 37.32 36.19 35.06 34.01 33.76 33.43 32.60 32.78 32.39 32.12 33.20 33.68 32.57 31.80 31.54 31.61 31.20 33.28 34.14 31.19 29.30 29.60 29.78 28.97 28.78 27.37 27.12 26.16 26.90 26.20 22.68 19.86 19.46 26.23 27.07
41.19 42.31 41.18 41.25 41.58 41.21 40.96 36.95 35.32 33.80 33.66 33.07 33.73 32.82 32.86 32.00 31.05 31.59 32.42 32.57 31.61 30.60 30.71 30.88 30.69 30.68 33.80 32.33 30.29 29.93 29.47 28.48 27.87 26.73 26.58 26.71 27.04 26.47 24.07 24.76 22.56 22.77 20.95 20.74
42.17 43.02 41.80 40.79 37.38 36.09 35.68 34.84 33.15 32.52 32.58 32.36 31.50 30.42 32.12 31.81 31.15 31.34 31.62 30.38 28.71 29.04 29.97 29.66 30.34 31.67 32.43 30.81 29.95 30.00 27.09 26.10 26.81 26.50 26.47 26.44 26.14 22.10 23.43 24.30 23.36 19.53 18.78 16.18
38.65 36.38 36.10 34.90 34.07 34.15 34.25 34.15 33.13 32.20 32.02 30.24 30.23 29.79 29.65 28.86 28.07 29.12 29.26 29.02 26.37 27.86 29.69 29.15 30.79 32.73 31.38 30.43 29.54 28.66 25.07 26.41 25.81 26.13 26.24 26.01 21.75 24.29 22.63 21.80 22.63 19.53 14.47 15.34
39.61 37.43 36.58 34.86 33.56 33.01 33.07 32.45 30.70 30.18 30.05 30.43 26.47 20.19 18.36 17.70 25.32 27.02 28.92 30.03 30.34 30.38 29.78 30.22 26.14 29.15 29.76 29.92 27.13 27.10 23.48 23.10 26.30 26.13 26.57 25.79 25.36 25.05 20.99 15.50 16.30 19.09 20.07 15.47
37.55 35.34 34.74 34.86 34.30 31.82 30.53 29.99 30.41 29.64 25.35 24.25 21.68 22.12 20.67 22.13 28.64 29.71 29.68 29.69 27.18 29.01 30.35 28.56 30.46 26.37 27.54 27.08 25.54 25.21 18.55 22.22 26.12 26.09 26.32 23.61 26.10 25.04 23.99 15.33 19.22 19.65 15.92 14.19
35.27 35.45 34.86 33.94 32.76 29.73 29.23 30.16 26.30 29.30 30.26 26.28 20.68 19.51 23.18 28.47 30.34 29.87 29.96 28.94 29.67 30.38 28.94 28.52 29.66 25.62 25.56 26.87 24.83 24.21 22.73 20.93 25.23 25.40 19.49 23.55 23.89 20.93 18.76 19.32 18.71 16.79 15.07 16.08
31.39 31.80 30.05 29.77 28.63 27.00 25.83 26.72 23.18 27.44 29.89 23.99 22.32 25.09 24.22 30.31 29.96 30.43 28.96 27.91 30.37 26.79 27.98 28.97 29.14 26.41 27.42 24.89 23.97 22.41 21.21 17.82 20.34 26.48 25.60 24.67 25.54 25.35 24.38 20.75 21.49 19.37 22.86 15.83
31.07 28.35 25.40 24.62 26.81 28.95 29.31 29.43 30.17 27.29 25.76 24.39 22.48 22.64 26.24 30.74 29.75 29.98 26.17 26.89 30.66 31.46 29.77 29.80 29.85 29.92 29.69 28.92 27.38 20.70 19.63 16.09 19.27 23.67 24.58 24.71 24.50 16.93 14.30 18.58 23.82 23.61 18.36 16.11
30.48 30.88 30.37 26.99 25.32 30.03 30.73 28.35 27.11 26.63 25.34 23.26 28.68 31.01 30.91 31.03 30.25 27.13 27.32 29.98 32.14 31.75 30.58 30.78 31.19 31.12 29.85 30.38 25.53 20.81 19.60 17.56 19.07 21.13 25.13 26.22 25.70 24.60 16.00 15.57 23.04 24.91 17.52 16.36
31.37 31.52 31.26 31.58 27.82 27.20 27.83 31.25 30.64 30.73 26.52 27.82 31.43 32.40 31.57 30.37 28.95 28.02 31.38 33.08 32.15 32.19 32.51 31.80 31.02 30.59 28.98 24.73 24.74 26.15 22.28 20.55 20.31 22.54 24.34 25.53 25.86 23.04 17.92 15.55 20.42 23.07 24.50 23.07
30.43 30.48 30.62 26.73 28.99 30.23 30.80 31.79 30.01 28.89 29.80 29.82 30.03 30.64 28.75 30.41 31.30 31.81 32.50 32.60 32.26 31.57 32.53 32.67 31.12 29.69 29.44 28.09 27.74 26.50 25.80 24.20 24.71 28.17 27.17 25.30 25.22 24.38 24.83 23.26 20.84 18.11 17.01 19.87
30.74 29.91 30.26 31.38 30.80 31.16 30.70 29.33 26.40 28.70 29.28 29.55 28.94 29.03 30.29 28.61 30.92 30.44 31.68 31.78 31.65 32.00 32.23 32.61 32.44 31.81 31.39 31.30 30.66 29.80 27.88 27.47 26.61 26.71 24.43 24.99 22.67 21.60 21.43 22.00 22.25 22.81 24.02 20.68
30.93 27.91 29.94 29.65 30.04 29.62 28.98 28.70 28.99 28.38 28.84 29.39 29.05 29.43 29.88 30.44 30.67 30.68 29.89 29.73 31.24 31.48 32.07 32.52 32.56 32.34 32.16 31.78 31.39 30.09 29.12 29.13 27.95 27.13 25.57 24.34 21.95 20.79 18.87 21.64 21.36 22.67 22.47 21.56

GFSNGP_sfc_wetblb_036.txt.gz
Wetbulb
37.59 37.65 37.28 35.93 35.08 35.12 33.22 33.52 28.37 32.09 34.10 37.45 39.62 40.19 41.15 42.86 43.37 42.51 41.43 40.86 40.48 39.81 39.37 39.60 40.30 41.03 41.69 40.48 39.88 39.47 38.42 37.64 37.31 37.52 37.73 38.45 37.45 37.04 39.24 38.27 37.38 36.39 33.75 32.93
31.12 37.68 36.26 33.07 35.28 36.38 36.25 36.23 35.93 35.82 35.19 40.45 41.28 41.76 41.21 41.28 41.23 40.30 39.84 40.11 39.82 39.72 39.72 39.80 40.49 40.68 40.93 40.74 39.27 39.31 38.37 38.23 38.82 38.24 38.50 37.06 37.90 37.12 37.80 36.96 36.86 33.55 32.02 31.69
24.94 32.62 30.68 26.15 34.09 35.79 36.76 37.58 36.36 31.58 36.14 39.96 39.25 39.87 39.35 38.80 39.25 38.69 38.64 39.32 39.27 38.92 38.99 39.41 39.07 40.08 37.53 37.55 38.75 38.64 38.19 38.95 38.27 38.14 37.56 36.83 36.69 36.87 37.45 35.91 33.42 31.62 31.20 30.32
22.20 24.43 16.15 34.22 40.30 40.07 38.28 39.46 39.84 39.43 39.59 40.07 39.48 39.31 39.07 39.18 37.48 37.99 38.29 37.95 38.08 38.12 38.74 38.97 38.55 36.77 35.74 36.01 35.75 35.35 37.01 37.05 37.60 36.90 36.24 36.38 36.44 35.62 34.02 33.28 31.60 30.61 29.10 28.62
19.26 23.84 28.50 34.99 39.17 38.13 35.61 35.33 41.09 39.83 39.78 39.84 39.93 38.81 36.99 39.94 39.62 37.92 37.71 38.09 38.50 38.83 38.74 36.24 34.28 34.38 34.29 33.83 33.35 35.38 35.57 36.61 37.04 37.21 36.70 36.40 36.53 35.55 35.34 33.90 29.81 29.10 29.32 27.62
26.77 15.94 15.27 31.19 39.74 42.53 40.42 29.23 41.58 40.68 39.08 38.60 37.37 28.54 32.59 38.53 39.04 38.23 38.51 38.69 37.60 36.17 33.54 32.71 33.05 33.62 32.87 32.05 32.42 33.89 35.25 35.75 36.80 37.25 36.64 35.64 34.48 33.96 33.32 29.57 29.89 28.92 28.68 27.92
18.82 16.11 26.66 36.07 41.13 42.29 27.96 30.36 40.80 40.73 39.09 37.28 34.25 34.70 37.02 37.75 37.67 38.42 37.51 33.69 34.06 32.74 31.86 32.13 33.24 33.36 32.51 31.57 32.25 34.68 35.35 35.59 36.97 36.80 35.55 37.08 34.53 31.10 28.80 28.87 27.91 26.84 24.36 25.90
23.37 16.90 22.36 40.79 41.04 33.97 36.71 40.57 40.54 39.28 38.95 37.62 37.44 37.39 37.75 37.96 35.18 33.73 32.88 33.08 33.23 31.83 31.70 32.81 33.28 33.08 32.06 30.53 32.93 34.63 34.86 34.97 34.49 34.24 34.69 34.50 29.94 28.84 29.10 27.43 25.55 17.70 13.46 17.84
31.90 30.64 37.50 41.36 39.93 41.87 42.20 39.40 39.27 38.75 39.24 39.42 37.18 36.63 36.04 33.47 32.66 32.58 32.01 31.59 32.66 31.41 31.91 33.03 33.55 33.34 32.15 33.36 33.63 34.23 34.08 33.45 33.04 33.31 32.51 31.73 29.04 26.87 26.44 25.15 21.00 19.04 18.63 16.42
34.55 38.72 40.59 40.80 41.44 41.99 41.52 39.56 40.51 41.33 40.47 39.66 36.53 35.12 32.50 32.08 31.06 30.78 31.51 31.49 32.25 31.87 31.33 31.71 33.41 33.84 33.13 34.31 34.65 33.60 32.79 31.47 31.21 32.61 30.23 29.50 28.90 28.23 24.84 20.49 19.25 23.45 19.34 15.32
35.02 39.39 40.32 40.59 39.99 40.30 40.12 41.00 41.01 41.15 39.87 37.48 34.63 32.53 31.81 31.07 30.65 30.95 31.18 31.76 31.77 31.22 31.34 31.62 32.35 32.19 33.30 34.27 35.74 34.29 33.21 30.82 29.83 31.29 30.50 28.67 27.81 25.05 25.45 24.50 22.29 18.41 18.51 16.56
32.99 40.41 38.85 38.28 39.65 39.81 39.62 39.46 40.00 39.00 37.28 33.95 33.44 32.18 31.44 30.47 31.00 30.99 30.60 31.29 31.16 31.65 31.39 31.25 31.49 31.62 32.31 34.43 34.61 32.94 31.07 29.49 29.48 27.83 26.12 25.85 25.15 25.96 28.76 28.40 28.40 30.50 30.18 20.71
40.85 41.48 39.88 39.38 39.90 41.54 40.32 40.08 40.86 37.14 34.52 32.73 32.33 31.88 31.46 30.63 31.08 31.58 31.19 31.05 31.01 31.03 31.19 30.57 30.39 30.52 31.43 31.70 32.50 31.62 30.56 30.44 28.77 27.93 26.92 27.11 26.75 26.65 18.57 23.82 29.09 28.84 30.02 29.81
41.10 39.70 36.92 37.56 38.31 42.30 42.08 39.60 36.93 34.81 34.01 33.14 32.71 32.24 31.79 31.11 30.88 30.20 29.96 30.95 31.23 31.10 30.01 29.65 30.40 30.52 31.98 31.86 32.49 29.77 30.07 29.93 28.77 27.50 26.07 24.91 25.00 25.85 25.28 18.64 15.10 16.95 25.00 26.63
39.70 40.48 39.92 40.75 41.87 40.70 39.25 35.57 34.08 32.74 32.55 32.24 32.27 31.01 31.19 30.30 29.21 29.57 30.24 30.64 30.05 29.46 29.38 30.13 30.06 30.00 32.24 32.71 30.46 29.83 29.53 27.97 27.11 24.96 25.45 25.07 25.55 25.26 19.66 23.50 23.06 21.85 17.22 18.36
41.29 41.40 41.62 40.52 38.46 35.90 34.44 33.94 32.45 31.93 31.92 31.09 30.05 29.32 30.40 29.93 29.22 29.51 29.75 29.21 28.66 28.16 29.03 29.10 29.22 30.98 33.01 30.20 29.75 29.08 28.49 25.08 26.15 25.94 25.11 24.75 25.19 18.45 22.75 23.42 24.31 22.54 13.88 13.50
38.74 35.86 34.43 33.17 33.43 33.91 33.71 33.17 32.05 30.94 30.70 29.40 29.23 29.13 28.45 27.15 26.49 28.48 28.69 29.99 28.77 29.15 29.51 30.10 30.08 31.58 30.61 30.48 29.34 28.46 27.43 27.19 25.46 25.67 24.16 24.23 24.29 16.77 19.12 20.29 20.58 16.47 15.21 13.84
38.06 36.31 35.94 34.91 33.13 32.41 32.05 31.34 29.71 29.14 29.47 29.49 24.97 17.42 15.79 16.68 24.61 25.45 27.91 28.91 29.48 28.11 28.55 30.39 29.17 29.59 27.73 29.44 28.41 24.87 20.50 20.06 21.35 21.73 24.99 24.20 23.23 23.97 23.39 14.71 16.82 17.87 17.72 13.03
35.93 34.63 34.07 33.60 32.54 30.47 29.33 28.72 29.19 28.51 23.30 21.81 19.58 20.63 19.53 20.35 25.71 28.97 29.25 28.93 28.83 27.91 29.10 29.85 29.79 29.30 27.46 26.56 24.70 20.60 16.70 15.39 19.29 23.40 23.76 20.67 22.83 23.06 18.57 20.48 17.60 19.95 18.52 17.07
34.68 34.27 33.25 32.20 31.30 29.46 28.56 29.37 24.37 28.23 29.63 24.96 17.46 15.26 21.53 23.41 28.18 30.38 29.42 28.94 27.78 28.28 30.33 29.20 29.93 28.94 27.70 25.82 27.01 26.62 21.69 18.40 18.55 19.60 23.23 20.57 22.14 15.71 15.39 14.12 15.58 16.49 14.44 15.09
31.14 31.30 29.73 29.32 28.09 25.93 23.10 24.50 21.48 25.96 28.88 21.13 19.00 24.31 23.21 22.95 28.06 30.80 29.25 27.45 27.95 24.50 27.44 28.34 27.23 28.99 29.09 28.46 27.78 26.37 24.36 20.83 19.68 18.09 20.56 24.47 21.31 21.72 20.72 18.27 18.12 18.89 20.51 15.80
30.17 27.90 24.79 23.67 24.79 27.46 28.12 27.92 28.80 25.73 24.52 23.59 20.46 17.12 25.98 27.02 25.60 27.62 27.52 26.41 28.93 23.64 31.31 30.94 30.17 30.07 29.86 27.94 29.00 28.16 27.12 22.16 21.12 18.25 16.77 19.57 24.26 20.86 16.75 11.89 12.16 15.24 17.89 16.07
29.73 29.90 29.32 25.09 23.30 29.00 29.46 27.74 25.74 24.53 24.66 23.99 20.80 26.19 26.50 28.98 27.81 28.24 27.17 28.23 29.02 32.00 32.01 31.50 31.68 31.46 30.50 30.27 30.80 29.65 26.51 24.22 22.79 20.69 17.97 19.44 23.63 23.79 19.49 16.33 15.49 15.45 15.74 20.12
30.48 30.55 30.45 30.84 27.16 25.72 26.35 30.32 29.94 29.89 25.98 25.03 25.99 29.67 29.93 24.42 22.26 24.47 26.85 29.47 28.69 27.83 31.50 31.83 30.94 32.08 31.48 30.97 28.19 28.30 28.17 26.13 24.20 23.28 22.16 20.00 25.02 26.06 20.72 19.49 17.46 18.45 18.31 19.82
29.75 29.86 30.01 26.37 28.28 29.34 29.94 30.76 29.55 28.51 26.78 27.21 27.52 27.91 26.96 26.63 23.38 25.93 25.10 26.21 29.08 30.37 30.82 31.59 31.93 31.99 31.80 31.31 29.23 28.12 27.18 27.11 26.65 26.18 25.71 26.43 26.87 25.04 23.37 21.87 20.98 19.23 17.75 19.07
30.16 29.55 29.44 30.52 30.28 30.43 30.09 28.52 27.25 25.70 23.76 22.34 21.18 22.30 21.36 23.81 28.24 28.37 25.25 25.28 24.05 29.11 28.94 29.52 30.30 31.54 31.49 31.37 31.59 30.43 29.25 28.66 28.16 27.65 27.36 27.74 27.18 25.54 23.47 21.92 20.73 19.88 20.48 20.52
30.13 25.93 28.92 29.79 30.11 29.36 27.50 26.86 23.41 25.19 23.50 21.87 22.47 21.12 22.49 22.59 25.16 28.15 21.20 22.83 22.58 20.62 23.96 27.21 26.79 27.39 28.50 29.92 30.66 30.81 30.88 31.25 30.37 29.00 28.66 27.97 26.90 25.78 23.95 21.45 21.46 22.17 22.02 19.88

GFSNGP_sfc_wetblb_039.txt.gz
Wetbulb
35.17 35.75 35.29 34.18 34.06 33.92 32.30 31.76 28.15 30.24 32.32 36.12 38.75 38.80 40.18 41.66 41.50 40.39 39.33 39.26 39.50 39.35 39.38 38.74 38.47 38.90 39.41 38.52 38.11 37.83 37.02 36.56 36.29 36.42 36.28 36.56 36.48 36.60 36.75 37.56 36.51 36.17 37.50 34.75
30.81 35.45 34.56 31.45 33.86 34.11 34.07 33.62 32.59 34.03 33.99 39.48 40.03 40.58 39.99 39.86 39.55 38.54 38.65 39.46 39.06 38.70 38.49 38.00 38.17 38.20 37.02 35.90 35.97 36.33 35.50 36.55 36.90 36.81 36.67 36.11 35.60 35.77 35.12 35.03 35.86 37.32 33.64 32.89
23.73 30.70 28.53 23.67 31.37 35.10 35.05 35.71 35.27 31.89 35.56 38.85 38.23 38.89 38.42 37.99 37.86 37.16 37.35 37.69 37.76 37.29 37.48 37.30 36.47 36.26 33.51 33.99 34.92 34.50 35.06 36.23 36.75 36.45 35.78 35.33 35.50 35.57 33.85 34.05 33.97 33.11 31.79 31.60
20.90 23.24 17.27 31.92 37.40 37.92 36.18 37.42 37.74 37.54 38.11 38.97 38.65 38.63 38.78 37.87 35.76 36.61 37.25 36.88 37.14 37.69 35.68 34.86 33.22 32.90 33.17 33.98 33.33 32.83 34.79 35.88 36.33 35.86 35.67 35.60 34.97 33.85 31.42 31.65 30.71 30.58 28.72 28.36
20.27 22.08 27.20 33.15 37.54 36.94 35.06 34.33 39.44 38.02 38.45 38.71 38.49 37.23 36.40 39.15 38.93 37.19 36.37 36.83 36.85 35.91 33.68 31.80 31.95 32.54 32.01 31.60 31.46 33.70 33.83 33.93 34.42 35.12 35.31 35.10 35.32 36.16 35.37 34.52 32.50 28.26 28.49 27.83
24.90 15.06 15.04 30.08 37.89 41.03 38.88 28.68 40.37 39.83 38.57 38.20 36.64 29.44 32.74 38.06 37.86 36.43 36.22 35.52 32.58 32.14 31.76 31.20 31.22 31.30 31.21 30.65 30.29 31.97 33.40 33.44 34.43 35.62 35.10 33.79 34.82 35.07 32.40 27.87 28.67 28.72 28.32 27.76
16.08 15.83 25.81 34.19 39.46 40.46 27.95 28.35 40.32 40.88 39.74 36.80 33.87 34.88 36.34 38.00 36.09 35.49 32.73 32.18 31.93 30.79 30.39 30.60 31.60 32.03 30.90 30.32 30.48 32.58 33.80 34.16 34.90 34.68 33.64 33.90 32.84 28.53 27.89 27.90 28.65 26.71 24.66 25.36
23.92 17.37 21.76 38.23 38.64 32.94 35.63 37.86 40.55 39.27 38.46 37.14 37.85 38.36 38.03 37.29 32.51 31.96 31.04 30.58 31.28 30.46 30.17 31.04 31.85 31.85 30.14 29.37 32.21 33.22 33.50 33.74 33.20 33.05 32.66 33.01 32.26 29.88 29.48 27.30 25.39 19.75 13.58 17.70
30.67 30.01 36.81 38.92 38.13 39.56 40.84 39.43 39.24 39.19 39.01 39.96 38.46 37.79 37.08 31.54 31.20 30.83 30.54 30.34 31.22 29.93 30.25 31.53 31.95 31.50 30.18 31.20 32.64 32.46 34.12 33.34 31.67 32.00 31.00 30.18 27.46 26.31 26.67 25.63 22.17 19.26 18.12 15.91
33.06 36.47 37.03 39.55 39.72 41.05 40.66 39.15 39.50 39.86 39.82 40.25 38.39 35.28 31.65 30.50 29.61 29.95 30.01 30.04 30.57 29.96 29.83 30.12 31.52 31.51 30.44 31.82 33.64 33.27 32.75 33.10 31.47 30.22 31.15 30.85 29.94 28.76 25.31 21.01 18.71 22.34 18.80 15.35
33.95 37.42 38.25 39.79 40.00 39.55 39.24 39.83 40.21 41.18 40.95 39.32 34.67 31.93 30.83 29.63 29.37 29.72 29.82 30.01 30.01 29.63 29.73 29.98 31.02 30.22 30.70 31.78 32.93 32.10 31.49 32.22 30.45 29.54 30.59 28.77 27.65 25.97 26.34 24.62 22.60 18.28 18.65 16.88
31.95 38.51 38.49 38.08 39.63 39.35 38.39 39.07 40.01 39.68 36.27 33.99 33.05 31.45 30.34 29.47 30.29 29.99 29.41 29.57 29.52 29.79 29.41 30.06 29.71 29.49 30.44 32.06 31.83 32.62 30.64 30.26 29.63 28.34 28.49 26.86 27.25 27.39 28.63 27.93 28.49 30.21 30.17 21.62
38.96 40.17 38.74 37.40 38.69 39.93 39.55 40.02 40.41 37.17 33.74 32.01 31.70 31.19 30.90 30.16 30.16 31.12 29.18 29.04 29.31 29.35 29.81 29.41 28.55 28.58 31.76 31.57 30.13 31.96 30.18 30.30 27.93 29.04 27.82 26.57 25.86 25.98 24.43 24.61 28.62 28.49 29.14 29.11
40.55 39.74 36.80 36.91 38.19 40.88 40.59 39.73 36.55 34.32 33.97 32.85 31.87 31.58 30.89 30.15 29.58 28.41 28.34 29.30 29.81 29.24 28.54 28.57 29.77 29.62 31.57 31.55 30.61 30.81 29.14 29.33 29.02 28.18 25.12 25.34 23.42 24.36 24.87 17.62 21.38 16.16 23.91 25.79
38.33 39.80 39.71 40.17 40.76 39.68 35.99 34.65 32.59 32.24 32.15 31.45 31.33 29.88 29.70 29.29 28.62 28.23 28.91 29.24 28.97 29.37 29.84 29.67 28.72 29.22 31.24 32.34 31.60 29.82 29.55 28.32 27.09 23.19 21.01 21.66 20.59 24.26 19.34 21.87 21.86 17.99 15.31 17.70
39.64 39.93 40.03 39.45 36.13 34.68 34.50 33.81 32.09 31.03 31.06 30.62 29.65 29.21 29.82 29.26 28.75 28.77 28.99 28.66 27.29 27.80 29.17 28.89 28.82 30.38 31.25 32.20 30.27 29.31 28.67 27.43 26.76 26.31 23.78 22.77 21.34 18.42 18.13 21.18 21.71 20.57 12.71 13.19
37.49 32.58 33.07 32.92 33.63 34.05 33.43 33.03 31.76 30.71 30.33 29.28 29.33 28.86 27.82 25.36 25.19 27.89 27.85 27.70 28.41 29.48 29.28 28.71 28.89 31.01 29.73 28.51 29.63 28.49 23.92 24.08 25.66 24.47 21.98 22.46 22.19 19.84 17.36 14.23 20.58 15.44 14.58 10.66
37.32 36.81 36.73 35.75 34.10 32.35 31.36 31.03 30.15 29.47 29.33 29.40 24.50 17.55 16.90 16.81 24.37 24.11 25.41 28.75 28.55 28.91 28.49 27.63 29.34 30.26 29.25 28.43 27.76 27.31 21.19 19.90 17.49 16.15 19.70 18.46 22.87 20.58 20.96 14.69 14.19 14.18 15.61 17.12
38.86 37.75 35.28 32.77 31.95 30.60 29.71 28.94 28.91 28.26 23.61 21.91 19.79 21.69 19.11 18.34 22.97 27.07 29.40 26.40 28.19 26.29 27.70 27.16 29.65 29.80 29.71 28.06 26.48 22.48 20.03 18.39 17.70 18.96 19.32 18.04 13.78 20.60 16.42 16.07 16.41 13.74 14.13 14.42
33.30 33.21 33.05 31.95 30.83 29.60 28.64 29.05 25.18 28.07 29.12 24.34 18.13 16.34 21.77 23.04 21.00 21.15 23.47 26.01 28.07 28.65 27.27 26.98 27.61 28.93 29.02 29.50 27.87 27.01 27.04 22.63 19.90 19.20 18.11 20.41 19.27 20.03 16.25 13.73 15.51 14.32 14.30 17.02
30.29 30.53 29.33 28.80 27.65 25.38 23.22 22.84 21.00 25.56 28.47 20.92 19.13 22.82 23.01 22.42 19.99 20.99 22.78 25.85 28.23 25.17 25.68 23.16 29.35 29.13 28.55 26.61 28.58 28.11 25.19 25.96 24.92 22.23 21.57 21.25 20.22 17.61 19.28 18.48 17.51 17.29 17.66 14.56
29.34 27.08 24.40 23.76 24.43 26.70 27.13 26.97 27.69 24.13 23.39 23.25 20.25 18.32 16.97 27.42 24.70 23.28 22.70 25.94 29.48 22.70 25.82 30.34 30.43 30.43 30.34 30.41 29.43 28.92 27.79 27.28 26.88 24.00 21.50 21.12 20.21 19.19 19.42 19.80 18.28 17.35 17.43 17.80
29.80 29.92 29.18 24.54 22.54 28.76 28.55 26.95 24.65 23.71 23.95 24.37 23.57 22.80 23.49 27.26 26.20 27.82 24.37 25.90 25.22 24.07 28.79 30.02 30.47 28.71 29.05 30.52 30.49 30.03 29.76 28.47 26.13 25.03 24.60 23.72 22.11 21.93 21.37 21.52 19.90 18.28 17.76 18.46
30.40 30.13 29.80 30.16 26.01 25.54 26.44 30.05 29.48 29.35 25.40 26.15 25.12 22.88 26.26 28.70 23.60 23.22 26.05 22.42 18.79 20.42 25.27 29.33 29.48 30.04 30.54 31.27 31.20 30.54 29.55 28.58 27.86 27.28 26.35 24.97 24.72 23.97 24.33 24.58 20.78 20.45 19.09 19.04
29.40 29.73 29.81 25.88 28.20 29.30 29.70 30.40 28.93 27.93 27.62 27.53 26.52 27.57 26.88 26.93 24.75 24.51 16.88 21.67 22.49 22.57 22.96 25.88 25.85 27.96 28.69 29.43 29.97 30.06 29.87 29.37 28.43 28.15 27.47 26.73 26.34 25.98 26.52 25.67 23.95 22.09 19.56 18.61
29.96 28.91 28.97 29.57 28.84 28.99 29.38 28.87 27.71 28.69 26.70 24.69 24.47 24.76 23.24 23.07 20.78 20.51 20.95 22.71 20.97 15.88 14.41 16.70 20.80 19.14 19.79 20.14 21.00 22.94 26.75 29.16 30.01 29.55 28.68 28.25 27.89 27.42 27.47 25.69 23.33 21.17 21.01 21.18
27.62 24.31 27.23 27.08 27.87 27.89 27.69 26.98 25.97 27.02 28.37 28.47 28.60 28.40 22.47 20.82 17.86 24.71 19.85 12.39 8.53 7.18 8.74 10.60 13.46 17.17 16.92 17.82 19.23 21.36 22.92 24.59 26.45 29.38 30.34 30.28 28.62 28.26 26.82 25.19 23.00 21.40 20.01 20.74

GFSNGP_sfc_wetblb_042.txt.gz
Wetbulb
33.16 33.67 33.38 32.20 32.15 32.47 31.58 30.78 28.30 29.29 30.67 34.12 37.60 37.85 39.19 40.14 39.63 38.82 37.91 38.03 38.45 38.02 38.77 38.85 38.20 37.96 36.66 35.53 35.29 35.25 34.19 34.76 34.93 34.82 34.66 35.03 35.17 35.13 35.22 35.16 34.83 34.97 35.26 36.28
31.21 33.17 32.59 30.96 32.87 32.44 31.46 30.94 31.58 31.18 31.81 38.11 38.90 39.67 39.59 39.50 38.86 37.75 37.05 37.36 37.42 37.61 37.48 36.67 36.35 35.35 33.92 33.72 33.59 33.82 32.93 34.71 35.53 35.60 35.23 34.85 34.41 34.12 34.07 33.98 34.22 36.12 34.95 33.12
25.18 28.88 27.25 23.55 30.66 32.39 33.14 33.90 33.27 30.49 34.33 37.92 37.20 38.40 38.26 37.82 37.66 36.62 36.54 37.18 37.22 36.10 36.13 35.24 34.04 33.80 31.59 32.00 32.75 32.42 32.59 34.80 35.63 35.32 34.72 34.47 34.57 34.10 33.09 31.82 32.33 30.96 29.92 29.77
19.87 22.06 15.94 30.71 34.42 35.62 34.40 35.21 36.15 35.59 36.31 38.52 38.24 38.22 38.82 38.36 36.39 35.97 37.08 37.26 35.91 35.65 33.57 32.84 31.22 30.88 31.05 31.52 31.17 31.55 33.11 33.96 34.77 33.85 33.45 34.00 33.73 33.61 32.90 33.70 33.89 32.44 28.74 27.07
18.85 20.69 26.98 31.44 35.66 34.83 33.52 32.90 38.17 36.80 37.09 37.82 37.60 37.35 36.64 38.31 37.55 35.91 36.58 36.75 36.13 34.29 32.18 30.39 30.20 30.67 30.61 30.49 30.44 30.72 31.41 32.19 32.33 32.86 33.51 33.43 32.88 32.58 32.80 34.20 33.25 29.96 27.57 26.75
19.42 15.27 14.67 29.40 35.45 39.14 37.38 28.92 37.90 38.63 37.40 36.65 36.66 30.15 35.39 37.81 37.88 37.43 37.06 35.12 31.17 30.49 30.39 30.15 30.08 30.46 30.39 29.65 29.31 29.96 31.07 31.90 32.83 33.81 33.19 32.05 31.82 32.86 31.05 27.83 27.84 27.77 28.09 27.74
14.54 14.01 24.89 32.23 37.48 38.57 28.39 29.61 38.59 39.34 38.06 36.04 34.84 35.94 36.13 38.53 37.96 36.13 32.36 31.34 31.04 30.44 29.64 29.49 30.50 31.01 29.76 28.99 28.66 30.99 32.15 31.82 33.20 34.56 32.81 32.07 30.94 29.84 28.23 27.38 28.76 27.15 24.95 25.84
21.93 14.00 21.63 36.18 37.56 33.02 35.67 35.80 38.65 38.67 38.01 37.08 35.95 36.25 37.84 36.61 33.51 31.75 30.91 31.01 30.69 29.87 29.11 30.17 30.74 30.51 28.47 27.37 29.68 31.89 31.96 32.29 32.57 33.52 32.70 31.55 29.02 30.52 29.84 28.94 26.08 19.54 16.78 18.89
29.31 29.12 35.46 37.11 36.64 38.15 38.61 38.20 37.91 38.28 37.83 38.66 37.73 37.89 36.23 32.90 31.53 30.71 30.86 30.29 30.88 29.59 29.57 30.71 30.63 29.97 28.15 28.92 30.62 31.45 31.57 31.59 31.78 33.11 31.10 29.47 28.81 26.51 26.61 26.32 23.55 21.35 18.07 15.92
31.94 35.03 35.87 37.29 39.20 40.30 40.01 39.01 38.70 39.72 39.10 39.22 37.30 36.25 33.26 30.39 29.70 30.00 30.56 30.12 30.26 29.41 28.91 28.64 29.95 30.14 28.86 29.67 30.91 31.40 30.92 30.11 29.76 32.50 29.14 30.52 29.82 29.29 26.17 21.97 19.06 21.58 18.45 15.73
32.75 36.46 37.46 39.93 39.79 38.94 39.04 38.99 39.63 39.75 39.30 37.80 36.25 33.15 31.85 29.87 29.60 29.99 30.00 29.82 29.54 28.96 28.40 28.21 29.76 29.23 29.30 29.81 31.39 29.89 30.30 30.99 29.42 29.19 27.04 28.00 27.93 25.59 27.19 25.61 23.63 20.36 19.99 17.24
31.19 37.72 37.22 37.26 38.09 39.10 38.05 38.58 39.63 38.04 35.85 34.77 34.37 31.38 31.02 30.35 30.82 30.25 29.34 29.09 28.96 29.09 28.49 28.29 28.84 28.34 29.21 31.38 31.40 29.79 29.45 29.32 29.09 27.08 25.27 24.39 23.30 25.22 29.34 28.52 28.18 30.05 30.16 22.75
37.40 38.40 37.84 35.75 36.74 38.40 39.16 39.47 39.27 34.99 35.00 32.51 31.79 31.89 31.30 30.64 30.30 30.85 28.80 28.76 28.59 28.36 28.21 28.00 28.47 29.45 31.25 30.96 30.45 29.90 29.72 29.28 27.73 27.58 24.85 22.72 21.77 22.98 20.94 25.77 28.45 29.30 29.18 29.39
38.66 38.01 35.13 35.54 36.76 39.58 38.88 36.34 35.38 33.88 33.62 33.00 32.22 31.81 31.43 30.33 30.12 28.86 28.22 28.81 28.62 28.22 27.33 28.27 29.43 28.97 29.29 31.22 30.71 30.96 30.09 27.73 26.33 26.07 24.97 23.17 18.68 19.71 21.51 19.51 16.28 21.15 24.15 25.55
38.01 38.52 38.86 39.64 36.21 33.68 34.96 34.42 32.82 31.88 32.28 31.47 31.64 29.98 30.09 29.47 28.98 28.75 29.10 29.18 28.60 27.65 27.55 28.73 29.09 29.04 29.00 30.91 31.08 30.35 29.48 28.18 25.03 22.28 18.59 20.82 19.26 20.79 19.16 18.75 19.53 21.37 16.02 17.63
37.91 37.71 36.05 32.99 32.83 33.84 34.08 34.21 32.64 31.66 31.43 30.31 30.07 29.39 29.94 29.83 29.09 28.88 29.11 28.41 26.70 26.03 28.73 29.15 27.11 28.40 30.12 31.14 30.33 29.97 29.29 27.85 26.98 23.56 21.28 19.54 22.48 17.68 18.61 19.01 20.38 21.96 15.42 14.53
32.21 30.83 32.94 34.00 34.92 35.32 34.89 33.63 31.60 30.38 30.40 29.74 29.21 29.08 28.94 26.57 25.19 27.69 28.40 27.82 24.66 24.56 25.90 25.76 25.76 27.93 29.74 30.38 29.32 28.85 28.60 27.41 23.21 20.62 19.44 20.00 18.42 18.59 18.22 15.39 17.19 18.74 15.78 14.56
37.28 37.42 37.57 36.24 34.37 32.20 30.63 30.76 29.94 29.40 28.98 29.66 26.43 21.36 18.50 17.67 23.88 24.57 24.68 24.38 22.36 23.00 25.50 27.59 25.57 27.47 27.84 30.65 29.65 27.17 26.50 24.58 21.56 19.53 18.70 15.57 17.83 18.62 15.91 15.56 15.41 14.76 16.05 13.96
38.71 37.85 36.68 33.65 31.74 30.24 29.02 28.61 28.72 28.55 25.61 24.47 20.66 22.26 21.23 20.69 22.68 24.88 23.84 18.63 20.39 22.90 27.75 25.65 26.60 26.35 29.13 29.79 29.50 27.00 22.67 22.00 22.36 23.81 22.56 20.32 18.15 17.70 16.41 14.92 14.42 14.80 15.34 15.47
32.50 32.28 31.77 30.87 30.07 29.46 28.73 29.26 26.23 28.04 28.66 23.62 19.11 19.19 22.68 24.15 21.03 18.96 17.08 21.03 25.35 27.81 27.60 26.07 25.50 25.80 27.43 28.58 28.33 28.61 27.53 25.76 24.91 24.28 22.83 20.72 21.56 21.36 20.21 19.89 18.07 14.73 14.91 15.20
29.97 29.91 29.03 28.75 27.69 25.67 23.38 22.56 20.43 24.73 27.87 21.35 20.47 23.50 23.49 23.73 19.38 15.67 16.63 23.93 26.21 23.45 25.10 22.23 25.82 28.92 29.70 29.39 29.26 28.62 28.37 28.03 26.53 25.72 25.36 23.94 23.17 22.94 22.96 21.39 19.59 18.32 18.43 19.40
29.46 26.60 23.74 23.19 24.14 26.41 26.89 26.59 27.13 23.40 23.50 23.29 22.64 20.51 18.75 21.38 21.52 27.86 21.24 25.24 27.59 22.18 21.89 27.52 28.72 29.61 29.77 30.03 29.88 29.60 29.20 28.48 27.58 27.28 26.54 25.22 24.33 23.97 23.20 22.79 22.12 21.38 19.85 20.05
29.19 29.56 28.49 24.29 22.36 28.11 27.42 26.08 24.50 23.01 22.93 23.86 23.65 23.80 22.06 25.58 25.12 24.88 28.32 25.98 24.62 19.81 23.88 28.76 28.63 28.29 28.42 29.06 29.54 29.65 29.70 29.33 29.19 28.34 27.02 26.45 25.94 25.23 24.66 24.10 23.52 23.17 21.38 20.21
29.66 29.61 29.61 29.71 25.03 25.77 26.71 29.39 29.17 29.20 25.84 25.59 25.74 26.03 25.65 26.14 28.56 28.72 26.94 22.15 16.08 18.21 24.40 19.81 17.85 18.26 17.48 23.06 25.07 25.69 26.92 28.52 29.06 28.81 28.26 26.26 26.97 26.78 25.56 24.80 24.64 24.81 23.40 20.89
29.14 29.31 28.56 26.33 26.75 27.17 27.62 27.68 26.91 26.19 26.33 26.94 27.27 28.18 27.71 27.68 29.25 27.62 25.20 16.73 18.24 25.09 14.62 12.35 12.09 12.41 14.01 17.14 17.23 17.33 19.05 20.67 22.71 24.20 27.11 28.29 27.17 25.83 25.56 25.54 26.01 25.95 24.29 22.72
27.13 26.20 26.10 26.92 25.83 24.58 24.03 23.81 23.40 24.69 25.45 25.19 26.18 28.14 29.30 28.48 28.81 26.40 23.16 25.71 23.24 14.65 13.55 9.95 8.93 13.12 12.93 14.99 14.62 14.25 14.92 14.44 12.89 13.24 15.76 19.86 24.76 27.57 27.29 26.85 27.44 25.64 24.19 22.21
24.01 20.86 22.40 22.37 22.62 21.23 20.64 21.28 21.51 21.84 23.65 24.29 24.47 27.53 29.18 28.90 26.47 24.03 24.78 20.61 17.85 11.07 5.84 3.88 5.72 8.69 10.50 8.08 8.03 8.80 9.44 9.39 8.64 9.53 11.23 12.47 12.81 13.95 15.46 19.72 21.81 22.41 21.69 21.15

GFSNGP_sfc_wetblb_045.txt.gz
Wetbulb
36.23 36.39 36.90 36.61 36.04 36.94 36.12 36.12 34.95 35.69 35.47 39.19 42.34 42.67 42.65 43.23 42.31 41.49 41.41 41.49 41.46 41.44 41.92 41.75 40.82 40.35 39.96 39.86 40.14 40.18 39.42 39.32 40.69 41.22 41.09 40.72 40.64 40.61 40.62 40.30 40.13 39.93 39.11 37.33
34.80 35.16 34.76 34.97 36.43 35.74 35.58 35.26 36.12 35.07 35.49 40.67 42.14 43.50 42.23 42.10 41.52 41.10 40.93 41.01 40.90 40.59 40.08 39.42 39.10 38.38 37.83 38.27 38.77 38.75 38.36 38.98 40.57 40.81 40.11 39.92 39.94 39.76 39.67 39.16 38.48 37.82 36.73 35.73
30.67 31.14 31.12 30.18 34.97 36.62 36.31 37.10 38.09 34.62 40.18 41.54 40.39 41.61 42.45 42.36 41.95 41.02 40.47 40.39 39.47 39.73 38.92 38.94 37.83 37.10 37.32 37.38 37.71 37.62 37.67 38.62 38.94 39.52 38.58 38.66 38.90 38.87 38.63 38.45 37.76 36.80 35.99 35.50
29.51 26.87 25.16 36.25 38.50 38.35 37.40 37.74 38.70 38.98 40.10 42.04 42.23 42.57 43.71 44.30 42.70 40.79 40.21 40.06 39.79 39.47 38.24 37.37 36.87 37.02 36.81 37.17 36.94 36.52 36.50 36.50 37.28 37.65 37.07 38.04 38.02 37.90 38.10 38.37 38.11 36.90 36.62 33.98
29.72 27.22 31.12 34.96 35.52 37.53 36.59 37.17 40.94 40.35 39.88 40.14 40.62 42.01 41.72 42.79 42.69 41.67 41.02 40.64 40.12 38.91 37.36 36.48 36.18 36.01 36.22 35.88 35.42 34.92 34.45 34.99 35.62 36.64 37.00 36.95 36.33 36.45 37.03 36.01 35.36 34.72 33.87 32.37
26.79 27.38 24.70 34.10 38.16 42.30 41.50 34.38 40.70 41.51 39.96 39.47 40.92 38.80 42.27 42.55 41.37 39.74 40.54 39.83 36.85 36.05 35.61 35.92 35.39 35.81 35.19 34.41 33.66 33.30 34.42 35.18 36.16 37.12 36.88 35.75 35.86 35.37 35.89 34.59 33.12 33.38 31.54 31.69
23.10 29.16 30.97 36.32 40.03 41.94 32.84 35.58 40.64 42.39 41.46 39.93 40.62 42.79 40.65 41.51 39.95 40.44 37.64 35.08 35.66 35.76 35.34 34.98 35.27 35.32 34.27 33.50 32.48 33.97 35.04 35.60 36.33 36.87 36.24 36.37 35.33 34.99 34.54 33.01 32.75 32.25 31.15 30.75
25.47 26.74 28.24 38.49 40.83 37.57 41.74 40.75 41.80 42.07 41.83 41.36 39.73 39.10 39.65 39.35 36.23 34.65 33.99 34.56 35.03 34.79 34.16 35.01 35.25 34.57 33.62 32.57 33.67 34.65 34.98 34.32 33.74 33.53 32.81 34.18 34.14 33.17 32.43 32.56 31.76 29.18 28.97 29.82
33.80 35.03 40.08 40.36 41.60 42.42 41.83 41.27 42.41 42.36 42.02 41.66 39.56 38.88 38.43 35.06 33.54 33.35 34.25 34.64 34.39 33.68 33.31 34.10 34.29 34.33 32.72 33.50 33.79 33.69 33.70 32.26 33.20 33.28 33.77 33.96 32.37 32.51 32.03 31.52 30.69 30.34 29.13 28.66
35.52 39.16 38.16 40.19 41.84 43.10 43.74 42.68 43.28 42.89 42.74 42.15 40.51 38.69 35.07 33.42 32.14 32.99 34.15 33.82 33.60 32.88 32.19 32.28 33.13 33.42 33.63 33.31 33.57 32.45 30.96 32.22 33.37 32.69 32.43 32.58 32.37 31.97 31.14 30.65 29.47 28.43 28.09 28.16
36.16 39.14 39.37 41.32 42.24 42.54 42.73 42.49 42.04 42.03 42.06 40.66 38.47 34.98 33.47 31.86 32.34 33.61 33.42 32.79 32.57 32.00 31.99 31.93 32.80 32.80 33.08 33.38 33.21 31.50 30.33 29.77 30.34 31.26 31.64 31.51 31.52 31.20 30.30 31.03 30.49 29.02 28.96 29.23
35.40 40.16 40.48 40.35 40.87 41.67 41.46 41.20 41.36 39.58 36.79 37.39 36.68 33.70 32.36 32.08 33.54 33.20 32.58 31.97 31.85 32.07 31.90 32.08 31.78 31.36 31.88 33.30 33.00 31.03 29.58 29.75 30.37 30.28 31.40 30.94 30.36 29.98 30.33 30.31 29.16 29.83 30.02 30.27
40.48 42.29 41.22 40.63 40.55 41.38 41.39 40.93 38.24 37.04 35.55 33.80 33.93 33.38 33.64 33.08 33.17 32.39 31.94 31.54 31.63 31.58 31.54 31.10 30.94 31.21 32.40 32.60 32.22 31.22 30.13 30.55 30.61 29.01 30.76 30.17 29.99 28.35 27.55 29.36 29.25 29.41 29.58 30.12
41.06 41.25 40.84 40.48 39.84 39.23 37.26 36.35 36.02 35.01 34.52 34.62 34.27 33.96 33.39 32.76 32.50 32.06 31.58 32.15 32.14 31.45 30.93 30.99 31.05 31.22 33.13 33.31 32.11 31.44 31.27 30.28 30.37 31.02 30.97 30.33 29.17 29.25 28.40 27.23 26.49 27.39 29.34 28.05
39.65 40.52 39.21 36.41 35.87 34.93 35.23 35.32 35.30 35.67 35.27 33.50 33.63 32.91 32.69 32.01 31.82 32.13 32.27 32.14 31.67 31.26 31.19 31.49 31.12 31.95 33.69 33.07 31.31 31.06 31.30 31.01 31.05 30.85 30.86 29.03 29.79 29.07 28.19 27.59 26.76 27.07 28.15 27.20
34.88 35.19 35.11 34.43 34.88 36.31 36.90 36.77 35.57 35.47 34.69 32.69 32.47 31.60 32.30 32.85 32.50 32.10 32.19 31.76 29.70 30.55 32.13 29.85 28.95 31.66 32.64 32.30 32.08 31.80 30.92 30.62 30.53 29.83 29.49 29.21 28.99 28.16 27.48 27.22 27.04 26.91 26.92 27.53
33.74 32.98 34.39 35.28 35.71 35.26 35.17 36.23 35.22 32.90 32.60 32.14 31.83 31.22 31.41 29.85 28.67 29.80 31.22 31.43 29.76 28.01 28.92 29.08 29.57 32.76 31.45 31.83 31.98 31.52 31.00 31.11 30.14 29.57 29.08 28.57 28.41 27.54 27.54 27.58 26.93 26.65 27.23 28.71
37.62 37.44 37.88 37.27 35.61 34.59 32.21 32.39 32.12 31.62 31.01 31.27 28.95 26.54 24.48 24.34 27.76 28.45 28.69 29.04 27.57 27.23 29.00 30.76 30.56 30.55 30.22 31.70 31.38 31.71 31.57 30.81 30.68 29.69 29.76 28.82 28.26 27.61 27.59 27.44 26.93 26.12 27.08 28.16
38.29 37.38 36.60 34.33 33.94 32.35 31.06 30.69 30.84 30.34 27.71 27.72 26.70 27.43 27.18 25.76 26.88 28.52 28.69 25.55 25.18 27.26 31.14 31.27 29.79 29.41 30.10 30.69 30.30 30.63 30.31 28.96 27.98 27.88 28.54 28.42 28.39 27.98 27.91 27.40 27.27 26.91 26.77 26.60
33.14 33.21 32.68 31.85 31.36 30.95 30.02 30.30 28.00 30.13 30.71 28.12 25.26 24.85 27.21 27.52 27.61 25.87 25.10 25.67 29.61 32.19 31.97 30.61 29.36 29.30 29.86 30.28 29.89 30.07 29.78 29.01 29.23 29.59 29.16 28.89 28.70 28.59 29.04 27.41 27.50 28.15 27.83 27.38
31.19 31.21 29.62 29.44 29.18 27.33 25.41 25.48 25.00 28.66 29.84 24.98 24.54 26.16 26.54 28.08 27.50 24.89 25.53 26.21 31.96 29.42 30.02 26.74 28.79 30.28 30.73 30.46 30.10 30.99 30.74 30.36 30.13 30.41 30.33 29.78 29.21 28.55 28.37 28.64 28.75 28.64 27.83 27.54
31.13 28.55 26.34 25.66 26.94 28.30 29.39 29.80 29.15 26.01 25.98 25.47 25.03 23.89 24.41 26.51 28.10 27.46 27.47 28.72 33.07 29.64 28.92 29.36 30.49 30.18 29.94 29.44 29.60 30.23 29.95 30.05 30.06 30.60 30.41 30.66 30.13 29.50 29.10 28.88 28.42 28.53 28.27 27.98
30.96 30.64 29.34 27.30 26.98 28.95 28.57 28.59 26.79 27.37 25.92 26.33 26.12 26.75 27.52 28.44 29.36 28.19 28.94 33.27 30.11 29.27 28.09 29.37 30.00 27.66 20.55 26.08 26.90 27.00 26.12 26.07 27.06 28.04 29.41 30.17 30.14 29.98 29.79 29.47 29.26 29.01 28.57 28.20
30.50 29.92 28.82 28.64 26.92 25.51 24.07 25.02 25.52 26.19 25.55 25.71 26.33 26.25 27.21 26.31 27.99 30.58 32.01 30.90 30.21 28.27 28.51 28.17 23.94 19.46 17.51 21.96 21.63 21.12 20.94 21.59 22.06 22.73 23.58 24.04 26.50 28.70 29.92 29.59 29.41 29.65 29.50 28.70
27.20 26.54 25.91 24.58 23.40 22.45 22.06 22.38 22.76 23.61 23.92 24.24 25.02 26.18 26.57 28.51 27.90 29.71 30.94 31.32 29.47 25.99 27.99 19.68 17.97 17.02 19.10 18.95 18.42 17.40 17.07 16.54 14.64 15.44 15.95 16.98 17.35 17.94 19.56 23.51 29.08 29.82 29.95 29.58
23.81 23.21 23.69 23.37 21.82 20.48 19.90 19.03 18.32 20.11 20.23 19.11 20.54 23.01 24.64 25.46 27.21 28.79 30.99 29.43 27.72 24.59 22.05 19.13 17.99 16.39 15.36 14.20 13.42 12.75 13.37 12.81 11.95 12.09 12.32 13.37 13.70 14.34 15.15 16.48 17.88 19.92 24.42 27.01
21.21 20.11 20.22 19.60 18.88 17.45 16.19 15.07 14.71 14.71 16.37 16.94 16.82 19.52 20.37 22.01 24.60 25.71 27.10 26.09 21.41 18.58 17.32 15.88 14.74 13.33 12.80 12.17 11.24 10.32 10.58 9.87 7.98 7.98 8.75 9.48 9.98 11.24 11.56 12.65 14.41 15.49 15.73 16.42

GFSNGP_sfc_wetblb_048.txt.gz
Wetbulb
41.97 41.80 42.01 42.41 42.54 43.26 41.66 42.51 38.91 41.30 40.75 43.35 46.31 48.18 49.89 50.79 50.00 48.49 48.19 48.04 47.86 47.58 46.87 46.38 45.72 43.93 43.52 43.73 44.32 44.00 42.74 42.30 42.50 43.75 43.93 43.48 43.04 42.99 43.11 43.07 42.61 42.33 40.99 40.15
39.89 40.51 40.45 39.40 42.10 42.78 43.72 43.77 42.80 43.10 42.06 47.26 47.69 48.35 49.23 48.68 48.21 47.26 47.43 47.36 47.04 46.57 45.44 44.74 43.07 43.57 41.86 42.69 43.34 42.74 41.75 41.34 42.05 42.35 42.61 42.80 42.28 42.11 42.33 42.21 42.04 41.52 40.56 39.89
36.62 37.59 37.90 36.38 41.21 42.83 43.09 44.33 43.95 40.56 44.98 47.04 46.07 46.69 48.25 48.51 48.10 47.61 47.30 46.55 45.67 44.71 43.57 43.02 42.65 42.11 42.18 42.70 42.58 41.24 40.44 39.98 40.11 40.63 40.92 41.55 41.40 41.58 41.26 41.11 40.51 39.38 38.84 39.02
37.16 33.59 31.88 40.96 43.30 43.28 43.85 44.99 45.83 44.76 45.03 46.56 47.58 48.66 49.96 50.86 49.32 48.04 47.60 46.19 44.95 44.02 42.68 42.65 42.71 42.18 42.15 42.19 41.00 39.39 38.98 38.88 39.38 39.66 39.62 40.57 40.94 40.73 40.51 39.51 38.91 36.99 36.82 37.80
37.19 34.36 38.30 40.53 40.46 39.89 39.71 40.98 45.51 45.07 45.66 46.60 46.68 47.36 47.39 49.97 50.25 49.41 48.19 46.93 45.78 44.93 43.54 41.99 41.91 41.82 41.25 39.94 39.03 38.31 37.72 38.35 38.68 39.24 39.32 40.11 39.69 39.94 39.89 37.25 37.93 37.34 36.20 36.92
34.74 35.67 33.49 39.92 42.76 45.98 45.27 38.28 45.56 46.41 46.48 46.03 46.55 43.36 45.59 49.06 49.13 48.58 47.14 46.20 44.16 41.64 40.31 41.52 40.66 40.69 38.99 38.14 37.73 37.15 37.58 37.84 38.74 39.28 39.42 38.86 39.13 39.11 38.72 37.53 36.48 37.43 36.56 36.70
36.31 37.18 38.54 42.94 44.27 46.02 36.06 38.99 46.23 47.67 48.16 47.21 45.93 47.58 47.00 49.89 47.67 46.63 45.61 42.92 39.73 39.54 39.42 40.23 39.89 39.08 37.45 37.68 36.97 37.67 38.29 38.39 38.57 38.70 37.81 37.17 35.81 37.40 37.65 36.65 34.73 34.58 33.97 34.74
34.88 34.68 33.16 44.06 44.33 40.72 45.88 47.36 47.11 48.04 48.58 48.24 47.14 45.02 46.15 46.95 45.25 43.01 40.23 37.65 38.41 38.65 38.69 38.99 38.95 37.70 37.19 37.21 38.46 38.22 38.19 37.79 37.52 37.82 37.24 36.90 35.83 37.33 36.63 35.62 33.07 32.87 33.09 33.06
41.24 42.04 44.71 46.31 47.69 48.65 47.32 46.36 47.47 47.51 48.08 48.01 45.92 44.88 44.82 43.48 41.57 37.22 36.74 37.74 37.83 38.24 37.14 38.05 37.72 37.54 36.38 37.58 37.78 37.41 36.87 36.32 36.86 37.48 36.99 36.95 35.46 34.93 32.63 33.17 32.32 32.73 32.10 31.31
40.72 44.23 44.97 46.36 48.04 48.33 48.42 48.00 48.06 48.07 48.63 48.50 46.79 45.14 42.23 37.72 35.11 34.88 35.41 36.00 37.50 36.78 36.12 35.80 37.25 37.12 37.59 37.68 37.63 36.70 35.73 34.50 32.57 32.34 35.13 35.66 35.10 33.82 32.43 31.72 31.10 29.88 29.62 29.48
42.28 45.38 45.95 46.19 47.04 47.58 47.50 47.03 46.73 46.70 47.11 47.18 46.21 42.42 36.96 34.12 33.70 34.95 35.13 35.73 36.89 36.03 35.18 35.67 36.61 36.83 37.31 36.86 36.79 35.29 35.10 34.01 32.58 32.12 31.96 32.62 33.31 33.54 33.13 33.89 32.65 31.15 30.02 30.30
42.23 43.89 44.50 44.56 45.83 46.15 46.18 45.93 46.18 44.68 43.27 43.47 40.78 36.19 34.66 33.56 34.52 35.40 36.83 36.83 35.72 35.63 35.55 36.01 35.88 35.72 36.26 36.71 36.44 35.54 34.09 33.61 32.30 31.79 31.58 31.43 31.10 31.46 31.88 30.82 30.39 30.54 30.33 30.34
44.49 46.00 45.97 45.59 45.82 46.37 45.91 44.92 43.86 42.15 39.52 37.64 36.55 34.75 34.46 34.16 35.89 36.61 36.45 34.88 35.31 35.39 35.39 35.25 35.10 35.21 36.62 36.91 35.97 34.26 33.57 33.16 32.59 31.59 31.13 30.28 30.37 30.11 29.51 32.05 30.52 30.15 30.31 30.35
45.50 45.69 44.24 43.76 41.63 43.46 42.49 40.08 39.40 39.05 38.52 37.56 36.39 36.77 37.70 37.66 35.33 35.83 35.75 36.20 36.11 35.65 35.54 35.79 35.40 35.72 37.35 37.52 36.49 34.48 34.01 31.54 32.50 32.45 32.17 31.53 30.96 30.34 29.87 28.83 28.31 30.17 30.69 30.10
43.08 44.18 42.65 41.14 39.70 37.82 38.82 38.60 37.43 35.85 35.89 36.56 38.33 37.21 36.13 35.30 35.40 35.68 36.48 36.19 35.90 35.63 35.72 36.15 35.66 35.91 37.95 37.65 35.46 34.75 33.85 34.13 33.35 33.26 33.36 32.22 31.78 30.67 30.17 29.25 28.76 29.29 30.22 29.85
40.94 40.52 38.49 36.75 37.09 37.92 38.18 37.94 36.25 36.64 37.07 37.10 35.76 35.01 35.28 35.58 35.75 35.96 36.38 36.02 33.93 34.05 35.99 35.12 33.41 35.61 37.16 36.96 35.81 35.13 34.02 32.07 31.67 32.56 32.83 31.83 31.66 30.52 29.77 29.99 29.50 29.16 28.65 29.15
35.48 34.20 36.02 36.66 37.12 36.90 37.18 38.19 38.67 37.77 36.13 35.22 34.71 34.18 34.43 33.70 33.23 33.81 35.24 35.85 35.01 33.27 34.28 33.82 33.24 37.20 36.10 35.70 35.34 35.03 34.78 33.79 32.09 33.21 32.78 32.43 31.80 30.80 30.48 30.33 29.58 29.58 29.85 32.14
38.84 38.80 38.51 37.52 37.24 37.31 35.65 35.37 34.94 34.25 33.57 33.97 33.03 32.62 32.19 31.40 31.59 32.70 33.74 34.65 33.09 32.55 33.33 34.91 35.59 35.74 34.95 35.24 34.62 33.05 32.33 32.24 32.33 32.04 32.01 31.92 31.80 32.04 31.62 30.59 30.12 29.81 30.83 31.31
39.31 38.57 38.31 37.11 36.18 35.01 34.40 34.02 33.74 33.37 32.86 33.50 32.42 32.55 32.61 32.05 32.17 32.93 33.52 32.60 31.22 31.36 35.09 37.23 33.10 31.72 33.72 33.33 32.12 32.30 31.30 30.65 29.93 29.92 30.08 29.71 30.45 30.72 31.00 31.99 31.86 31.90 31.60 31.11
36.45 35.66 35.32 34.48 34.12 33.93 33.16 32.69 33.75 34.12 34.44 32.43 31.26 32.13 32.32 32.30 32.81 32.37 32.72 31.48 33.07 35.56 37.42 36.84 35.23 33.91 32.93 33.05 30.86 32.32 31.79 32.58 30.75 31.07 31.83 31.49 32.25 31.64 31.90 31.00 31.95 31.82 31.46 31.64
34.18 33.93 32.43 32.58 32.13 32.41 31.94 32.28 31.61 30.72 30.68 30.30 28.98 28.16 27.95 29.62 30.64 30.73 30.81 31.67 34.77 36.51 35.78 33.51 33.57 34.26 34.36 32.65 31.49 32.81 32.69 32.16 31.87 31.88 31.62 31.63 31.46 31.78 31.82 31.64 31.46 31.28 31.28 31.46
34.36 31.86 31.19 31.97 32.31 32.14 31.86 30.35 29.40 28.73 28.03 27.44 27.44 27.49 27.40 28.36 29.28 30.27 31.27 31.17 34.00 32.87 34.21 34.53 35.32 32.75 32.57 30.12 31.57 31.28 29.82 29.04 29.15 29.95 31.14 31.05 31.01 30.92 31.28 31.45 31.24 31.43 31.64 31.64
34.22 33.32 31.73 30.05 29.22 28.90 29.08 27.54 26.84 26.99 25.71 25.75 26.20 26.09 26.01 27.22 28.50 27.34 27.03 31.16 32.58 32.80 32.76 32.83 32.40 30.67 26.44 29.29 30.31 29.22 27.94 26.59 26.35 25.90 25.53 25.32 25.60 26.51 28.53 28.79 30.28 31.45 31.64 31.82
31.96 30.61 29.61 28.78 27.61 25.99 24.71 25.50 25.34 25.97 25.54 25.58 25.27 24.48 25.59 26.50 28.00 28.73 29.91 29.82 29.63 31.11 32.43 32.43 30.53 23.98 21.76 28.17 27.10 25.94 25.01 24.23 22.52 21.97 21.95 21.34 22.38 22.37 22.65 22.62 23.68 25.99 27.85 31.25
28.45 28.31 27.29 26.12 25.22 24.79 23.92 23.45 23.63 23.88 23.22 22.91 23.14 23.58 23.76 25.13 24.09 26.41 28.19 28.58 28.53 29.06 30.17 24.54 22.49 22.44 25.15 24.35 22.55 21.46 21.59 20.59 18.75 19.06 19.01 19.21 19.00 19.20 19.51 19.80 20.11 21.11 22.53 23.34
26.96 26.56 26.17 23.84 23.15 22.68 22.01 21.25 20.29 21.30 20.10 19.82 20.92 21.92 22.06 22.66 23.62 24.49 25.96 26.29 25.53 23.70 23.09 21.78 19.37 20.47 20.10 19.26 19.03 17.72 18.26 17.15 16.09 15.76 15.41 16.09 15.59 16.17 16.27 16.38 16.98 17.53 19.00 19.39
23.40 21.91 23.25 23.05 21.86 20.28 19.15 17.81 17.98 17.58 18.57 18.65 17.26 19.38 20.18 20.78 21.23 21.40 22.30 21.55 21.02 20.03 19.15 17.64 15.71 14.23 14.90 15.33 15.17 14.85 14.73 14.25 11.11 10.31 11.86 12.08 12.16 12.07 12.07 12.25 13.14 13.81 14.55 15.56

GFSNGP_sfc_wetblb_051.txt.gz
Wetbulb
46.33 46.07 45.74 45.44 45.04 45.63 44.20 44.41 41.49 43.12 43.24 44.97 47.10 48.98 50.28 51.63 53.04 53.30 52.87 52.80 52.55 52.09 51.86 51.07 49.73 48.36 48.43 47.04 46.33 46.16 44.68 43.81 43.69 44.59 44.69 44.42 44.24 44.31 44.24 44.02 43.60 43.61 42.98 41.73
42.78 45.79 45.12 43.28 45.43 45.35 45.11 45.27 44.46 44.43 43.92 48.91 50.01 49.60 49.44 50.72 51.73 52.00 51.90 52.16 52.30 51.72 50.92 49.63 48.85 47.10 46.55 45.81 45.00 44.97 43.18 42.48 42.95 42.78 42.47 42.75 43.24 43.44 43.42 43.11 43.08 42.95 41.33 40.18
38.31 41.93 41.86 37.36 43.30 44.54 45.34 46.33 45.81 42.61 46.67 49.49 48.01 47.93 48.61 50.39 51.43 51.45 51.71 51.79 51.30 50.45 49.80 48.92 47.35 46.46 44.30 44.59 44.43 43.06 41.90 41.63 41.32 41.25 40.98 41.47 42.06 42.32 42.25 42.25 42.34 41.06 39.71 39.35
38.82 35.81 30.97 42.95 46.13 45.45 44.82 46.37 47.62 47.24 47.82 48.24 48.65 49.91 50.84 52.25 52.03 51.59 51.75 51.45 50.77 50.06 48.64 47.30 46.09 43.97 44.33 43.92 42.75 41.33 40.71 40.22 40.45 40.79 40.46 41.21 41.43 41.61 41.93 42.04 40.95 39.46 38.92 39.29
36.62 36.63 40.77 42.78 43.84 42.64 41.78 42.47 46.29 46.29 46.79 47.47 49.58 49.94 50.01 52.25 52.86 52.79 52.41 51.79 50.91 49.77 47.61 46.15 43.84 43.65 43.28 42.11 41.46 40.11 39.43 39.45 39.97 40.43 40.02 40.62 40.59 41.03 41.17 40.64 39.79 38.02 38.18 38.29
38.46 35.63 32.60 42.48 45.25 47.46 46.96 39.22 46.71 47.35 47.17 47.84 48.76 44.64 48.17 51.91 52.44 52.27 52.24 51.28 49.43 48.32 45.75 43.10 42.48 43.00 41.45 40.45 39.55 38.81 39.16 39.36 40.19 40.41 40.18 39.99 39.92 38.96 39.62 39.94 38.96 37.65 36.59 37.12
38.72 37.15 41.52 46.40 46.84 47.94 37.83 41.18 48.23 48.59 48.24 48.45 47.36 49.25 51.08 52.16 51.41 52.07 50.88 49.23 47.20 43.76 41.95 42.84 42.53 41.42 39.42 39.16 38.62 39.64 39.56 39.91 40.10 40.41 40.04 39.89 39.21 38.62 38.07 38.47 37.35 35.95 35.06 35.44
40.74 33.91 33.27 47.14 46.31 42.09 47.56 49.29 49.12 49.51 50.05 49.77 50.45 48.85 49.17 50.57 49.63 48.73 46.97 42.80 41.79 41.38 41.36 41.75 41.18 39.96 38.27 37.86 39.52 39.79 39.48 39.26 39.12 39.69 39.43 39.10 38.76 38.38 38.14 36.81 34.77 34.94 33.79 33.22
43.65 43.27 48.01 49.01 48.27 50.99 50.35 49.20 49.63 49.80 50.20 49.94 49.73 47.88 48.35 48.34 47.15 44.28 40.89 40.68 42.07 41.32 40.71 40.55 39.82 38.82 36.97 37.96 39.01 39.12 38.55 38.42 38.31 37.97 37.55 38.09 38.17 37.24 35.84 33.41 32.92 32.90 33.44 33.12
43.61 45.99 47.09 48.06 49.44 50.15 50.40 49.71 50.31 50.57 50.28 50.46 49.58 49.26 47.30 46.17 41.63 40.50 40.43 40.11 39.85 38.82 38.55 38.12 38.74 38.09 38.22 38.87 39.10 38.30 37.70 37.88 37.82 36.23 35.01 35.13 36.44 35.99 34.54 33.56 32.86 32.12 32.03 32.06
44.78 46.86 47.31 48.31 49.33 49.68 50.16 50.01 49.24 49.37 49.62 49.73 49.99 47.76 43.95 40.79 39.53 38.89 37.69 38.83 39.82 38.65 37.77 37.02 37.87 37.85 38.56 38.67 38.55 37.50 37.52 37.37 36.74 36.35 33.83 32.83 32.84 33.81 34.21 35.53 34.06 32.83 32.47 32.07
43.21 46.95 47.04 47.51 48.43 49.02 48.70 48.62 48.54 47.57 46.85 47.78 46.23 41.65 40.12 38.11 37.13 37.26 37.60 38.74 38.27 37.60 36.69 37.00 37.83 37.83 38.37 39.06 38.74 37.38 36.23 36.15 36.46 35.11 33.53 32.20 31.79 32.26 33.46 32.34 31.87 30.96 30.33 30.72
46.89 48.17 48.57 48.12 48.41 49.27 47.77 46.47 45.93 44.35 43.29 40.63 40.58 39.72 38.28 36.93 37.79 37.17 39.27 38.83 37.22 37.01 37.69 37.59 37.43 37.44 38.75 39.09 38.55 37.14 35.89 35.33 35.31 33.40 32.90 32.30 31.84 31.44 30.43 33.39 32.23 31.40 30.83 30.80
48.31 48.41 45.85 46.85 44.18 45.49 43.59 42.81 42.37 41.76 40.19 38.89 38.26 39.31 39.39 39.64 39.77 39.07 37.91 38.45 38.20 37.78 37.55 37.80 37.90 37.84 39.45 39.80 39.09 37.51 36.80 32.91 34.62 34.58 33.52 33.35 32.79 32.63 32.38 31.04 30.08 31.32 32.26 31.29
45.91 46.98 45.55 44.08 43.32 42.23 41.98 40.60 38.49 36.93 37.91 38.00 39.86 39.77 39.37 37.84 37.55 37.49 38.24 38.30 37.83 37.69 37.72 38.04 37.82 38.35 39.98 39.74 38.02 37.25 36.58 36.53 36.25 35.25 34.43 33.95 33.73 32.94 31.91 31.36 30.91 31.01 31.34 31.65
44.43 43.77 42.72 40.53 39.45 39.59 39.70 37.88 36.72 37.05 38.86 39.17 38.44 37.57 37.94 37.44 37.42 37.36 37.73 37.83 36.10 35.61 37.13 34.59 34.90 38.07 39.64 39.29 38.40 37.72 36.99 33.41 33.08 34.99 34.58 34.24 33.66 33.23 32.48 32.16 31.76 31.34 31.72 31.21
40.51 37.61 38.20 37.20 38.50 38.46 38.37 39.83 39.73 38.85 37.91 36.55 36.01 35.13 35.11 34.62 34.84 35.61 36.41 37.01 36.35 34.87 36.24 35.54 35.37 38.42 38.64 39.13 38.33 37.44 36.88 36.42 32.58 33.45 34.51 33.66 33.49 33.13 33.06 33.05 32.11 32.24 32.72 33.35
40.87 40.15 39.95 38.84 38.14 38.29 36.94 36.05 35.86 35.72 34.73 34.36 33.41 33.30 33.06 32.70 32.69 33.67 35.15 36.00 35.13 34.54 35.25 36.50 37.24 37.89 38.15 38.80 38.36 37.65 35.91 33.97 32.55 31.55 31.41 31.41 31.92 32.42 32.33 32.01 32.04 32.42 32.90 33.31
39.69 39.48 39.70 38.44 37.44 36.31 35.77 35.20 34.67 35.37 33.99 33.45 32.45 32.15 32.80 33.06 33.29 32.91 32.91 32.59 32.13 32.58 35.74 38.46 34.44 34.41 37.60 37.36 35.28 36.46 35.48 33.59 31.86 31.18 31.89 31.42 32.30 32.08 32.36 32.42 32.53 32.54 32.85 32.52
38.25 37.54 36.56 35.25 35.72 35.26 33.88 34.52 36.55 34.64 34.11 31.33 30.81 30.49 29.05 29.95 30.19 30.51 31.35 30.53 32.16 34.37 34.86 34.71 34.39 35.31 35.22 35.79 33.77 33.94 33.41 33.33 31.61 32.01 32.71 32.17 32.45 32.34 32.41 31.59 32.23 32.61 31.97 32.15
35.53 35.32 34.29 33.87 33.29 33.23 32.67 32.45 30.90 29.73 29.93 29.22 27.71 27.12 27.37 28.49 29.87 29.83 29.08 28.88 31.47 32.82 31.93 31.88 33.55 34.01 34.24 33.43 35.15 35.04 33.79 32.15 31.78 31.59 31.67 31.58 31.60 31.81 31.73 31.79 31.97 32.15 31.97 32.32
34.94 32.98 33.06 34.67 33.37 32.20 31.00 30.00 29.29 28.31 27.29 27.01 26.93 26.71 25.44 26.35 27.50 28.87 30.14 29.65 31.84 29.68 31.08 31.79 33.25 32.40 32.83 31.22 33.27 32.70 32.17 31.16 29.78 28.29 27.70 28.15 26.92 26.98 27.42 28.67 29.02 30.32 30.74 31.40
35.49 34.08 31.83 30.05 30.24 29.86 29.57 27.91 27.78 27.41 25.79 25.32 25.25 24.03 23.79 25.26 26.42 25.91 25.10 27.93 28.40 28.74 29.45 30.51 29.74 29.44 29.85 30.88 31.43 30.89 29.62 28.19 27.24 25.75 25.00 24.68 24.21 23.65 23.22 23.48 23.58 24.78 25.37 26.89
33.93 32.86 31.21 30.21 29.02 27.78 26.58 27.07 26.75 26.90 26.03 25.77 25.62 24.58 23.79 23.58 24.34 25.83 26.75 26.21 26.10 27.05 27.18 25.85 24.21 24.16 25.60 28.66 27.93 27.11 26.30 25.14 23.67 23.34 22.78 22.18 22.40 21.86 21.71 21.01 20.53 21.61 22.11 22.75
30.87 30.20 29.17 28.10 27.69 27.26 26.11 25.44 25.84 25.62 24.27 24.31 24.21 24.47 24.04 24.64 23.22 24.41 25.19 25.07 24.19 23.51 23.62 22.11 19.54 20.47 22.68 21.90 21.29 21.17 21.73 20.19 19.31 19.32 18.96 19.74 19.07 18.25 18.84 18.58 18.14 18.17 19.02 19.92
30.45 29.69 28.26 26.23 25.40 25.35 24.74 23.88 22.94 23.59 22.63 22.72 22.60 23.19 23.69 23.60 23.23 22.51 22.56 22.16 21.38 20.80 20.37 19.97 18.35 17.05 18.16 18.05 17.35 16.88 17.24 17.01 15.13 14.64 15.02 15.29 15.28 15.31 14.84 14.07 14.15 14.86 15.38 15.81
25.54 25.60 26.90 26.50 24.99 23.47 22.44 21.50 21.38 20.75 21.68 20.07 19.06 22.27 22.30 21.72 21.43 20.68 19.80 19.93 19.49 19.00 18.63 18.10 17.22 15.43 14.16 14.32 14.21 13.77 13.81 13.66 12.61 11.77 12.47 12.43 12.53 12.29 11.41 11.42 11.89 12.73 13.51 14.00

GFSNGP_sfc_wetblb_054.txt.gz
Wetbulb
44.70 45.85 46.10 45.40 45.14 45.34 43.63 44.40 40.38 43.10 42.58 45.38 48.02 49.11 49.75 51.04 51.99 52.99 53.89 54.82 54.49 53.65 52.74 52.37 51.15 50.02 48.83 47.84 47.18 46.87 44.99 43.97 43.03 43.44 43.47 43.12 42.56 43.07 43.07 42.65 42.11 42.08 41.37 40.13
43.66 46.34 45.84 43.25 44.85 45.12 44.99 44.91 44.24 44.73 43.76 48.89 49.84 50.13 49.49 49.96 50.86 50.80 52.81 53.39 53.67 53.23 52.61 51.61 49.99 48.74 48.07 46.79 46.49 45.41 44.00 42.09 42.39 42.18 41.75 41.48 41.93 41.97 41.91 41.59 41.43 41.21 39.94 38.91
39.19 42.83 41.03 35.63 42.59 43.71 44.46 45.76 45.49 41.47 46.43 49.53 48.12 48.45 49.43 49.53 49.95 51.18 52.31 52.69 52.74 52.59 51.83 50.58 49.54 48.38 46.16 45.52 45.05 43.28 42.01 41.45 41.54 41.07 40.75 40.85 40.98 40.74 40.55 40.20 40.37 39.80 38.00 37.62
39.90 35.82 30.90 42.36 47.05 45.83 44.04 44.78 45.84 45.69 47.09 48.07 48.71 49.69 50.47 51.48 51.62 51.59 52.46 52.55 52.60 51.86 50.62 49.46 47.81 46.00 44.72 43.69 42.91 41.70 40.78 40.33 40.37 40.37 39.72 40.06 40.19 40.19 40.00 39.93 38.55 37.84 35.72 36.59
35.05 36.12 40.06 42.61 44.66 43.32 42.36 42.14 46.78 45.80 46.63 48.16 49.37 49.48 48.90 51.83 52.61 52.63 52.62 52.76 51.95 50.91 48.85 46.85 44.79 44.24 43.57 42.21 42.25 40.42 39.47 39.43 39.66 39.79 39.11 39.14 38.84 39.11 38.60 37.53 37.50 36.66 36.06 35.20
39.36 34.45 30.57 42.92 45.74 47.45 46.59 38.75 46.56 46.82 47.33 47.38 47.86 43.04 46.97 51.44 51.88 51.99 52.91 52.25 50.27 48.40 46.95 44.14 43.03 43.18 41.73 40.47 40.04 38.85 39.40 39.29 39.30 39.38 39.26 38.68 38.63 37.67 37.29 36.06 36.51 36.00 34.81 34.33
37.93 35.97 40.38 47.50 47.53 47.88 37.74 40.58 48.18 48.36 48.11 48.70 46.50 48.58 50.51 52.15 51.33 52.17 51.55 49.79 48.09 44.74 42.32 42.34 42.26 41.23 39.58 38.97 38.27 39.58 40.03 39.55 39.28 39.37 38.70 38.72 38.11 37.42 36.48 35.65 35.13 32.55 31.95 32.20
41.06 34.03 32.95 48.24 46.08 42.07 47.56 50.48 49.29 49.53 50.55 50.29 49.81 49.37 50.35 50.48 49.93 48.59 43.12 42.46 42.54 41.48 41.44 41.05 40.65 39.46 37.82 37.12 38.75 39.46 39.17 38.65 38.42 38.70 38.07 37.75 36.21 36.64 36.89 34.59 31.81 30.72 30.39 31.50
42.93 41.74 49.62 49.29 49.07 51.15 50.72 49.07 49.64 49.80 50.31 50.47 50.56 48.63 48.92 48.14 44.97 41.46 41.19 40.66 41.95 40.88 39.49 39.63 39.46 38.85 36.56 37.36 38.65 38.67 38.03 37.66 37.89 38.34 37.54 36.22 34.36 33.61 33.20 32.15 29.56 29.38 31.29 29.78
45.08 46.82 47.69 48.68 49.90 50.74 50.48 49.71 50.03 50.34 49.72 50.04 48.92 49.86 48.04 43.56 41.16 39.87 40.48 39.62 39.33 38.39 37.77 37.99 39.08 38.47 37.93 38.56 38.96 37.88 36.95 36.98 36.90 35.79 35.45 34.74 33.92 32.99 31.67 31.68 29.87 30.15 29.77 29.50
45.26 47.31 47.97 48.39 49.06 49.38 49.73 50.22 49.78 49.80 49.59 49.58 49.96 47.16 43.33 40.36 39.40 38.88 38.98 39.37 39.29 38.13 37.71 37.73 38.11 37.60 38.39 38.47 38.60 36.86 36.62 36.46 35.53 35.01 34.25 32.15 33.03 32.24 31.69 32.14 31.66 29.92 29.80 28.61
44.41 47.12 47.51 46.91 48.41 49.47 48.70 48.11 47.87 46.25 43.83 43.91 43.48 40.72 39.47 37.91 38.43 38.39 38.16 39.30 38.73 38.58 37.28 37.21 37.52 37.64 38.09 38.64 38.29 37.14 35.77 34.80 33.63 32.91 32.57 31.90 31.54 31.33 33.01 32.64 32.50 32.75 32.03 29.50
47.18 48.96 48.23 47.73 47.84 48.25 45.55 44.73 43.98 42.66 41.53 39.42 39.97 39.60 39.03 37.66 38.14 37.74 39.18 39.16 38.75 37.61 37.62 37.63 37.21 36.86 38.28 38.78 38.09 36.22 34.12 33.44 33.24 31.75 31.81 30.70 31.24 30.51 29.87 32.11 33.15 32.78 32.57 32.09
48.88 48.66 45.60 47.08 41.99 43.47 42.91 41.88 41.30 40.60 40.45 39.40 38.98 39.28 38.87 38.75 38.97 38.89 38.04 38.33 38.20 37.50 37.05 37.15 37.33 37.29 39.15 39.33 37.79 35.14 34.98 33.04 33.36 33.48 32.57 32.71 31.77 31.62 31.28 30.39 29.34 29.96 31.91 31.46
46.27 47.22 44.97 43.96 42.99 41.76 41.74 40.49 38.03 37.03 37.61 38.24 39.90 39.08 38.67 37.30 36.46 36.50 37.41 37.58 37.62 37.01 37.11 37.42 36.18 35.84 38.33 38.79 36.89 35.43 35.33 34.95 33.88 34.07 33.14 32.10 31.72 31.23 30.69 30.07 29.45 29.22 29.43 29.16
44.35 44.03 43.52 41.20 39.89 39.38 38.75 38.36 37.22 37.42 38.58 38.04 36.85 35.85 35.59 35.46 35.31 35.73 36.71 35.74 33.93 33.25 35.40 32.71 32.79 34.91 36.38 37.45 36.61 36.35 36.31 33.78 32.21 32.93 32.10 31.66 31.71 31.08 30.71 30.80 31.31 30.64 29.58 29.26
40.56 38.55 38.78 38.12 38.13 38.14 38.52 38.92 37.97 36.49 35.48 34.14 33.72 33.02 33.28 33.08 33.39 33.77 34.63 34.97 33.60 32.29 33.65 33.42 33.65 37.24 36.33 37.46 36.90 36.32 36.21 35.72 33.58 31.65 31.07 30.74 30.73 30.85 30.44 30.09 30.20 30.06 30.86 31.48
42.55 41.30 40.85 40.11 38.60 36.90 35.25 35.59 35.26 34.17 32.93 32.99 31.36 29.41 28.75 28.27 30.16 30.34 29.71 30.49 29.45 29.23 31.90 33.53 33.25 32.09 33.01 34.84 34.80 34.57 34.74 34.50 34.21 32.33 31.58 30.28 29.61 29.24 28.92 28.24 28.18 28.16 29.15 29.88
40.17 39.24 39.53 38.39 37.23 36.07 34.78 34.31 34.30 33.26 30.06 28.79 28.28 28.83 28.13 27.87 27.86 28.34 30.06 27.21 27.19 29.08 30.97 31.76 30.23 30.56 31.17 32.41 31.99 32.47 31.95 32.23 32.45 31.54 31.33 30.93 30.62 30.07 29.65 29.77 29.77 29.76 30.03 30.49
37.72 37.10 36.52 35.50 35.21 34.13 32.25 32.46 32.47 30.79 29.67 27.20 24.57 24.27 24.87 23.54 24.42 25.60 26.49 26.75 29.22 28.34 27.68 28.91 28.43 28.80 29.54 30.29 30.36 30.83 30.08 30.31 31.32 31.07 30.87 30.72 30.10 29.65 29.90 30.12 29.99 29.88 30.84 30.49
34.99 34.14 33.07 32.09 30.47 30.08 29.16 28.60 27.36 27.31 27.45 23.78 24.01 22.70 21.36 22.82 24.80 24.20 25.64 25.44 27.41 25.81 26.86 26.20 27.39 26.04 25.45 25.60 26.26 29.16 29.87 29.87 30.50 30.77 29.48 28.52 28.24 26.73 25.59 25.32 25.09 25.07 25.36 27.19
34.10 32.52 32.14 31.63 30.45 29.07 28.36 28.40 27.71 25.04 24.57 21.45 20.18 18.81 19.48 22.61 22.81 24.10 23.23 23.85 25.00 23.90 24.95 26.15 23.44 20.44 21.97 22.69 26.74 28.16 29.12 29.52 28.61 27.49 26.56 25.07 23.74 22.98 22.72 22.63 21.99 21.98 22.38 22.51
33.50 32.21 30.37 29.10 28.54 28.65 27.64 26.29 25.59 24.37 21.53 20.87 21.18 21.79 22.18 22.75 24.09 21.96 20.55 23.84 24.46 23.08 23.30 22.99 17.69 16.30 19.01 22.07 22.42 22.48 23.35 22.01 21.34 22.02 22.63 22.25 22.46 21.32 21.32 20.62 19.77 19.88 19.01 19.58
33.15 32.04 30.31 29.62 28.80 27.92 26.35 25.87 26.53 26.35 22.30 24.03 22.34 20.39 22.40 22.19 22.52 24.13 23.73 22.06 21.17 20.19 21.27 19.92 16.42 15.10 17.39 19.21 18.58 17.95 19.14 17.02 16.45 16.95 17.24 17.91 18.39 17.60 17.58 16.81 15.55 16.25 16.07 16.34
30.87 30.14 29.23 28.80 27.88 26.15 25.81 25.01 25.67 25.19 23.67 24.13 23.49 23.25 23.18 23.84 21.40 21.47 21.97 21.41 19.95 19.53 20.00 19.00 16.64 14.30 15.88 15.62 15.38 14.55 14.91 15.05 13.42 13.13 13.31 14.04 13.66 14.01 13.44 12.59 11.83 11.64 12.74 13.02
31.14 28.91 26.59 25.97 24.94 24.84 23.94 23.68 22.59 23.04 21.94 21.61 21.22 22.99 23.10 23.10 22.47 21.58 20.82 19.93 19.51 18.41 18.47 18.16 17.15 15.03 14.13 13.71 13.58 12.56 12.58 12.37 11.59 11.07 11.27 11.09 10.92 11.06 9.60 9.16 8.93 9.68 10.60 10.83
25.87 27.12 27.03 25.70 24.27 23.28 21.92 21.70 21.05 20.06 21.38 19.50 18.35 21.73 22.08 22.07 20.94 20.07 18.63 19.25 18.18 17.36 16.67 16.56 16.25 14.93 13.29 13.08 12.54 12.01 11.57 10.30 9.67 10.03 9.47 8.39 8.50 7.71 7.44 7.61 7.55 9.05 9.00 9.49

GFSNGP_sfc_wetblb_057.txt.gz
Wetbulb
40.96 42.50 43.11 42.85 42.23 42.46 41.61 40.06 33.93 37.75 39.65 42.61 42.72 44.07 44.76 46.28 47.28 48.98 49.47 50.42 51.45 50.53 49.49 48.89 46.62 45.58 44.88 43.95 44.03 45.86 43.96 41.69 40.50 39.76 39.04 38.98 38.90 39.32 40.45 40.47 40.15 39.81 39.55 38.49
37.77 43.15 42.02 39.13 41.77 41.57 41.28 41.55 39.90 39.64 39.12 43.65 44.39 45.19 44.49 45.24 46.28 47.73 49.79 50.24 50.02 49.49 48.76 47.02 46.23 44.57 44.66 43.74 43.92 41.50 39.94 39.46 40.20 39.76 38.31 38.53 38.62 39.08 39.47 39.42 39.30 38.94 37.61 37.18
32.10 37.39 36.92 29.68 37.82 40.08 41.25 42.04 40.45 36.04 40.65 43.93 43.06 44.39 43.64 44.07 45.99 46.68 49.01 49.33 49.09 48.97 48.16 47.42 46.30 45.61 42.49 41.35 40.46 39.15 39.78 39.52 38.62 39.15 38.25 38.58 39.45 39.15 38.87 38.08 37.69 36.69 36.07 35.85
29.53 29.90 21.92 38.18 44.41 42.81 41.25 41.61 41.15 41.54 42.20 44.01 43.84 44.29 45.48 45.77 45.86 46.79 48.27 48.20 47.72 46.85 45.00 43.61 42.60 40.86 39.94 39.87 39.56 39.65 38.71 38.66 39.17 39.21 38.68 38.73 38.56 38.28 37.70 36.79 35.59 34.72 34.53 34.28
27.18 27.52 35.14 39.36 41.57 40.15 38.43 37.69 42.28 41.29 43.09 44.03 44.74 44.29 44.38 47.19 47.89 46.82 47.14 46.60 45.33 43.69 41.46 39.77 39.60 39.45 39.20 37.99 38.53 37.74 37.44 36.92 38.42 38.72 38.08 38.07 36.84 36.17 35.58 34.62 34.39 33.64 33.82 32.62
28.77 25.07 21.37 36.71 42.19 45.05 43.29 31.15 43.34 43.13 42.61 43.14 42.62 35.43 40.57 45.31 47.27 46.74 46.13 44.63 42.25 40.07 39.30 38.25 37.79 38.56 37.08 35.83 36.10 36.66 37.72 38.11 38.48 38.28 37.91 37.15 36.08 35.53 35.55 34.53 34.44 34.11 33.14 32.35
24.83 25.41 31.63 43.74 44.23 45.25 30.69 32.78 43.74 44.46 44.93 44.14 41.64 42.41 44.92 44.00 40.60 41.56 40.81 39.76 39.61 38.39 36.49 36.94 37.85 37.58 36.65 36.52 35.45 38.06 38.77 38.34 38.26 38.12 37.06 36.41 34.28 34.11 33.94 33.20 31.95 30.07 30.05 29.54
31.28 30.55 26.69 46.05 42.92 36.27 41.45 43.83 44.77 44.97 45.36 44.90 44.64 45.21 43.88 40.66 38.84 38.69 37.98 37.85 37.59 36.43 36.14 36.49 37.16 37.32 36.19 35.97 38.01 38.08 37.99 37.62 37.28 37.19 36.87 35.87 33.52 32.92 32.53 30.42 28.66 28.85 29.52 29.57
35.76 34.82 43.55 45.40 44.71 45.46 45.36 43.93 44.65 44.37 45.38 46.12 45.31 44.79 38.75 37.49 37.45 37.26 36.59 36.55 37.31 36.36 36.76 37.78 37.98 37.58 35.97 36.30 37.01 37.12 36.57 36.04 36.24 36.71 35.70 34.43 31.92 29.72 27.72 27.55 25.92 26.82 26.00 25.13
39.42 43.01 43.15 45.15 46.53 47.02 46.62 45.22 45.89 46.24 46.03 46.35 45.07 39.46 37.55 36.80 36.71 36.77 36.91 36.67 38.12 37.60 37.02 36.87 38.14 37.66 36.17 36.81 37.35 36.26 34.61 34.48 34.42 33.01 32.82 32.05 31.00 30.05 27.38 24.19 24.87 28.35 29.17 29.15
40.21 42.66 44.67 44.86 45.18 46.18 46.80 46.82 42.36 40.99 41.98 43.24 40.39 37.84 36.79 36.39 36.83 37.52 37.64 37.93 37.99 36.75 35.99 35.63 35.48 35.34 35.63 36.08 36.06 34.62 34.06 33.56 32.21 31.71 30.63 29.69 29.82 28.54 28.33 28.64 29.68 29.34 27.35 27.81
33.86 43.61 42.99 42.73 44.65 45.25 42.72 41.67 40.33 38.44 37.25 37.79 37.45 36.31 37.04 37.02 37.63 37.65 37.45 38.58 37.30 36.26 34.79 35.18 35.57 35.22 35.32 35.68 35.12 33.81 32.88 31.79 29.84 29.12 28.75 28.33 27.57 28.64 31.77 31.78 30.71 32.27 32.53 31.64
43.12 45.27 43.12 41.18 41.53 42.20 40.23 39.46 39.32 38.34 38.28 36.77 37.29 37.48 37.61 36.76 37.34 37.05 38.26 37.42 36.85 35.71 35.40 34.20 34.07 33.94 35.11 35.20 34.52 32.94 30.46 30.25 29.76 29.89 29.36 29.24 27.88 28.13 28.02 30.24 32.77 32.78 32.83 32.84
46.30 43.97 39.97 40.34 37.56 39.13 39.17 38.92 39.19 38.18 37.72 36.76 36.07 37.53 38.08 37.79 37.24 36.54 34.47 34.10 34.67 34.22 33.76 33.89 33.69 33.27 34.67 34.96 33.90 31.47 31.13 30.84 30.20 29.89 29.96 30.06 29.23 29.18 28.48 27.80 27.01 27.41 29.96 31.83
42.16 43.11 40.45 40.42 40.03 38.93 38.26 36.94 35.29 34.76 35.54 35.35 35.14 33.74 33.41 32.40 31.88 32.36 34.00 34.30 33.94 33.52 33.47 33.31 31.89 31.77 34.22 34.26 33.43 32.30 31.95 31.99 31.75 32.12 32.33 32.30 31.76 29.61 28.31 28.87 26.84 27.60 28.28 27.06
41.21 40.58 39.59 38.20 38.22 36.40 36.18 35.26 34.36 34.14 32.98 32.10 31.81 31.42 32.00 32.50 32.53 32.77 33.05 30.43 29.25 28.27 29.67 26.04 28.34 31.37 32.51 32.85 32.16 31.63 32.09 31.24 32.30 33.25 32.71 32.29 31.31 29.90 29.12 29.42 29.70 29.80 28.81 29.51
37.09 35.56 36.29 36.53 35.38 35.84 34.75 34.70 33.20 32.11 31.29 29.62 29.37 29.13 28.91 29.15 28.88 27.72 27.76 28.37 26.70 24.03 26.82 26.95 27.36 28.87 28.52 29.75 29.04 29.14 29.36 29.82 30.10 30.11 29.47 30.99 29.83 27.77 29.35 27.42 22.79 23.05 24.58 22.86
40.74 39.74 39.43 38.08 33.83 32.67 32.42 32.24 31.23 30.04 28.91 29.07 26.67 23.97 22.66 21.93 23.78 25.15 26.34 26.67 22.43 22.77 25.03 26.52 26.07 26.37 26.93 28.05 26.97 25.90 26.43 28.56 27.56 26.67 28.53 29.91 29.88 29.64 27.95 24.18 21.87 22.19 25.65 25.31
40.10 39.24 37.60 35.19 34.31 33.31 32.21 30.54 27.88 26.77 25.41 24.65 22.64 21.72 20.47 18.32 23.97 24.84 25.15 18.36 20.00 20.67 23.07 25.06 25.37 25.18 22.88 23.33 23.13 22.61 22.11 23.41 25.34 26.59 26.89 28.93 29.91 28.34 25.63 22.62 26.13 26.66 27.00 25.87
35.31 35.06 34.54 33.16 32.11 30.91 29.54 28.59 26.84 25.34 25.92 23.00 18.54 16.60 18.18 16.14 14.79 14.83 17.11 20.24 21.95 22.19 23.81 24.32 22.53 20.68 20.06 21.35 20.83 23.44 24.18 24.83 25.68 26.82 26.45 27.36 26.60 25.13 24.21 23.77 23.40 22.26 21.59 21.77
32.42 31.17 28.91 27.92 26.98 26.53 25.29 24.34 24.35 24.29 24.47 18.08 16.72 12.04 11.35 14.25 13.98 11.13 16.95 19.78 21.88 21.39 21.84 20.13 17.29 16.94 18.26 18.36 20.44 19.67 20.83 19.43 19.55 21.06 21.64 21.68 22.05 21.43 20.58 20.32 19.38 19.24 18.75 18.70
31.41 28.87 27.29 26.74 26.14 25.79 26.04 25.32 24.20 20.75 19.06 15.80 10.06 8.97 8.84 18.40 14.07 17.00 12.82 18.88 22.05 15.93 19.26 18.05 15.80 12.05 15.27 14.63 16.93 15.36 16.90 14.50 14.44 15.54 15.83 17.16 17.16 17.07 17.50 16.57 15.71 15.66 15.61 15.99
31.33 30.00 28.51 26.26 24.55 24.34 25.12 23.59 19.31 18.19 16.14 13.84 10.88 12.42 14.55 19.47 20.70 16.96 14.28 20.78 20.27 15.89 19.40 14.43 8.44 10.31 10.07 12.94 12.52 11.29 12.96 9.92 9.90 11.33 12.15 13.64 13.50 14.09 13.73 11.90 11.91 11.88 11.80 12.54
28.75 28.11 26.92 27.30 25.70 24.17 22.43 23.66 23.70 22.36 14.76 18.22 12.66 10.72 17.78 11.81 9.09 19.08 20.31 14.14 9.34 8.25 8.34 10.00 7.09 7.53 4.88 7.01 9.08 7.74 8.60 9.70 7.40 7.47 9.58 10.35 10.53 11.49 10.36 9.68 8.95 8.71 9.55 9.46
28.55 27.92 27.19 25.23 23.88 22.42 22.68 23.26 22.71 22.20 21.25 20.38 19.38 21.60 20.06 19.83 9.95 13.04 10.52 10.54 12.06 10.51 8.89 11.65 9.36 5.67 -0.83 -1.20 1.30 0.32 1.52 5.44 6.46 5.02 5.96 6.56 6.91 7.33 6.91 7.69 7.16 6.88 7.82 7.63
25.68 23.87 23.43 23.16 22.35 21.41 21.28 21.29 19.26 18.81 17.40 12.42 12.11 8.48 7.66 11.44 12.85 12.85 9.82 9.69 10.24 10.33 6.59 4.63 6.79 6.16 0.82 -1.35 -1.16 -1.13 1.93 4.20 2.06 6.52 2.32 1.80 3.16 3.13 3.08 4.33 4.30 5.63 5.67 5.49
24.87 23.96 22.75 21.42 21.59 20.54 18.57 17.48 13.62 12.66 13.70 6.17 6.82 5.32 15.77 11.25 6.61 8.59 4.61 2.83 5.54 8.46 1.97 0.60 0.91 2.97 4.24 0.13 -1.74 1.21 -2.61 -1.21 -2.39 4.80 -0.69 -8.56 -3.58 -1.84 -0.46 0.35 2.33 2.88 2.34 4.42

GFSNGP_sfc_wetblb_060.txt.gz
Wetbulb
39.86 40.72 41.03 39.87 39.82 39.84 38.55 37.75 32.84 36.27 36.94 41.06 42.10 42.66 43.60 44.76 46.42 48.25 48.77 48.81 49.73 49.51 49.38 45.75 44.67 44.54 46.09 46.25 46.80 45.27 41.68 39.31 38.97 39.03 39.60 38.49 37.34 36.83 37.71 39.49 39.21 38.86 38.60 38.04
35.32 39.12 39.05 37.28 38.96 39.39 39.49 39.33 38.55 38.28 37.67 42.52 42.19 42.07 43.43 44.75 44.88 46.67 47.48 49.12 48.86 49.05 47.74 46.02 45.61 45.33 45.10 43.33 41.19 39.79 38.54 38.88 39.49 38.43 37.21 38.06 36.95 38.91 38.95 38.59 38.67 37.82 37.28 36.13
30.99 34.99 35.28 30.05 36.08 38.62 39.47 40.13 39.54 34.85 38.51 40.81 40.90 41.92 41.01 41.84 43.82 46.67 47.47 48.41 48.68 48.38 47.12 46.37 45.15 45.09 41.70 38.94 38.53 38.17 38.00 38.98 37.84 37.66 36.63 37.05 38.61 38.22 37.58 37.14 36.47 35.46 35.17 34.71
28.36 28.68 22.65 37.64 42.11 41.92 39.20 38.74 39.17 40.44 40.52 41.29 41.82 42.04 43.13 43.84 44.38 46.24 46.79 46.70 46.18 45.57 43.41 42.19 41.02 39.13 38.15 38.39 38.42 38.11 37.58 36.52 36.73 37.44 38.16 37.88 37.70 37.12 35.98 35.94 34.63 33.78 33.46 33.84
26.92 27.30 33.50 37.97 40.02 37.85 36.80 35.06 40.17 40.42 40.90 42.20 42.85 43.83 42.38 44.74 44.98 44.10 43.25 42.08 40.26 39.52 38.86 38.30 37.76 37.58 37.16 36.17 36.20 35.91 35.03 36.48 38.04 37.98 36.80 37.00 36.02 35.25 34.71 34.15 33.83 33.28 33.55 32.74
30.60 23.51 21.44 34.80 40.46 42.54 40.88 30.02 41.11 41.64 41.05 41.13 40.72 34.19 38.36 40.21 41.84 39.94 39.15 38.56 37.51 36.98 36.77 36.01 35.64 36.81 36.04 35.19 35.79 34.85 36.47 38.81 37.75 37.03 36.65 36.06 34.89 33.75 33.22 32.35 32.63 32.34 32.01 31.36
23.27 21.97 28.82 39.13 42.99 42.69 30.30 31.56 41.99 43.70 42.72 41.85 40.02 39.91 38.51 38.10 37.14 37.49 36.64 36.05 36.60 36.23 35.38 34.88 35.55 36.69 35.75 35.65 35.14 37.97 38.09 37.20 37.25 37.30 36.23 35.57 33.87 32.53 31.31 29.99 28.80 28.53 29.13 29.15
28.25 20.45 25.49 42.75 41.04 35.95 38.15 41.61 43.66 43.81 43.23 42.20 40.75 37.57 36.93 36.75 35.88 35.60 34.72 35.19 35.67 34.74 34.19 35.02 37.46 37.59 36.02 37.27 36.63 36.63 36.66 36.59 36.31 35.58 35.14 34.79 32.27 31.54 30.72 28.35 27.09 24.14 23.16 26.57
34.44 32.79 40.58 42.96 42.32 42.94 43.90 42.94 42.68 43.27 44.66 42.92 37.96 36.42 35.77 34.95 34.99 34.80 34.78 34.62 35.70 35.60 36.49 37.30 37.50 37.44 35.11 34.55 35.56 35.71 35.20 34.66 34.46 34.78 34.28 33.12 30.99 29.59 27.62 27.19 25.14 24.77 24.88 25.51
38.68 40.36 41.52 43.34 44.59 44.72 44.46 43.35 42.97 44.23 44.70 43.44 36.63 36.12 35.27 34.91 34.60 34.89 35.60 36.06 37.36 36.80 36.15 36.06 35.77 35.30 34.60 35.19 35.40 34.66 33.99 33.84 32.99 31.59 31.42 31.07 30.13 29.46 27.27 25.53 24.50 26.56 26.03 26.21
38.29 41.48 42.81 43.23 43.72 43.79 39.86 39.43 38.34 38.25 40.98 38.06 36.66 35.84 35.78 35.22 35.58 36.50 36.64 36.83 37.20 36.54 35.49 34.39 34.56 34.04 34.06 34.49 35.09 33.53 32.87 32.04 31.00 30.77 30.29 29.49 30.03 29.28 28.99 29.00 28.92 27.85 27.41 27.08
33.93 42.47 40.48 41.29 42.08 41.74 38.37 37.59 37.75 36.65 35.83 36.85 36.76 35.85 36.85 36.73 37.04 37.21 36.96 37.32 36.59 35.13 33.51 33.01 32.92 32.74 32.79 33.58 33.24 31.56 30.49 30.51 29.40 29.23 29.28 29.13 28.77 30.16 31.90 31.90 30.88 31.96 32.30 30.38
42.58 42.08 40.77 39.60 39.43 39.57 37.47 37.52 37.38 36.66 36.70 35.54 36.38 37.41 37.28 36.54 36.92 36.79 37.26 35.71 33.29 31.65 32.13 31.80 31.59 31.46 32.87 33.51 32.77 31.16 29.58 29.69 29.60 29.27 29.79 29.93 29.88 29.26 28.58 32.12 32.29 32.44 32.49 32.72
41.15 40.21 37.04 37.75 35.13 38.08 37.87 37.69 37.64 36.27 35.77 35.36 35.13 35.62 35.38 34.20 32.74 32.35 31.83 32.18 32.32 31.53 30.46 30.69 30.73 31.29 32.51 32.32 31.56 30.23 29.91 30.06 28.90 29.23 29.42 29.93 29.90 30.24 30.64 30.04 29.65 30.98 30.48 31.61
40.05 40.95 38.18 37.70 37.24 36.26 36.75 36.05 34.52 32.60 31.27 31.05 32.15 31.70 32.09 31.35 31.19 29.63 29.20 29.26 28.66 28.80 29.32 29.43 28.75 27.24 28.45 28.80 27.73 26.98 27.03 27.61 28.31 28.37 28.71 28.70 29.73 29.40 30.51 30.95 31.00 30.03 30.27 26.78
38.85 38.47 37.72 35.89 34.99 34.94 34.92 34.56 31.15 30.32 30.62 30.52 30.11 30.50 30.46 29.57 28.13 27.60 27.67 27.28 26.26 25.32 26.80 21.63 24.20 25.26 26.49 27.40 25.80 25.08 24.55 24.07 24.45 26.00 28.36 26.99 26.13 25.77 27.36 29.36 29.65 29.24 27.16 23.81
35.84 34.18 34.42 33.51 33.66 34.09 33.86 32.78 31.04 29.59 29.29 27.69 27.02 27.23 26.52 25.75 26.17 26.18 26.44 26.38 23.64 22.52 24.26 23.42 23.34 25.79 24.36 23.70 22.38 21.42 21.54 22.17 21.79 23.28 23.79 24.70 25.15 25.18 26.28 28.46 27.42 26.16 22.80 22.64
39.43 37.66 36.77 35.65 32.67 31.27 30.51 30.19 29.65 29.08 27.17 26.37 23.92 20.38 20.04 21.04 23.20 24.06 24.24 22.37 19.86 20.16 23.04 24.21 23.65 21.78 21.51 21.86 21.81 21.90 21.66 22.23 22.47 23.13 24.96 25.79 25.44 26.40 27.67 27.59 26.06 24.03 24.32 24.96
39.35 36.24 34.75 34.37 33.25 30.77 28.59 27.16 26.67 25.74 23.71 22.32 20.31 19.51 19.30 17.92 22.09 22.44 22.48 16.25 15.98 19.01 21.43 21.04 20.74 18.94 19.10 20.08 20.21 20.59 19.97 17.63 18.01 20.01 20.90 21.17 21.85 21.91 22.33 21.83 21.12 21.17 20.92 19.87
35.06 34.78 34.10 32.68 31.46 28.11 25.20 25.47 25.51 24.56 23.04 19.61 17.02 17.05 18.98 15.68 11.79 14.37 17.88 18.76 19.28 19.49 21.94 18.55 17.44 16.68 17.87 17.95 15.44 17.54 15.26 12.73 13.99 14.97 14.44 16.15 16.49 16.62 17.07 17.07 17.41 16.01 15.89 16.47
31.61 30.90 29.60 28.45 26.92 26.46 25.25 24.57 23.72 22.33 21.24 16.67 16.32 12.70 11.97 14.40 13.60 11.89 15.17 17.84 19.72 19.20 19.05 15.51 14.73 14.45 15.46 13.61 13.50 12.19 11.53 8.89 8.82 9.97 10.66 11.58 10.89 11.78 11.77 11.33 12.06 12.13 12.57 13.48
29.28 27.55 26.40 26.06 25.28 24.83 24.94 24.67 23.59 20.54 18.03 13.88 8.22 7.46 10.28 17.99 13.78 14.15 10.33 17.29 19.00 10.89 16.42 15.17 13.87 6.56 10.60 7.25 10.94 6.13 10.55 6.50 5.98 6.37 7.43 8.78 8.42 9.38 8.43 8.18 8.56 8.74 9.88 10.27
27.81 26.90 25.89 25.08 24.34 23.94 23.64 21.84 19.17 17.92 15.11 13.30 11.65 13.35 16.52 19.30 18.50 12.48 11.70 18.32 18.34 12.08 16.82 11.80 4.66 2.67 1.66 -2.23 -2.39 -4.03 -1.32 -0.24 -0.97 1.60 4.36 5.12 5.15 6.62 5.38 5.95 6.27 6.64 6.83 8.09
27.95 27.08 25.63 25.40 24.80 22.80 21.02 21.75 22.69 20.89 16.40 16.81 13.19 10.28 16.46 9.80 6.68 17.57 18.28 10.03 4.84 3.20 2.84 4.84 1.05 2.84 -1.68 -6.38 -6.38 -7.47 -6.20 -6.38 -6.93 -2.21 -0.61 -2.43 -1.95 3.03 1.07 2.58 3.04 4.23 5.48 5.90
27.16 26.69 25.39 24.38 23.08 22.57 23.76 23.15 22.14 21.70 19.77 19.32 18.41 19.96 18.76 17.38 9.24 11.48 7.52 8.11 8.08 6.56 3.06 1.40 3.04 1.41 -6.02 -9.10 -9.10 -9.10 -7.47 -8.92 -9.65 -4.95 -8.01 -10.92 -7.11 -6.02 -4.27 -1.41 -0.95 -0.06 2.28 1.84
24.94 23.54 23.42 23.28 22.26 22.13 21.85 20.60 18.02 17.92 15.15 10.10 9.64 3.60 7.79 11.42 11.65 10.44 5.41 3.85 5.79 6.81 1.50 -4.21 -5.84 -5.48 -6.38 -5.30 -7.65 -8.56 -7.47 -4.87 -10.03 -2.98 -8.92 -13.27 -10.74 -6.30 -8.42 -4.88 -4.37 -1.29 -1.52 -0.97
23.02 22.44 21.91 21.15 21.11 20.61 19.28 16.70 11.94 11.79 10.96 5.26 7.57 1.96 11.28 9.71 9.17 5.36 -2.05 -4.58 -4.03 0.32 -4.39 -4.75 -7.11 -4.57 -5.14 -4.93 -5.11 -1.55 -7.65 -8.95 -11.28 -6.75 -13.45 -17.44 -16.72 -13.82 -11.49 -7.97 -5.80 -3.25 -3.33 -1.20

GFSNGP_sfc_wetblb_063.txt.gz
Wetbulb
37.75 38.68 38.76 38.37 38.50 37.88 36.59 36.09 32.08 35.25 34.94 39.53 40.96 41.42 42.30 43.56 44.15 46.98 48.65 47.75 47.49 48.18 48.47 46.21 44.91 44.58 45.27 46.56 47.86 47.43 46.84 44.27 42.37 41.42 39.50 37.73 38.20 36.24 36.49 38.99 37.39 37.48 37.22 37.00
34.10 36.88 37.67 36.30 38.84 38.09 37.57 37.33 37.20 36.80 36.15 41.12 41.09 40.57 41.17 42.06 43.45 44.92 47.19 47.44 48.09 48.85 46.57 44.58 44.70 45.61 45.09 45.73 45.64 44.55 41.66 38.95 38.51 37.33 37.62 37.43 37.51 36.45 37.58 36.64 36.93 36.09 35.44 35.49
30.11 33.53 33.71 29.49 34.55 37.60 38.30 38.99 38.21 33.87 38.23 38.72 38.43 40.15 39.65 41.18 41.64 44.18 45.91 47.23 48.05 46.86 45.48 44.98 44.39 45.19 44.16 41.99 41.29 38.25 37.89 37.01 37.67 38.35 37.84 37.40 38.05 37.53 35.71 34.77 35.26 34.38 33.59 33.38
27.08 28.38 21.86 36.29 40.41 39.83 37.93 36.93 37.63 38.24 38.05 39.35 39.92 40.57 41.30 41.64 42.55 44.88 46.08 46.19 45.95 45.67 44.04 43.41 41.81 39.34 37.87 37.64 37.40 36.16 35.68 36.21 36.90 36.58 37.49 37.43 36.84 35.43 34.50 34.78 34.07 33.04 32.21 32.22
26.70 27.19 32.11 37.58 38.85 37.40 36.00 34.92 38.59 38.54 39.57 40.60 40.66 40.79 41.13 40.03 39.24 39.25 39.56 38.71 38.41 39.07 38.28 37.61 36.47 36.32 36.02 34.86 35.00 35.19 36.23 36.12 37.06 37.80 36.77 36.20 34.80 34.30 33.72 33.09 32.20 31.41 31.75 31.37
25.70 23.43 22.88 35.37 39.22 40.61 39.56 29.97 40.16 40.10 39.91 39.97 38.73 32.08 36.93 36.57 36.01 34.81 35.42 35.81 34.89 34.99 35.26 34.62 34.24 35.72 35.12 33.90 34.94 34.63 36.98 38.75 38.00 37.29 35.63 34.86 34.49 33.13 32.12 30.96 31.30 30.19 29.54 30.08
23.45 22.31 30.62 38.34 41.21 40.62 29.64 31.83 40.38 40.97 40.04 39.66 37.99 36.75 35.72 35.14 34.14 34.76 34.73 34.48 35.03 34.62 33.65 33.91 35.10 35.71 34.10 34.27 35.38 37.43 37.71 37.52 36.80 36.41 35.18 34.38 33.16 32.37 31.24 30.01 28.59 27.76 28.05 28.29
24.59 20.21 26.93 41.16 39.93 35.26 37.13 40.70 42.65 41.88 41.36 38.56 35.19 34.87 34.58 34.24 33.61 33.76 32.97 33.41 34.30 33.89 33.70 33.99 36.12 37.30 36.14 34.29 35.60 36.96 36.21 35.85 35.14 34.63 34.11 33.95 31.95 31.21 30.18 28.69 27.01 25.22 21.56 24.98
33.54 32.86 40.04 41.31 40.12 41.24 42.58 42.34 42.53 42.28 41.55 38.01 35.41 34.04 34.16 33.10 32.91 32.73 32.89 33.12 34.42 35.33 36.79 37.01 36.74 36.73 34.37 35.17 35.53 35.14 34.25 33.73 33.47 33.77 32.91 32.09 30.44 29.65 28.24 27.56 25.90 26.30 25.80 25.73
36.32 39.45 39.94 41.42 42.91 43.21 42.95 42.71 43.11 43.43 39.98 38.18 34.37 34.53 33.21 32.89 32.72 32.76 33.22 33.88 36.00 36.39 35.51 35.21 35.42 34.70 34.49 34.38 33.91 33.57 32.69 32.47 31.93 30.25 30.40 30.05 29.67 29.70 27.81 27.00 26.75 27.64 27.45 26.68
36.79 39.60 41.50 42.29 41.85 39.65 38.71 39.04 39.20 39.98 39.33 36.27 35.35 34.04 33.65 33.23 33.47 33.64 34.17 36.28 36.72 35.68 34.58 33.66 33.51 31.64 32.55 33.14 32.71 30.99 30.10 29.84 29.35 29.42 28.88 29.06 29.68 29.08 29.75 30.53 30.28 30.23 29.25 28.49
35.43 41.24 39.82 41.00 40.78 39.56 38.45 37.37 37.55 36.15 35.14 36.22 35.71 34.34 34.92 34.45 35.12 36.05 35.65 36.43 35.21 32.77 31.76 31.18 31.19 31.61 32.20 32.50 31.78 29.81 28.83 28.75 28.80 28.87 28.70 28.67 28.28 29.39 32.21 32.22 31.99 32.25 32.22 31.72
41.53 43.19 40.30 39.74 38.36 38.49 36.99 36.42 36.66 35.77 35.97 34.71 35.75 36.01 36.00 35.79 35.65 33.36 33.28 33.16 32.28 30.88 30.40 30.19 29.89 28.09 28.28 28.35 28.64 27.22 25.70 26.71 27.02 27.67 27.78 27.52 27.64 27.65 26.82 30.05 32.40 32.69 33.06 33.17
39.56 39.29 35.93 36.59 34.83 37.09 36.57 36.35 36.68 35.64 35.63 35.16 34.55 33.78 32.48 32.12 31.61 31.20 30.32 29.68 29.34 29.67 29.36 28.41 25.50 24.58 26.39 27.65 26.84 25.83 25.49 25.75 24.40 24.11 23.97 24.32 25.58 26.74 27.71 24.88 23.55 25.39 29.84 31.80
38.10 39.36 37.95 36.78 36.49 35.11 35.36 34.77 32.46 31.29 31.62 30.59 31.97 32.00 32.20 28.71 26.93 26.38 27.21 28.45 28.12 25.95 24.58 24.32 23.69 24.26 25.96 25.73 23.02 22.38 21.87 21.55 21.64 21.03 21.70 22.37 23.84 23.36 23.51 24.29 23.80 24.72 27.49 29.56
37.40 36.92 36.79 35.01 34.22 33.69 32.92 31.56 30.06 29.57 30.20 30.20 29.83 29.63 27.82 26.70 26.52 26.53 26.69 26.66 25.03 23.21 22.51 17.91 23.17 23.33 23.17 22.65 21.68 21.58 21.57 20.88 20.42 22.12 22.38 23.22 24.00 23.66 23.33 24.46 25.16 25.71 26.98 27.03
34.83 33.41 33.74 33.26 32.78 32.73 31.03 31.18 30.30 29.11 28.80 28.06 26.40 25.96 26.00 25.81 25.99 25.43 24.13 23.53 21.85 21.64 22.82 21.91 20.30 21.44 21.65 21.27 20.56 20.32 20.46 20.54 18.02 19.80 20.10 20.61 20.25 20.44 20.98 20.52 20.64 20.67 21.39 21.72
39.69 38.12 36.82 35.17 33.42 30.67 29.33 29.51 28.88 27.36 25.80 24.92 23.74 21.98 21.27 22.00 23.42 22.59 21.24 21.01 19.48 19.62 21.12 20.04 19.65 19.84 20.25 19.95 19.00 19.68 17.90 15.67 15.77 17.11 16.86 16.63 17.91 17.64 17.13 17.14 17.01 16.64 16.96 18.97
37.84 36.05 35.24 34.18 32.98 30.89 29.43 27.53 26.26 24.86 22.78 22.26 21.77 20.64 20.70 21.02 23.31 21.68 20.58 14.75 13.45 17.57 19.28 18.14 19.02 17.74 17.92 17.94 15.84 17.02 12.83 9.32 10.68 12.90 12.45 12.63 11.55 13.44 11.75 12.11 12.56 11.99 13.19 13.82
34.90 34.41 32.61 30.38 29.89 28.48 25.77 25.38 24.67 23.30 22.98 21.67 20.67 19.72 18.50 15.41 16.30 15.28 16.52 16.61 18.10 19.68 18.46 16.14 15.87 15.32 14.79 14.84 10.85 13.71 8.94 5.86 8.41 8.12 7.45 8.51 5.72 7.64 8.13 6.34 8.14 7.25 7.52 9.59
31.62 30.23 27.90 26.59 25.52 25.73 25.29 24.14 22.14 21.66 21.48 19.54 18.70 16.67 16.36 16.10 14.64 11.55 14.07 16.80 18.18 18.26 16.81 14.08 13.33 13.20 13.20 10.22 10.32 5.59 2.53 -1.10 -2.52 1.08 1.99 3.83 1.36 5.29 2.88 -0.20 1.31 3.16 4.34 6.25
29.22 27.35 25.77 25.00 24.39 24.08 24.46 23.77 21.74 19.86 17.96 15.08 13.82 14.74 14.95 16.11 13.61 14.41 9.78 16.16 18.21 11.54 14.68 13.96 12.70 3.83 8.45 4.01 7.98 -2.88 3.51 -0.21 -2.14 -4.13 -3.40 -2.16 -1.32 1.46 -1.87 0.28 0.90 1.69 1.85 3.40
27.93 27.09 25.80 24.33 23.42 23.63 23.67 21.35 19.57 18.78 17.41 16.12 15.85 16.11 16.61 18.43 17.82 12.75 12.33 17.58 17.52 11.14 14.76 10.32 3.73 1.05 -1.24 -6.85 -7.39 -9.93 -9.21 -9.21 -10.84 -8.66 -10.84 -13.19 -9.39 -3.77 -5.45 -3.80 -1.08 -1.93 -1.14 1.81
26.77 25.92 25.04 24.37 22.99 22.08 20.49 20.94 21.54 20.03 18.28 18.23 16.65 14.03 16.84 11.61 7.94 17.45 17.09 9.15 4.87 1.67 1.84 3.98 -1.23 1.13 -4.49 -9.93 -10.66 -11.92 -11.74 -13.56 -15.01 -13.01 -10.47 -11.74 -16.64 -11.38 -9.94 -9.09 -5.29 -4.51 -3.65 -2.26
25.29 25.15 24.50 23.67 23.08 22.07 22.73 22.48 21.18 20.74 20.25 19.68 18.72 18.82 17.68 16.38 9.54 11.59 6.59 6.61 6.19 5.44 1.76 -2.32 0.22 -1.41 -10.29 -12.83 -12.83 -13.38 -12.47 -13.74 -15.19 -14.46 -15.73 -17.91 -17.00 -15.19 -13.94 -12.52 -11.42 -9.08 -6.07 -5.06
25.02 23.67 23.29 23.44 22.96 22.89 22.12 21.58 19.39 18.08 15.51 11.76 9.45 3.36 5.25 12.38 11.40 10.12 5.75 2.74 4.00 3.48 -0.32 -5.94 -8.66 -10.84 -11.56 -9.57 -11.74 -10.29 -8.84 -7.28 -14.28 -14.10 -15.91 -18.27 -18.81 -14.49 -15.22 -13.30 -13.44 -10.99 -8.22 -6.86
22.46 22.19 21.38 20.98 21.07 19.72 18.31 17.06 15.70 14.58 12.24 3.68 5.52 1.13 8.86 9.44 9.02 8.10 -1.03 -5.23 -7.39 -5.94 -6.30 -6.49 -9.02 -8.48 -8.84 -12.11 -11.02 -10.84 -6.30 -8.66 -14.83 -13.19 -18.63 -21.53 -20.63 -20.26 -17.76 -16.67 -14.38 -12.79 -9.39 -8.72

GFSNGP_sfc_wetblb_066.txt.gz
Wetbulb
35.95 37.11 37.36 36.85 36.81 36.08 35.05 34.52 31.45 34.16 33.32 38.16 40.07 40.14 41.36 41.44 41.00 44.83 47.70 47.39 48.50 48.53 48.11 46.14 44.75 45.23 45.97 45.95 46.06 47.45 46.47 46.73 44.98 42.18 40.31 39.44 38.65 38.33 38.14 38.88 38.25 37.93 36.80 36.23
33.20 35.24 36.39 34.43 37.56 36.38 36.85 36.38 35.13 35.07 34.69 40.23 40.38 39.28 39.82 39.97 40.61 41.72 45.60 47.55 45.82 47.90 46.77 46.59 44.99 44.97 46.31 45.90 46.10 46.86 45.48 42.49 40.50 40.09 38.27 37.87 37.05 37.67 37.98 37.62 37.25 35.97 34.91 34.64
30.27 32.76 33.33 29.61 34.14 37.11 37.30 37.27 37.27 33.00 37.15 38.33 37.57 38.90 38.52 39.53 40.38 42.57 44.26 45.95 46.10 46.56 45.40 45.19 45.83 45.57 44.88 44.63 44.74 43.05 39.84 39.10 38.21 38.03 37.62 36.25 38.07 37.51 36.61 35.68 36.27 34.79 34.09 33.14
28.25 27.89 21.18 35.33 38.32 38.27 37.16 37.30 37.24 36.47 37.25 38.25 38.45 39.11 37.66 37.37 40.08 43.84 44.93 45.12 44.20 43.63 43.11 43.59 42.51 40.84 39.50 38.68 37.49 38.04 37.93 37.07 37.59 37.76 37.49 37.38 36.81 36.15 35.31 34.92 34.26 33.38 32.21 31.71
28.48 26.91 31.14 35.34 37.68 36.69 35.25 35.29 37.62 36.88 38.06 39.29 39.87 39.68 37.83 35.81 35.24 35.59 36.98 37.13 37.31 38.30 37.39 36.12 35.38 35.80 35.79 36.09 36.90 36.45 36.38 36.93 37.45 37.80 36.64 36.39 34.85 34.40 33.96 32.76 32.12 31.22 31.02 29.81
25.76 23.54 22.82 33.87 38.41 39.23 37.84 30.58 38.96 39.28 39.24 39.05 38.02 31.89 34.11 32.83 33.81 33.00 33.27 33.86 33.56 33.93 34.04 33.56 33.50 35.32 35.54 35.51 36.41 36.09 37.29 37.84 37.87 36.97 36.53 35.19 34.38 33.86 32.13 30.47 30.10 29.86 29.23 29.23
22.54 22.56 30.24 38.05 39.18 38.83 29.69 31.43 38.00 39.80 39.62 38.49 36.16 34.36 32.62 33.22 32.49 32.90 32.70 32.67 33.59 33.38 32.96 33.54 34.88 35.96 33.76 35.01 35.70 37.45 37.74 37.48 36.78 36.39 34.91 34.65 32.59 31.06 30.29 29.53 29.06 28.10 27.98 28.34
24.49 22.17 27.60 40.13 38.73 34.18 36.95 38.33 39.78 39.43 39.86 38.04 33.61 33.02 32.75 32.40 31.60 31.76 31.46 32.32 33.65 33.52 33.42 34.56 35.24 36.30 35.45 34.52 35.94 36.74 35.74 35.02 35.22 34.57 33.56 32.58 30.56 30.23 30.02 28.83 27.59 26.39 24.60 26.71
34.61 34.24 40.59 39.77 39.28 39.39 40.26 40.76 41.49 41.19 39.89 36.77 33.82 32.52 32.42 30.93 30.96 31.13 31.67 32.35 35.10 34.28 33.87 35.05 35.91 34.57 33.16 32.22 33.28 34.13 33.91 32.63 31.61 31.35 30.52 29.64 29.03 28.71 28.03 27.53 26.69 27.19 27.17 27.28
35.89 38.79 39.40 40.56 41.25 41.04 42.15 41.72 42.05 41.28 38.37 36.97 33.81 33.08 31.41 30.96 31.09 31.90 32.89 33.44 34.32 34.04 32.39 31.69 31.61 32.24 32.56 33.38 33.01 31.89 30.05 29.36 29.10 28.42 28.88 28.47 28.82 29.06 26.91 25.35 26.33 28.13 28.10 28.10
35.45 39.65 40.65 41.55 41.58 40.89 39.74 41.05 40.48 38.31 37.01 35.60 34.10 32.40 31.90 31.22 31.81 32.49 33.18 33.44 33.34 31.84 30.41 30.23 31.83 31.34 31.59 31.09 30.06 28.28 28.06 27.62 27.16 27.47 27.03 27.08 27.87 27.49 28.17 28.25 28.05 28.14 28.40 29.01
35.81 41.84 41.15 40.28 40.65 39.49 38.99 38.51 38.14 35.77 34.51 34.85 34.31 32.80 33.06 32.73 33.26 33.66 32.99 31.88 31.25 31.09 30.93 30.80 29.01 27.24 27.41 28.25 27.05 25.67 25.24 25.23 25.15 25.20 24.77 24.71 24.25 24.72 28.78 29.34 30.16 30.73 30.46 29.01
41.88 43.33 39.76 39.01 37.46 38.03 36.76 35.97 36.12 35.62 35.18 33.37 33.89 34.57 34.37 33.22 32.65 32.40 31.95 31.85 30.70 30.13 29.75 26.27 24.70 24.74 26.02 26.64 25.95 24.99 23.41 23.69 22.84 22.85 22.66 22.18 22.29 22.79 21.64 24.53 27.39 27.78 28.61 29.28
40.06 40.13 36.94 37.27 36.15 36.23 35.73 35.49 36.09 35.13 35.01 34.49 33.80 32.88 32.11 31.09 30.56 29.66 28.89 29.89 30.04 27.70 24.95 24.23 24.16 24.10 25.06 23.95 23.22 22.42 21.85 21.26 20.24 20.42 19.90 21.27 21.76 22.51 22.85 22.31 21.69 22.86 26.73 26.53
37.29 38.16 37.89 35.99 35.16 33.95 34.55 34.36 32.73 31.58 31.43 31.14 31.82 30.51 29.78 28.28 27.04 27.49 28.62 27.15 25.50 24.22 23.87 24.18 22.37 20.89 22.54 23.05 22.11 21.83 21.67 20.54 20.06 19.41 21.93 22.56 22.62 20.86 19.84 19.64 18.96 19.37 20.47 20.48
37.19 36.84 36.21 33.52 32.87 32.58 32.97 31.87 30.31 29.66 30.57 30.22 28.44 27.30 26.99 27.30 27.09 27.12 27.13 26.80 23.97 21.76 21.94 17.71 19.93 20.82 22.17 21.46 20.99 20.72 20.46 19.44 17.43 18.77 18.93 18.64 18.78 17.63 18.00 16.74 17.17 16.62 16.37 17.18
34.25 32.77 32.50 32.25 31.97 31.86 31.48 32.01 31.01 30.14 29.44 28.09 26.37 26.72 26.92 26.00 24.61 23.70 22.75 22.91 21.75 21.27 20.43 19.27 18.61 20.95 21.10 20.10 19.76 18.48 17.31 15.85 14.61 17.08 15.19 15.17 14.64 13.98 13.91 12.80 13.63 12.21 12.55 14.69
38.03 36.62 36.03 34.43 32.37 29.70 29.28 29.54 29.88 28.95 27.17 26.52 25.37 25.06 24.65 24.31 23.21 22.05 21.22 21.31 20.42 18.53 18.54 18.36 18.59 19.68 19.03 17.85 17.87 16.57 13.30 11.91 12.46 12.44 12.21 10.90 9.93 11.85 9.31 8.26 9.25 8.18 8.02 10.94
36.48 35.27 34.66 32.68 31.87 30.65 29.26 28.40 27.12 25.50 24.38 23.75 23.36 22.30 22.78 22.48 22.14 21.28 19.94 17.07 16.37 17.86 16.47 17.24 18.73 16.89 16.01 15.31 14.31 12.64 9.30 4.54 6.41 9.39 6.69 5.82 4.61 5.52 4.46 1.47 4.90 3.82 4.56 6.34
34.52 33.89 32.35 30.97 30.77 28.70 26.08 25.24 24.89 23.95 23.41 22.07 21.52 20.93 20.39 19.58 19.02 17.70 17.82 17.26 18.92 17.81 16.92 15.54 14.94 14.15 13.41 12.38 9.06 11.42 5.53 0.21 4.92 2.30 -0.75 1.32 -5.08 -3.45 -0.59 0.28 2.35 1.68 -1.57 1.66
30.62 30.31 29.08 27.76 25.98 25.42 24.37 24.05 23.41 22.25 22.19 21.90 20.66 19.27 19.02 18.08 17.31 15.91 16.38 16.17 17.99 17.23 15.90 13.83 13.01 12.49 12.02 9.27 8.91 2.06 -2.57 -5.63 -6.90 -6.53 -6.90 -9.43 -10.52 -5.81 -6.53 -7.83 -6.21 -5.45 -4.56 -1.20
28.13 26.18 25.47 24.90 23.76 23.15 23.28 23.15 22.06 20.53 19.23 17.84 17.49 17.70 16.83 16.50 15.24 15.39 13.51 16.74 18.23 12.63 14.60 13.74 12.19 4.15 7.51 3.43 5.99 -4.72 0.74 -3.50 -6.72 -10.16 -11.43 -12.88 -14.51 -14.33 -10.89 -12.34 -8.81 -5.03 -4.84 -4.77
26.98 26.30 25.63 24.71 23.56 22.00 21.53 20.63 19.71 18.93 17.80 17.39 17.29 17.76 18.42 18.74 18.28 14.97 13.21 17.07 17.17 11.51 14.32 10.55 3.79 0.13 -2.55 -8.53 -9.07 -11.43 -11.07 -11.79 -13.60 -13.06 -15.78 -18.86 -18.86 -19.04 -16.32 -12.35 -10.11 -10.23 -9.17 -7.47
25.73 25.04 24.22 23.72 22.37 21.22 19.55 20.56 20.89 19.89 19.11 19.65 18.32 18.09 17.81 14.63 11.32 16.96 16.36 8.76 4.13 1.62 2.17 3.07 -1.28 0.54 -5.81 -11.43 -12.34 -13.79 -14.33 -15.78 -17.23 -19.41 -14.51 -15.24 -21.94 -22.67 -16.71 -16.89 -13.87 -11.43 -11.07 -10.17
24.59 23.99 23.89 23.29 22.34 21.30 21.62 21.09 20.46 20.34 20.12 19.48 18.98 18.39 17.94 16.56 11.44 13.67 8.15 7.11 7.22 5.20 2.29 -1.82 -0.01 -1.28 -11.07 -13.97 -15.42 -15.24 -13.97 -11.43 -15.96 -20.49 -18.68 -20.86 -21.76 -21.94 -19.23 -18.16 -17.46 -15.84 -13.03 -11.64
24.69 23.87 23.88 23.84 22.64 22.53 22.13 21.54 19.39 18.50 16.46 13.86 13.33 9.44 9.81 12.45 12.01 11.41 8.34 6.02 5.99 3.23 -0.37 -5.81 -6.53 -8.35 -10.34 -12.15 -14.33 -14.51 -13.06 -3.84 -8.89 -16.51 -18.86 -19.59 -23.21 -19.28 -21.05 -17.85 -18.55 -15.91 -15.71 -13.43
22.71 22.73 21.57 19.77 19.49 18.87 18.41 18.08 16.31 15.03 13.25 9.64 9.78 7.59 11.44 11.14 9.67 9.05 2.57 -1.93 -5.45 -7.98 -8.35 -10.89 -7.62 -6.72 -6.35 -12.15 -14.51 -13.97 -11.79 -9.43 -7.80 -11.07 -18.32 -21.76 -24.84 -26.66 -22.86 -21.25 -20.01 -18.23 -16.12 -14.33

GFSNGP_sfc_wetblb_069.txt.gz
Wetbulb
39.02 39.25 40.27 40.60 40.40 39.58 39.41 40.48 37.67 40.44 37.63 42.94 45.30 46.48 46.85 46.36 45.69 45.95 48.18 51.08 53.19 55.15 55.08 53.52 52.48 51.79 51.06 49.15 49.08 49.83 48.87 48.14 46.65 45.28 42.69 41.59 40.98 41.32 40.92 42.23 42.83 42.52 42.18 42.18
37.40 38.61 39.41 38.55 40.07 39.56 39.50 39.30 39.60 39.02 38.78 44.57 46.36 45.78 44.69 44.33 44.60 45.06 46.12 48.21 51.24 52.69 51.61 50.05 49.58 49.50 48.66 49.14 48.88 48.96 47.01 44.75 42.85 41.01 39.98 40.12 39.90 38.89 41.04 41.79 41.32 41.29 41.24 40.86
34.32 36.38 37.53 33.33 38.18 39.89 40.49 41.24 41.76 38.10 43.28 44.30 43.52 43.40 43.85 44.24 44.22 46.33 47.74 48.75 49.08 50.57 50.37 48.94 48.47 48.34 48.30 48.36 48.69 47.24 45.12 41.45 39.92 38.98 39.60 39.39 39.04 40.89 40.24 39.82 41.32 40.51 40.25 39.88
33.21 32.03 28.81 40.79 42.05 42.27 41.20 41.86 42.01 41.21 42.09 44.04 43.63 42.52 41.23 40.41 43.48 46.18 47.32 47.16 47.28 47.58 47.59 48.07 48.55 48.21 47.12 45.69 43.02 40.77 38.89 38.23 38.47 38.91 38.40 38.29 40.81 40.02 40.40 40.52 39.92 39.99 39.93 39.28
32.72 32.26 35.63 38.40 40.15 40.75 39.71 40.55 43.00 42.16 42.41 42.85 42.76 42.88 41.21 38.14 38.61 40.72 42.36 43.30 43.92 44.70 43.82 44.00 43.84 43.70 43.12 42.06 39.44 38.01 37.22 37.91 39.10 39.21 38.78 40.81 40.26 39.88 39.83 39.46 39.48 38.92 38.33 38.21
30.37 31.03 28.99 38.34 41.75 42.92 43.06 36.21 43.73 42.90 42.91 42.50 42.78 41.17 43.02 37.90 37.63 37.56 38.88 40.08 39.52 39.62 40.11 40.56 41.20 42.13 40.80 38.35 37.47 37.19 38.88 39.17 39.49 39.14 40.68 39.19 38.93 38.92 39.47 38.58 37.79 37.97 37.22 37.77
29.78 33.03 35.00 40.56 41.83 42.96 36.72 39.62 43.04 43.55 44.22 43.62 41.87 41.96 38.61 36.74 35.78 36.82 37.48 37.41 38.59 39.08 38.56 38.98 40.33 40.21 38.41 39.25 38.31 39.19 39.42 39.91 39.94 39.38 38.65 38.67 37.89 37.68 37.34 37.36 36.61 36.15 34.72 35.98
31.81 31.94 32.10 42.64 40.84 38.78 44.00 42.61 43.20 43.71 44.44 42.87 37.59 35.92 35.75 35.25 34.91 35.49 35.96 36.63 37.59 37.23 37.08 38.89 39.80 39.42 37.71 37.45 38.59 39.04 38.87 37.69 36.87 36.77 36.02 35.80 36.24 36.38 36.11 35.70 34.68 34.40 33.06 33.42
38.09 39.22 44.83 43.29 45.62 44.69 44.37 45.13 44.26 44.60 43.78 40.06 36.88 35.42 35.14 33.94 34.34 34.72 35.84 37.01 38.41 37.36 36.62 37.42 38.50 38.22 35.69 35.99 37.57 36.73 35.84 34.55 34.04 33.72 33.05 33.14 32.89 32.51 31.90 31.81 30.81 30.55 30.85 31.24
40.68 42.75 42.48 43.27 44.16 45.37 44.45 45.29 44.86 45.22 42.43 40.33 37.88 35.75 34.37 34.01 33.99 35.36 36.39 35.80 35.91 35.25 34.15 33.65 34.79 34.56 34.96 34.59 34.79 33.68 31.90 31.24 31.34 30.84 30.41 30.57 30.81 30.33 29.80 29.68 29.41 28.98 28.93 29.19
39.86 41.78 43.33 44.46 44.92 45.08 44.22 44.61 42.42 40.97 40.75 39.69 37.20 35.25 34.68 34.14 35.02 35.97 35.57 35.22 34.96 33.97 33.12 31.98 32.28 31.29 31.35 31.02 31.74 29.89 29.13 28.48 28.34 28.55 28.20 27.96 28.25 28.36 28.41 29.47 28.66 27.59 27.84 28.05
39.24 43.93 44.61 45.31 46.27 44.88 43.43 43.21 40.95 38.49 37.01 37.85 37.51 35.01 35.16 34.94 36.19 35.45 34.07 34.06 33.55 32.81 30.94 29.29 29.17 28.46 28.27 28.82 28.37 28.27 26.93 26.93 26.17 26.63 26.67 26.60 26.30 26.53 26.94 26.84 27.20 27.87 28.11 27.81
44.81 45.12 42.10 40.39 39.90 41.85 42.11 40.92 39.17 38.51 37.49 35.42 35.83 35.69 35.83 35.55 35.09 33.26 34.31 33.77 33.16 30.29 28.36 27.52 26.97 25.89 26.04 26.74 26.79 25.97 25.24 24.93 25.27 24.74 24.89 24.24 24.67 24.70 23.89 26.23 25.73 25.81 25.43 24.86
41.88 41.57 40.23 39.90 39.96 38.89 38.73 37.87 37.50 36.84 36.70 36.02 35.66 36.25 35.52 33.82 33.16 32.87 32.16 31.36 28.78 26.84 26.56 26.40 24.95 23.65 24.94 25.72 25.46 24.81 24.22 22.44 23.81 24.25 24.25 24.39 24.23 23.91 23.56 22.19 21.31 22.41 23.23 22.54
39.12 39.38 40.46 37.46 36.71 35.78 36.52 36.22 34.39 33.34 33.45 33.71 34.72 33.89 33.34 31.46 30.60 29.84 28.56 27.33 26.64 26.28 25.67 24.41 23.26 22.77 24.41 24.91 23.93 23.62 23.66 22.21 22.33 23.11 23.08 22.26 22.75 21.67 21.75 20.31 20.13 19.57 20.26 19.93
37.34 36.95 37.07 36.52 35.08 35.00 34.93 34.39 32.75 32.26 32.67 32.01 31.26 30.94 30.60 29.65 28.18 26.53 25.92 26.44 25.67 23.45 22.49 20.30 21.06 22.67 23.33 23.18 22.84 22.26 21.51 19.20 19.60 21.05 20.26 19.87 19.43 18.57 18.20 17.40 17.72 16.89 16.48 15.42
34.67 33.28 33.89 33.70 33.85 34.31 35.04 34.44 33.46 32.31 30.20 29.06 28.43 28.01 27.30 26.75 25.45 24.26 23.54 23.63 21.61 20.92 20.56 20.26 20.75 22.32 21.64 21.56 21.16 19.81 19.03 18.45 15.82 18.17 17.32 17.17 16.45 16.06 15.41 14.42 14.13 13.87 13.83 13.78
38.59 38.11 38.30 36.67 34.10 31.91 31.53 31.81 31.58 30.30 28.55 27.67 27.17 26.15 25.64 25.41 23.09 22.26 22.14 20.84 19.96 19.15 19.38 19.42 20.70 20.42 18.89 18.87 19.33 16.78 15.27 14.91 15.54 15.10 14.99 14.13 12.72 13.68 13.51 11.53 11.39 11.13 11.32 11.83
37.33 35.45 34.44 33.12 32.97 31.53 30.22 28.77 28.08 27.30 26.71 26.90 26.34 24.68 24.07 23.63 22.64 21.95 21.74 20.16 18.47 17.53 17.17 18.80 18.52 17.81 16.52 16.32 16.61 14.26 12.80 11.57 12.51 12.54 11.58 9.82 10.16 9.85 10.47 9.77 9.21 9.41 8.92 8.53
32.85 32.57 31.71 30.62 30.33 28.89 26.86 27.06 27.26 26.23 25.90 25.18 24.19 22.78 21.65 20.90 20.51 20.11 20.99 19.68 19.71 18.71 18.10 17.02 16.52 15.36 14.71 13.29 12.26 13.39 10.90 9.87 9.21 9.03 8.25 7.63 7.22 6.82 7.21 5.27 5.23 6.13 6.62 6.76
29.93 29.09 27.77 26.34 25.12 25.60 25.69 25.46 24.83 23.82 23.76 24.10 23.17 21.72 20.51 19.76 19.19 19.41 19.07 17.83 17.48 17.95 16.81 15.60 15.33 14.66 14.20 13.06 12.71 11.67 10.10 8.81 7.55 7.10 6.22 5.52 4.96 4.88 4.74 4.10 3.93 3.98 4.42 4.74
26.94 25.35 24.60 24.60 23.96 23.92 24.50 24.35 23.09 21.91 21.01 20.31 20.10 19.61 18.92 18.35 18.08 17.63 18.60 19.23 19.02 16.83 16.95 15.89 14.86 10.29 12.11 10.10 12.38 11.01 10.03 8.14 7.16 6.72 6.29 5.36 4.50 3.14 2.88 2.61 1.33 1.55 2.30 2.53
26.30 25.66 24.78 23.45 22.40 21.80 21.87 21.23 21.02 20.67 19.84 19.87 19.68 20.04 19.89 19.53 19.44 17.78 16.51 18.09 18.64 15.57 17.18 16.17 11.30 8.44 5.99 10.96 10.44 9.06 8.06 6.57 6.01 5.22 4.72 3.85 3.12 2.21 1.41 0.58 -0.63 -0.60 -0.67 -0.10
25.12 24.33 23.37 22.84 22.67 21.95 20.23 21.05 21.39 20.83 20.74 20.54 19.79 20.25 19.56 18.18 18.05 19.23 18.94 15.29 12.68 14.83 16.01 14.63 11.49 8.54 5.43 9.34 8.47 7.55 7.00 6.66 5.45 4.77 4.21 -2.26 2.35 0.54 0.70 -1.31 -2.46 -1.68 -2.64 -2.75
24.73 24.63 24.52 23.90 22.54 21.71 21.24 21.22 20.78 20.62 20.49 20.00 19.60 19.56 19.37 18.84 18.84 18.10 17.20 15.84 14.37 14.01 14.77 7.81 7.39 6.11 8.92 7.91 7.24 6.07 6.45 5.99 5.51 4.21 3.40 2.41 1.33 -0.41 -0.80 -1.47 -3.71 -3.78 -4.46 -3.96
24.56 23.71 23.81 23.74 22.86 22.55 22.25 21.82 19.98 19.67 18.90 17.64 17.11 17.26 17.56 18.01 16.83 16.44 14.60 12.77 12.60 10.88 12.03 9.82 8.65 8.55 8.30 7.39 5.98 4.39 4.78 5.12 4.63 4.37 1.56 1.32 0.24 -1.56 -2.63 -3.84 -4.90 -5.30 -5.62 -5.28
21.94 21.65 20.34 19.10 19.09 19.40 19.60 19.70 18.67 16.70 16.53 16.99 16.44 16.71 16.97 16.42 14.63 13.45 10.83 11.18 9.76 8.35 8.11 7.52 7.24 6.24 6.44 5.66 4.71 4.46 3.28 3.89 1.77 2.26 1.96 0.12 -1.84 -3.08 -4.99 -5.99 -6.26 -7.02 -7.21 -7.18

GFSNGP_sfc_wetblb_072.txt.gz
Wetbulb
44.42 44.74 44.66 43.92 43.55 44.63 43.24 43.86 40.76 43.31 43.75 46.51 49.41 50.66 52.10 52.58 51.84 51.52 52.28 53.39 55.84 58.79 60.53 60.94 60.75 60.70 59.91 57.07 54.45 53.23 52.26 50.25 49.33 48.86 46.95 44.52 43.90 43.24 44.92 44.48 43.46 43.82 46.01 45.72
42.31 44.64 44.29 42.58 44.44 44.91 45.31 45.36 45.37 45.55 44.73 49.95 51.21 51.94 51.65 51.58 50.50 50.81 51.06 52.23 53.69 56.95 59.31 58.40 58.27 58.00 54.89 52.81 52.52 52.46 51.79 49.99 49.19 45.73 43.14 42.23 41.28 42.89 42.22 42.00 43.40 45.72 45.90 46.61
38.19 42.91 42.27 37.40 43.06 44.70 45.72 46.88 46.57 43.02 47.05 50.18 49.45 49.99 50.86 51.21 50.31 50.80 51.90 52.61 53.81 55.78 56.94 56.91 56.45 55.30 53.03 52.09 52.55 50.76 48.72 46.76 45.10 42.11 41.01 41.98 41.97 41.68 41.57 43.65 46.27 46.68 45.67 44.16
38.73 37.03 32.94 43.49 47.58 48.42 46.54 47.43 48.86 48.15 49.09 49.83 49.49 50.45 50.01 49.15 50.33 51.08 51.86 52.34 53.26 54.80 55.05 55.35 55.63 55.19 54.31 53.46 51.61 49.46 47.28 44.65 42.89 41.27 40.14 41.20 43.86 42.77 44.23 46.62 44.92 44.18 43.70 43.66
38.54 37.32 41.72 42.24 42.48 45.09 44.56 44.83 49.44 48.62 49.05 49.28 49.33 48.49 48.86 46.86 47.24 49.49 50.23 51.26 52.60 53.65 53.89 53.89 53.23 52.68 51.09 48.30 46.42 44.78 43.03 40.53 40.26 40.69 41.57 44.13 42.91 44.78 44.80 44.03 43.38 42.68 42.47 42.11
37.60 38.23 34.43 42.92 47.68 49.67 48.62 41.32 50.20 49.79 49.13 48.91 48.16 45.06 49.15 47.34 47.04 47.25 48.43 49.00 48.81 49.96 50.61 50.40 50.15 49.94 46.73 44.74 43.20 41.28 40.72 41.42 43.83 44.56 40.63 43.39 44.10 42.88 43.60 42.79 41.23 41.61 40.85 41.45
39.44 39.44 42.06 46.59 46.06 48.75 39.61 42.96 49.89 50.01 49.77 49.55 47.66 49.12 48.55 46.59 45.96 47.27 46.92 46.65 48.06 48.85 48.40 48.49 49.19 48.07 44.75 42.96 40.15 41.89 43.46 41.31 41.37 43.04 43.21 42.35 41.63 42.42 42.19 41.57 40.94 40.32 38.20 38.99
40.44 37.08 35.92 46.22 44.80 43.87 49.78 49.92 50.64 49.96 50.75 50.52 48.47 44.42 45.07 45.12 44.20 44.57 44.76 45.26 46.53 46.23 46.20 46.76 46.21 44.85 43.41 42.34 42.52 41.84 42.64 42.20 41.43 41.02 39.35 40.19 40.48 41.45 40.65 39.49 37.15 35.23 35.27 35.15
43.13 44.11 50.99 48.87 51.05 51.49 51.77 51.67 50.10 50.91 51.06 51.07 45.29 43.86 43.69 43.77 43.90 44.23 44.59 44.88 45.24 44.41 43.71 43.98 44.21 42.92 41.50 42.11 42.37 41.55 40.48 39.17 38.24 37.67 37.38 37.54 38.36 36.90 36.31 35.83 34.55 33.45 32.98 32.96
44.67 48.74 49.14 50.50 51.01 49.07 49.77 49.38 50.42 50.89 51.24 48.81 45.90 44.33 43.28 43.06 43.18 43.36 43.96 43.45 43.45 42.57 41.27 40.62 41.66 41.34 41.08 40.84 41.06 39.67 37.37 36.39 36.17 34.10 34.73 34.94 35.45 34.92 34.75 34.01 32.52 31.13 30.87 30.77
46.80 49.17 47.51 49.18 50.32 51.46 50.40 50.73 49.56 49.26 50.21 48.70 46.46 44.24 43.33 42.16 42.49 42.77 42.13 41.78 42.13 40.85 39.61 38.67 38.89 38.12 38.14 38.07 37.72 35.67 34.17 33.26 33.16 33.33 33.00 32.87 32.63 32.52 32.33 31.83 29.50 29.58 29.95 29.84
44.30 50.44 49.57 51.25 52.73 52.04 50.74 49.99 50.09 48.04 46.95 48.00 46.36 43.66 43.07 42.25 42.48 41.17 40.36 40.79 39.93 39.41 37.85 36.70 35.50 34.14 34.30 34.89 34.89 33.07 31.81 31.79 31.05 31.99 31.68 31.48 32.06 31.38 27.05 26.84 26.76 26.50 25.83 25.94
49.59 48.32 48.93 47.07 45.97 45.83 49.34 50.88 50.19 48.28 47.62 45.25 45.05 43.45 42.73 41.53 40.88 38.66 39.74 39.33 38.12 36.94 35.41 33.39 31.48 30.29 31.47 31.90 32.27 31.58 30.66 29.55 29.31 29.27 30.18 30.08 30.66 30.28 29.08 28.54 25.98 24.93 23.93 23.41
47.41 46.36 47.85 46.30 47.13 44.65 45.62 45.88 44.83 45.51 44.83 43.96 42.63 42.47 41.80 40.51 38.49 39.23 38.83 38.67 36.29 33.87 31.34 29.71 28.73 28.59 30.49 30.85 29.98 28.63 27.32 24.75 29.36 29.62 30.02 30.06 29.54 28.38 27.99 26.38 25.03 26.26 25.07 22.31
46.34 46.70 46.59 44.05 42.85 42.62 43.37 42.42 41.21 40.59 40.40 40.30 41.54 40.56 39.68 38.18 38.21 37.43 35.72 33.72 31.94 30.61 28.48 28.00 27.89 27.13 28.94 29.03 28.32 27.77 27.45 26.93 27.57 28.19 27.38 25.97 27.31 26.43 26.30 24.51 24.02 24.00 24.26 23.63
45.41 44.13 42.30 42.84 42.16 41.56 41.89 41.63 39.90 38.41 39.02 38.62 38.45 38.41 38.20 37.03 34.47 32.14 31.10 29.45 27.30 25.42 25.63 24.30 24.85 26.03 27.13 27.33 26.87 26.72 25.07 21.45 22.95 26.24 25.82 25.21 24.88 23.61 23.68 22.33 21.83 22.09 21.58 21.02
41.75 39.58 39.62 40.58 40.57 40.59 41.27 41.06 39.69 38.62 37.14 36.51 35.89 34.01 30.32 27.92 27.58 25.80 24.45 24.34 23.26 22.49 22.99 23.21 23.18 24.46 24.49 25.68 25.06 25.51 25.74 23.83 18.91 23.89 23.03 22.03 21.69 21.48 21.66 20.47 19.73 19.44 19.83 19.59
43.69 43.13 42.12 41.84 40.09 39.53 37.75 35.82 33.88 33.31 30.75 30.50 28.62 28.10 27.45 26.37 24.51 23.38 22.63 22.17 21.56 20.94 21.47 22.58 22.75 21.82 21.79 22.67 22.37 21.42 21.47 21.32 21.38 20.69 20.30 20.49 18.76 19.34 19.34 18.23 17.64 17.19 17.62 17.78
41.43 40.22 40.17 39.23 38.44 36.42 34.73 32.51 31.46 29.71 28.17 28.37 28.04 27.11 26.34 25.88 25.40 23.54 22.57 21.03 20.10 18.78 19.05 20.73 20.13 19.54 19.07 18.36 20.22 20.21 19.52 18.56 18.93 18.91 17.84 15.35 17.21 16.50 16.46 16.28 15.22 15.28 15.54 15.39
36.65 36.02 34.08 32.60 32.67 32.06 29.55 29.63 29.30 28.15 28.19 27.93 26.48 25.08 23.65 23.66 23.68 23.16 24.25 21.58 21.55 20.36 20.39 19.46 19.24 18.20 17.52 16.09 16.18 18.58 17.39 17.34 16.10 16.16 16.10 14.27 14.96 14.12 14.37 12.48 12.26 13.22 13.73 13.99
29.10 28.87 28.17 27.71 27.12 27.76 28.30 28.69 27.90 27.47 27.56 27.18 26.12 23.66 22.49 22.59 22.65 21.83 20.92 18.80 18.39 19.77 19.16 18.42 18.77 18.78 17.96 17.75 18.31 18.40 17.55 16.47 15.47 14.48 14.07 13.43 12.61 13.10 12.74 12.48 12.14 11.82 11.72 11.81
26.76 26.07 25.98 26.31 26.12 26.38 27.37 27.22 25.99 25.44 24.13 23.24 22.48 22.27 21.53 20.72 20.67 20.32 22.06 20.75 20.24 19.31 19.76 19.68 18.94 14.61 16.32 13.89 17.92 16.94 15.82 14.73 14.15 13.53 13.25 12.79 12.17 11.24 10.89 10.46 9.59 9.76 9.36 9.54
26.18 26.08 25.74 24.91 24.43 24.22 24.39 24.27 24.37 23.98 22.98 22.82 22.47 22.72 22.42 22.17 22.68 22.18 19.82 20.64 21.03 19.20 20.96 20.49 15.32 12.35 10.35 17.07 16.77 15.20 14.42 12.95 12.70 12.37 12.14 11.74 10.89 10.24 9.36 8.76 8.20 7.53 7.67 7.43
26.76 25.89 25.53 25.57 25.78 24.72 22.92 23.29 23.22 22.41 22.30 22.13 22.00 22.61 23.13 22.28 22.07 22.41 21.57 19.35 18.21 19.44 19.76 18.54 15.93 11.33 11.32 15.76 14.80 13.74 13.16 13.16 12.47 12.23 11.64 8.64 10.42 9.80 8.87 7.87 6.59 6.89 6.07 5.16
27.22 27.06 26.99 25.99 24.66 23.50 23.55 23.66 23.51 23.40 22.93 22.41 21.93 22.12 22.42 22.98 23.57 22.12 22.08 20.05 17.24 17.66 19.31 12.79 11.10 9.97 15.21 14.63 13.54 12.35 12.18 12.18 11.88 10.40 10.32 9.85 9.11 8.42 8.01 7.43 5.75 5.29 3.79 3.62
26.18 25.38 25.60 25.58 25.08 25.03 24.88 24.62 23.05 23.32 23.22 22.02 22.00 22.98 23.16 22.45 21.66 21.08 19.86 17.68 16.89 15.57 16.71 16.45 14.53 13.65 14.08 13.32 12.24 11.57 11.24 10.96 10.48 9.79 8.46 8.27 8.23 7.36 6.23 5.34 4.09 3.74 3.45 2.92
24.21 23.98 23.19 22.35 22.92 23.07 23.41 23.30 22.37 20.78 21.59 22.10 20.59 21.17 21.03 21.06 19.59 18.71 16.83 17.55 16.39 15.18 15.25 14.71 14.13 12.51 11.73 11.30 11.10 10.91 10.26 9.90 8.38 7.07 6.33 6.63 6.20 5.95 4.77 3.29 2.65 1.94 1.06 0.22

GFSNGP_sfc_wetblb_075.txt.gz
Wetbulb
45.03 46.05 45.98 45.03 44.86 45.12 44.13 45.15 42.14 44.10 44.22 46.52 48.60 50.26 51.62 53.32 53.92 53.55 53.37 54.14 55.96 57.94 60.77 62.13 62.45 62.89 62.92 63.06 61.82 60.42 57.03 54.60 51.82 50.58 49.78 50.77 49.06 47.91 46.79 45.43 45.01 46.34 45.22 45.18
42.79 45.54 45.42 43.35 44.81 45.44 45.26 45.23 45.10 45.31 44.86 50.39 51.69 51.95 51.36 51.77 52.73 52.81 53.28 53.76 54.42 56.34 59.27 61.55 62.05 61.89 60.97 58.89 56.98 56.05 52.45 50.07 50.08 50.01 48.88 46.10 44.61 44.85 44.87 44.50 44.16 44.38 45.44 46.78
39.42 44.46 44.19 40.61 43.73 44.99 45.93 46.96 46.50 43.46 47.61 50.73 50.03 50.30 51.32 51.64 52.19 52.92 53.59 54.73 55.29 56.26 59.29 60.98 61.14 57.71 54.44 53.80 53.92 52.62 50.99 49.66 48.34 47.22 45.29 44.10 42.95 42.85 43.00 44.23 44.56 46.14 46.84 47.35
40.42 39.81 33.98 44.09 48.85 48.32 46.44 47.27 48.61 48.58 49.37 50.33 50.70 52.00 52.13 53.65 53.42 53.48 54.34 54.69 56.10 58.03 58.91 59.61 57.55 54.73 53.59 52.53 50.58 49.14 47.72 46.86 46.41 45.55 44.61 44.47 44.73 45.03 45.33 46.08 46.81 47.47 46.10 45.09
39.02 38.67 41.85 44.07 45.39 46.37 45.47 45.37 49.56 49.08 50.06 50.97 51.56 52.03 51.57 52.64 52.60 54.78 55.28 56.12 56.94 57.98 58.26 57.65 54.81 53.51 51.69 49.47 48.87 47.67 47.21 47.64 47.02 46.12 44.27 42.59 43.58 45.37 46.68 46.90 45.26 44.81 44.22 42.99
40.57 36.34 33.51 43.43 48.03 50.83 50.59 43.01 50.60 50.85 50.63 50.43 50.20 45.85 48.58 51.91 52.44 52.95 53.97 54.70 55.14 56.16 56.81 55.86 54.96 53.93 51.50 49.32 48.44 47.55 47.07 45.62 44.78 43.92 45.28 45.87 45.45 46.03 45.38 44.78 43.18 42.62 41.78 41.99
40.78 39.43 42.57 48.10 49.45 51.47 41.29 43.81 51.48 51.63 51.47 50.99 48.78 50.25 52.24 52.18 52.11 52.92 52.57 52.75 53.91 54.19 53.76 53.59 53.01 51.61 48.33 47.83 47.15 46.74 45.78 45.68 46.25 45.78 44.76 44.67 44.56 43.91 42.78 42.09 41.53 41.36 39.52 39.55
41.65 38.52 36.25 49.49 47.65 44.70 50.28 54.01 53.38 53.26 52.92 52.36 52.95 50.96 50.53 50.68 50.30 50.03 50.48 50.68 52.36 52.07 51.84 52.12 51.87 50.34 48.21 46.55 46.67 46.19 45.66 44.37 44.54 43.84 42.77 43.28 42.66 42.10 41.37 40.91 39.43 37.30 35.91 35.81
44.21 44.51 51.75 51.08 51.38 53.32 54.29 53.77 54.14 53.66 53.69 53.66 51.67 49.31 49.66 48.92 48.87 49.32 49.85 50.61 51.29 50.12 49.00 49.08 49.07 48.84 46.61 45.70 45.56 44.78 43.92 42.68 42.72 41.88 40.90 40.82 40.32 39.23 38.11 37.39 35.91 35.28 34.10 33.95
45.84 48.43 50.54 52.34 53.48 53.73 54.32 53.84 54.24 54.03 53.93 54.11 51.17 50.06 48.94 49.09 49.26 49.23 49.58 49.17 49.10 47.82 46.56 45.64 46.25 45.99 45.71 45.55 45.10 43.85 42.24 41.00 40.17 38.92 37.79 37.43 36.97 36.50 36.34 35.70 34.45 32.74 32.56 32.24
46.15 48.43 50.25 52.07 53.59 54.39 54.52 53.74 53.14 53.77 53.64 53.60 51.97 49.67 49.22 48.75 48.79 48.89 48.31 48.12 47.86 46.47 45.02 44.02 44.46 43.82 43.93 43.69 43.39 40.55 38.80 37.53 36.92 35.80 35.78 35.06 35.07 34.02 33.83 31.24 29.90 30.84 31.18 30.28
44.89 50.02 50.14 50.92 53.41 55.83 54.75 53.93 53.77 53.33 52.60 53.14 52.35 49.86 49.34 48.52 48.58 47.68 46.32 46.17 44.82 43.89 42.70 41.96 41.23 40.46 40.62 40.84 39.93 37.39 35.43 35.08 34.39 34.24 33.81 34.00 33.79 32.12 27.87 28.16 27.25 26.34 25.32 25.46
49.34 52.54 52.44 52.90 50.94 51.60 53.49 54.55 54.66 53.90 53.11 51.45 51.61 50.46 48.76 47.52 47.15 42.62 45.14 44.28 43.07 41.74 40.66 38.80 36.88 34.87 34.90 35.11 36.21 35.27 33.34 30.87 30.13 31.49 31.85 31.80 31.82 31.39 31.08 27.52 27.03 26.38 24.93 23.44
53.05 51.72 49.74 51.40 51.38 49.20 49.83 50.32 49.15 51.67 51.61 51.22 50.01 48.80 47.71 46.14 43.46 43.85 42.96 42.92 41.39 39.00 36.05 33.66 31.92 30.76 32.29 32.16 31.60 29.37 27.76 27.65 30.95 31.02 31.04 30.67 31.05 29.77 29.58 28.19 27.00 28.03 25.55 24.28
51.65 51.92 51.60 50.13 48.73 48.24 48.34 47.60 47.22 46.78 47.32 46.67 46.82 45.96 45.47 42.72 42.17 41.88 41.09 38.78 36.39 33.44 31.24 30.28 28.18 27.65 29.58 30.02 29.49 28.69 28.33 27.64 28.75 28.95 28.08 26.79 27.83 27.63 27.11 26.29 25.59 25.52 26.61 26.25
51.30 49.57 47.74 47.39 47.03 46.29 45.81 45.77 44.69 43.65 44.15 44.11 43.78 43.52 42.55 42.15 38.99 36.04 34.89 33.05 29.97 26.63 26.31 25.27 24.80 26.03 27.64 28.41 27.89 26.62 24.53 23.23 23.93 26.62 26.32 25.77 25.75 25.00 24.98 24.58 23.90 24.00 23.82 23.97
46.62 45.49 45.47 45.58 45.36 45.27 45.37 45.55 44.61 43.43 42.61 41.70 40.75 40.43 36.78 31.79 28.27 25.84 25.02 25.71 25.29 24.99 25.08 24.35 23.45 25.29 26.44 27.26 26.75 26.63 26.21 24.28 20.52 24.09 23.93 23.72 23.53 23.38 23.23 23.30 22.29 22.05 22.04 22.67
47.88 47.79 47.54 47.49 45.43 44.47 42.93 42.52 41.61 39.82 36.50 31.34 29.21 27.90 26.11 24.90 22.79 22.52 22.84 23.69 23.82 23.33 23.43 23.46 23.24 23.45 23.42 23.52 23.49 22.64 22.45 22.22 22.26 22.02 21.93 22.54 21.76 20.79 21.40 20.83 20.71 20.09 20.32 20.55
45.80 44.61 44.07 42.61 40.90 36.58 35.01 32.97 31.19 29.99 29.69 29.37 27.31 25.77 25.41 25.18 25.33 24.58 23.99 22.63 22.23 21.18 20.63 21.89 20.90 20.91 19.87 19.51 21.58 21.67 20.98 20.34 20.72 20.85 20.32 18.91 19.79 20.09 19.41 19.44 18.73 18.11 18.03 17.62
37.96 37.47 36.00 34.09 33.94 32.85 30.75 30.77 30.56 28.56 28.55 27.58 26.39 25.11 24.03 24.26 24.62 25.16 24.53 22.11 22.10 21.33 21.84 20.84 20.30 19.25 18.69 17.66 18.24 20.38 20.11 19.83 18.93 18.74 19.32 16.50 18.25 17.85 17.48 16.57 16.65 16.38 16.17 16.01
29.70 29.45 28.51 28.22 28.15 29.06 29.34 29.32 28.96 27.92 27.84 27.32 26.11 25.10 24.58 24.12 23.80 23.47 21.91 19.28 19.56 20.72 20.13 20.13 20.63 20.21 19.43 19.41 20.34 20.66 19.96 18.96 18.40 18.00 17.64 17.15 16.84 16.57 16.37 15.91 15.31 14.69 14.21 13.95
27.49 27.24 27.44 27.33 27.11 27.60 28.41 28.45 27.49 26.23 25.57 24.89 24.55 24.21 23.18 22.57 22.82 22.63 23.38 20.89 20.52 21.07 21.84 21.42 20.38 16.45 17.71 15.37 20.48 19.50 18.37 18.06 17.02 16.83 16.26 16.03 15.24 14.48 14.12 13.75 12.97 12.82 12.23 12.11
27.68 27.82 27.83 27.17 26.89 26.52 26.92 26.39 26.34 26.01 25.44 25.36 25.11 24.80 24.53 24.45 24.98 23.83 20.87 22.51 22.61 21.01 22.85 21.06 16.84 15.32 15.15 19.10 18.68 17.81 17.19 16.00 15.73 15.41 14.86 14.61 14.20 13.19 12.73 11.86 11.31 10.76 10.45 10.33
28.79 28.32 28.16 28.25 27.46 26.04 23.88 24.39 24.10 23.58 24.34 24.10 24.20 25.30 25.82 24.42 23.64 23.41 23.03 21.10 20.54 21.70 21.49 19.03 17.66 15.57 13.06 18.08 17.55 16.47 15.87 15.54 15.07 15.05 14.24 12.61 13.56 13.27 12.00 11.37 10.13 10.43 9.70 8.95
28.18 27.90 27.66 27.13 25.88 25.03 25.40 25.83 25.37 24.70 24.26 24.10 23.93 24.12 24.33 25.02 25.12 24.34 23.78 20.84 19.08 21.16 20.31 14.33 13.90 13.70 17.25 16.94 16.25 14.98 14.57 14.41 14.42 12.62 11.95 12.16 11.27 11.01 10.75 10.34 9.49 8.94 7.83 6.82
26.81 26.90 26.85 26.73 26.70 26.62 26.00 26.00 24.89 25.42 24.77 22.86 22.99 24.00 24.07 23.60 22.94 22.52 20.85 19.55 18.78 17.97 17.81 17.77 16.53 15.31 15.69 15.53 14.19 13.75 13.42 13.16 12.69 11.93 10.37 9.62 9.48 9.23 9.06 8.82 8.16 7.29 6.54 6.23
26.14 25.78 24.99 23.88 24.21 24.13 24.41 23.78 22.27 21.02 22.41 23.66 21.20 22.35 21.63 21.93 20.89 20.10 19.16 19.19 18.32 17.54 17.44 16.93 16.26 14.74 13.74 12.30 12.02 12.33 11.96 11.81 10.77 9.89 8.61 8.27 7.90 7.43 7.12 6.78 6.09 5.23 4.38 3.56

GFSNGP_sfc_wetblb_081.txt.gz
Wetbulb
41.86 43.15 43.32 43.55 42.89 42.53 40.88 41.27 39.05 40.87 41.68 44.55 45.05 45.22 46.27 48.72 49.38 50.20 50.14 50.20 49.41 52.28 52.94 54.27 55.63 57.94 59.16 58.22 57.51 56.74 55.97 55.46 53.41 52.49 52.63 51.17 50.89 50.27 49.79 50.28 49.13 48.62 47.87 47.62
38.27 42.34 43.18 41.60 42.89 42.53 43.11 42.87 41.59 41.34 40.91 45.63 46.90 45.57 47.05 47.98 48.94 48.74 49.44 49.89 50.95 51.32 54.56 55.47 57.29 56.89 56.50 55.23 53.20 52.89 51.76 50.19 50.23 50.05 50.03 49.38 49.14 48.62 47.84 46.96 46.93 47.09 47.14 47.10
33.21 40.51 40.20 33.21 40.31 42.16 43.36 44.63 42.71 38.18 41.94 45.36 44.56 46.09 45.45 46.60 48.12 48.45 49.01 50.83 51.52 52.77 56.49 56.20 54.78 53.45 51.49 50.64 51.75 50.30 49.70 49.79 49.67 48.82 47.39 46.64 46.57 45.96 45.53 45.53 45.84 45.66 45.53 45.23
32.74 34.85 28.94 39.72 45.31 45.59 43.55 44.63 44.76 43.84 44.29 44.89 45.39 45.87 46.82 47.90 47.77 49.49 50.99 51.35 52.20 55.00 53.23 51.96 51.78 50.62 49.97 49.37 49.39 49.17 48.47 48.04 47.18 46.24 45.49 45.62 45.68 45.18 44.36 44.23 43.84 43.70 43.28 43.57
31.13 32.25 37.89 40.95 43.09 42.87 42.24 41.08 46.04 44.55 45.23 45.87 46.43 46.70 45.53 49.11 49.62 49.45 49.99 50.83 52.59 53.27 51.66 50.78 49.78 49.96 48.86 47.91 47.66 47.95 47.03 46.41 46.04 45.09 44.05 44.40 43.64 43.16 42.94 42.54 42.09 42.44 43.14 41.09
31.94 29.84 28.11 38.81 45.20 47.54 46.74 35.03 46.32 46.98 45.73 46.03 46.00 38.78 42.47 46.73 50.58 50.70 51.38 52.42 52.28 52.07 51.10 49.48 48.12 48.62 47.23 46.60 46.36 46.22 46.15 45.45 45.08 44.84 44.41 43.49 43.17 42.96 43.36 43.80 43.32 40.26 38.17 36.49
31.76 30.73 35.23 45.11 47.15 48.16 35.23 35.14 47.15 48.08 47.45 46.00 44.32 45.12 46.63 49.04 49.38 50.36 50.92 52.28 52.00 51.20 49.80 48.43 48.53 47.96 45.85 45.53 44.98 46.80 46.65 46.04 45.06 44.74 43.72 43.55 43.76 44.31 42.75 39.19 36.69 32.66 32.20 32.41
32.01 29.34 28.76 47.16 45.53 40.40 43.08 46.95 48.55 47.56 47.93 47.17 47.41 46.83 47.23 48.07 48.20 48.91 49.40 50.67 51.38 50.53 49.14 48.54 48.13 46.96 45.34 45.39 46.77 46.97 45.70 43.70 42.73 42.51 43.65 43.93 41.29 39.88 39.09 36.70 33.30 31.66 31.46 30.57
37.41 35.76 45.69 48.26 47.37 48.78 49.78 48.23 48.06 47.85 49.16 48.81 46.93 46.94 47.44 46.91 46.99 47.40 48.45 48.64 49.72 48.27 48.71 48.14 47.35 47.12 44.64 42.06 42.88 42.58 42.83 42.66 42.39 41.59 41.24 40.36 38.56 36.39 34.77 34.40 32.55 31.54 30.98 30.34
39.15 42.75 44.42 47.67 49.69 49.15 49.01 48.24 50.42 50.20 49.90 50.19 47.57 47.40 46.77 46.12 45.63 45.99 46.90 46.99 46.93 46.07 44.75 44.24 44.86 43.26 42.29 42.68 42.70 41.51 40.14 39.11 38.23 36.08 34.51 34.23 34.59 33.97 31.70 30.95 30.40 29.59 29.51 29.49
41.62 45.53 45.96 47.37 48.97 49.82 49.65 50.03 51.12 49.99 49.83 49.30 48.62 46.55 46.00 45.29 45.10 45.44 45.89 45.08 44.68 42.55 41.01 40.66 41.66 41.24 41.89 42.20 41.58 38.78 35.75 34.59 33.68 32.22 30.50 28.77 29.71 29.64 27.78 28.02 29.03 27.32 26.60 27.51
37.06 45.32 44.85 45.58 48.71 50.36 49.56 49.65 50.92 50.15 49.62 49.24 49.26 46.81 46.23 45.01 45.24 44.65 43.55 43.49 41.99 40.76 36.91 31.07 30.94 31.45 34.76 37.43 36.25 33.67 32.29 31.60 30.32 29.85 30.17 28.26 26.73 26.71 28.63 28.11 28.11 27.83 27.64 26.73
43.08 47.52 48.59 48.19 48.07 48.81 48.29 48.02 49.73 50.24 49.85 48.55 48.04 46.91 45.94 44.76 43.37 40.37 41.69 39.90 34.00 30.85 29.92 29.72 29.09 28.77 30.65 31.59 31.54 30.67 29.17 29.23 28.77 28.84 28.91 28.88 29.21 27.59 24.75 26.58 27.54 26.70 26.31 25.91
48.63 48.06 45.96 47.35 45.36 47.03 46.95 47.74 47.85 47.73 47.25 47.30 46.28 45.13 43.93 42.81 41.47 38.75 33.51 31.11 29.94 28.50 27.72 27.81 27.47 26.83 29.44 29.69 29.34 28.98 28.78 28.63 27.85 27.47 27.36 26.88 26.75 26.73 26.73 26.65 23.97 24.73 26.69 25.87
48.11 48.01 47.16 46.70 45.65 45.32 46.03 45.04 43.61 42.80 42.96 41.86 42.80 41.61 37.04 33.50 30.51 28.92 28.69 28.41 27.85 26.72 26.28 26.16 25.53 25.64 27.44 28.07 27.33 27.18 27.43 27.41 27.14 25.46 25.04 25.49 25.94 25.59 25.37 25.18 24.58 24.24 24.91 24.78
45.86 46.61 46.39 44.56 44.01 44.25 43.45 42.67 40.95 39.64 35.44 32.07 30.20 29.14 28.53 27.77 26.61 25.85 26.07 26.37 24.44 23.31 24.33 24.33 24.61 26.32 27.73 26.83 25.06 24.36 24.09 24.64 24.47 24.76 24.98 24.14 23.92 23.40 23.58 23.01 22.67 22.17 21.52 21.07
43.61 42.59 43.23 42.45 40.36 38.27 35.94 34.97 33.50 30.81 29.59 27.96 26.82 26.45 25.64 24.50 23.81 23.20 23.10 23.64 23.29 22.83 23.45 23.14 23.11 24.75 24.94 25.22 24.34 24.32 23.13 22.72 23.02 23.59 22.18 22.78 21.87 20.36 20.02 20.10 19.29 19.27 17.83 15.31
39.70 39.65 42.18 38.99 35.16 31.76 29.60 28.99 28.04 26.81 25.18 24.85 24.20 23.40 22.66 21.88 20.89 21.02 21.05 21.35 20.71 20.76 21.63 22.28 22.64 22.33 22.11 22.60 22.51 22.14 21.49 21.43 21.64 21.14 20.86 18.20 18.33 18.48 17.69 17.44 17.01 15.93 14.46 16.34
35.73 34.20 33.40 32.24 31.03 29.51 28.25 26.61 25.99 25.55 24.88 24.65 23.48 22.59 22.78 22.43 22.37 21.99 22.21 20.35 19.13 18.15 19.45 20.22 20.94 19.74 19.52 21.17 20.93 20.28 19.34 17.81 18.01 18.55 17.83 15.92 14.38 15.47 12.60 10.71 10.40 9.00 10.27 10.60
29.98 29.59 28.94 28.33 28.42 27.35 25.80 25.97 25.56 24.66 24.74 24.27 23.29 21.65 20.44 20.51 20.57 19.62 19.73 18.97 19.75 19.68 20.49 20.31 19.94 18.69 18.64 18.06 18.92 19.60 17.76 15.44 16.51 14.66 11.75 10.75 8.18 6.52 7.79 11.66 12.00 9.10 3.02 0.74
27.06 27.05 26.49 26.16 25.66 25.94 25.94 25.75 24.65 23.37 23.82 23.59 22.14 20.95 20.44 20.64 20.60 19.93 18.34 16.92 19.25 20.46 18.84 17.33 17.42 16.72 16.53 15.61 17.68 15.42 12.94 10.79 7.99 5.42 3.71 1.79 2.35 5.79 1.20 -0.39 1.04 0.20 -1.61 -0.71
25.55 24.87 24.32 24.22 23.76 23.72 24.51 24.79 24.24 23.50 22.93 22.53 22.22 21.39 20.25 19.32 18.99 18.75 18.74 17.59 19.80 18.58 17.50 16.16 15.21 10.97 11.78 12.09 15.25 9.92 11.45 8.71 7.15 8.32 7.41 3.89 5.65 1.09 -0.52 -3.62 -3.42 1.05 -2.70 -6.32
25.16 24.88 24.59 23.82 23.23 23.37 24.16 24.14 23.74 23.70 22.63 22.09 21.02 20.54 21.13 21.50 20.73 17.43 16.24 20.36 18.76 16.46 16.08 13.31 9.49 7.86 5.85 8.51 10.03 8.12 4.78 2.54 1.21 3.26 6.39 1.77 -1.31 -1.61 3.99 6.87 4.68 -0.74 0.99 2.25
24.75 24.66 24.19 24.69 24.27 23.18 21.66 23.05 23.36 22.98 21.78 21.19 20.68 20.91 19.56 17.54 17.77 18.84 18.51 15.76 12.08 10.99 8.21 5.51 5.47 7.59 7.03 9.36 7.75 5.68 2.91 0.91 5.18 1.76 0.67 1.07 3.87 1.05 -0.29 2.18 4.68 4.42 3.04 1.62
25.84 25.47 24.99 23.81 22.86 22.23 22.85 22.89 21.87 21.27 20.44 19.94 20.21 20.42 19.77 20.02 16.53 16.78 14.89 13.27 14.28 11.71 8.39 8.02 5.52 3.95 1.92 -1.03 -0.65 0.32 0.94 1.49 3.88 6.02 4.14 -1.27 -6.68 -7.05 -1.47 2.06 -0.68 -0.30 1.47 0.30
24.47 23.67 24.03 24.23 23.51 23.16 22.91 21.84 19.82 19.53 18.88 17.50 17.45 16.76 17.71 17.55 16.73 15.77 12.32 10.40 11.34 8.13 7.56 7.71 7.01 4.77 4.59 2.31 3.45 3.13 -1.53 -1.72 3.57 2.00 -3.25 -6.14 -6.35 -4.33 -5.41 -3.99 -2.77 -4.55 -6.96 -9.95
21.46 20.86 20.04 19.07 19.50 19.02 18.01 16.76 16.55 17.21 15.81 13.87 13.01 14.46 14.71 13.73 12.27 11.43 8.02 7.61 4.95 3.78 3.67 3.96 3.55 3.98 -0.55 -3.99 -2.94 -5.43 -5.81 -2.54 -0.04 -3.68 -8.89 -12.67 -11.40 -5.23 -7.44 -11.76 -14.30 -12.12 -11.22 -11.58

GFSNGP_sfc_wetblb_084.txt.gz
Wetbulb
39.20 40.93 41.71 41.05 40.52 41.99 40.99 40.32 36.34 38.47 39.06 42.16 44.70 45.78 46.14 46.80 47.39 47.36 48.07 48.29 47.76 50.03 50.76 54.18 54.69 55.96 56.85 57.14 57.95 58.45 58.03 56.45 56.14 55.32 56.46 55.62 54.57 54.07 52.07 51.47 51.24 50.60 49.71 49.30
35.25 40.03 41.71 39.60 41.75 41.93 41.60 41.29 40.88 41.71 39.91 46.38 48.15 45.53 44.97 46.67 46.94 47.06 47.47 47.42 48.07 50.09 51.34 52.60 54.71 54.85 55.49 54.08 54.62 56.12 55.62 53.28 51.62 51.04 51.40 51.76 50.90 50.12 49.92 49.74 49.44 49.04 48.41 47.83
30.09 38.25 39.35 32.75 37.86 40.53 41.85 42.91 41.77 37.22 41.68 43.87 43.40 43.79 44.27 45.36 46.19 47.17 47.79 48.14 48.73 50.68 52.42 55.20 54.89 54.43 53.71 52.55 52.58 52.23 50.98 50.30 50.12 49.54 48.49 47.80 48.47 47.87 47.22 47.21 47.57 47.06 47.13 46.99
28.66 33.02 28.49 37.79 44.07 44.73 43.27 44.05 43.60 42.86 42.89 44.63 44.44 44.56 44.50 45.54 46.23 47.10 48.23 49.70 53.74 52.78 50.91 50.23 50.57 50.94 51.50 51.32 50.71 50.15 49.66 48.90 48.60 47.89 46.61 46.70 46.67 46.34 45.89 46.25 46.06 45.70 45.32 45.04
31.11 29.01 35.14 39.23 41.76 41.95 41.13 40.15 44.70 43.08 44.59 45.20 44.61 44.34 43.75 46.82 46.66 47.95 48.62 49.88 52.18 50.83 49.69 49.19 49.35 49.76 49.91 49.71 49.61 49.26 48.43 47.98 47.73 47.08 46.22 45.95 45.32 44.62 45.13 45.31 44.73 44.01 43.83 41.80
31.65 27.33 25.30 35.88 43.40 46.55 45.78 35.60 45.46 45.72 44.82 45.19 44.13 37.32 41.66 46.67 49.32 49.03 50.79 52.03 50.34 49.56 48.56 47.96 47.44 47.98 48.40 47.78 48.05 47.31 47.51 46.35 45.98 45.80 45.43 44.63 44.19 43.97 44.13 43.45 41.62 39.66 37.59 36.66
31.12 30.14 32.46 42.04 45.18 47.09 35.42 35.32 45.81 47.09 46.97 44.63 42.74 43.43 45.60 49.10 49.35 49.91 51.46 50.52 50.05 49.27 47.60 46.67 47.21 47.21 45.28 45.21 45.24 46.97 46.23 45.70 45.42 45.51 45.13 44.67 44.15 43.57 42.50 38.72 35.72 34.28 32.82 32.85
29.79 26.73 27.28 44.68 44.67 39.29 41.83 46.01 47.11 46.95 46.44 45.65 45.91 45.77 47.70 48.41 48.38 49.78 49.69 49.43 49.18 47.78 46.49 46.38 46.51 45.67 43.72 43.13 45.12 45.61 45.49 44.33 44.68 43.93 43.45 43.51 41.48 39.65 38.25 35.63 32.58 31.54 30.83 29.66
33.10 33.08 42.50 46.30 46.96 47.53 47.99 47.18 47.63 47.34 48.01 47.32 45.48 45.77 46.86 46.43 47.06 47.65 48.87 48.67 49.36 47.62 46.62 46.58 45.84 45.08 43.47 44.57 45.00 43.13 41.74 42.02 41.85 40.89 39.66 39.32 38.44 36.96 35.32 34.19 32.24 31.52 30.33 28.42
37.46 41.77 43.45 45.70 48.62 49.32 48.11 47.81 48.86 48.32 48.23 47.15 45.72 45.61 45.64 45.32 45.19 45.90 46.47 46.19 47.63 46.35 44.03 41.66 41.63 41.00 40.44 41.43 41.23 39.57 37.04 34.38 33.94 33.13 32.80 33.01 32.76 32.87 31.81 31.12 30.76 30.82 30.39 28.39
37.84 42.38 44.97 45.91 47.04 47.43 48.41 49.50 49.12 49.20 48.55 48.88 47.66 46.04 45.00 44.09 44.65 44.10 43.34 42.39 41.45 36.47 32.56 32.30 35.34 38.10 39.57 38.00 35.88 33.45 32.70 32.01 30.99 30.56 29.96 28.15 27.67 28.17 27.78 28.81 29.88 28.55 28.00 28.24
36.09 43.88 43.84 44.56 47.38 48.44 47.55 47.22 48.67 49.72 48.63 47.75 47.80 45.89 44.98 43.90 43.56 42.09 40.02 33.88 31.93 30.75 30.12 29.89 30.47 31.35 33.31 34.96 34.19 31.96 30.35 29.95 29.74 29.37 28.41 28.22 27.58 26.99 29.13 28.61 28.53 28.52 28.16 26.92
42.40 45.72 46.18 47.39 47.13 48.23 47.55 47.25 47.83 48.59 48.84 48.20 46.98 45.92 44.15 41.75 40.05 32.94 32.15 30.73 29.22 28.28 28.43 28.45 28.27 28.69 30.59 31.20 30.86 29.75 28.36 28.77 28.90 29.23 29.37 29.27 28.68 27.64 26.14 27.86 28.46 28.03 26.72 26.59
46.24 47.36 44.38 45.87 44.81 46.03 46.17 45.01 44.50 43.76 44.14 44.37 43.78 42.07 37.98 32.44 30.79 29.42 28.19 27.96 27.60 26.75 26.65 26.88 27.42 28.07 30.20 30.79 30.33 29.58 28.75 28.26 27.71 27.39 27.17 26.99 26.56 26.55 26.31 26.15 24.64 25.36 27.16 26.73
46.71 47.18 46.31 44.64 44.81 43.70 43.42 42.21 37.88 34.87 35.07 34.25 34.80 32.06 29.92 27.70 26.85 26.33 26.68 26.89 26.57 26.62 26.77 26.78 26.19 25.72 27.70 27.85 26.90 26.70 27.07 26.22 25.58 25.45 25.65 25.63 25.75 25.37 24.78 24.29 24.01 23.65 24.14 23.39
45.48 44.80 44.24 43.20 42.31 41.32 39.42 35.52 32.32 30.44 29.09 27.58 26.60 26.33 26.30 25.86 25.38 25.25 25.89 26.53 24.46 22.67 23.47 22.95 23.33 25.92 26.53 25.86 24.90 24.29 24.29 24.61 24.73 25.02 24.54 23.97 23.74 22.74 21.47 20.90 20.66 20.04 19.38 19.49
41.63 39.93 40.09 36.99 34.99 33.15 31.52 31.00 29.25 27.66 26.64 25.72 25.15 24.95 24.35 23.29 22.44 21.53 21.41 22.30 22.00 21.52 22.13 22.14 22.36 24.23 24.77 24.24 23.55 23.22 22.99 22.78 22.38 22.28 21.45 20.02 19.08 18.63 18.62 18.29 17.77 17.31 15.55 15.02
37.65 37.23 37.25 34.76 31.27 28.60 27.19 27.17 26.52 25.43 23.98 24.15 23.60 22.40 21.71 20.49 19.03 19.35 19.95 20.44 19.59 18.66 19.78 21.28 21.94 21.86 21.94 21.90 21.47 20.78 19.91 19.59 19.34 18.37 17.72 15.83 16.32 17.32 15.11 14.17 14.28 13.22 11.91 14.72
33.29 31.88 31.05 29.98 28.82 27.53 26.50 25.40 24.96 24.77 24.11 23.40 22.69 21.15 21.26 20.90 20.90 20.72 20.76 18.86 17.79 16.96 18.34 19.63 20.71 19.04 19.33 20.82 19.68 18.06 16.64 15.18 15.81 15.31 15.09 11.96 10.56 12.04 9.22 9.78 10.96 9.38 9.54 9.45
28.98 28.60 27.84 27.06 27.30 26.31 24.87 25.16 24.98 23.73 23.84 22.83 21.72 20.29 18.74 19.01 19.31 18.75 18.84 17.75 18.52 18.45 19.22 17.70 17.52 17.28 18.09 17.61 17.10 15.91 13.64 11.97 12.81 10.08 7.50 6.31 2.14 1.09 3.21 6.58 5.86 1.99 -0.73 1.77
26.36 25.97 25.55 25.04 24.33 24.45 24.13 24.31 23.31 22.30 22.69 22.08 20.07 18.78 18.53 19.38 19.72 19.41 17.26 15.09 16.64 17.28 16.09 14.72 14.95 15.53 16.54 15.46 14.44 11.70 9.22 6.93 4.71 4.68 4.39 2.28 -1.33 0.52 -0.55 -2.18 -0.40 -0.25 -0.43 0.99
24.74 23.69 23.40 23.24 22.89 22.72 23.68 23.80 23.14 22.26 21.41 20.53 20.02 19.23 17.82 17.71 18.02 18.10 18.18 15.89 16.33 15.20 14.66 13.96 13.07 9.88 12.48 11.82 10.23 7.34 7.55 4.98 2.74 -0.60 -0.22 0.99 -0.59 -2.36 -1.99 -0.73 3.52 3.51 1.45 -1.35
23.90 23.61 23.47 22.75 22.13 22.40 23.04 22.67 22.05 21.24 20.22 20.76 20.35 19.97 19.22 19.27 19.05 15.68 13.11 16.02 15.07 12.26 12.51 10.49 8.14 7.47 6.07 5.64 4.90 2.13 0.62 -0.01 1.03 0.62 0.11 -1.65 -7.43 -7.25 -5.62 -6.35 -6.71 -4.00 -1.53 -0.36
23.45 23.30 23.22 23.92 23.73 22.21 20.51 21.72 22.10 21.79 20.49 20.02 19.24 18.68 17.31 14.93 14.99 15.08 14.03 9.84 7.14 8.24 8.05 7.09 5.95 3.64 0.07 -0.20 -1.42 -2.62 -3.44 -5.26 -7.25 -9.97 -5.98 -6.71 -13.60 -13.96 -11.06 -9.79 -2.68 -2.81 -8.34 -9.97
24.40 24.25 23.90 22.72 21.20 20.38 20.86 20.86 19.95 19.54 18.87 18.08 18.06 17.92 17.40 16.41 13.14 13.01 13.22 12.59 12.31 9.55 7.71 3.84 2.51 -0.63 -2.96 -5.44 -7.80 -10.88 -10.51 -10.51 -8.16 -11.24 -14.14 -15.95 -15.59 -11.78 -12.87 -14.87 -16.50 -15.95 -14.50 -13.42
23.34 22.22 22.66 23.18 21.93 21.14 20.37 19.48 17.13 17.18 16.13 14.30 14.57 14.92 14.42 13.79 12.28 11.00 9.20 8.32 7.75 5.32 3.19 -1.73 -3.84 -5.45 -8.34 -8.37 -10.33 -8.52 -7.80 -6.11 -11.42 -12.69 -16.32 -15.23 -15.95 -15.59 -17.40 -16.86 -17.95 -16.50 -16.86 -16.50
20.77 20.16 19.06 18.02 18.18 18.57 18.52 16.73 14.10 12.65 12.74 11.70 10.70 11.80 10.98 9.64 7.39 6.26 2.31 2.07 -0.88 -2.27 -7.43 -10.33 -10.51 -7.43 -9.09 -9.98 -10.51 -12.69 -11.78 -12.15 -14.50 -15.41 -18.67 -16.86 -18.13 -20.67 -21.76 -22.48 -21.39 -19.40 -17.40 -17.41

GFSNGP_sfc_wetblb_087.txt.gz
Wetbulb
37.11 38.51 39.63 40.01 39.24 39.84 37.49 37.80 35.36 37.29 38.52 42.28 43.13 44.24 45.45 46.84 46.96 45.52 45.90 45.68 47.91 50.11 51.80 53.13 53.27 54.42 55.77 56.43 56.66 56.51 55.74 55.40 55.57 56.59 56.64 56.10 56.38 56.54 56.94 57.00 56.38 53.86 52.81 51.67
33.92 37.67 39.03 38.08 39.70 41.03 40.29 39.51 38.35 39.26 39.08 44.18 45.48 45.45 44.54 45.52 45.91 45.48 46.29 46.65 46.67 48.36 49.23 50.82 52.03 53.01 53.95 54.59 55.59 55.84 55.94 55.55 53.67 53.62 54.87 55.01 54.35 54.57 52.27 51.47 51.41 52.16 51.63 50.20
29.81 36.15 36.67 31.42 37.32 39.61 40.99 40.80 39.10 35.82 40.68 44.36 43.24 43.78 44.62 44.81 45.01 45.22 46.50 46.88 46.80 46.23 49.38 50.70 51.47 52.47 51.67 51.47 52.03 52.89 52.93 51.94 51.03 51.38 50.11 49.77 50.33 50.33 49.59 49.41 49.75 49.49 49.24 48.73
30.14 31.96 26.74 35.76 42.40 43.57 41.45 43.29 43.49 42.67 43.71 44.00 44.39 44.88 44.30 44.63 44.84 45.59 45.87 46.28 49.86 51.46 50.71 50.39 51.99 51.57 51.74 52.00 51.21 50.99 50.27 49.71 49.91 49.77 48.88 48.68 48.46 48.48 47.63 47.96 47.72 47.33 47.00 47.09
30.25 29.22 32.78 36.26 39.74 40.40 39.50 39.03 44.53 43.75 44.23 43.94 43.97 43.30 42.64 44.90 45.31 45.75 46.71 48.20 50.61 49.65 48.79 50.00 50.53 50.86 50.43 50.02 50.22 50.20 49.39 49.39 48.68 47.94 47.40 47.04 46.15 45.43 46.06 45.83 45.52 45.47 45.29 43.06
31.74 27.82 24.10 32.83 41.85 45.29 45.48 35.23 44.75 45.25 45.62 43.50 43.50 38.21 41.26 45.43 46.47 47.59 49.86 50.00 48.28 47.80 49.01 48.99 49.31 50.74 49.90 49.02 49.19 48.14 48.01 47.22 47.13 46.79 46.32 45.54 45.10 45.04 45.64 44.87 42.56 40.49 37.22 37.17
31.26 29.71 31.09 39.15 42.27 45.65 34.31 34.97 44.41 46.20 45.00 44.26 41.77 43.91 44.90 47.41 47.87 49.54 49.57 48.28 48.08 47.56 47.38 47.63 48.12 48.85 47.38 47.81 46.55 46.89 46.77 46.54 45.75 46.01 45.09 44.83 44.29 43.26 39.99 37.99 35.57 33.06 31.58 32.15
31.00 26.96 25.02 41.51 43.78 36.60 40.30 45.65 46.64 45.52 47.33 44.70 45.96 44.24 46.36 47.73 48.74 49.65 48.61 48.19 47.42 46.59 46.13 45.50 45.53 45.44 45.33 44.81 45.62 45.62 45.42 45.01 44.36 43.47 43.60 42.43 39.94 38.15 36.38 34.66 32.15 30.68 29.72 28.76
33.82 31.48 39.15 42.51 45.70 47.56 47.58 46.54 46.92 46.65 48.52 47.35 45.16 44.87 46.89 46.61 48.34 48.85 48.51 47.92 47.52 46.61 45.16 44.65 44.74 44.48 43.26 44.83 44.59 42.39 39.20 36.73 36.38 36.18 36.33 37.55 36.70 35.31 33.77 33.30 31.42 30.20 29.04 27.34
36.69 39.43 40.43 42.65 44.77 47.69 48.38 47.15 48.39 48.44 48.57 47.14 45.59 45.96 45.61 46.02 47.16 46.89 47.29 46.84 46.18 42.04 38.51 38.20 39.22 40.13 41.26 39.98 37.45 35.98 34.09 33.37 33.08 31.86 31.26 31.71 31.59 31.95 31.33 31.33 31.37 30.79 29.26 26.90
36.56 39.81 40.90 43.73 45.40 46.81 48.49 49.11 48.67 48.68 49.15 47.84 47.20 46.04 45.47 45.48 44.29 43.26 39.72 36.89 36.44 34.54 33.37 33.80 35.24 34.74 35.56 35.54 34.95 32.57 31.69 31.05 30.03 28.53 27.75 27.36 27.87 28.53 28.43 29.52 30.93 30.12 29.40 28.52
33.63 41.28 39.94 42.09 45.40 47.73 46.77 47.13 48.35 48.37 48.12 48.31 47.60 44.76 44.91 42.06 40.12 34.98 32.91 32.77 31.23 30.61 30.27 30.50 30.71 30.67 31.81 32.88 32.36 30.44 29.23 29.11 28.68 29.20 29.36 29.02 27.72 26.93 30.14 29.52 29.29 29.14 28.19 27.09
40.51 43.34 43.43 44.71 46.40 46.99 47.32 45.62 47.25 48.03 48.04 45.65 45.88 44.08 39.74 32.87 31.88 31.14 30.09 29.20 28.64 28.39 28.78 29.06 29.04 28.98 30.13 31.02 30.95 30.27 29.80 29.99 29.68 29.65 29.33 28.84 28.45 28.04 26.09 27.82 29.20 28.77 28.51 27.87
42.67 44.22 43.12 44.63 44.38 44.18 43.33 41.20 40.44 39.27 40.06 39.74 36.82 34.84 32.27 29.73 28.63 27.41 26.58 27.34 27.89 27.71 27.50 27.92 28.03 28.19 29.92 30.31 29.24 27.75 26.66 26.74 26.57 26.35 26.01 25.90 25.62 25.47 25.42 24.74 24.21 25.26 27.76 27.60
41.86 42.85 44.75 44.51 43.20 41.40 39.08 36.59 33.02 31.34 31.02 30.61 31.36 29.73 29.23 26.37 25.40 25.44 26.45 26.86 26.71 26.05 25.69 25.75 25.15 24.97 26.71 26.82 25.77 25.46 25.37 25.04 25.01 24.70 24.53 24.30 24.24 23.64 22.91 22.65 21.80 21.54 22.95 21.38
43.95 42.81 42.65 40.85 39.81 37.54 35.35 32.69 29.17 27.53 28.21 27.44 26.80 25.89 25.46 24.93 23.89 23.20 23.75 24.25 22.55 21.36 22.32 22.15 22.33 24.19 24.76 24.24 23.85 23.78 23.82 23.91 23.59 23.07 21.95 20.85 19.81 19.26 18.88 18.27 18.13 17.22 16.55 16.13
39.67 38.34 37.09 34.53 32.73 31.18 29.67 28.77 27.41 25.94 25.54 24.93 24.34 24.35 23.46 22.03 20.82 19.98 19.87 20.80 20.54 20.37 21.15 21.50 21.17 22.86 23.20 22.90 22.27 21.86 21.42 20.55 19.55 18.55 17.28 17.12 17.04 15.51 15.25 14.83 14.32 14.26 13.74 13.53
34.44 37.15 36.90 33.42 29.29 27.19 26.32 26.53 25.84 25.05 23.90 23.86 23.03 22.37 20.91 19.71 17.91 17.78 18.22 18.72 18.07 18.09 19.38 20.66 21.11 20.97 20.68 20.43 19.67 18.62 17.76 17.35 16.83 15.54 14.97 13.34 14.00 13.03 10.76 10.06 10.42 10.72 11.04 11.21
30.94 29.71 29.11 28.09 27.25 26.17 25.37 24.40 24.26 24.14 23.56 23.08 21.62 20.00 19.87 19.45 19.26 19.12 19.37 17.43 15.89 15.09 17.22 19.79 20.99 19.31 18.44 18.39 16.94 15.71 14.15 13.03 12.73 11.81 11.50 8.58 7.38 8.23 6.26 4.95 3.56 0.32 2.99 3.82
28.00 27.96 27.45 26.89 26.90 25.57 24.19 24.33 23.92 22.73 22.50 21.43 20.57 19.12 17.85 17.97 17.74 16.75 15.98 14.45 15.55 16.12 18.10 17.95 17.62 16.42 15.33 14.54 14.44 12.85 11.20 9.63 9.54 6.83 4.50 3.82 0.39 -0.97 -0.34 1.13 2.88 2.01 -1.34 1.12
25.94 25.71 24.95 24.23 23.55 23.75 23.46 23.38 22.05 20.73 20.81 20.56 18.82 17.63 17.11 17.67 17.43 16.58 14.18 12.18 14.20 15.96 15.66 15.58 14.95 13.51 12.60 11.90 11.01 8.31 6.82 4.97 2.79 0.78 -0.85 -5.84 -5.85 -5.66 -7.11 -8.38 -6.39 -4.39 -3.50 -2.45
24.12 23.16 23.01 22.94 22.37 21.91 22.58 22.42 21.71 20.20 19.01 18.25 18.10 17.84 16.65 15.56 14.82 14.19 14.35 12.63 14.09 13.80 13.37 11.66 10.67 8.98 8.94 8.44 7.18 4.59 4.33 2.11 -0.42 -1.09 -4.58 -7.11 -10.01 -12.37 -11.83 -9.11 -7.84 -6.03 -5.66 -3.72
23.34 23.28 22.69 21.72 20.88 20.89 21.54 21.31 20.67 20.17 19.21 19.05 18.70 18.48 17.50 17.25 16.10 11.63 9.05 12.91 12.54 9.64 9.69 7.81 5.16 3.79 2.39 1.75 -0.31 -1.85 -3.20 -5.12 -6.93 -9.29 -12.92 -16.54 -16.90 -18.17 -16.72 -14.18 -11.65 -12.37 -14.91 -13.46
22.47 22.56 22.08 22.75 22.33 20.71 18.50 19.57 19.82 19.11 17.71 17.73 17.26 16.65 14.77 11.72 10.97 12.55 11.12 8.69 7.86 7.04 5.59 3.66 2.40 0.83 -2.57 -4.29 -6.06 -7.11 -8.02 -10.38 -14.73 -17.63 -14.91 -16.72 -21.62 -20.17 -18.17 -19.44 -17.27 -18.90 -17.81 -16.36
23.09 22.58 22.06 20.90 19.60 18.71 19.07 19.30 18.35 17.70 16.75 15.62 15.56 15.42 15.22 14.70 10.83 11.45 10.69 9.15 8.37 4.31 1.59 -1.07 -1.86 -5.48 -8.95 -10.38 -9.65 -11.28 -15.63 -17.09 -18.35 -21.07 -21.98 -21.80 -21.98 -22.34 -22.52 -22.16 -23.07 -21.80 -21.44 -20.71
22.40 21.09 21.19 21.36 20.22 19.61 18.93 17.84 15.36 15.14 13.94 12.12 11.67 11.35 10.85 10.84 9.91 8.52 6.50 4.76 3.59 0.36 -2.18 -7.52 -11.83 -11.66 -13.64 -14.00 -17.09 -17.09 -15.82 -12.99 -19.08 -18.72 -21.25 -20.17 -21.62 -19.99 -23.61 -20.35 -23.25 -22.89 -22.89 -20.89
19.73 19.24 18.51 17.78 17.92 17.36 16.37 15.04 13.25 12.24 12.30 10.58 8.21 8.52 7.28 5.49 3.89 2.91 -0.06 -1.77 -5.38 -7.51 -10.38 -13.82 -14.37 -12.55 -15.27 -17.81 -16.18 -16.72 -16.54 -17.63 -19.26 -19.08 -22.16 -23.07 -23.97 -25.97 -25.97 -24.34 -23.43 -22.71 -20.91 -20.55

GFSNGP_sfc_wetblb_090.txt.gz
Wetbulb
34.54 36.13 35.71 36.03 36.45 37.53 36.21 36.48 33.11 34.71 36.77 40.24 42.35 43.25 45.41 45.88 45.19 44.83 45.28 45.62 47.58 48.90 50.40 51.87 52.70 53.26 54.06 54.72 54.73 53.46 52.50 52.23 52.54 53.52 54.19 53.83 54.92 55.52 55.82 56.89 56.99 56.93 56.41 55.29
30.63 35.41 36.81 34.58 37.31 37.73 38.00 37.04 35.93 36.49 35.89 42.65 45.04 43.09 43.51 45.14 45.93 45.68 44.94 45.54 45.88 47.75 49.45 50.39 51.84 52.80 53.55 53.77 54.19 54.40 53.78 52.92 53.30 53.26 53.12 53.04 54.11 54.82 56.06 56.55 55.81 56.13 53.26 52.67
28.48 34.37 33.48 29.44 34.49 37.06 37.34 39.17 38.75 34.13 38.41 41.03 42.47 42.57 43.66 45.47 44.68 45.04 45.67 45.61 45.61 45.95 47.57 48.23 49.08 50.12 50.05 50.64 51.92 52.72 53.28 52.23 51.45 51.84 52.62 53.79 53.70 53.76 53.88 53.50 52.47 51.71 51.55 51.37
29.53 31.31 26.21 34.61 40.27 41.01 38.85 39.83 40.36 40.19 41.29 42.53 43.15 44.95 45.37 45.22 45.19 45.02 45.45 45.41 45.39 46.55 48.37 49.67 50.91 50.96 51.48 52.24 51.75 51.65 51.08 50.69 50.70 50.88 50.36 50.36 50.90 51.07 49.29 49.09 48.91 47.83 47.10 46.54
28.90 29.64 31.96 35.39 38.49 38.07 37.72 37.94 42.13 41.62 42.23 43.78 43.79 41.77 42.49 44.71 44.12 44.90 44.51 45.86 48.97 48.85 49.84 50.28 50.12 50.85 50.83 50.39 50.41 50.03 49.58 49.94 50.16 49.80 48.55 47.81 47.29 46.18 46.38 46.07 45.35 43.85 42.88 41.59
30.85 26.59 23.78 34.48 39.98 42.61 43.29 32.47 42.86 42.77 42.52 42.82 43.04 37.72 41.16 44.30 45.39 46.84 49.25 48.61 48.08 49.14 49.16 49.89 50.12 50.82 50.21 49.51 48.89 48.06 48.03 47.52 48.17 47.50 46.87 45.52 45.53 45.37 44.89 43.36 40.65 38.58 36.34 36.10
29.31 28.99 31.06 39.44 42.48 43.26 31.30 33.58 43.31 43.71 43.42 43.63 42.11 44.90 45.67 46.77 48.29 48.62 47.90 47.11 47.59 47.87 47.28 48.13 49.17 49.43 47.56 46.91 45.54 46.34 46.43 46.07 45.81 45.49 44.70 44.18 41.88 40.83 38.75 35.80 33.50 31.83 30.42 30.69
31.83 29.29 26.75 41.21 41.89 37.39 39.46 43.62 44.63 44.73 44.54 44.77 44.41 44.58 45.03 47.93 48.01 47.88 47.97 47.20 47.07 46.73 46.31 46.73 47.94 47.51 45.29 43.91 44.95 44.03 41.97 40.54 40.05 40.49 40.63 39.40 37.42 36.40 35.21 33.23 30.97 29.75 28.89 28.21
33.73 33.12 40.91 41.47 42.24 44.24 46.94 44.79 45.02 44.93 46.05 45.93 45.31 45.78 46.24 47.82 47.65 47.68 47.23 46.64 47.11 45.96 44.36 44.38 44.89 45.27 42.39 40.65 39.36 38.52 37.37 36.23 35.95 35.95 35.97 36.39 35.19 34.25 33.03 32.34 30.68 29.56 28.41 26.69
34.73 38.50 39.83 40.86 43.46 44.18 45.99 45.75 47.38 47.47 47.70 46.32 44.86 45.84 46.80 47.57 47.30 46.15 45.34 42.66 41.59 40.40 39.05 38.01 39.65 38.99 38.05 38.09 37.70 35.83 33.66 32.48 32.01 30.97 30.92 31.63 31.98 32.25 31.96 31.50 30.52 29.44 28.02 26.22
35.61 40.08 41.69 41.75 43.29 43.87 45.40 47.91 47.45 48.65 47.98 48.35 46.34 45.03 46.68 44.41 39.23 37.51 36.19 35.22 34.86 33.83 32.41 31.98 32.95 33.11 34.16 34.11 32.91 29.50 28.21 27.93 28.28 29.38 29.61 28.71 28.67 29.16 28.81 29.10 30.67 29.35 28.44 28.20
31.32 39.95 38.34 39.24 42.78 45.82 44.16 45.17 44.70 45.78 47.47 47.93 46.47 42.35 36.41 33.97 34.23 33.68 32.44 32.35 30.77 30.11 29.04 29.01 29.35 29.45 30.25 31.36 31.07 29.77 29.42 29.96 30.22 29.96 29.48 28.21 27.71 27.50 30.41 30.10 29.85 29.61 28.86 27.53
38.31 41.11 40.19 42.02 43.77 43.72 44.67 41.57 38.51 37.36 40.54 44.60 41.66 37.08 33.32 30.20 29.96 30.21 29.77 29.34 29.03 28.80 29.17 29.19 29.03 28.83 29.79 30.56 31.05 30.25 28.90 28.59 27.96 27.99 27.42 26.89 26.50 26.54 24.54 27.28 28.88 28.60 28.45 27.84
40.02 39.82 37.90 40.83 41.12 40.23 40.02 38.94 37.93 35.81 34.87 32.97 32.14 31.44 30.11 29.00 29.07 28.15 27.23 27.75 27.84 27.35 26.80 26.82 26.52 26.56 28.18 28.24 27.45 26.47 25.20 25.15 24.69 24.34 24.13 23.63 23.06 23.22 23.43 22.48 21.63 22.81 24.06 24.88
39.60 40.44 40.67 40.94 38.69 37.22 36.48 35.04 32.12 30.78 30.41 30.01 30.07 29.01 28.36 26.70 25.73 25.91 26.44 26.30 25.83 24.85 24.46 24.44 23.57 23.62 25.80 25.93 24.59 23.85 23.50 22.98 22.55 21.60 20.54 20.61 20.51 19.84 19.92 19.18 18.32 17.92 17.68 18.19
41.60 42.51 41.33 38.14 36.13 35.17 34.19 32.84 29.97 28.06 27.70 26.55 25.51 24.83 24.38 23.80 23.06 22.80 23.51 24.14 22.00 20.38 21.21 21.13 21.42 23.23 24.06 23.31 22.04 21.28 19.94 19.42 18.63 18.42 17.87 17.04 16.39 15.67 15.07 15.04 14.13 12.57 11.33 11.47
37.57 37.90 35.80 33.52 30.84 28.88 27.94 28.74 27.27 25.92 25.18 24.64 23.68 23.42 22.46 20.95 19.91 19.03 19.04 20.11 19.91 19.49 20.05 20.07 19.90 21.55 21.75 21.34 20.26 19.43 18.35 17.17 16.54 16.07 15.17 14.02 12.79 11.88 11.33 10.08 10.34 10.50 8.81 7.66
34.60 32.65 35.57 32.70 27.42 26.16 25.76 26.25 26.01 25.01 23.77 23.57 22.33 20.63 18.94 17.47 16.22 16.68 17.28 18.25 18.38 18.30 18.77 19.25 19.39 19.13 18.52 18.69 17.78 16.57 15.43 14.93 13.65 11.70 10.64 9.57 9.53 8.76 6.76 5.88 5.71 5.57 5.09 7.13
29.77 28.36 27.87 27.40 26.75 25.81 24.93 24.31 23.84 23.50 22.48 21.51 19.73 17.94 18.06 17.74 17.24 17.03 17.72 16.68 15.76 14.95 16.07 17.68 19.22 16.66 16.11 16.19 14.86 13.50 11.21 9.31 8.71 7.97 7.30 3.23 2.62 3.67 1.17 0.22 0.62 -2.06 0.24 1.23
27.39 26.71 26.47 25.84 26.05 25.19 23.52 23.53 22.78 21.42 21.07 19.83 18.74 16.74 15.01 14.57 14.91 14.42 14.96 14.29 15.94 16.39 16.94 15.64 14.74 13.43 12.40 11.63 11.25 9.62 7.61 6.18 6.12 2.25 1.05 -1.00 -5.37 -7.31 -4.62 -2.62 -1.47 -5.12 -8.02 -4.94
25.66 25.34 24.59 23.56 22.84 22.79 22.02 21.88 20.80 19.45 19.59 19.08 16.75 15.20 14.48 14.76 14.89 14.66 12.99 11.38 13.83 14.77 13.79 12.97 12.03 10.91 10.17 8.95 7.59 4.96 3.05 0.81 -0.90 -4.09 -5.86 -10.56 -9.66 -8.39 -11.65 -16.00 -13.28 -13.64 -13.46 -13.64
23.54 22.53 21.96 21.54 20.84 20.29 20.87 20.90 20.02 18.86 17.88 16.59 15.55 14.55 12.99 12.10 12.18 12.23 13.03 11.28 11.91 10.95 10.76 9.35 8.00 5.26 5.57 5.57 3.95 1.31 1.15 -1.43 -4.69 -5.40 -9.31 -11.29 -16.00 -19.81 -21.08 -19.63 -18.54 -17.45 -16.91 -17.27
22.64 21.94 20.72 19.70 18.99 18.93 19.97 19.78 19.44 18.62 17.00 16.44 15.55 14.95 13.87 13.59 13.18 9.40 6.51 10.22 10.06 8.00 7.34 4.79 2.54 0.84 -2.23 -1.98 -3.70 -6.51 -6.71 -9.15 -12.01 -15.64 -20.17 -22.53 -22.89 -23.43 -20.72 -19.81 -18.54 -21.62 -20.35 -18.18
21.12 20.84 20.35 20.69 20.13 18.40 16.18 17.45 17.91 17.18 15.88 15.54 14.54 14.00 12.19 9.05 8.67 9.97 8.56 5.73 4.39 3.86 2.85 0.67 -1.25 -2.59 -7.66 -6.70 -8.17 -10.66 -13.30 -18.00 -21.44 -23.62 -19.63 -21.62 -26.15 -24.34 -21.80 -24.70 -21.80 -21.98 -23.07 -21.08
21.94 21.56 21.04 19.51 17.91 16.78 17.01 16.94 16.02 15.61 14.84 14.15 13.81 13.47 13.06 12.30 8.41 8.08 6.83 5.66 5.86 1.42 -3.00 -6.58 -5.49 -7.12 -10.44 -12.42 -14.04 -17.45 -20.72 -22.53 -23.62 -23.98 -24.34 -24.34 -24.34 -25.97 -27.06 -26.34 -27.06 -25.97 -24.52 -23.25
20.88 19.70 19.59 19.74 18.59 17.69 16.91 15.78 13.19 12.81 11.18 8.75 8.81 9.01 8.83 8.79 7.38 5.92 3.95 2.39 1.07 -3.62 -5.63 -11.12 -15.28 -14.92 -16.37 -16.55 -20.53 -21.26 -19.63 -15.30 -20.72 -20.72 -23.98 -23.80 -26.15 -23.62 -27.79 -24.52 -26.34 -25.25 -24.89 -23.80
18.71 18.02 16.74 15.80 16.66 16.40 15.59 13.96 11.77 10.42 10.00 7.94 5.75 6.40 5.49 4.11 2.26 1.13 -1.35 -3.92 -7.06 -9.74 -14.56 -18.18 -17.81 -14.01 -17.45 -20.17 -18.72 -19.99 -19.81 -21.08 -22.35 -21.26 -26.15 -27.60 -27.97 -29.60 -30.14 -29.78 -27.24 -25.79 -24.17 -23.62

GFSNGP_sfc_wetblb_093.txt.gz
Wetbulb
33.97 34.81 34.65 34.71 34.03 35.28 34.88 36.69 33.54 37.52 38.82 42.82 46.24 47.66 49.84 51.11 50.39 49.09 49.26 48.72 51.70 53.68 54.46 55.23 55.44 55.90 56.38 56.58 56.72 56.74 55.98 56.11 56.02 56.78 56.97 56.93 57.73 57.75 58.03 58.67 58.97 59.28 59.20 58.73
30.79 34.27 34.97 32.44 35.99 37.37 37.47 38.38 38.52 39.14 39.62 46.01 48.17 48.53 47.74 48.95 49.22 49.46 50.36 49.77 50.73 52.36 53.61 54.45 55.20 55.90 56.23 56.62 56.74 56.42 55.54 55.41 56.07 55.92 55.92 56.68 57.31 57.65 58.44 58.63 58.97 58.89 57.79 57.02
28.03 34.23 34.42 30.89 35.07 37.43 39.16 40.72 40.84 36.90 42.70 45.85 45.44 45.87 47.81 49.33 49.44 48.95 49.95 49.74 49.95 50.15 51.87 54.30 54.99 55.61 55.91 56.14 57.08 56.40 55.50 55.34 55.09 55.23 55.09 55.98 56.50 56.90 57.25 57.87 58.15 57.06 56.39 55.41
27.53 31.04 24.12 36.11 41.14 41.86 39.30 40.75 43.17 43.79 44.87 45.81 47.32 48.76 49.13 49.82 49.73 49.74 49.55 49.85 49.96 49.06 50.41 52.01 53.04 53.18 53.93 55.01 55.77 56.01 55.82 54.63 54.98 55.02 54.11 54.35 55.14 55.25 53.38 50.96 49.52 47.87 46.23 45.27
25.84 27.16 32.60 34.49 39.41 38.85 37.26 37.77 44.06 42.83 45.08 46.97 48.28 46.08 46.83 48.58 48.73 49.36 49.73 48.81 50.29 51.07 51.89 52.06 51.86 52.61 52.89 52.53 52.39 52.21 52.10 52.17 52.53 52.62 50.75 49.30 48.60 47.29 47.06 45.10 42.52 40.92 40.08 38.22
29.23 24.99 22.99 34.46 41.74 44.25 43.81 35.06 45.12 45.55 45.57 45.49 47.03 42.11 46.21 47.98 48.48 49.95 50.05 50.23 50.07 50.76 50.91 51.43 51.73 52.52 51.40 50.02 48.98 47.51 47.55 47.64 48.18 47.94 46.95 45.98 45.22 43.39 41.02 38.98 36.99 35.39 33.90 34.05
26.89 26.50 32.03 39.77 42.83 45.69 32.60 36.69 44.65 46.59 46.91 45.79 44.56 47.29 48.74 49.35 48.13 47.25 47.23 48.08 49.51 49.66 49.55 50.09 50.51 49.63 47.33 46.58 45.21 45.99 45.99 45.71 45.09 44.40 42.69 41.88 40.66 39.27 36.80 34.59 32.81 31.53 30.57 31.03
28.77 27.03 24.31 42.64 43.01 37.23 40.65 44.37 45.58 47.27 47.78 47.45 47.99 47.59 49.17 49.09 47.79 47.38 46.50 47.49 48.13 47.44 47.20 47.73 47.33 46.26 44.13 41.71 42.10 41.92 41.43 40.39 39.75 39.53 39.23 38.77 37.06 35.80 34.41 32.65 30.85 29.67 28.51 28.16
33.35 31.09 41.64 43.30 42.29 44.98 47.44 44.49 46.53 47.40 48.44 48.17 46.75 47.49 48.17 46.84 46.38 46.06 45.28 44.91 44.89 44.09 42.58 43.05 44.51 43.64 39.69 39.53 39.31 38.12 36.80 35.24 34.78 34.76 34.87 35.31 34.62 33.40 32.23 31.61 29.79 28.62 27.95 26.62
35.29 38.71 40.31 42.24 44.67 45.39 45.72 45.83 47.82 49.31 48.90 48.57 47.51 47.58 46.72 46.00 42.79 41.08 41.22 40.55 39.14 37.16 34.98 34.25 36.71 37.88 37.69 36.80 36.24 35.29 34.14 33.57 32.87 32.53 32.19 32.60 31.95 32.12 31.83 31.37 30.29 29.35 28.07 26.28
35.11 38.22 41.19 43.03 43.99 44.25 45.40 47.61 47.98 48.74 49.16 48.13 47.15 41.99 40.30 38.21 36.93 35.75 35.42 35.47 35.45 33.69 32.41 31.65 32.72 33.36 34.53 34.58 35.13 33.82 33.38 32.43 31.32 30.53 29.85 29.05 29.38 29.36 28.71 29.55 30.09 29.65 29.68 29.90
32.40 39.16 40.05 41.27 43.19 44.51 45.62 43.39 42.76 45.42 48.37 47.93 43.69 38.88 35.93 33.63 33.67 33.53 32.39 32.63 31.98 31.92 31.33 30.90 31.35 32.11 33.19 34.56 34.76 33.59 31.95 31.35 31.15 30.69 30.20 29.14 28.63 28.04 29.34 28.89 28.89 28.85 28.58 28.86
38.09 41.72 42.59 42.76 43.46 44.32 44.30 41.23 39.64 39.80 40.80 39.16 38.64 36.28 33.77 31.71 31.45 31.12 30.93 30.50 29.59 29.23 29.44 29.31 28.78 28.92 30.01 31.30 31.72 30.74 29.33 28.78 28.49 28.19 28.39 28.08 28.58 27.92 24.89 25.47 25.76 26.51 26.81 25.78
41.51 41.57 40.12 41.02 41.07 42.14 41.22 39.09 37.40 36.31 35.21 34.46 33.51 32.96 31.92 30.20 30.00 29.16 27.95 27.96 27.73 26.96 26.72 26.34 26.07 26.23 27.91 27.98 27.40 26.50 26.00 25.94 26.44 25.83 26.12 25.86 25.54 25.15 25.13 23.76 21.56 20.60 21.04 21.61
41.07 41.82 41.87 42.53 40.88 38.61 38.55 38.09 35.49 33.67 32.78 31.75 31.32 30.03 28.93 27.54 26.67 25.94 26.36 26.28 25.76 24.74 24.28 24.42 23.74 23.61 25.33 25.58 25.62 25.12 24.04 23.31 23.23 22.70 22.16 22.05 21.94 21.21 20.77 19.45 18.12 17.36 17.58 16.96
41.92 41.82 43.27 41.10 39.11 37.39 36.39 34.26 31.22 29.29 28.26 27.19 26.55 25.86 25.25 25.02 23.52 22.92 23.91 24.11 21.33 19.92 21.16 21.15 21.39 22.83 23.79 23.16 22.20 21.46 20.66 19.92 20.00 19.64 19.05 18.42 18.37 17.68 17.04 16.30 15.18 14.29 13.29 13.03
39.17 39.51 39.22 36.96 33.85 31.78 32.44 31.90 30.29 28.36 26.26 25.08 24.14 23.58 22.23 20.98 19.86 19.08 19.02 19.93 19.47 19.39 20.04 20.05 20.31 22.05 21.99 21.72 20.67 19.39 18.63 17.40 16.57 16.52 15.83 15.54 15.28 14.48 14.14 13.99 12.98 12.18 11.42 9.51
35.11 34.81 35.79 37.99 31.86 28.71 27.43 27.60 27.71 26.66 24.04 23.15 22.26 21.11 19.74 18.38 17.06 17.23 17.43 18.06 17.57 17.18 18.30 18.98 19.23 19.14 18.87 18.95 18.31 17.29 16.13 14.99 14.12 13.09 13.14 12.46 12.06 11.99 11.22 10.31 9.92 9.41 9.82 8.97
31.04 30.33 30.31 30.03 29.71 28.58 26.65 25.99 25.04 23.35 21.99 21.17 19.69 17.86 17.76 17.55 17.47 17.39 18.00 16.18 15.21 14.30 15.10 17.24 17.93 16.77 15.80 15.47 15.06 14.23 13.08 12.24 11.38 10.66 10.10 8.37 8.97 9.00 8.50 8.19 6.89 6.65 6.82 6.52
27.71 28.13 27.54 26.89 27.30 26.22 24.43 24.00 22.93 21.13 20.76 18.91 17.64 16.74 15.84 15.99 16.97 16.40 16.22 14.82 15.15 15.23 15.67 14.95 14.41 13.13 12.14 11.88 12.37 12.01 11.22 10.12 8.58 7.40 7.06 6.63 6.19 5.63 5.58 3.36 4.30 4.32 4.30 4.19
26.63 26.10 24.97 23.83 22.89 22.63 22.03 21.50 19.74 18.24 18.38 17.75 15.88 14.61 14.26 15.26 15.74 15.39 13.77 11.82 13.11 14.16 13.41 12.79 12.31 11.47 10.74 9.88 9.56 8.62 8.06 6.83 5.68 5.12 4.61 4.22 3.66 3.17 2.71 2.51 2.43 1.78 1.31 0.81
23.54 22.05 21.50 21.37 20.37 20.12 20.92 20.45 19.34 17.29 15.83 14.83 14.51 13.91 12.80 12.11 11.89 11.88 12.63 11.32 11.69 11.11 11.04 9.98 8.78 7.30 7.39 7.65 7.70 6.78 6.13 5.01 4.50 4.03 3.12 2.55 2.16 1.28 0.45 0.24 -0.54 -0.16 -0.64 -0.97
21.64 20.82 20.10 19.21 18.08 17.79 18.10 17.49 16.63 15.96 14.99 15.00 14.43 14.48 14.30 13.96 13.27 10.24 7.33 10.17 10.08 8.41 8.32 6.64 3.97 2.29 2.54 4.87 4.19 3.65 2.75 1.93 1.52 1.16 0.75 0.26 0.05 -0.47 -0.53 -1.55 -1.54 -2.50 -3.34 -3.61
20.15 19.94 19.41 19.76 19.15 17.72 15.31 16.36 16.37 15.48 14.45 13.99 13.23 13.24 11.59 9.18 9.07 9.61 8.77 6.07 5.45 6.23 5.82 4.57 2.46 0.82 1.87 2.58 1.88 1.46 1.65 1.27 0.54 0.35 -0.55 -4.96 -1.39 -1.84 -2.25 -4.19 -4.60 -4.09 -4.94 -5.51
20.45 19.85 19.24 18.00 16.67 15.76 15.85 15.85 15.02 14.54 13.68 13.18 12.80 12.24 12.00 11.68 8.65 8.55 7.73 6.23 5.86 4.49 3.21 0.22 -0.92 -1.45 1.69 2.08 1.46 0.66 0.53 0.58 -0.40 -0.52 -1.38 -1.79 -3.02 -4.19 -4.19 -5.08 -6.58 -5.39 -5.73 -5.91
19.87 18.77 18.63 18.63 17.44 16.93 15.98 15.09 12.53 12.09 10.93 8.95 9.47 9.56 9.33 8.80 7.69 7.05 5.19 4.01 3.46 1.64 1.75 0.74 0.32 0.80 1.37 0.85 0.42 -0.41 0.20 -0.80 -0.90 -1.51 -3.52 -3.78 -4.91 -4.62 -6.41 -6.64 -6.76 -6.57 -6.89 -6.90
18.12 17.82 16.59 15.77 16.43 16.13 15.08 13.48 11.72 10.73 10.24 8.81 6.76 7.63 6.63 5.83 4.47 3.47 1.53 1.32 0.36 -0.37 -0.16 0.31 1.45 0.56 0.95 0.69 -0.34 -1.55 -1.79 -1.69 -5.65 -2.99 -4.24 -5.20 -6.06 -6.33 -7.89 -8.07 -7.73 -7.76 -7.44 -7.80

GFSNGP_sfc_wetblb_096.txt.gz
Wetbulb
35.31 36.03 36.18 35.80 36.11 37.77 37.67 39.03 35.97 39.38 40.90 43.88 46.51 47.61 49.48 51.96 53.37 53.69 54.63 54.12 55.80 57.63 59.03 59.66 59.93 60.18 60.42 60.58 60.32 60.45 59.77 59.42 59.37 59.79 60.03 59.87 59.52 59.51 59.52 59.57 59.46 59.28 59.64 59.86
33.01 36.96 36.59 34.22 36.90 38.10 38.55 39.91 40.68 41.21 40.64 47.82 49.08 49.85 49.61 50.71 51.55 51.94 53.71 55.16 55.84 56.29 58.07 59.39 59.71 59.89 60.22 60.47 60.69 60.52 59.72 59.46 59.99 59.79 59.67 59.47 59.34 59.46 59.71 59.75 60.16 60.41 60.40 60.43
29.10 35.70 35.89 31.65 36.12 37.94 39.31 41.64 42.36 39.35 44.42 48.21 47.73 48.18 49.89 51.80 52.68 52.79 53.89 54.63 55.40 55.86 56.16 58.62 59.67 59.94 60.27 60.66 61.23 60.14 59.91 59.82 59.77 59.70 59.08 59.19 59.34 59.18 58.56 58.67 59.32 58.44 57.33 55.34
28.39 32.06 24.73 37.32 43.29 43.08 41.12 43.36 45.39 45.74 46.67 47.97 49.26 50.52 51.94 52.82 53.19 53.50 54.13 54.38 55.23 56.08 55.10 56.30 59.71 60.27 61.11 60.77 60.29 59.67 59.56 59.19 59.16 58.91 58.57 58.79 58.56 57.82 56.56 52.44 49.22 45.98 42.88 40.77
26.51 27.74 32.72 36.19 40.28 41.62 41.04 41.07 46.18 46.86 47.87 48.48 50.03 50.91 50.62 53.14 53.45 52.88 52.68 53.35 54.72 55.69 55.98 56.59 56.38 58.17 58.94 59.17 59.09 58.18 55.97 56.35 56.92 57.17 54.80 51.71 48.73 47.90 45.69 42.45 38.57 37.19 37.02 36.21
29.66 24.24 22.27 34.96 43.68 46.26 45.36 36.22 47.37 47.48 47.49 48.99 50.32 44.99 48.20 53.13 52.78 52.94 53.25 54.19 54.43 55.30 55.49 55.35 55.25 55.74 53.67 51.96 50.53 48.72 48.60 48.24 48.05 47.55 46.11 43.42 41.45 39.11 38.13 36.33 34.84 34.02 32.97 33.68
28.03 26.50 31.20 39.59 43.68 46.82 34.08 37.19 46.18 47.14 47.09 48.52 48.61 50.96 53.29 52.24 49.71 51.60 51.30 51.30 51.99 52.18 51.32 52.14 52.47 50.41 47.64 46.52 44.66 44.60 43.85 43.12 42.06 41.30 39.70 38.85 37.24 36.17 34.79 32.87 31.43 30.54 30.03 30.51
28.71 27.31 24.79 42.76 42.52 36.63 40.69 45.78 47.02 46.20 46.52 48.25 51.45 51.14 51.93 48.58 47.88 47.70 48.16 48.07 49.03 48.04 47.86 49.54 49.06 46.27 42.79 40.64 40.82 40.34 39.46 38.49 37.92 37.79 37.48 36.69 35.34 34.41 33.14 31.85 30.58 29.93 29.21 28.39
34.16 32.50 41.39 43.73 42.36 44.14 44.98 45.30 46.29 45.66 46.47 49.79 50.72 51.17 47.52 46.38 45.83 45.15 44.09 42.11 40.94 39.97 41.01 42.02 42.87 42.03 38.62 38.38 38.70 38.30 38.08 36.88 35.96 35.63 35.37 35.65 34.49 33.64 32.67 32.02 30.54 29.24 28.13 27.20
36.89 39.08 40.87 41.52 42.54 44.49 45.56 46.98 48.17 49.40 49.95 50.97 48.78 49.06 46.40 45.59 44.50 42.25 40.70 39.23 38.60 37.66 36.32 36.13 38.15 38.19 38.38 38.95 39.07 38.29 36.68 36.22 36.07 34.63 33.69 33.25 32.70 32.21 31.98 31.52 30.29 29.43 28.48 27.46
37.28 39.65 40.93 42.35 44.45 45.09 45.95 48.34 47.05 47.73 50.33 50.93 48.15 46.31 43.74 41.76 40.65 39.66 37.32 37.35 37.09 36.12 35.87 35.49 36.90 38.08 40.30 40.84 40.03 37.30 35.65 35.19 34.23 33.01 31.41 29.64 29.70 30.33 29.36 29.63 31.52 31.11 29.82 29.90
35.22 41.51 41.07 41.20 44.29 46.08 45.46 47.37 46.70 46.14 50.59 50.18 47.19 43.61 41.01 36.94 36.04 35.65 34.78 34.93 34.26 34.77 34.74 34.88 36.14 36.98 38.52 39.83 38.85 36.43 34.52 34.49 34.34 33.94 32.93 30.85 28.47 26.90 28.21 28.02 27.54 27.39 27.49 27.68
41.24 44.41 44.43 44.90 45.35 46.81 46.80 45.64 44.14 45.15 47.61 43.50 41.15 38.90 35.97 32.93 32.01 31.70 32.26 32.34 31.36 31.41 31.91 31.85 32.52 32.30 34.69 37.10 34.87 33.44 32.04 31.79 32.57 32.41 32.46 30.52 28.94 27.25 23.69 24.16 24.21 24.52 24.15 23.87
44.61 44.27 42.30 44.35 43.43 46.06 45.38 43.13 41.73 41.06 40.96 39.42 36.63 34.30 32.92 32.03 30.89 28.45 27.79 28.58 28.82 28.63 27.91 28.69 27.83 27.30 29.17 30.82 30.16 29.47 30.09 29.53 30.91 29.93 29.53 29.23 28.50 27.67 27.06 25.02 22.70 21.10 20.08 20.09
44.06 45.74 45.07 45.57 45.51 44.35 44.64 43.74 40.37 37.60 36.94 34.93 33.39 30.42 29.49 27.59 25.57 25.56 25.82 25.95 25.28 24.32 24.13 23.68 23.09 24.06 27.93 29.04 29.20 29.40 28.71 27.48 27.49 27.01 27.00 26.57 26.27 25.19 24.52 23.58 22.35 21.28 21.19 19.93
44.71 44.93 45.08 44.49 45.55 43.29 41.49 41.16 38.27 33.94 32.06 30.22 28.95 27.23 25.93 25.46 24.37 23.95 24.84 25.16 22.21 20.55 22.17 22.48 23.47 25.15 26.61 26.74 25.45 25.04 24.10 23.72 24.29 24.30 23.87 23.17 23.03 22.23 21.37 20.66 19.45 18.17 16.58 15.71
41.55 41.57 42.85 43.49 42.06 39.73 39.96 38.90 36.50 31.00 28.31 26.82 25.05 24.54 22.81 21.09 19.82 18.69 18.80 20.63 21.15 21.15 22.61 23.07 23.28 24.90 25.23 25.28 24.92 23.47 21.75 20.72 20.75 21.51 20.53 20.36 20.15 19.38 19.06 18.42 17.57 16.78 13.93 12.10
40.78 41.40 41.77 41.83 41.96 37.79 35.62 35.15 33.17 29.77 26.43 24.11 23.18 22.51 20.90 18.91 16.94 16.83 17.58 18.43 18.15 18.69 19.95 20.32 21.50 21.78 21.65 21.93 22.24 21.50 20.50 19.71 19.14 18.54 18.55 17.81 17.30 17.49 16.74 15.86 15.30 14.57 14.58 12.38
36.34 36.46 36.56 36.99 38.82 36.34 33.75 31.16 28.47 25.78 23.90 22.85 20.73 19.05 18.78 18.03 17.60 17.32 18.37 17.44 17.27 15.98 16.77 19.11 19.59 19.44 18.67 19.25 20.08 20.03 18.85 17.63 16.66 15.67 15.28 14.41 15.32 15.26 14.60 14.28 13.35 12.90 13.10 12.18
30.71 32.86 33.57 33.36 33.22 32.26 27.47 26.00 24.57 22.92 22.32 20.59 18.97 18.02 17.64 17.69 18.19 17.83 18.69 16.86 16.95 16.65 17.78 17.71 17.66 17.14 17.06 17.21 17.38 17.89 17.00 16.12 14.43 14.03 14.09 13.62 13.52 12.79 11.18 8.89 11.03 11.38 11.36 10.79
27.86 28.31 27.80 27.22 26.02 25.40 24.34 23.30 21.14 19.96 20.33 19.27 16.61 15.48 15.36 16.81 17.45 17.43 16.06 13.82 15.65 16.96 16.66 16.13 16.18 15.86 15.70 15.66 16.05 15.66 14.77 13.79 13.16 12.75 12.27 11.77 11.54 11.07 10.73 10.45 10.46 10.07 9.47 9.26
24.08 23.10 22.78 22.45 21.77 21.10 21.70 21.40 19.95 18.83 17.99 16.80 16.00 15.27 14.19 14.01 14.37 14.39 15.72 13.80 14.95 14.37 14.98 14.52 13.74 12.24 13.02 13.25 14.25 13.82 12.94 12.26 11.81 11.91 11.20 10.82 10.52 9.89 9.26 9.04 8.07 8.10 8.09 7.75
21.32 20.95 20.53 19.22 17.67 17.47 17.65 17.47 17.31 17.02 16.00 16.34 16.21 16.48 15.72 15.34 14.78 11.99 9.75 13.23 14.03 12.44 12.72 10.60 8.06 8.64 10.09 12.52 12.09 11.23 10.46 9.75 9.32 9.15 9.05 8.77 8.59 8.29 7.89 6.51 7.22 6.90 6.26 5.16
21.85 21.00 19.96 19.76 19.77 18.93 16.49 17.09 17.02 16.47 15.43 15.26 14.80 15.15 14.11 12.05 11.63 12.18 11.71 10.53 10.08 10.89 10.26 8.74 7.39 7.56 9.03 10.83 10.50 9.98 10.10 9.45 9.09 8.60 7.12 4.96 7.63 6.86 6.84 5.22 4.78 5.54 4.48 3.21
21.08 20.52 19.66 18.60 17.33 16.80 16.62 16.17 15.15 14.86 14.66 13.91 13.36 13.53 13.73 13.95 11.41 11.48 11.24 10.34 9.47 9.46 7.92 4.70 5.79 7.48 10.22 9.95 9.10 8.75 8.77 8.61 8.09 7.88 7.20 6.56 6.40 5.59 5.91 5.18 3.34 3.03 2.18 2.77
21.18 20.14 19.54 19.11 18.28 17.43 16.89 15.98 13.70 13.34 12.53 10.99 11.09 11.94 11.82 11.32 10.65 10.56 10.41 8.98 9.04 8.15 8.29 8.41 8.74 9.05 8.90 8.27 7.83 7.61 7.55 6.86 7.00 5.49 4.88 5.60 4.60 4.74 3.16 2.26 1.81 2.29 2.15 1.80
18.86 18.21 17.49 17.13 17.46 16.49 15.94 14.99 13.55 12.21 12.17 11.84 10.68 11.23 11.08 10.38 9.47 9.04 8.31 9.23 8.59 8.06 8.09 8.77 8.92 7.86 8.20 8.12 7.20 6.69 7.17 5.90 0.86 3.94 5.13 4.69 3.82 3.74 1.88 1.20 1.54 1.33 0.96 0.43

GFSNGP_sfc_wetblb_099.txt.gz
Wetbulb
36.48 37.34 37.74 36.76 37.31 38.64 38.11 40.11 37.05 40.64 41.22 45.41 48.00 48.84 49.86 51.53 51.63 52.55 54.38 55.64 57.61 59.13 60.15 61.27 61.69 61.88 61.83 61.72 60.89 60.60 60.23 60.09 60.19 61.04 61.60 61.23 61.04 61.19 61.05 60.83 60.68 60.82 60.49 60.34
33.52 37.13 37.35 35.55 37.97 38.42 38.52 39.46 40.54 41.67 41.62 47.56 49.08 49.99 49.99 50.73 51.10 51.33 52.59 54.32 56.21 57.94 59.58 60.24 60.93 61.66 61.72 61.88 61.72 61.67 60.80 60.37 60.82 60.81 60.78 60.66 60.86 60.80 60.43 60.41 60.40 60.21 59.64 59.82
29.24 35.61 35.54 32.27 36.79 37.81 38.50 39.92 40.16 37.81 43.25 47.45 48.01 48.80 49.08 50.10 50.77 50.97 53.31 54.07 55.42 56.70 58.16 59.93 61.34 61.66 61.65 62.00 62.51 61.57 61.19 61.13 61.02 60.90 60.34 60.46 60.46 60.08 59.76 59.44 58.67 50.07 46.03 43.20
29.55 32.57 24.27 37.14 43.48 43.32 41.71 42.27 42.21 41.84 43.02 47.03 48.71 50.77 51.35 51.86 51.51 52.11 53.87 55.03 55.88 56.77 57.81 58.93 61.61 62.23 62.28 62.47 62.11 61.44 61.02 61.02 61.12 60.90 60.55 60.34 59.13 53.40 47.57 44.45 41.47 39.65 37.37 36.48
27.05 28.51 33.27 36.16 39.76 40.71 40.58 41.10 46.25 46.04 47.46 48.69 51.72 51.91 51.19 53.16 53.53 53.85 55.20 56.09 56.15 57.48 57.79 58.24 59.38 61.67 61.86 61.79 61.66 60.96 60.47 60.49 60.56 60.68 55.79 50.34 45.57 42.12 39.66 37.23 35.70 35.24 35.47 34.73
30.03 25.05 23.45 36.03 43.04 45.09 46.10 36.62 47.20 47.15 45.89 47.89 49.88 45.82 49.13 53.89 54.69 55.18 55.85 56.47 56.87 57.42 58.40 58.32 59.23 60.58 60.75 59.80 56.07 50.53 49.51 48.16 47.58 46.44 43.29 39.84 37.94 36.11 35.33 34.24 33.57 33.02 32.51 33.14
29.74 27.97 32.60 40.26 42.50 45.35 34.14 36.94 45.89 45.99 47.27 46.57 46.45 48.67 52.29 55.16 53.52 54.89 54.81 54.81 55.85 56.18 56.45 55.34 54.87 52.08 47.93 45.56 43.40 43.24 42.38 41.05 39.87 39.01 37.64 36.45 35.13 34.19 32.92 31.96 31.01 30.24 29.72 30.49
30.54 28.16 26.50 42.69 42.40 36.50 41.86 45.34 45.87 46.91 48.12 48.23 47.63 48.33 52.66 50.61 49.43 50.25 49.86 50.37 51.76 51.24 49.71 48.95 47.97 45.58 41.75 39.86 40.37 39.82 38.78 37.91 37.35 36.80 36.19 35.06 33.84 33.24 32.43 31.29 29.67 28.99 28.59 28.33
34.68 34.99 41.63 43.92 43.74 45.23 45.45 43.01 45.89 46.12 48.45 47.79 47.21 48.03 48.51 46.20 45.91 44.98 43.90 43.46 43.82 42.99 41.91 42.22 42.32 40.78 37.84 38.21 38.68 37.67 36.34 35.67 35.63 35.73 35.52 35.26 33.76 32.78 31.86 31.48 30.35 29.59 29.37 28.81
37.55 40.34 41.73 43.52 45.17 43.24 43.92 43.77 46.00 48.32 48.57 49.01 47.57 49.26 46.97 45.29 43.43 41.83 41.08 40.32 39.91 38.67 37.41 37.36 38.53 39.01 38.76 38.76 38.47 36.98 35.30 34.75 34.68 33.89 32.94 32.60 32.45 33.24 33.57 32.67 31.58 30.72 30.20 28.68
38.30 40.82 42.51 42.85 44.38 44.19 44.24 46.51 46.41 48.19 47.40 49.59 49.83 49.26 47.40 43.24 40.79 39.01 38.10 37.98 37.79 36.76 36.73 37.59 38.75 38.76 39.40 38.89 38.21 35.69 34.90 34.23 32.62 31.67 29.68 29.31 29.70 29.84 27.86 28.97 31.41 29.32 28.43 28.28
35.95 41.81 41.56 42.80 45.11 46.15 45.34 45.85 47.48 46.47 49.40 49.04 49.02 45.73 41.63 37.05 37.32 36.68 35.46 36.49 35.66 35.84 36.67 38.10 38.61 38.33 39.00 40.15 38.79 37.49 35.88 34.33 32.58 31.23 29.92 27.76 26.16 25.41 26.73 26.42 25.97 26.19 26.13 25.17
40.99 44.61 44.43 45.15 46.34 47.13 46.26 47.36 46.03 46.66 46.97 43.55 40.55 39.19 35.62 32.79 32.49 32.08 32.07 32.67 32.74 33.16 33.62 35.09 35.82 35.51 37.64 38.40 37.45 35.73 33.78 33.39 32.91 32.01 30.64 28.39 26.92 24.44 21.07 22.74 23.94 23.17 22.79 22.19
45.20 44.92 43.08 44.97 44.32 47.08 47.26 46.77 44.64 44.06 42.09 38.05 34.95 33.95 32.51 30.65 29.16 27.04 26.02 26.23 26.68 27.79 28.84 29.19 29.08 29.59 31.73 32.87 32.70 31.91 32.19 31.65 32.56 32.04 31.39 30.72 29.71 28.63 27.40 24.51 21.73 19.58 20.07 19.98
44.75 46.09 46.12 47.03 46.42 46.11 46.90 46.27 43.56 40.96 36.87 33.08 32.00 29.26 28.05 26.06 24.81 24.85 25.29 25.36 24.46 23.94 24.00 25.09 25.97 27.12 30.07 30.55 30.24 30.10 29.58 29.06 29.13 29.06 28.48 28.25 28.29 27.22 26.30 24.99 22.66 21.82 21.54 20.83
45.17 45.63 46.13 45.74 45.60 46.47 45.47 45.44 43.26 37.96 33.76 30.87 28.87 27.75 26.31 25.11 23.66 23.54 24.68 25.85 23.37 22.37 23.76 24.21 24.56 25.64 27.35 27.60 27.04 27.08 26.91 26.70 26.87 26.81 26.16 25.03 24.76 23.59 22.18 21.63 20.17 18.40 16.53 16.11
41.94 41.13 43.41 45.00 45.05 44.42 43.93 43.92 42.57 37.41 31.85 28.43 26.36 24.72 22.21 20.78 20.41 20.25 21.09 22.35 23.04 23.48 24.44 24.50 24.31 26.87 27.40 27.18 26.15 25.64 24.82 23.81 24.21 23.85 23.18 22.60 22.25 21.66 21.35 20.43 19.05 16.59 13.49 12.90
42.78 42.76 43.83 43.93 43.49 43.61 41.60 40.37 36.54 32.26 28.25 25.64 23.77 22.73 21.59 19.83 18.19 18.35 18.74 19.97 19.88 20.08 21.20 22.08 22.72 23.42 23.96 23.64 24.08 24.44 23.44 22.17 21.59 21.00 20.86 19.78 19.26 19.38 19.09 18.52 17.93 17.09 16.63 13.90
38.20 38.08 40.19 40.14 42.41 43.05 40.47 36.94 31.80 27.72 24.89 23.36 20.93 19.23 19.43 18.95 18.76 19.08 20.16 19.55 18.46 16.95 18.28 20.46 21.44 21.51 21.05 21.71 22.20 21.63 20.61 19.63 18.83 18.49 18.46 17.96 18.25 18.15 17.82 17.14 16.39 16.06 15.90 15.04
32.79 33.33 34.82 35.98 37.10 37.65 32.65 29.22 27.08 25.02 23.39 21.53 19.61 18.75 18.31 18.74 19.22 18.32 18.22 16.69 17.47 17.71 19.11 19.45 19.43 18.93 19.59 20.25 20.87 20.43 19.73 18.88 18.14 17.76 17.85 17.37 16.46 14.95 13.57 12.73 14.86 15.10 14.88 14.25
29.09 29.11 28.49 27.92 27.37 27.38 27.20 26.12 23.71 21.71 21.86 21.31 17.99 16.68 16.45 17.62 17.75 18.24 16.24 14.46 16.46 18.60 19.23 18.96 19.19 18.95 19.31 19.52 20.02 19.72 19.15 18.02 17.40 16.66 16.02 15.48 15.43 15.14 14.81 14.65 14.30 13.69 13.06 12.88
26.17 25.09 24.37 23.52 22.76 22.66 23.51 23.05 21.55 19.92 18.81 18.24 18.06 17.20 15.89 14.88 15.35 16.03 16.43 14.35 15.62 16.56 16.84 16.57 16.41 16.25 17.29 17.76 18.50 18.02 17.28 16.75 16.35 16.14 15.61 15.60 14.94 14.14 13.30 12.98 12.03 11.85 11.85 11.19
24.22 22.89 21.25 19.39 18.49 18.50 19.44 18.85 18.54 18.25 17.13 17.19 17.03 17.05 16.51 16.61 16.60 14.12 11.22 14.48 14.50 13.64 13.75 13.18 12.99 13.79 14.89 17.14 16.68 15.79 14.93 14.39 14.03 13.89 13.63 13.39 13.18 12.46 11.89 9.55 11.01 10.82 9.69 8.84
22.46 21.39 20.07 20.24 19.89 18.39 16.52 17.48 17.84 17.47 16.62 16.65 16.31 17.05 15.39 13.41 13.57 14.03 13.72 12.50 12.03 12.41 12.14 11.94 12.31 12.99 14.42 15.76 15.39 14.84 14.28 13.78 13.34 12.56 11.22 10.71 11.85 10.81 10.46 8.83 8.40 9.44 8.40 7.46
22.79 22.25 21.17 20.11 18.19 17.73 17.23 17.28 16.56 16.25 15.73 15.16 15.19 15.58 15.20 15.18 13.23 12.96 12.06 11.39 10.63 9.97 9.75 10.06 11.64 12.65 14.53 14.54 13.81 13.36 13.27 12.65 12.40 12.30 11.42 10.57 10.21 9.69 9.51 8.79 7.62 6.69 6.15 7.05
23.38 22.13 21.94 20.77 20.03 18.74 18.81 17.80 15.05 15.09 14.12 12.37 12.76 13.69 13.66 13.33 13.26 13.18 11.92 11.37 11.48 11.65 12.29 12.68 12.78 12.91 12.79 12.65 12.15 11.76 11.74 10.90 10.39 8.75 9.32 9.55 8.85 9.02 7.59 6.55 6.44 6.76 6.48 5.79
21.50 20.75 19.66 19.06 19.29 18.93 18.29 17.05 15.71 14.59 14.72 13.09 11.76 12.71 12.55 11.93 11.41 11.39 11.58 11.68 11.20 11.51 12.02 12.33 12.32 11.88 12.23 11.94 11.14 10.94 10.68 8.37 3.91 7.82 8.89 8.96 8.44 8.37 6.68 5.86 5.88 5.35 4.95 4.45

GFSNGP_sfc_wetblb_105.txt.gz
Wetbulb
30.89 31.97 32.17 31.19 31.69 33.26 32.07 34.10 31.67 34.24 33.54 39.91 44.31 45.54 47.15 48.18 49.30 47.96 48.99 48.83 50.56 52.54 54.52 57.31 57.28 57.50 57.77 57.70 57.14 57.90 57.31 56.76 56.09 56.54 56.05 56.13 55.69 55.97 57.04 57.26 57.15 57.21 56.56 57.37
26.95 30.88 30.80 28.98 31.99 33.00 33.47 34.47 34.72 35.52 35.44 42.53 43.31 45.15 45.10 47.19 47.40 47.48 48.65 49.87 50.34 50.12 53.83 56.28 57.66 57.48 57.97 57.66 57.72 57.85 57.08 56.83 57.17 57.17 57.17 56.47 56.00 55.82 55.74 56.16 56.69 53.55 45.81 45.30
22.80 29.32 29.20 24.20 30.30 32.46 33.50 35.58 35.47 31.44 36.69 41.67 40.63 41.72 46.01 48.81 49.96 50.46 51.30 52.22 52.53 50.77 51.70 54.11 58.15 58.58 57.71 57.57 58.24 57.11 56.93 57.33 57.44 57.56 57.30 56.99 57.09 56.92 56.23 48.08 43.29 40.81 38.84 37.60
23.18 26.73 17.93 30.04 37.35 37.89 35.48 37.06 39.57 41.59 42.37 43.51 43.88 46.78 49.13 51.11 49.59 49.73 50.78 51.40 52.34 53.32 53.41 54.32 59.25 58.49 58.30 58.22 57.52 56.88 56.24 57.02 57.78 57.87 57.50 57.02 52.08 44.40 41.40 39.74 37.82 36.28 35.22 34.83
23.73 23.75 28.03 31.67 36.70 38.19 37.04 36.47 42.16 41.10 42.10 43.78 44.66 46.45 45.88 49.12 51.06 49.67 49.93 50.85 51.94 51.65 50.63 50.05 52.41 58.75 58.46 57.74 57.13 56.59 56.18 56.26 56.96 57.57 46.64 43.55 39.97 38.18 37.27 35.59 34.41 33.85 33.95 33.32
25.02 21.57 16.36 31.52 38.51 40.83 39.69 30.77 41.68 42.76 41.77 42.37 43.00 37.76 42.49 48.08 49.35 48.95 49.00 48.54 50.21 49.24 48.24 46.89 45.66 54.82 55.82 54.94 51.67 46.09 43.96 43.40 44.14 42.95 40.50 38.00 36.20 34.76 34.11 33.28 32.22 32.18 31.71 32.66
24.01 21.00 27.63 36.68 40.34 42.13 27.65 30.66 41.83 42.11 42.77 42.38 39.41 41.70 45.81 48.74 47.29 46.97 45.90 45.14 46.25 44.32 42.71 43.98 43.77 44.01 42.17 41.25 40.56 42.10 41.72 40.84 38.62 37.80 36.00 35.12 34.29 33.85 32.26 30.87 30.12 29.33 28.98 29.66
24.80 19.02 19.58 40.05 40.30 33.66 37.83 40.34 41.22 41.70 42.09 42.31 43.02 45.10 47.42 47.01 44.00 42.92 42.07 42.24 42.39 40.50 39.73 41.61 40.90 42.28 40.35 38.53 39.34 40.26 39.12 38.55 37.15 35.89 35.11 34.04 32.58 31.82 30.91 29.93 28.73 28.21 27.93 27.95
26.86 26.67 38.84 41.56 40.23 43.15 41.84 39.88 40.39 40.25 41.67 42.63 42.72 46.08 46.92 42.57 40.86 40.41 39.96 40.02 40.32 39.47 38.83 38.76 39.10 39.33 38.62 38.22 39.32 39.00 37.79 36.23 35.47 35.01 34.20 32.86 31.51 30.72 29.96 30.19 29.03 28.11 27.63 26.05
33.92 37.35 38.57 41.51 43.30 43.07 40.92 39.69 40.95 42.53 42.29 44.74 45.14 46.06 43.37 39.90 38.70 37.29 37.56 37.85 38.54 37.83 36.69 36.06 36.60 36.17 36.00 36.26 36.08 34.61 33.42 32.40 32.19 31.95 31.32 31.83 32.09 31.36 29.78 28.31 26.87 25.74 24.10 21.93
34.74 38.07 40.53 41.74 42.42 42.75 42.33 42.22 42.26 45.48 44.52 44.18 43.66 39.81 39.21 37.08 35.90 36.01 36.44 37.74 37.82 36.53 35.53 34.83 35.22 34.89 35.06 34.42 33.21 30.83 29.74 28.81 27.69 27.10 26.35 25.96 25.83 25.59 24.53 25.73 26.13 23.76 23.11 22.70
33.07 38.96 38.72 39.81 42.33 43.61 41.96 43.34 45.21 45.06 39.86 39.33 39.18 37.11 35.21 32.71 32.19 32.01 31.09 31.65 34.17 35.41 35.15 35.16 34.76 33.73 33.59 33.04 31.70 29.66 27.43 26.55 25.44 24.58 23.74 23.04 22.07 22.41 26.16 25.33 25.06 24.98 24.50 23.31
37.48 42.38 41.84 42.07 43.40 44.54 43.89 42.31 40.77 38.81 38.17 35.26 34.16 32.78 30.86 28.54 27.82 27.81 27.63 28.07 28.72 29.49 30.58 31.26 32.91 32.42 32.18 31.39 30.38 28.26 26.05 25.36 24.44 23.49 22.43 21.26 20.44 19.39 17.80 22.09 24.05 23.90 23.95 24.05
41.37 41.09 39.91 42.21 41.15 44.50 41.61 38.78 37.59 34.84 34.18 32.83 30.44 29.36 27.46 25.44 25.39 25.16 25.33 26.67 27.28 27.37 27.82 28.50 29.10 29.96 31.69 31.40 29.73 28.00 26.80 25.67 24.31 22.75 21.39 20.30 19.01 18.64 18.48 17.16 16.40 18.15 21.95 21.79
40.19 43.36 42.44 43.13 43.73 44.42 42.76 39.40 34.95 31.90 30.11 28.14 27.72 26.31 25.88 24.02 23.53 23.90 25.42 26.31 26.51 25.91 25.83 26.15 26.12 26.71 29.46 29.99 28.95 28.39 28.14 27.50 26.96 26.42 25.40 23.57 21.89 19.83 18.86 18.15 17.65 17.76 18.65 19.29
41.57 41.83 41.86 41.53 40.62 42.43 42.42 37.71 32.70 29.78 27.78 25.82 24.27 24.41 24.38 24.51 23.87 23.74 24.44 25.52 23.36 22.33 23.67 23.68 23.36 24.85 26.24 26.41 25.81 25.45 24.95 24.85 24.13 23.17 22.34 20.97 19.34 17.14 15.34 14.26 13.70 12.87 12.47 13.51
35.86 35.38 36.85 37.00 37.86 38.64 39.42 38.73 33.10 29.12 26.25 24.75 23.83 23.76 22.52 21.18 20.45 20.15 20.31 21.43 21.73 21.73 22.72 22.62 22.43 24.57 25.22 25.13 24.38 23.53 23.22 22.73 22.23 21.81 20.57 19.29 17.30 14.63 13.18 12.48 11.83 12.02 11.87 13.52
34.76 35.08 35.56 34.77 35.05 36.14 34.39 31.37 28.97 26.65 24.54 23.50 22.54 21.44 20.42 19.21 18.12 18.36 18.98 19.89 19.84 19.65 21.01 22.19 22.85 23.08 23.17 23.32 22.71 21.48 20.56 20.03 19.65 18.90 18.79 17.98 17.46 16.09 13.48 12.37 11.89 11.28 10.98 11.05
31.50 31.59 31.58 31.16 32.32 30.58 28.35 25.91 24.26 23.52 22.95 21.71 20.19 18.90 18.83 18.36 18.28 18.08 18.58 17.91 17.47 17.00 19.18 21.80 22.95 21.54 20.79 21.14 20.30 19.42 18.55 17.84 17.25 16.79 16.39 15.54 14.41 13.81 12.40 11.46 10.60 9.76 9.37 8.65
27.07 27.72 27.85 27.21 28.46 27.97 25.55 24.84 23.68 21.63 21.25 20.37 19.73 18.42 16.58 16.61 16.90 16.43 16.48 15.19 17.13 18.32 20.21 20.08 19.98 19.64 20.02 20.30 19.96 18.47 17.04 15.49 14.23 12.71 12.25 11.39 10.77 10.31 10.30 8.82 9.07 6.88 3.46 2.43
24.18 24.14 24.23 23.96 23.38 23.35 22.64 22.32 20.73 19.47 20.28 19.22 17.06 15.84 15.22 16.12 16.58 16.21 14.69 13.93 17.54 19.59 19.75 19.56 19.20 18.43 18.51 18.12 17.64 16.78 15.38 14.14 13.19 12.95 12.18 11.45 10.71 9.71 8.09 5.87 6.10 4.46 1.59 0.74
20.83 16.93 17.77 20.22 19.82 19.60 20.65 20.81 19.81 18.61 17.84 17.25 16.48 15.85 14.59 13.78 13.70 13.35 14.70 13.77 15.90 16.74 17.53 17.75 17.77 17.35 17.32 17.40 16.86 15.78 15.07 14.64 13.74 13.08 11.08 9.85 7.77 5.58 3.52 4.13 3.21 1.05 -3.00 -6.69
13.36 15.41 13.98 14.62 17.17 17.11 17.84 18.00 17.54 17.08 15.71 15.31 14.75 14.58 14.05 14.11 14.03 11.24 9.34 14.46 15.36 15.84 15.95 15.71 15.67 15.33 15.17 14.90 14.10 13.25 12.68 11.54 10.81 9.97 8.62 7.76 5.35 2.08 1.31 -0.14 -1.53 -3.38 -7.35 -7.41
13.85 14.46 16.84 18.54 17.27 16.46 14.38 15.11 15.53 15.21 14.64 14.13 13.59 13.66 12.41 9.99 10.22 12.69 13.52 13.46 13.68 14.54 14.96 15.32 15.26 15.15 14.20 13.40 12.52 11.11 10.61 9.66 8.76 7.93 7.05 2.92 1.51 -1.36 -1.71 -2.48 -3.19 -8.73 -11.22 -6.16
19.17 17.88 16.83 16.11 14.65 13.64 14.00 14.61 13.96 13.69 13.33 13.03 13.04 13.50 12.82 12.42 9.42 10.94 12.14 12.82 14.38 13.19 13.26 14.02 13.71 12.08 10.49 9.46 8.39 7.26 7.40 9.32 7.76 6.52 5.48 4.22 1.75 -1.45 -6.14 -8.73 -11.25 -10.13 -7.05 -10.12
19.85 18.83 17.87 17.17 16.24 16.33 16.27 14.94 11.83 11.94 11.10 9.62 10.20 10.73 10.76 11.52 11.49 11.36 11.64 12.04 12.46 12.44 11.95 12.19 11.82 11.45 10.57 9.52 8.90 8.07 6.74 5.88 5.53 4.85 2.28 1.20 -1.19 -3.64 -9.59 -10.12 -10.12 -11.39 -13.75 -14.48
18.35 18.84 17.91 17.10 16.76 15.57 14.44 13.04 11.29 10.55 11.22 10.34 9.09 10.61 11.19 11.58 11.10 10.73 10.63 10.87 10.95 10.11 9.63 10.67 11.29 11.03 10.24 8.90 6.55 4.54 3.22 2.52 2.39 2.94 -0.13 -3.18 -4.16 -10.67 -12.66 -12.84 -13.03 -13.03 -13.39 -13.39

GFSNGP_sfc_wetblb_108.txt.gz
Wetbulb
29.05 29.84 29.53 28.43 28.46 29.48 28.46 30.59 27.70 30.41 31.67 36.56 39.48 42.87 46.06 46.87 46.82 47.23 48.06 50.91 51.71 53.88 54.65 55.92 56.02 55.72 55.90 55.79 55.60 55.77 55.82 56.06 56.19 55.69 55.09 54.06 54.63 55.07 55.52 56.27 56.39 56.84 56.37 56.22
25.82 29.45 29.44 26.98 29.27 29.55 30.24 31.09 31.23 32.85 32.99 40.24 43.75 44.17 45.41 46.59 48.88 49.38 50.24 51.13 51.66 52.54 53.65 56.71 56.84 56.60 56.68 56.32 55.84 56.17 55.55 55.46 55.63 56.30 56.09 54.69 54.38 54.28 53.77 54.53 55.44 52.06 49.59 45.23
22.07 28.29 27.94 23.16 27.57 29.21 30.49 32.97 32.86 28.78 35.37 42.64 42.81 44.88 46.27 47.72 48.49 48.52 48.82 49.27 50.54 50.54 50.32 49.84 57.06 57.66 56.80 56.67 56.75 56.36 55.93 55.93 55.84 55.70 55.41 55.07 55.07 55.05 53.06 45.64 42.80 40.47 39.15 38.14
22.05 25.07 15.28 27.55 35.05 35.06 32.65 34.42 37.46 39.24 40.90 42.62 42.38 46.54 47.14 48.93 48.11 47.67 47.82 47.99 49.18 48.60 47.71 47.48 47.53 57.35 57.78 57.65 57.08 56.49 56.15 56.26 56.23 56.10 55.54 55.48 51.69 44.47 41.54 39.85 37.78 36.27 35.03 34.63
16.35 19.75 25.31 28.42 34.18 34.82 32.76 32.54 40.71 40.02 41.16 42.12 43.42 45.09 43.82 48.50 49.00 47.56 46.57 47.14 47.49 46.52 45.67 45.20 45.49 50.68 57.72 56.98 57.12 56.52 55.75 56.05 56.37 56.23 49.53 44.49 40.87 38.72 37.42 35.75 34.74 34.00 33.73 32.91
21.58 17.86 18.07 29.59 36.78 40.69 38.81 29.47 40.85 41.74 41.03 41.03 41.58 35.48 38.42 47.04 47.63 45.78 44.92 44.47 44.34 43.43 43.48 42.99 43.84 46.03 53.97 53.42 55.14 48.95 46.58 46.90 49.04 45.52 42.66 39.08 37.00 35.74 35.28 34.30 33.14 32.97 32.36 32.69
22.50 16.54 24.57 34.77 37.78 39.69 27.84 31.10 41.40 41.08 41.36 40.29 38.08 40.27 43.47 46.79 44.28 43.10 41.91 41.37 42.03 40.90 39.98 40.84 42.67 43.41 41.68 42.16 40.87 44.13 43.20 42.76 42.25 40.69 37.78 36.11 34.69 34.03 32.71 31.65 31.07 30.73 30.32 31.10
24.16 16.95 18.38 39.00 38.69 32.71 35.97 38.74 39.56 39.46 39.90 39.94 41.41 44.62 45.25 42.38 40.58 39.69 38.46 38.81 39.34 38.70 38.37 39.56 41.65 42.23 39.87 39.57 41.39 41.77 40.50 38.60 37.06 36.09 35.65 34.49 32.86 32.01 31.41 30.45 29.23 28.46 28.12 28.13
24.68 25.57 36.35 39.98 39.39 41.61 40.92 38.81 38.71 38.32 39.07 41.67 43.57 44.49 42.08 39.32 37.72 37.30 37.70 37.54 38.14 37.21 36.69 36.91 37.94 39.37 38.22 39.69 39.54 38.31 37.20 36.12 34.74 33.94 33.07 32.72 31.46 31.27 29.49 29.37 28.15 27.20 25.98 24.32
31.56 35.11 36.67 40.31 42.34 42.90 42.60 38.70 39.14 40.93 42.94 43.99 42.16 42.96 39.64 36.91 36.29 36.34 37.22 37.43 37.64 36.39 34.76 34.17 35.09 35.26 35.62 36.25 36.24 35.18 33.96 33.19 33.29 32.51 32.09 31.37 30.74 30.31 28.70 27.14 25.52 24.64 23.33 22.02
33.71 35.15 37.57 40.00 42.08 42.38 41.27 41.16 40.62 42.36 41.85 41.91 41.10 37.77 36.68 34.51 34.17 33.49 33.25 36.41 36.42 34.61 33.47 32.42 33.00 32.70 33.01 32.79 32.31 30.37 29.67 28.98 27.81 27.15 25.79 25.22 25.91 25.56 25.26 25.84 25.09 22.65 22.14 22.39
30.15 37.28 37.58 38.26 41.71 42.41 40.89 41.46 43.23 39.95 36.42 35.62 36.01 33.49 31.90 29.57 29.68 30.07 30.65 31.86 32.21 33.93 33.20 32.55 31.96 31.06 31.19 31.34 30.01 27.92 26.38 25.50 24.83 24.16 23.56 23.09 22.64 22.81 26.80 26.29 26.58 26.28 25.54 24.15
35.72 40.68 39.90 40.88 42.40 43.24 40.26 38.77 37.68 36.02 35.04 32.73 31.56 30.34 28.68 27.43 27.43 27.85 27.91 28.63 29.38 30.40 31.06 30.50 29.53 28.94 28.90 28.52 27.82 26.25 24.31 23.91 23.17 22.81 22.02 21.33 21.09 20.57 19.70 24.14 26.37 26.13 25.97 25.30
40.74 40.22 39.55 40.91 40.01 40.16 37.77 34.79 34.17 32.31 31.51 30.36 28.83 27.97 26.98 25.55 23.75 24.94 25.36 26.94 28.54 28.82 29.14 29.29 28.37 27.33 27.94 27.38 25.76 24.43 23.40 22.84 21.58 20.72 20.19 19.78 19.60 19.28 19.08 18.27 17.77 19.48 24.03 24.28
40.41 41.82 41.35 41.35 42.09 39.95 38.89 35.82 31.60 29.02 27.90 26.71 26.98 25.74 25.76 23.97 23.07 23.30 24.45 24.96 25.36 25.06 25.30 25.93 26.09 27.29 29.05 27.61 25.70 24.28 23.18 22.42 21.90 21.01 20.24 19.78 19.74 19.59 19.48 18.79 17.66 16.89 17.02 18.19
38.18 37.52 37.94 37.77 38.33 41.17 38.56 34.69 30.11 27.68 26.13 25.39 24.73 24.46 23.95 23.08 22.25 22.24 22.64 23.39 22.01 20.69 22.40 23.03 23.42 25.22 26.37 26.14 25.11 24.50 24.05 23.77 22.88 21.64 20.41 18.94 18.27 17.10 16.32 15.74 15.36 14.86 12.87 11.44
31.72 30.85 32.21 32.32 34.33 36.28 33.81 33.83 30.24 26.71 25.35 24.57 24.11 23.26 22.31 21.00 20.34 19.69 19.81 21.18 21.34 21.25 22.03 22.29 22.45 24.38 24.90 25.04 24.49 23.63 22.94 22.26 21.07 19.80 17.81 16.57 15.70 15.02 14.57 14.12 13.27 12.52 11.93 12.06
30.07 31.22 30.61 30.59 30.62 32.74 29.27 28.05 26.57 25.08 24.12 23.71 22.36 21.48 20.00 18.99 17.70 17.80 18.56 19.59 19.52 19.47 20.30 21.30 22.34 22.98 23.11 23.06 22.84 22.09 21.29 20.32 19.38 17.26 15.78 14.67 14.33 14.50 13.35 12.55 11.68 10.33 9.69 9.25
28.29 27.15 27.80 28.03 29.87 28.38 27.57 26.09 25.12 24.17 22.65 21.88 20.16 18.44 18.35 17.94 17.93 17.91 18.81 18.34 17.83 17.24 19.02 21.70 22.80 21.32 21.01 21.57 21.02 20.20 18.91 17.79 16.75 16.12 15.79 14.86 13.89 12.95 11.07 9.79 8.96 8.77 7.94 6.68
24.60 24.80 24.82 25.07 25.93 26.59 24.79 24.29 23.82 21.83 21.41 20.26 19.21 17.81 16.46 16.70 17.10 16.72 16.89 15.57 17.58 18.61 20.67 20.64 20.85 20.03 19.81 19.39 18.80 17.44 16.27 14.98 14.31 13.63 13.21 12.36 10.62 9.14 8.14 7.22 6.59 3.99 2.97 2.36
20.02 20.97 21.00 21.62 21.64 22.18 21.86 21.83 20.84 19.95 19.68 18.92 17.04 15.55 15.17 15.98 16.42 16.77 14.69 13.98 17.62 20.04 20.03 19.44 18.40 17.85 17.75 17.31 16.95 16.19 15.18 13.85 13.24 12.30 11.31 9.88 9.04 8.14 6.44 3.96 3.07 1.55 2.34 2.81
13.47 11.01 11.67 14.05 16.49 18.57 19.66 19.99 19.30 18.14 17.41 16.45 15.91 15.32 13.62 12.56 13.02 13.21 14.88 14.43 16.89 18.07 18.08 17.72 17.63 17.34 17.08 16.83 15.98 14.74 14.21 12.73 11.51 10.85 9.35 7.92 6.70 5.18 3.66 2.52 1.24 0.62 -0.33 -3.90
6.51 8.14 9.17 10.55 11.81 14.90 16.64 16.48 16.33 16.23 15.05 14.87 14.28 13.92 13.30 13.52 14.19 12.12 10.12 15.69 16.38 16.14 15.85 15.53 15.16 14.83 14.61 14.18 13.32 12.46 11.55 10.67 9.52 8.62 7.24 5.88 5.02 3.78 1.85 -2.22 -3.09 -3.17 -6.52 -7.09
10.11 13.20 11.65 12.85 12.92 13.02 11.05 12.44 13.20 13.05 12.82 13.05 12.71 12.88 12.23 10.66 11.17 13.67 14.67 14.99 15.18 15.14 14.51 14.45 14.35 14.16 13.23 12.35 11.47 10.57 9.81 8.61 7.75 5.80 4.22 3.08 1.51 1.31 1.27 -1.35 -3.52 -10.12 -8.30 -6.13
13.24 12.73 11.25 10.04 11.36 11.51 12.27 13.03 12.75 12.12 11.17 10.55 10.74 11.71 12.09 12.91 11.15 12.78 13.79 13.97 14.79 12.97 11.45 10.84 10.98 10.75 10.23 9.74 9.45 9.69 8.65 7.63 6.97 5.75 4.82 3.22 0.44 -2.12 -4.88 -4.31 -5.40 -7.76 -11.75 -14.29
15.33 15.71 12.13 11.55 13.80 14.44 13.77 12.85 10.39 10.71 9.89 8.23 9.17 10.06 10.77 11.93 12.46 12.44 12.65 12.22 11.70 11.35 10.99 10.19 9.02 8.87 8.79 8.44 7.56 7.22 7.52 6.99 5.72 4.58 3.11 1.58 -0.67 -4.05 -4.68 -6.85 -12.84 -15.19 -17.55 -17.91
16.04 16.65 15.49 14.11 13.96 13.69 13.11 11.84 10.43 9.53 10.20 9.32 8.22 10.48 11.07 10.95 10.78 11.00 10.88 9.67 9.18 9.88 10.16 10.50 10.07 8.87 7.50 6.60 5.92 5.82 5.50 4.61 3.02 1.92 -0.34 -2.00 -4.42 -9.77 -13.02 -13.56 -15.92 -17.91 -19.00 -19.36

GFSNGP_sfc_wetblb_114.txt.gz
Wetbulb
26.40 27.94 27.46 26.11 25.93 26.25 24.64 25.85 21.53 24.58 24.08 29.16 31.93 34.04 35.41 38.01 43.91 45.81 46.04 46.43 46.69 49.31 49.31 49.16 51.33 55.84 55.88 55.30 54.97 54.89 54.34 54.96 55.02 56.06 56.47 56.21 55.61 55.37 55.38 56.06 55.96 55.88 55.94 56.11
24.28 27.52 27.05 24.94 26.03 26.33 26.42 26.89 25.75 26.73 25.95 33.34 34.97 35.92 35.64 40.08 44.29 45.61 46.24 46.77 47.58 49.72 48.68 47.74 48.31 49.21 55.76 55.14 54.49 54.67 54.04 54.20 54.80 55.46 55.47 55.57 55.11 55.23 55.21 55.08 55.30 54.94 52.95 51.34
19.62 25.16 25.09 20.19 24.93 25.77 26.51 28.20 27.59 23.38 28.85 32.51 32.74 35.45 41.37 43.18 45.71 45.93 46.89 47.17 47.42 47.29 46.13 46.43 46.23 47.43 48.52 55.40 54.85 53.83 54.42 54.92 54.43 54.78 54.30 54.73 54.83 54.99 54.04 49.22 47.81 44.90 43.52 44.01
20.09 22.99 11.77 23.44 29.76 29.25 27.61 29.43 30.56 31.13 32.37 35.48 36.14 42.24 44.08 46.34 45.93 46.04 45.50 44.74 44.33 44.20 43.87 44.26 44.86 45.71 47.58 50.33 55.16 54.43 54.15 54.75 55.00 54.67 53.73 53.76 53.24 46.56 43.51 42.05 40.62 38.98 37.39 37.17
13.61 17.91 21.59 24.11 28.01 28.90 30.21 28.67 34.27 33.28 35.72 36.48 40.55 42.92 41.49 46.69 45.59 43.75 42.21 41.83 41.57 42.44 41.81 42.09 43.25 44.50 46.96 49.83 55.54 54.67 53.91 53.93 54.24 54.39 52.51 48.41 44.29 41.20 39.52 38.00 36.22 34.95 34.88 34.39
20.86 15.45 10.04 23.72 30.65 36.75 35.18 22.64 36.00 36.23 37.59 38.02 39.13 35.78 39.98 43.76 42.18 40.71 40.17 39.78 39.50 40.41 40.29 39.99 40.69 43.42 47.00 53.21 54.99 54.05 54.14 53.78 53.57 51.57 48.48 44.22 40.77 38.57 36.91 35.30 33.61 33.28 32.20 32.78
22.23 19.31 21.93 28.74 32.42 36.41 22.69 25.44 35.71 37.89 39.38 38.23 36.98 38.78 42.56 41.80 39.67 39.17 38.43 37.99 39.23 39.67 37.86 37.34 39.43 41.98 43.34 42.65 41.69 44.41 45.78 46.87 47.41 46.84 43.44 40.46 37.78 36.56 34.84 33.26 32.30 31.10 30.52 31.09
23.90 19.01 13.88 35.41 35.31 28.52 36.16 39.72 39.77 40.39 41.12 39.65 40.79 43.62 40.87 38.86 37.87 36.76 37.09 37.49 37.61 36.86 35.86 35.40 36.68 39.18 38.90 38.57 38.97 39.56 39.56 38.54 37.75 38.20 38.09 36.82 34.94 33.88 33.20 31.98 30.49 29.60 29.20 29.41
26.56 23.89 32.96 36.03 37.74 40.25 40.99 39.51 39.56 37.71 38.65 41.68 40.66 40.65 38.03 36.95 36.30 35.72 35.56 36.31 36.16 34.98 34.11 33.56 33.88 35.21 34.84 36.19 36.97 35.47 35.03 33.95 34.18 34.18 33.76 33.46 32.29 31.42 30.24 30.14 29.17 28.52 27.97 27.36
30.47 33.62 34.25 35.71 38.94 41.28 40.27 39.12 41.63 41.29 41.60 41.65 39.51 38.89 36.27 34.20 33.19 32.96 33.67 34.76 34.74 33.42 32.06 31.32 31.81 31.99 32.33 34.16 34.66 32.50 30.88 30.09 30.70 30.88 30.01 30.13 30.73 30.27 29.20 28.99 28.26 26.73 24.88 23.44
31.47 34.50 35.88 38.24 38.93 38.39 39.72 40.77 35.71 35.44 34.86 35.90 35.30 33.73 32.46 30.93 30.77 30.95 31.45 33.05 33.45 31.83 30.93 30.18 30.48 29.84 30.42 30.58 30.15 28.11 27.41 27.39 27.13 26.75 26.12 25.76 25.93 25.82 25.86 26.76 27.11 25.19 24.64 24.39
28.56 34.89 34.83 36.76 39.61 38.85 36.09 35.43 36.74 34.02 31.70 32.56 33.05 31.30 30.37 28.66 28.90 28.93 29.08 30.36 30.32 30.16 29.53 28.70 28.73 27.96 28.24 29.16 28.76 27.51 26.77 26.50 26.15 25.66 25.52 25.63 25.35 25.49 29.08 28.55 28.67 28.35 27.48 25.68
33.92 36.74 39.77 38.58 37.62 37.21 34.23 33.34 32.54 32.39 31.77 29.67 29.31 28.79 28.19 26.79 25.99 26.34 26.24 26.24 26.53 27.54 27.32 26.59 26.14 26.00 26.98 27.23 27.11 26.27 25.19 25.61 25.16 25.04 24.82 24.64 24.75 24.23 23.07 26.71 28.73 28.55 28.15 27.56
34.03 35.23 34.49 35.39 35.99 37.66 34.63 32.44 31.22 29.57 29.24 28.57 27.81 27.39 26.07 24.92 23.86 22.77 22.42 23.36 23.17 23.31 25.77 25.23 24.16 23.34 24.70 25.81 25.16 24.20 24.03 24.17 23.90 23.89 23.79 23.66 23.55 23.23 22.78 21.35 20.51 21.87 26.09 25.93
30.30 33.31 32.12 33.54 33.78 35.27 36.48 33.35 28.91 26.97 26.58 25.76 26.53 25.76 25.23 23.04 21.74 21.19 21.64 20.91 18.70 20.08 21.43 23.10 22.51 21.99 23.18 22.99 22.00 21.40 21.25 21.23 21.58 21.82 22.33 22.39 22.17 21.30 20.76 20.15 19.15 18.23 18.79 19.88
29.04 30.63 29.86 29.44 29.71 31.31 30.85 29.60 27.45 26.03 25.58 24.71 24.27 23.67 23.04 22.23 21.15 20.35 20.47 20.26 19.49 17.75 19.52 21.14 21.23 22.33 22.61 21.98 21.39 21.08 21.02 21.44 21.09 20.44 19.67 18.66 18.05 16.79 15.96 15.23 14.54 13.23 12.12 11.49
25.56 25.20 25.81 25.81 27.32 29.00 28.95 28.12 27.74 26.70 25.71 24.47 23.58 23.11 21.81 20.55 19.80 19.07 18.84 19.59 18.61 18.50 19.62 21.13 21.61 23.14 22.94 22.21 21.00 20.04 19.66 19.48 19.33 18.84 18.14 17.62 16.57 15.45 14.83 13.30 11.51 10.37 9.43 10.20
24.94 25.58 25.81 25.43 25.28 26.43 27.72 27.80 26.98 25.99 24.20 23.25 22.10 20.81 19.55 18.91 17.74 17.97 18.35 19.41 19.47 19.09 20.20 21.05 21.55 22.16 22.01 21.62 20.78 19.83 18.91 18.30 17.75 16.72 16.46 15.70 15.08 14.37 12.52 11.11 9.92 8.21 7.05 7.34
22.23 21.62 22.91 24.05 23.57 23.88 24.99 24.57 23.90 23.22 22.34 21.22 19.53 18.14 18.47 18.49 18.28 18.13 18.22 17.08 16.74 16.20 18.21 21.17 22.73 21.16 20.54 21.03 19.75 18.83 17.53 16.34 15.61 14.93 14.49 13.49 12.42 11.84 10.29 8.87 7.83 7.32 6.62 5.14
19.36 19.96 20.12 20.95 21.01 20.47 20.53 21.27 21.92 20.40 20.64 19.13 18.11 17.35 16.28 16.49 17.22 16.81 16.81 15.19 16.65 17.51 19.72 19.58 19.28 18.40 18.55 19.11 18.91 17.53 16.67 15.38 13.97 12.88 12.22 11.30 10.00 8.84 7.79 6.65 5.14 3.89 3.08 3.07
15.43 16.17 15.43 15.56 15.99 15.43 14.66 16.62 16.03 15.38 15.24 15.45 15.03 15.22 15.22 15.97 16.64 16.85 14.32 13.23 16.87 18.62 18.53 18.40 17.78 17.24 17.10 16.21 15.64 14.69 13.89 12.74 11.84 10.60 9.88 8.90 7.87 6.72 5.19 4.63 3.91 3.05 1.04 -0.20
10.71 7.67 7.44 8.96 10.52 9.82 12.14 13.75 14.22 12.63 12.94 12.19 11.68 12.55 12.78 12.37 12.65 13.34 14.69 14.02 15.97 16.36 16.45 16.13 16.08 15.51 15.13 14.86 13.66 12.53 11.51 10.50 9.38 8.66 7.16 6.76 5.00 3.28 2.80 2.38 0.87 0.35 -1.04 -2.26
3.22 4.48 4.82 5.33 5.18 6.22 6.74 8.37 8.93 9.92 10.81 10.80 11.31 11.66 11.97 13.22 13.97 11.85 10.17 15.11 15.45 14.57 14.21 13.45 12.47 12.37 12.26 11.76 10.52 9.61 8.83 7.60 6.78 6.77 5.76 5.22 4.51 3.11 2.23 0.34 -1.20 -2.12 -4.00 -3.99
3.78 5.54 3.00 3.59 5.41 7.93 5.71 7.69 9.57 10.26 10.06 11.28 11.13 12.42 12.74 11.21 11.83 14.00 13.76 13.12 12.77 12.43 11.64 11.58 11.62 11.67 10.81 9.87 8.59 7.34 6.45 5.25 4.22 3.70 3.17 2.20 1.25 0.17 -0.54 -1.30 -3.04 -5.24 -5.93 -5.45
5.86 6.40 6.18 4.41 6.45 5.39 5.84 7.39 7.63 9.17 9.44 9.68 10.76 12.64 13.28 13.68 11.89 12.37 12.26 11.40 11.94 9.37 8.81 8.97 9.31 9.55 8.76 7.57 7.02 6.15 5.47 4.77 3.72 3.46 2.92 2.36 0.85 0.03 -1.20 -1.46 -3.68 -4.72 -5.79 -9.57
8.21 7.65 6.27 6.70 5.91 6.61 8.01 8.44 6.54 7.23 7.83 7.59 9.36 10.97 11.85 12.65 12.41 12.01 11.54 10.76 9.94 8.72 7.88 7.16 7.26 6.88 6.52 6.30 5.61 4.90 4.38 4.09 3.06 2.19 1.26 -0.28 -1.47 -2.95 -4.15 -5.39 -5.75 -4.41 -8.33 -14.02
12.24 11.78 10.90 8.36 9.63 9.96 10.22 9.57 7.33 6.82 8.17 6.97 8.08 10.29 10.64 10.53 10.53 10.46 10.30 9.82 9.27 8.38 7.66 7.12 6.71 6.58 5.92 5.09 4.39 3.69 2.98 2.25 1.44 0.06 -1.82 -1.78 -2.62 -3.99 -5.04 -6.31 -8.45 -10.59 -11.87 -14.38

GFSNGP_sfc_wetblb_117.txt.gz
Wetbulb
28.49 29.57 29.54 28.63 28.32 28.96 27.72 28.79 24.79 28.53 28.17 32.15 34.52 35.63 36.84 38.58 39.35 40.40 46.55 48.30 48.82 49.24 49.81 49.66 49.08 48.86 49.16 54.91 56.12 56.20 56.10 57.17 57.51 58.02 57.62 57.31 56.90 57.03 57.00 57.06 57.09 56.82 56.48 56.14
25.42 28.71 28.59 26.34 29.12 29.13 29.00 29.47 29.11 29.51 28.69 36.26 37.23 37.67 37.47 38.64 40.29 44.57 47.20 48.84 49.36 49.60 48.92 46.74 46.54 46.80 47.21 49.07 55.69 55.98 55.86 56.74 57.57 57.33 56.86 56.80 56.24 56.22 56.14 56.08 56.03 55.23 54.46 53.09
20.09 26.66 26.56 21.74 27.04 28.38 29.47 31.25 30.45 26.13 31.40 35.76 35.06 36.31 37.74 40.45 44.36 46.73 47.22 46.88 45.98 45.75 45.74 44.77 44.29 44.93 45.97 47.47 50.69 55.01 55.09 56.50 56.28 56.49 56.03 55.95 56.06 55.75 55.10 51.75 49.33 46.71 45.37 44.96
21.42 23.57 13.53 26.87 32.38 31.68 29.65 31.32 32.88 32.54 34.31 36.11 36.96 38.96 40.82 47.40 46.78 46.03 44.81 43.37 43.34 42.66 43.21 43.81 43.75 43.94 44.74 46.60 49.43 54.73 54.86 55.32 55.65 55.88 55.45 55.67 55.02 49.52 46.24 45.17 43.69 41.48 39.02 38.25
19.47 19.36 23.83 26.73 29.93 29.56 28.35 29.21 35.99 35.06 37.18 38.35 40.82 40.96 42.49 46.46 45.21 43.25 42.07 41.36 41.22 41.56 42.30 41.94 42.23 41.62 43.32 46.46 50.63 54.29 54.42 54.52 54.71 55.69 54.32 52.23 47.16 43.53 41.15 39.41 37.49 36.23 36.14 35.46
21.83 16.44 13.82 26.03 34.11 38.07 36.34 24.55 36.65 36.16 35.60 38.77 41.38 35.59 39.90 43.57 41.34 40.92 40.61 39.92 39.84 40.74 40.76 39.56 38.93 40.26 42.52 42.75 45.83 53.69 53.99 54.38 55.10 55.03 51.71 47.39 42.67 39.99 38.30 36.28 34.13 33.60 32.93 33.33
22.61 20.66 24.32 31.47 35.14 37.62 22.90 27.32 38.39 37.57 36.15 39.90 38.64 41.44 42.15 41.03 39.77 39.59 39.20 38.80 38.91 38.74 36.77 36.16 36.71 38.11 38.61 38.59 37.19 39.33 46.25 52.50 51.85 50.68 46.85 42.93 39.38 37.34 35.19 33.69 32.66 31.79 31.08 31.37
24.92 21.70 18.49 36.60 36.15 29.98 35.67 38.33 37.56 39.93 39.52 39.04 42.68 41.61 39.75 39.14 37.71 36.59 36.03 37.01 36.88 35.94 34.94 34.58 34.76 35.18 35.13 35.26 36.67 37.67 38.63 40.92 40.58 40.51 39.67 38.30 36.39 34.95 33.93 32.70 31.25 30.22 29.67 29.64
28.05 26.25 34.17 37.22 36.68 40.49 41.59 38.35 38.54 40.35 42.06 43.00 41.46 39.04 37.57 36.03 35.04 34.58 34.72 35.44 35.40 34.01 33.05 32.77 32.50 32.47 31.47 32.87 34.08 34.18 34.64 34.49 34.98 35.08 34.88 34.89 33.84 32.84 31.89 31.90 30.60 29.53 28.64 27.61
30.23 34.11 35.92 36.51 39.42 40.77 41.03 39.53 40.26 38.21 38.11 38.94 36.60 36.18 34.97 34.54 33.16 32.53 32.85 33.49 33.41 32.27 30.73 29.97 30.53 30.37 30.61 31.03 31.37 31.10 30.18 30.92 31.87 32.17 32.01 32.34 32.27 31.88 31.19 30.10 29.17 28.15 26.55 25.10
31.04 33.70 34.27 37.17 36.63 37.98 37.33 37.74 35.72 34.88 34.92 34.48 34.95 32.56 32.19 30.83 30.56 30.54 30.46 31.00 31.44 30.29 28.92 28.39 28.83 28.23 29.49 30.08 30.28 29.57 28.73 29.04 29.10 28.91 28.31 27.80 28.26 28.27 28.44 29.67 28.95 25.91 25.52 25.50
27.90 31.67 32.28 32.65 32.83 35.49 34.73 34.39 34.21 34.30 33.23 31.87 31.80 30.17 30.05 28.03 28.36 28.20 27.83 28.18 28.38 28.72 27.35 26.88 26.96 26.89 27.43 28.53 29.22 28.37 27.16 26.65 26.91 27.22 27.91 27.64 27.11 27.12 29.87 28.90 28.60 28.18 27.29 25.47
30.46 33.30 34.53 35.04 37.06 36.17 33.87 32.88 32.20 31.63 31.00 30.23 29.18 29.07 27.87 26.45 26.12 25.95 25.67 25.31 25.32 25.83 26.23 25.35 24.76 24.67 26.67 27.54 28.01 27.46 26.31 26.49 26.65 27.06 26.84 26.04 25.74 25.03 23.78 27.23 28.89 28.51 28.09 27.61
31.01 32.85 31.10 32.48 32.78 35.25 33.60 32.25 31.60 30.41 29.53 29.38 28.73 28.56 27.26 25.85 24.57 23.45 22.51 22.49 22.68 24.00 24.32 23.92 23.26 22.70 24.34 25.51 25.65 25.39 25.19 25.47 25.36 25.64 25.59 25.31 24.76 24.52 24.24 23.13 22.80 23.42 26.88 26.66
28.81 31.16 30.06 31.80 32.35 32.48 32.72 32.19 29.91 28.45 27.91 27.33 27.17 25.78 25.06 23.29 22.15 21.57 22.36 22.72 22.01 21.83 21.47 22.01 21.21 21.59 23.64 23.82 22.65 22.19 22.39 22.80 23.66 23.64 23.51 23.42 23.02 22.45 22.12 21.75 21.21 21.22 22.15 23.50
27.95 28.83 28.18 27.60 28.16 29.82 30.14 29.43 28.71 27.37 26.91 26.05 25.13 24.07 23.19 22.81 22.15 21.44 21.22 20.85 20.67 20.26 21.09 21.19 21.46 22.93 23.75 23.46 22.59 22.12 21.77 21.65 21.09 20.40 19.92 19.57 19.17 18.45 17.93 17.41 16.80 16.63 16.45 15.56
23.09 22.78 24.23 24.29 24.82 25.82 27.49 28.18 27.78 27.20 26.29 24.69 23.87 23.30 22.00 21.30 21.01 20.06 19.84 20.99 21.03 20.82 21.62 22.15 21.77 22.83 23.18 23.05 22.17 21.34 21.03 20.93 21.02 21.02 19.86 19.95 19.37 18.06 16.97 15.91 14.65 13.98 13.47 13.86
23.25 23.41 23.76 24.42 23.34 23.69 25.20 25.79 25.46 24.86 23.64 23.03 22.06 21.37 20.35 19.61 18.84 19.18 19.55 20.89 20.68 20.23 21.66 22.31 22.76 22.63 22.27 22.59 22.00 21.47 21.11 20.52 20.07 19.31 18.53 17.33 16.27 15.83 14.87 14.05 12.65 11.34 10.70 10.42
21.46 21.01 21.39 22.89 22.24 22.12 22.81 22.95 23.37 23.15 21.87 21.02 19.53 18.47 19.33 19.33 19.25 19.27 19.51 18.88 18.80 18.54 19.26 22.01 22.31 21.95 21.17 21.46 21.22 20.57 19.50 18.45 17.84 17.26 16.63 15.42 15.08 13.94 12.94 12.01 11.09 10.92 10.38 9.55
19.38 19.70 19.55 19.67 19.70 18.85 18.75 19.83 21.17 20.39 20.74 19.69 18.22 17.90 17.48 17.72 18.22 17.66 18.04 16.88 18.20 19.18 20.79 20.76 20.70 19.89 19.98 20.26 20.17 19.44 18.32 17.45 16.08 15.69 15.24 13.89 12.94 11.80 10.97 10.00 9.84 9.61 8.89 8.62
15.90 16.49 15.47 15.38 15.29 14.68 13.87 15.83 17.13 16.99 17.14 17.66 17.61 15.66 15.45 16.70 16.83 17.28 17.16 16.59 17.87 19.20 19.54 19.36 19.42 18.71 18.54 18.16 18.50 18.29 17.22 15.98 15.21 14.07 12.79 11.58 11.28 10.44 9.86 9.66 9.11 8.46 7.88 7.12
13.40 11.07 9.84 10.06 11.34 10.99 11.30 13.25 15.30 14.77 14.56 14.22 14.30 14.91 14.31 14.86 15.01 15.11 15.65 16.43 17.69 17.11 17.98 17.64 17.36 16.27 16.40 16.64 16.87 16.71 15.64 15.04 14.18 13.47 12.33 11.54 10.47 9.45 8.75 8.61 7.80 7.49 6.98 6.79
12.01 11.11 10.89 8.96 9.20 10.21 9.92 10.53 11.16 12.59 12.79 13.31 13.81 14.78 15.53 16.47 17.21 15.91 14.10 16.31 16.93 15.78 16.51 15.98 14.00 13.44 13.51 15.58 14.94 14.39 13.51 12.92 12.43 11.88 11.39 11.02 10.60 9.89 8.98 7.97 7.66 7.16 6.37 6.12
11.89 12.18 10.80 10.16 9.65 11.15 9.80 10.77 11.86 12.57 12.38 13.54 13.64 14.54 15.61 14.89 14.72 15.85 15.47 13.76 13.09 14.40 14.77 14.41 13.29 12.55 12.88 13.71 12.97 12.27 12.15 11.30 10.97 10.64 9.68 8.91 9.07 8.63 8.06 7.07 6.57 6.59 5.41 5.05
12.06 11.79 11.46 10.57 11.34 11.42 10.39 11.32 11.67 11.78 12.07 12.95 13.60 15.03 15.40 16.01 14.85 14.18 14.18 13.34 12.91 12.61 12.65 10.65 10.83 11.24 12.46 12.33 11.77 11.07 11.03 11.16 10.62 10.21 9.69 9.03 8.52 7.83 7.58 6.63 5.98 6.01 5.16 5.03
14.62 14.73 13.46 11.87 12.37 12.84 13.13 12.79 11.38 11.88 12.21 11.68 12.47 13.67 14.26 14.63 14.03 13.63 12.99 12.09 12.07 11.06 11.92 11.88 11.47 11.40 11.24 10.60 10.12 9.93 10.01 9.53 9.33 8.67 8.19 7.90 7.57 7.18 6.18 5.66 5.15 5.08 4.73 3.99
14.59 13.34 13.84 13.22 13.18 13.38 12.94 11.96 11.42 10.67 11.59 11.82 11.09 12.64 12.93 13.31 13.00 12.51 11.88 11.89 11.26 10.81 10.88 10.86 10.70 10.11 10.15 10.03 9.30 9.11 8.89 8.37 7.71 7.55 7.49 7.05 6.65 6.57 5.55 5.51 5.12 4.23 3.01 2.05

GFSNGP_sfc_wetblb_120.txt.gz
Wetbulb
30.69 31.91 31.86 29.95 30.10 31.28 29.55 31.26 28.21 32.40 33.16 36.29 38.80 39.71 40.46 41.44 42.30 43.04 44.47 46.49 50.35 52.22 53.58 53.36 51.79 51.16 49.71 48.20 49.27 52.89 56.46 57.43 58.19 59.19 60.47 60.75 60.96 59.16 59.33 59.43 58.63 58.40 58.72 58.33
27.56 31.14 31.41 29.16 31.33 32.04 32.51 32.94 33.12 33.63 33.26 39.80 40.59 40.49 40.11 41.10 41.86 43.01 45.87 49.06 51.09 51.36 51.12 49.97 49.24 47.46 45.98 47.04 47.65 48.68 55.94 56.38 58.47 59.07 59.31 59.93 60.13 58.80 58.38 57.81 57.48 57.11 57.13 54.04
23.15 29.25 28.99 24.43 29.76 31.11 32.45 34.35 33.87 30.25 35.65 39.16 38.17 38.94 40.52 41.57 42.67 45.58 47.99 48.91 48.98 48.88 48.51 48.63 48.85 46.53 44.31 45.31 47.04 47.89 53.06 56.61 57.95 58.87 58.71 59.54 58.96 58.25 56.91 55.06 52.33 47.90 46.38 45.16
23.70 26.41 16.71 29.98 35.60 34.46 32.25 33.83 35.64 35.72 36.90 38.34 39.50 41.92 44.33 45.78 45.17 46.87 47.05 46.84 47.19 47.16 46.73 47.31 47.38 47.25 44.13 44.30 45.84 47.83 49.94 55.98 57.28 57.89 57.66 58.81 57.77 56.21 51.18 48.90 46.17 42.53 39.89 39.82
22.09 22.90 27.22 30.02 32.98 32.45 31.49 31.51 36.69 36.35 38.69 40.24 42.35 44.10 45.03 46.97 46.97 46.01 45.56 45.58 45.89 45.96 45.00 45.02 43.71 42.57 42.34 43.84 44.06 45.04 49.15 55.11 56.14 56.99 56.55 56.96 52.75 49.28 45.38 41.90 40.18 38.79 37.86 37.07
25.50 19.21 16.49 28.57 34.75 38.35 37.97 28.21 39.59 39.41 38.57 36.69 38.12 37.06 41.68 43.60 43.80 43.16 42.84 42.97 42.62 42.88 42.74 41.17 39.16 39.42 40.76 39.77 39.35 38.90 41.01 50.07 55.56 55.78 55.44 51.13 46.22 42.46 40.98 38.34 35.95 35.85 34.66 35.12
24.03 23.37 26.92 34.50 37.43 39.52 25.51 30.16 40.12 38.56 35.95 33.23 36.86 38.76 40.35 40.85 39.63 39.51 39.77 40.20 40.05 40.18 38.26 36.64 36.19 36.51 36.73 36.57 36.11 37.39 39.19 41.05 54.06 54.14 50.17 45.46 41.55 39.11 37.20 34.90 33.82 33.02 32.65 33.49
27.26 24.26 20.35 38.01 36.79 30.96 37.30 41.47 38.68 37.72 38.70 40.20 41.65 40.56 39.50 39.36 38.15 37.43 37.40 37.62 37.40 36.37 35.18 34.74 33.79 33.91 33.28 32.29 34.04 35.97 37.57 37.41 45.37 45.79 42.71 40.38 37.77 36.36 35.36 33.83 31.85 30.98 30.26 29.87
29.91 29.54 37.99 38.81 37.76 41.38 41.56 39.98 39.11 38.90 39.35 39.60 38.56 38.08 37.71 36.37 35.37 35.62 35.28 35.25 35.70 34.36 33.21 32.53 31.75 31.29 30.64 31.60 32.41 34.99 34.72 34.55 33.74 37.71 38.37 37.72 35.81 34.36 33.62 33.28 31.60 29.82 28.71 27.46
30.40 32.58 32.82 34.62 35.43 37.84 39.22 37.01 36.61 37.25 37.88 37.90 35.67 35.56 34.70 33.35 32.68 32.70 33.25 33.44 34.30 33.86 32.18 29.84 29.47 29.41 29.79 31.22 31.67 32.30 32.25 31.96 33.04 31.95 32.31 33.29 33.61 33.58 32.98 31.96 30.64 28.94 27.71 26.64
31.32 32.22 33.42 34.90 34.74 33.35 35.30 35.70 35.53 36.85 36.85 35.70 35.71 34.19 32.89 30.82 30.04 30.85 31.50 31.89 32.70 31.58 31.28 29.32 27.98 27.70 29.05 30.12 31.32 29.76 30.78 31.23 31.37 31.62 29.55 29.30 30.73 30.60 29.77 30.35 29.67 27.47 26.30 25.47
27.77 31.24 31.41 32.87 33.23 35.38 34.56 34.61 35.11 35.84 35.43 35.06 34.61 33.07 32.85 30.94 30.21 29.47 28.98 29.57 29.45 29.53 29.70 29.67 26.50 25.93 27.34 29.32 30.16 29.19 28.44 28.65 28.91 29.76 29.51 28.54 27.45 26.84 29.87 29.19 29.22 28.87 28.02 25.84
30.27 33.71 35.24 34.64 36.67 35.30 35.14 34.48 34.86 34.66 33.85 32.32 32.48 31.64 30.98 29.31 27.82 27.38 27.27 26.54 26.51 26.73 26.85 27.57 26.89 24.63 25.41 27.52 28.63 28.56 27.88 28.10 27.88 27.56 27.55 27.34 26.30 25.42 24.33 26.88 28.47 27.81 27.54 27.10
33.03 33.18 31.85 32.00 31.15 34.26 34.27 34.71 34.93 33.55 32.34 30.61 29.77 29.34 28.46 27.81 27.19 25.83 24.94 24.90 25.46 25.07 24.93 24.92 24.89 24.77 25.44 25.48 25.76 26.67 26.64 26.90 26.52 26.69 26.16 26.16 25.41 24.91 24.77 23.52 23.13 23.97 27.09 26.60
31.43 32.50 31.24 32.29 32.72 32.39 33.89 34.24 33.94 32.20 30.41 29.31 28.84 27.27 26.65 25.06 24.63 23.97 24.24 25.22 25.85 24.38 23.30 23.61 23.61 24.34 26.61 25.51 24.19 23.42 24.02 24.17 24.17 24.35 24.51 24.79 24.77 24.03 23.79 23.33 22.41 22.63 22.86 23.58
30.68 30.79 30.89 29.67 29.09 29.60 30.47 30.66 30.01 30.01 30.30 28.92 27.55 26.57 25.80 25.24 25.11 24.32 24.11 23.89 23.64 22.68 23.24 22.98 22.99 24.64 26.33 26.26 25.31 23.69 22.55 22.51 22.34 21.71 21.32 20.79 20.71 20.82 21.05 21.94 22.04 21.62 19.96 19.23
26.72 25.91 26.60 27.13 27.03 27.02 27.66 28.34 28.27 27.85 28.18 27.38 26.26 26.07 25.72 24.54 24.35 23.17 23.37 24.12 24.07 23.95 24.16 23.68 23.28 24.80 25.56 25.65 25.57 25.51 24.71 23.97 23.12 22.04 20.85 20.39 20.09 19.43 19.74 19.88 19.23 18.75 18.89 20.13
26.81 26.75 26.58 26.58 25.45 25.59 26.61 27.31 27.35 26.68 25.35 24.92 23.80 23.33 22.69 22.62 21.94 22.08 22.95 24.16 23.47 22.40 23.72 24.43 24.76 24.66 24.86 25.53 25.82 25.62 24.81 24.11 23.81 22.66 22.53 21.07 20.08 20.30 19.47 17.96 17.00 15.57 15.37 16.36
25.22 24.50 24.78 24.85 24.29 24.20 24.88 24.57 24.19 24.59 23.82 23.08 22.35 21.60 21.79 21.76 22.57 22.58 23.48 23.53 23.53 22.84 22.26 24.38 24.32 24.60 24.30 25.05 25.43 24.83 23.49 22.54 21.80 21.28 21.06 20.19 19.85 19.31 18.38 17.35 16.08 15.53 15.62 16.00
23.75 23.80 23.13 22.68 22.37 20.61 20.13 20.85 21.37 22.56 22.15 22.51 21.35 21.14 20.97 20.58 21.16 21.26 21.92 20.50 21.01 22.19 23.41 23.74 24.09 23.73 23.58 23.63 24.27 24.37 23.69 22.85 21.37 21.28 20.27 19.26 18.74 17.07 16.51 15.38 15.68 15.62 15.43 15.16
20.23 20.56 18.96 18.11 18.24 17.89 16.62 17.92 19.38 19.09 19.78 19.70 20.74 18.85 19.26 20.21 20.21 21.83 23.29 22.38 21.21 22.14 22.83 22.48 23.38 23.56 23.25 23.44 23.22 23.27 22.72 21.93 21.05 20.35 18.81 16.97 16.30 15.69 15.51 15.45 14.94 14.32 14.02 13.79
19.01 16.81 15.62 14.96 15.37 16.16 15.78 17.05 17.94 17.43 17.96 18.11 17.79 18.24 18.92 19.89 19.50 19.36 18.89 21.23 21.88 21.10 22.46 22.16 20.99 19.93 21.29 22.70 23.82 23.70 22.65 21.82 20.71 19.60 18.18 17.09 16.55 15.94 15.44 15.10 14.32 14.32 14.45 14.28
19.25 18.28 17.96 14.45 14.37 15.96 15.55 15.52 15.75 16.46 16.33 17.30 17.81 19.44 20.40 21.06 21.79 21.91 20.78 20.48 21.05 20.11 20.92 19.57 16.86 17.55 19.69 22.96 22.82 22.13 21.04 20.22 19.36 18.63 18.19 17.72 17.13 16.27 15.35 14.67 14.35 14.37 13.97 13.36
18.83 18.43 17.61 16.95 15.70 16.57 15.79 16.78 16.50 17.18 16.21 17.72 17.32 17.63 20.61 21.23 20.07 20.50 19.30 17.35 17.39 18.71 18.63 18.23 17.02 17.15 19.13 21.00 20.43 20.01 19.84 19.36 18.83 18.39 17.43 16.14 16.76 15.58 14.99 14.35 13.93 14.01 12.31 12.26
18.14 17.99 17.39 16.88 18.16 18.55 16.99 17.48 17.04 17.14 16.73 17.99 18.06 19.18 19.24 20.09 20.35 19.00 19.10 18.15 17.01 18.49 17.54 14.65 15.76 17.09 19.96 19.68 19.08 18.53 18.53 18.48 17.92 17.51 16.94 16.47 15.45 14.57 14.37 13.57 13.08 13.25 12.23 11.95
20.33 20.53 19.76 16.86 17.10 18.08 18.30 18.20 17.33 17.87 18.04 18.41 18.34 19.12 19.29 19.07 18.69 18.43 17.84 16.90 17.67 17.02 18.13 18.17 18.09 18.23 18.07 17.72 17.27 16.48 16.40 16.07 16.44 15.90 15.39 15.45 14.89 14.04 13.06 12.06 11.70 11.93 11.66 11.31
20.44 17.25 19.37 18.98 18.48 17.86 17.31 16.63 17.01 16.72 17.43 18.25 16.65 18.13 18.21 18.22 17.63 17.43 17.07 17.83 17.41 17.09 17.41 17.46 17.09 16.62 16.72 16.52 15.89 15.67 15.28 15.14 14.35 14.60 14.43 14.13 13.90 12.98 12.06 12.02 11.88 10.89 9.36 8.15

GFSNGP_sfc_wetblb_123.txt.gz
Wetbulb
31.75 33.09 32.80 32.20 31.58 32.42 30.05 31.14 28.20 33.30 34.06 36.80 41.04 41.03 42.10 42.73 43.07 43.40 44.05 45.82 48.33 50.40 53.22 53.99 54.16 53.71 53.30 51.84 53.02 52.69 50.55 52.10 57.67 59.08 59.96 59.67 59.99 60.04 60.30 60.57 60.30 60.17 59.80 59.48
27.95 32.10 32.71 30.22 32.18 33.00 33.36 32.69 33.06 34.32 34.61 41.18 42.52 42.62 41.53 41.92 42.53 43.15 43.97 46.19 49.71 52.06 52.01 51.77 51.87 51.89 51.50 50.71 48.41 50.85 49.19 49.73 56.16 58.86 58.54 59.11 59.33 59.38 59.58 59.73 59.50 58.69 58.31 55.83
24.10 30.52 30.44 26.08 31.09 32.68 33.60 34.96 34.21 30.24 35.95 40.49 39.16 39.92 41.02 42.82 43.92 44.42 44.73 49.40 50.19 49.69 50.16 50.32 50.17 49.89 48.96 48.59 48.88 47.50 48.71 49.73 51.55 57.83 57.93 59.82 59.30 58.85 58.60 58.53 56.02 51.05 48.46 47.21
24.78 27.78 18.05 31.11 36.29 35.73 33.82 34.97 36.46 36.76 37.88 39.17 40.24 43.19 44.65 45.58 44.93 46.04 48.57 48.57 48.56 49.22 49.11 49.17 48.81 46.83 45.36 46.64 47.00 46.22 45.87 46.89 49.85 57.03 58.46 59.45 58.41 57.25 55.25 52.63 47.12 43.45 41.51 40.77
22.14 22.27 27.79 31.17 34.17 34.59 33.49 33.33 38.22 37.66 39.11 41.05 42.65 42.34 43.00 47.77 48.43 47.29 45.95 46.79 46.78 47.33 46.89 46.80 44.06 42.96 42.97 43.62 44.11 43.81 42.02 43.03 44.12 55.87 58.45 58.60 55.82 51.33 47.59 44.55 41.92 39.61 38.88 37.63
26.49 20.66 18.11 28.88 35.74 39.62 38.90 29.37 40.52 40.94 39.84 39.73 39.41 33.21 38.28 40.89 42.09 41.83 42.76 43.04 42.99 44.34 43.65 41.79 40.01 39.63 40.28 39.50 39.47 38.82 37.66 38.82 41.29 43.67 57.07 55.32 48.75 45.27 43.38 40.58 37.96 36.85 35.70 36.11
26.66 24.78 28.04 35.56 39.07 40.50 26.93 30.48 40.44 39.48 37.55 35.91 33.19 36.97 39.47 40.14 39.49 39.62 40.92 40.03 41.03 41.37 39.29 37.27 37.17 36.35 36.47 36.86 35.25 35.08 36.92 38.48 39.98 42.52 53.00 49.24 44.01 40.95 38.37 36.25 35.30 34.10 33.37 34.10
27.64 25.67 22.29 36.36 38.21 32.59 36.52 40.52 38.79 38.99 36.27 33.57 37.97 38.92 38.88 38.46 37.25 37.74 37.61 38.81 40.13 39.69 38.26 37.06 34.47 33.00 32.76 33.46 33.77 34.62 36.23 36.41 36.35 43.12 46.56 43.74 40.54 37.32 36.04 34.72 32.98 31.91 31.36 30.59
29.44 28.44 35.67 35.63 34.38 36.24 37.29 38.48 37.19 36.46 36.53 38.55 37.10 36.55 36.31 35.23 34.83 35.24 36.61 37.82 38.98 38.47 38.01 37.23 34.57 30.71 29.72 30.86 32.37 33.11 34.45 33.94 34.46 34.94 39.58 40.15 37.78 35.25 34.24 33.86 32.15 30.58 29.61 28.39
30.54 32.02 32.15 34.62 35.22 35.09 34.77 33.86 36.35 37.70 38.23 38.45 35.87 36.22 35.59 34.88 35.41 35.63 36.06 35.54 36.59 35.84 35.16 34.46 33.37 30.85 28.74 30.44 31.92 31.78 31.68 32.31 32.67 32.55 32.10 34.31 35.39 35.04 33.74 32.39 31.01 29.51 27.74 26.50
32.51 33.08 33.39 35.24 35.45 35.21 36.03 36.18 36.59 37.98 37.86 36.60 35.95 34.46 34.57 33.51 33.28 33.48 33.03 33.33 33.36 32.28 31.13 31.96 32.05 29.42 27.60 29.34 30.86 30.55 30.43 31.34 31.72 31.47 30.04 29.12 29.50 30.61 30.53 31.56 31.55 28.79 27.48 26.51
28.77 32.89 31.34 33.87 34.54 36.35 35.19 34.30 35.36 35.19 35.14 36.29 34.92 33.30 33.37 31.51 31.09 30.19 29.72 29.90 28.84 28.65 28.24 28.55 29.84 28.50 26.23 28.03 30.04 29.80 29.11 29.21 29.80 30.11 29.34 27.93 27.13 27.16 29.85 28.66 28.76 28.47 27.87 26.41
31.29 34.71 34.88 35.27 35.92 35.40 34.66 34.73 35.42 34.75 34.08 32.73 33.37 32.52 31.40 29.34 28.78 28.12 28.05 27.03 26.09 25.53 25.90 26.78 27.43 26.81 26.63 26.87 28.49 28.21 27.75 28.50 28.53 28.24 27.47 26.39 25.49 24.35 23.01 26.71 28.66 28.17 27.71 26.96
35.00 34.64 32.34 33.33 31.42 34.09 34.64 35.69 36.69 35.46 34.62 33.05 31.79 31.81 30.64 28.47 27.70 26.17 25.12 26.67 26.46 25.68 24.93 25.37 25.69 25.77 26.99 26.10 25.97 26.04 26.19 26.30 27.11 27.25 26.41 25.84 25.28 24.71 24.03 22.73 21.77 23.09 26.55 26.29
33.48 34.62 33.71 34.91 35.23 34.76 35.20 34.85 33.81 32.17 32.10 31.73 31.59 30.17 28.51 26.88 25.78 25.23 25.73 26.28 27.59 25.62 24.83 24.55 24.69 25.67 28.02 26.17 24.43 23.05 23.64 24.02 25.24 25.48 25.95 25.58 24.61 23.90 23.27 22.51 21.61 21.28 22.34 23.61
33.79 34.75 34.08 33.36 32.80 32.81 32.95 32.03 30.12 29.79 29.86 29.75 28.88 28.51 28.38 27.86 26.83 26.31 25.91 25.87 24.62 23.93 24.26 24.07 23.96 26.16 27.67 28.24 26.00 24.72 23.66 23.61 23.14 22.98 23.81 24.31 23.89 22.27 21.22 20.51 19.55 19.25 19.37 19.95
29.53 28.62 29.47 29.38 29.75 30.02 30.35 30.83 29.26 27.86 27.72 26.90 26.25 26.42 26.74 26.86 26.41 25.29 25.42 25.64 25.06 25.11 25.29 24.97 24.76 26.24 27.51 28.39 28.06 26.97 25.17 23.77 22.65 22.07 21.58 21.73 22.05 21.71 21.54 21.04 21.21 21.90 23.29 24.08
30.08 30.07 29.82 28.65 27.66 27.52 28.24 28.53 27.39 26.26 24.95 24.99 25.09 24.97 24.32 24.19 23.68 24.41 25.52 26.91 26.81 24.58 25.47 25.55 26.48 26.65 26.50 27.17 27.56 26.76 26.47 25.48 24.14 22.91 22.53 21.33 20.61 20.74 19.41 18.84 19.50 19.30 20.60 21.40
28.59 27.62 27.47 26.87 26.32 25.47 25.72 24.81 23.79 24.37 23.97 24.40 23.75 23.54 23.48 23.56 23.81 24.49 25.34 24.66 24.55 23.43 24.05 25.96 25.73 25.80 25.56 26.80 26.90 26.84 25.49 23.98 23.35 23.01 22.62 21.71 20.93 19.50 18.93 18.95 18.83 18.97 19.02 19.43
26.41 26.31 25.15 24.18 24.12 22.52 20.99 21.40 22.06 22.32 22.59 22.31 23.99 23.66 23.41 22.35 23.34 24.41 24.19 22.17 22.60 23.38 25.28 26.16 25.96 25.17 25.44 26.36 26.26 25.70 25.23 24.05 22.89 22.94 22.37 21.21 20.17 19.11 19.40 19.00 19.38 19.38 19.45 18.98
23.16 23.31 21.25 19.76 19.67 20.22 18.83 19.74 20.08 19.52 20.60 21.18 21.03 21.03 21.51 22.14 22.09 22.63 26.09 22.81 22.77 24.94 25.33 24.67 24.90 25.44 25.67 26.33 26.09 26.17 25.39 24.63 23.87 22.72 20.84 19.98 19.94 19.66 19.06 18.83 18.30 18.15 17.88 17.63
22.81 20.41 19.78 17.82 17.73 18.91 19.06 19.51 19.45 19.18 19.48 20.10 20.39 20.98 22.39 23.60 22.86 21.60 21.47 22.58 23.38 24.24 24.44 23.59 23.03 23.70 25.76 26.03 26.29 25.64 24.76 23.79 22.66 22.04 21.16 20.87 20.02 19.06 18.23 17.77 16.82 16.99 16.96 16.95
23.29 21.83 21.40 18.42 17.63 19.13 20.53 20.15 18.32 19.35 18.00 19.16 18.92 20.41 21.87 22.48 22.36 22.26 21.22 21.76 22.95 22.97 22.04 20.89 21.00 22.87 24.48 26.09 25.91 25.20 24.03 23.08 22.20 21.67 21.10 20.68 20.14 19.09 18.17 17.50 17.38 16.87 16.43 15.86
23.00 21.90 21.11 20.76 20.48 21.36 19.33 20.51 19.68 20.06 19.04 21.16 20.18 19.68 21.61 24.10 22.78 22.90 21.50 20.19 19.15 19.13 19.33 20.16 20.87 22.11 23.68 24.31 23.87 23.44 23.12 22.60 22.15 21.90 20.75 19.71 19.68 18.47 17.86 17.58 17.08 16.49 15.84 15.21
21.39 21.67 22.97 21.13 20.63 20.41 20.52 21.06 20.59 21.04 20.55 21.49 21.30 22.01 21.62 22.18 22.03 21.36 21.93 20.84 20.82 20.55 19.61 18.61 20.28 21.62 23.26 23.12 22.72 21.99 21.84 21.64 21.41 20.86 19.78 18.98 18.44 17.93 17.57 16.76 15.94 15.65 14.61 14.33
22.35 21.77 21.64 20.70 20.18 20.29 20.03 20.16 19.18 20.38 19.94 20.68 20.88 21.89 22.22 22.08 21.42 21.14 20.40 20.26 20.71 20.16 20.13 20.63 21.07 21.25 21.12 20.46 20.01 19.61 19.65 19.62 19.68 19.52 18.88 18.43 17.72 17.22 16.01 14.97 15.19 15.33 15.06 14.61
23.77 19.24 21.24 21.65 21.61 20.42 19.32 18.57 19.01 18.75 19.50 20.38 19.28 20.95 20.88 20.93 20.28 20.26 20.57 20.94 20.69 20.04 19.56 20.06 19.85 19.39 19.78 19.71 19.25 19.05 18.69 18.72 18.18 18.23 17.89 17.31 16.75 15.96 15.40 15.24 14.63 14.00 12.35 10.46

GFSNGP_sfc_wetblb_126.txt.gz
Wetbulb
30.67 32.17 32.23 31.02 30.68 31.58 30.03 31.10 26.80 29.74 30.55 33.63 35.09 37.83 42.14 43.95 42.38 42.34 43.14 44.32 45.25 47.10 51.77 51.75 51.53 51.74 52.13 51.79 51.76 50.61 48.92 50.33 51.18 53.01 58.54 59.77 60.06 60.17 59.89 59.89 59.56 59.98 59.70 60.16
27.20 31.82 32.03 29.66 31.84 32.21 32.22 32.69 32.44 32.29 31.28 39.05 41.67 41.28 41.11 41.53 42.08 42.61 43.81 44.81 46.44 50.76 50.29 49.99 49.82 49.92 49.81 48.91 48.09 49.13 48.84 48.60 50.61 51.00 55.82 58.86 58.99 58.97 58.72 58.89 58.51 58.53 57.99 56.37
23.10 29.91 29.38 24.89 30.45 31.90 32.33 33.98 33.36 28.92 34.05 38.92 38.20 40.07 41.33 42.44 43.33 43.58 44.26 47.58 48.45 48.24 48.11 48.35 47.95 47.82 45.79 45.46 46.69 46.80 46.74 47.13 47.90 47.56 51.79 58.00 58.55 58.59 57.55 57.33 55.15 50.90 48.80 46.93
24.01 26.82 17.00 29.87 35.67 36.51 33.54 34.14 35.62 35.50 36.62 39.19 39.40 41.15 43.22 44.66 44.34 44.68 46.02 46.23 46.43 46.22 46.32 46.73 46.46 44.19 43.15 43.85 44.22 44.04 44.41 45.06 44.38 43.79 46.93 55.10 58.13 57.44 55.25 51.29 48.12 44.73 42.38 41.06
22.64 22.42 27.45 30.68 33.45 33.69 32.58 32.22 38.50 37.28 37.56 37.78 39.55 40.23 40.34 41.89 42.14 41.66 42.54 42.65 42.62 44.02 43.97 43.69 41.58 40.38 40.03 41.13 41.97 41.22 40.27 40.23 41.04 40.76 41.91 46.46 52.76 53.26 48.82 44.81 41.95 39.62 38.93 37.61
25.96 21.12 17.97 28.36 32.08 37.76 38.57 27.40 38.15 37.91 35.56 35.10 35.81 31.62 36.08 39.26 39.77 39.84 40.59 40.94 40.74 41.82 41.74 39.80 38.27 37.11 35.99 37.75 37.99 36.94 35.98 36.85 38.71 39.99 40.46 43.36 49.61 48.40 44.81 41.49 38.06 37.13 35.78 36.12
26.30 23.97 27.12 31.14 34.94 38.00 26.24 26.82 37.71 37.66 35.92 34.86 32.99 35.37 37.90 39.04 38.19 38.60 38.75 39.41 40.70 40.63 39.76 38.88 37.59 34.94 33.20 33.58 34.11 34.33 35.44 36.08 37.68 38.82 39.51 42.26 47.07 43.31 39.80 36.96 35.31 33.93 33.37 33.76
25.92 21.82 18.71 33.16 33.18 26.49 30.46 35.05 35.18 35.48 35.80 36.51 36.96 36.69 36.51 36.11 35.50 36.36 36.94 37.84 38.59 38.13 37.95 38.40 36.55 33.78 30.72 30.23 32.18 33.33 34.16 34.60 36.30 37.19 38.37 45.62 42.23 40.15 37.31 35.26 32.93 31.69 30.94 30.42
28.26 26.59 34.22 34.28 33.04 34.85 34.95 33.82 34.18 35.51 37.34 37.00 35.24 34.75 35.55 35.15 35.79 35.98 35.67 35.32 35.96 35.52 35.34 35.72 34.66 32.49 29.05 28.59 30.39 31.62 32.58 32.91 34.22 35.55 35.05 36.96 38.44 36.82 35.13 34.57 32.68 31.10 29.80 28.73
29.05 32.11 31.37 33.64 35.39 35.73 35.72 34.91 36.33 37.68 36.01 35.89 34.18 34.15 33.90 33.72 33.04 33.02 33.12 32.08 32.52 31.83 30.85 30.50 31.56 30.99 29.10 28.35 29.52 30.83 30.99 31.24 32.44 32.42 31.81 32.09 32.90 34.91 34.80 33.31 32.08 30.37 28.58 26.80
30.66 32.94 32.48 34.44 35.39 34.71 36.07 36.19 34.93 35.91 35.78 34.42 34.06 32.97 32.96 31.54 30.69 30.51 30.36 29.84 29.61 28.08 27.47 27.46 28.72 28.63 28.73 27.97 28.82 29.21 30.10 29.74 30.43 30.42 29.98 28.72 28.04 28.86 31.37 31.94 32.50 30.09 28.30 26.65
27.60 32.75 31.61 32.80 34.97 35.39 34.07 33.98 34.63 33.63 33.43 34.02 33.16 32.04 31.63 29.92 29.05 28.30 27.63 27.65 26.69 26.27 25.66 26.48 26.72 26.87 27.12 27.70 27.89 27.89 28.44 28.63 28.01 28.44 27.69 27.75 26.62 26.01 29.57 29.77 30.08 29.98 29.32 27.56
31.46 34.25 35.55 35.08 35.50 35.41 33.40 34.58 35.33 34.12 33.45 31.64 31.93 30.97 30.16 28.08 27.33 26.74 26.02 26.48 25.81 25.02 24.85 25.01 25.73 25.92 26.40 26.80 27.02 26.53 26.22 27.74 26.99 26.79 26.28 25.46 25.48 24.74 23.47 27.04 28.65 27.97 27.72 27.28
35.70 34.96 31.77 33.95 32.29 35.13 35.08 34.41 35.51 33.87 33.21 32.06 30.80 30.43 28.75 27.48 27.21 25.42 24.53 25.14 27.09 25.53 24.89 24.39 24.77 25.22 26.41 26.20 25.46 24.61 25.19 26.38 25.98 25.80 25.40 24.90 24.18 23.82 23.20 22.12 21.36 22.83 26.83 26.71
34.00 35.93 34.47 35.09 35.11 34.23 34.89 33.52 31.41 30.06 29.96 29.47 29.60 28.27 28.52 26.55 25.65 25.20 25.68 25.26 26.32 25.29 24.40 23.70 23.49 24.69 27.86 26.46 24.39 23.53 23.51 24.07 25.15 24.74 24.05 23.57 23.37 22.81 22.58 22.13 21.69 21.95 23.25 24.91
33.56 34.45 33.03 32.04 31.50 31.46 31.90 30.84 28.40 27.08 27.45 26.95 26.38 26.14 26.80 27.86 26.57 26.23 25.74 25.53 23.54 22.87 23.89 24.28 23.42 25.22 27.62 28.21 25.50 24.29 23.38 23.44 23.43 23.78 22.51 21.28 20.90 19.96 19.43 19.27 19.64 20.21 20.74 21.36
29.24 27.62 28.50 27.98 27.94 28.23 28.39 28.70 27.07 25.63 25.43 24.61 24.45 25.23 25.43 25.56 26.15 25.28 25.74 27.07 24.00 24.34 24.63 24.44 25.04 26.27 27.09 27.71 27.50 24.80 23.70 23.14 22.37 21.18 20.97 21.36 21.42 20.74 20.96 21.33 21.12 20.77 21.16 22.30
30.23 29.54 28.77 27.71 25.83 25.15 25.52 25.44 24.50 23.74 23.26 23.78 24.43 24.56 23.86 23.46 23.05 23.96 24.47 26.45 26.08 23.28 24.79 25.23 25.68 26.47 26.75 27.08 26.33 25.94 24.05 23.10 22.00 20.76 20.80 19.75 19.21 19.87 19.32 19.18 19.40 19.01 19.84 20.78
28.71 26.84 26.13 25.59 24.47 23.49 22.96 22.10 21.42 22.78 22.69 22.50 22.01 23.52 22.97 23.30 23.64 24.28 23.96 21.84 21.18 21.74 23.79 26.51 26.23 26.34 26.21 26.51 26.50 25.08 24.23 22.84 21.85 20.74 19.83 19.17 18.87 18.83 18.33 18.34 18.16 18.16 18.43 18.28
26.14 25.58 24.06 22.68 22.66 21.57 19.80 20.16 20.69 20.54 21.34 21.78 20.47 21.56 22.04 20.69 21.74 21.43 24.76 21.06 22.57 23.69 25.18 25.43 26.80 25.98 26.24 26.77 26.01 25.21 24.48 23.00 21.59 20.37 19.56 19.14 18.83 18.39 18.28 17.99 17.67 17.46 17.33 17.26
23.27 22.61 21.45 19.54 19.02 20.53 18.39 19.78 19.34 18.54 19.32 20.79 19.60 19.33 20.38 22.36 20.85 20.43 23.10 21.49 22.58 25.31 24.70 23.87 24.57 25.76 26.70 26.28 26.31 25.93 24.46 22.62 21.03 20.17 19.67 19.26 18.80 18.43 17.77 17.21 16.90 16.52 15.82 15.99
24.06 21.36 20.97 17.96 18.23 18.59 20.42 20.40 18.61 19.62 17.64 19.32 18.87 19.73 21.63 23.65 22.89 21.07 20.33 21.44 23.05 23.25 22.45 22.29 23.86 25.48 26.75 26.79 26.07 25.08 23.40 22.53 21.67 20.85 20.05 19.33 18.19 17.45 16.98 16.76 16.24 16.20 15.83 14.95
24.37 22.95 22.15 19.25 18.11 19.56 21.73 20.87 17.07 20.21 16.38 18.84 17.01 18.29 19.71 22.14 21.19 20.30 18.47 20.20 21.15 21.64 21.17 21.10 22.49 24.29 25.21 26.22 25.38 24.19 22.78 21.74 20.84 20.28 19.74 19.25 18.49 17.80 16.91 16.41 16.30 15.91 15.27 14.75
22.97 22.42 22.11 22.54 21.84 22.45 19.66 21.72 20.52 21.59 18.32 21.23 20.29 17.83 21.07 21.14 21.98 22.61 22.17 19.61 17.97 18.70 19.34 21.01 22.24 22.83 23.67 24.05 23.42 22.84 22.28 21.50 20.63 19.96 19.16 17.84 17.43 16.95 16.45 16.00 15.07 14.96 14.55 14.03
23.17 23.12 24.18 21.33 20.31 19.81 20.56 21.12 20.90 21.24 20.38 22.69 21.60 22.08 21.47 21.55 20.30 20.62 21.99 21.48 21.50 20.12 20.23 20.32 20.94 21.95 22.88 22.78 22.16 21.32 21.04 20.69 19.93 19.15 18.38 17.70 17.25 16.21 15.72 15.36 14.62 13.33 12.73 12.90
22.40 21.82 22.31 22.66 21.21 20.41 19.67 19.51 18.30 20.32 19.68 20.02 20.45 21.90 22.20 22.34 21.87 21.19 20.24 20.09 19.93 19.40 19.99 20.85 21.19 20.88 20.12 19.67 19.36 19.16 19.35 19.21 18.83 18.07 17.44 16.96 16.34 15.12 13.91 13.54 13.57 13.44 12.85 11.01
24.55 21.93 21.74 21.61 21.04 20.34 19.65 19.31 18.27 18.15 18.67 17.88 19.77 20.74 21.16 21.06 20.57 20.68 20.46 20.72 19.99 19.34 19.40 18.99 19.40 19.31 19.36 19.02 18.43 18.31 18.00 18.06 17.72 17.19 16.55 15.50 14.92 14.69 14.63 14.09 12.89 10.55 8.67 7.92